<?xml version="1.0" encoding="UTF-8" standalone="no" ?>
<gpx xmlns="http://www.topografix.com/GPX/1/1" xmlns:xsi="http://www.w3.org/2001/XMLSchema-instance" xsi:schemaLocation="http://www.topografix.com/GPX/1/1 http://www.topografix.com/GPX/1/1/gpx.xsd" version="1.1" creator="VisuGPX - https://www.visugpx.com">
  <metadata>
    <name>Le Chasseron depuis le Col des Etroits</name>
  </metadata>
  <trk>
    <name><![CDATA[Le Chasseron depuis le Col des Etroits_1]]></name>
    <extensions>
      <line xmlns="http://www.topografix.com/GPX/gpx_style/0/2">
        <color>0000FF</color>
        <width>4</width>
      </line>
    </extensions>
    <trkseg>
      <trkpt lat="46.82966" lon="6.49525">
        <ele>1130.7</ele>
        <time>2022-07-17T07:17:06Z</time>
      </trkpt>
      <trkpt lat="46.82965" lon="6.49532">
        <ele>1145.8</ele>
        <time>2022-07-17T07:23:00Z</time>
      </trkpt>
      <trkpt lat="46.82961" lon="6.49539">
        <ele>1145.6</ele>
        <time>2022-07-17T07:23:05Z</time>
      </trkpt>
      <trkpt lat="46.8296" lon="6.49546">
        <ele>1145.5</ele>
        <time>2022-07-17T07:23:12Z</time>
      </trkpt>
      <trkpt lat="46.82964" lon="6.49551">
        <ele>1145.7</ele>
        <time>2022-07-17T07:23:17Z</time>
      </trkpt>
      <trkpt lat="46.8296" lon="6.49558">
        <ele>1145.3</ele>
        <time>2022-07-17T07:23:27Z</time>
      </trkpt>
      <trkpt lat="46.82957" lon="6.49562">
        <ele>1145.3</ele>
        <time>2022-07-17T07:23:31Z</time>
      </trkpt>
      <trkpt lat="46.82953" lon="6.49567">
        <ele>1146.1</ele>
        <time>2022-07-17T07:23:36Z</time>
      </trkpt>
      <trkpt lat="46.82949" lon="6.49571">
        <ele>1146.9</ele>
        <time>2022-07-17T07:23:41Z</time>
      </trkpt>
      <trkpt lat="46.82945" lon="6.49576">
        <ele>1145.8</ele>
        <time>2022-07-17T07:23:47Z</time>
      </trkpt>
      <trkpt lat="46.82941" lon="6.49581">
        <ele>1145.8</ele>
        <time>2022-07-17T07:23:51Z</time>
      </trkpt>
      <trkpt lat="46.82938" lon="6.49587">
        <ele>1146.1</ele>
        <time>2022-07-17T07:23:56Z</time>
      </trkpt>
      <trkpt lat="46.82934" lon="6.49591">
        <ele>1146.1</ele>
        <time>2022-07-17T07:24:00Z</time>
      </trkpt>
      <trkpt lat="46.82931" lon="6.49597">
        <ele>1146.1</ele>
        <time>2022-07-17T07:24:05Z</time>
      </trkpt>
      <trkpt lat="46.82928" lon="6.49602">
        <ele>1145.8</ele>
        <time>2022-07-17T07:24:11Z</time>
      </trkpt>
      <trkpt lat="46.82932" lon="6.49597">
        <ele>1144.9</ele>
        <time>2022-07-17T07:24:48Z</time>
      </trkpt>
      <trkpt lat="46.82936" lon="6.49591">
        <ele>1144.5</ele>
        <time>2022-07-17T07:24:52Z</time>
      </trkpt>
      <trkpt lat="46.82939" lon="6.49585">
        <ele>1144.1</ele>
        <time>2022-07-17T07:24:56Z</time>
      </trkpt>
      <trkpt lat="46.82942" lon="6.49578">
        <ele>1143.6</ele>
        <time>2022-07-17T07:25:01Z</time>
      </trkpt>
      <trkpt lat="46.82945" lon="6.49572">
        <ele>1143.3</ele>
        <time>2022-07-17T07:25:06Z</time>
      </trkpt>
      <trkpt lat="46.82949" lon="6.4957">
        <ele>1144.1</ele>
        <time>2022-07-17T07:25:11Z</time>
      </trkpt>
      <trkpt lat="46.82953" lon="6.49567">
        <ele>1145</ele>
        <time>2022-07-17T07:25:19Z</time>
      </trkpt>
      <trkpt lat="46.82956" lon="6.49561">
        <ele>1145.1</ele>
        <time>2022-07-17T07:25:23Z</time>
      </trkpt>
      <trkpt lat="46.82959" lon="6.49556">
        <ele>1145.5</ele>
        <time>2022-07-17T07:25:27Z</time>
      </trkpt>
      <trkpt lat="46.82962" lon="6.4955">
        <ele>1146</ele>
        <time>2022-07-17T07:25:31Z</time>
      </trkpt>
      <trkpt lat="46.82967" lon="6.49547">
        <ele>1146.9</ele>
        <time>2022-07-17T07:25:37Z</time>
      </trkpt>
      <trkpt lat="46.8297" lon="6.49551">
        <ele>1146.8</ele>
        <time>2022-07-17T07:25:42Z</time>
      </trkpt>
      <trkpt lat="46.82975" lon="6.49554">
        <ele>1146.6</ele>
        <time>2022-07-17T07:25:46Z</time>
      </trkpt>
      <trkpt lat="46.82977" lon="6.4956">
        <ele>1146.2</ele>
        <time>2022-07-17T07:25:51Z</time>
      </trkpt>
      <trkpt lat="46.82977" lon="6.49568">
        <ele>1145.7</ele>
        <time>2022-07-17T07:25:55Z</time>
      </trkpt>
      <trkpt lat="46.82976" lon="6.49575">
        <ele>1146.2</ele>
        <time>2022-07-17T07:26:01Z</time>
      </trkpt>
      <trkpt lat="46.82977" lon="6.49583">
        <ele>1147.2</ele>
        <time>2022-07-17T07:26:07Z</time>
      </trkpt>
      <trkpt lat="46.82978" lon="6.49589">
        <ele>1147.8</ele>
        <time>2022-07-17T07:26:12Z</time>
      </trkpt>
      <trkpt lat="46.82981" lon="6.49595">
        <ele>1147</ele>
        <time>2022-07-17T07:26:20Z</time>
      </trkpt>
      <trkpt lat="46.82982" lon="6.49601">
        <ele>1145.5</ele>
        <time>2022-07-17T07:26:27Z</time>
      </trkpt>
      <trkpt lat="46.82983" lon="6.49608">
        <ele>1145.7</ele>
        <time>2022-07-17T07:26:31Z</time>
      </trkpt>
      <trkpt lat="46.82984" lon="6.49615">
        <ele>1146.1</ele>
        <time>2022-07-17T07:26:37Z</time>
      </trkpt>
      <trkpt lat="46.82984" lon="6.49622">
        <ele>1148.1</ele>
        <time>2022-07-17T07:26:44Z</time>
      </trkpt>
      <trkpt lat="46.82985" lon="6.49628">
        <ele>1150.1</ele>
        <time>2022-07-17T07:26:50Z</time>
      </trkpt>
      <trkpt lat="46.82986" lon="6.49635">
        <ele>1151.3</ele>
        <time>2022-07-17T07:26:55Z</time>
      </trkpt>
      <trkpt lat="46.82987" lon="6.49643">
        <ele>1153.4</ele>
        <time>2022-07-17T07:27:00Z</time>
      </trkpt>
      <trkpt lat="46.82989" lon="6.49649">
        <ele>1155</ele>
        <time>2022-07-17T07:27:05Z</time>
      </trkpt>
      <trkpt lat="46.82991" lon="6.49655">
        <ele>1155.7</ele>
        <time>2022-07-17T07:27:11Z</time>
      </trkpt>
      <trkpt lat="46.82992" lon="6.49663">
        <ele>1155.9</ele>
        <time>2022-07-17T07:27:17Z</time>
      </trkpt>
      <trkpt lat="46.82995" lon="6.49669">
        <ele>1156.6</ele>
        <time>2022-07-17T07:27:22Z</time>
      </trkpt>
      <trkpt lat="46.82998" lon="6.49674">
        <ele>1157.3</ele>
        <time>2022-07-17T07:27:27Z</time>
      </trkpt>
      <trkpt lat="46.83001" lon="6.4968">
        <ele>1158.1</ele>
        <time>2022-07-17T07:27:32Z</time>
      </trkpt>
      <trkpt lat="46.83004" lon="6.49685">
        <ele>1158.8</ele>
        <time>2022-07-17T07:27:36Z</time>
      </trkpt>
      <trkpt lat="46.83009" lon="6.49688">
        <ele>1159.5</ele>
        <time>2022-07-17T07:27:41Z</time>
      </trkpt>
      <trkpt lat="46.83013" lon="6.49693">
        <ele>1160.2</ele>
        <time>2022-07-17T07:27:47Z</time>
      </trkpt>
      <trkpt lat="46.83016" lon="6.49698">
        <ele>1160.8</ele>
        <time>2022-07-17T07:27:52Z</time>
      </trkpt>
      <trkpt lat="46.83019" lon="6.49703">
        <ele>1161.1</ele>
        <time>2022-07-17T07:27:56Z</time>
      </trkpt>
      <trkpt lat="46.83024" lon="6.49706">
        <ele>1161.7</ele>
        <time>2022-07-17T07:28:01Z</time>
      </trkpt>
      <trkpt lat="46.83027" lon="6.49711">
        <ele>1162.3</ele>
        <time>2022-07-17T07:28:07Z</time>
      </trkpt>
      <trkpt lat="46.83032" lon="6.49713">
        <ele>1162.7</ele>
        <time>2022-07-17T07:28:13Z</time>
      </trkpt>
      <trkpt lat="46.83036" lon="6.49716">
        <ele>1163.3</ele>
        <time>2022-07-17T07:28:18Z</time>
      </trkpt>
      <trkpt lat="46.8304" lon="6.49719">
        <ele>1164</ele>
        <time>2022-07-17T07:28:22Z</time>
      </trkpt>
      <trkpt lat="46.83044" lon="6.49722">
        <ele>1165.4</ele>
        <time>2022-07-17T07:28:27Z</time>
      </trkpt>
      <trkpt lat="46.83048" lon="6.49727">
        <ele>1166</ele>
        <time>2022-07-17T07:28:36Z</time>
      </trkpt>
      <trkpt lat="46.83052" lon="6.49731">
        <ele>1165.8</ele>
        <time>2022-07-17T07:28:42Z</time>
      </trkpt>
      <trkpt lat="46.83057" lon="6.49735">
        <ele>1165.8</ele>
        <time>2022-07-17T07:28:47Z</time>
      </trkpt>
      <trkpt lat="46.83061" lon="6.49739">
        <ele>1166</ele>
        <time>2022-07-17T07:28:52Z</time>
      </trkpt>
      <trkpt lat="46.83064" lon="6.49745">
        <ele>1166.5</ele>
        <time>2022-07-17T07:28:59Z</time>
      </trkpt>
      <trkpt lat="46.83069" lon="6.49746">
        <ele>1166.3</ele>
        <time>2022-07-17T07:29:03Z</time>
      </trkpt>
      <trkpt lat="46.83074" lon="6.49749">
        <ele>1165.9</ele>
        <time>2022-07-17T07:29:08Z</time>
      </trkpt>
      <trkpt lat="46.83078" lon="6.49751">
        <ele>1165.9</ele>
        <time>2022-07-17T07:29:12Z</time>
      </trkpt>
      <trkpt lat="46.83083" lon="6.49753">
        <ele>1166.4</ele>
        <time>2022-07-17T07:29:16Z</time>
      </trkpt>
      <trkpt lat="46.83087" lon="6.49756">
        <ele>1167.5</ele>
        <time>2022-07-17T07:29:20Z</time>
      </trkpt>
      <trkpt lat="46.83091" lon="6.4976">
        <ele>1169.2</ele>
        <time>2022-07-17T07:29:25Z</time>
      </trkpt>
      <trkpt lat="46.83096" lon="6.49763">
        <ele>1168.2</ele>
        <time>2022-07-17T07:29:43Z</time>
      </trkpt>
      <trkpt lat="46.831" lon="6.49761">
        <ele>1167.4</ele>
        <time>2022-07-17T07:29:49Z</time>
      </trkpt>
      <trkpt lat="46.83105" lon="6.49759">
        <ele>1166.1</ele>
        <time>2022-07-17T07:29:56Z</time>
      </trkpt>
      <trkpt lat="46.83109" lon="6.49755">
        <ele>1165.3</ele>
        <time>2022-07-17T07:30:03Z</time>
      </trkpt>
      <trkpt lat="46.83114" lon="6.49757">
        <ele>1165.4</ele>
        <time>2022-07-17T07:30:10Z</time>
      </trkpt>
      <trkpt lat="46.83109" lon="6.4976">
        <ele>1169.6</ele>
        <time>2022-07-17T07:31:22Z</time>
      </trkpt>
      <trkpt lat="46.83111" lon="6.49754">
        <ele>1170.7</ele>
        <time>2022-07-17T07:32:09Z</time>
      </trkpt>
      <trkpt lat="46.83112" lon="6.4976">
        <ele>1168.7</ele>
        <time>2022-07-17T07:32:28Z</time>
      </trkpt>
      <trkpt lat="46.83113" lon="6.49767">
        <ele>1168.9</ele>
        <time>2022-07-17T07:32:32Z</time>
      </trkpt>
      <trkpt lat="46.83115" lon="6.49774">
        <ele>1169.3</ele>
        <time>2022-07-17T07:32:36Z</time>
      </trkpt>
      <trkpt lat="46.83118" lon="6.4978">
        <ele>1169.9</ele>
        <time>2022-07-17T07:32:40Z</time>
      </trkpt>
      <trkpt lat="46.83119" lon="6.49787">
        <ele>1171.5</ele>
        <time>2022-07-17T07:32:46Z</time>
      </trkpt>
      <trkpt lat="46.83124" lon="6.49789">
        <ele>1172.9</ele>
        <time>2022-07-17T07:32:53Z</time>
      </trkpt>
      <trkpt lat="46.83128" lon="6.49792">
        <ele>1173.1</ele>
        <time>2022-07-17T07:33:09Z</time>
      </trkpt>
      <trkpt lat="46.83133" lon="6.49795">
        <ele>1172.9</ele>
        <time>2022-07-17T07:33:16Z</time>
      </trkpt>
      <trkpt lat="46.83137" lon="6.49801">
        <ele>1173.2</ele>
        <time>2022-07-17T07:33:21Z</time>
      </trkpt>
      <trkpt lat="46.83141" lon="6.49806">
        <ele>1173.7</ele>
        <time>2022-07-17T07:33:25Z</time>
      </trkpt>
      <trkpt lat="46.83145" lon="6.49811">
        <ele>1174.3</ele>
        <time>2022-07-17T07:33:29Z</time>
      </trkpt>
      <trkpt lat="46.83148" lon="6.49817">
        <ele>1175</ele>
        <time>2022-07-17T07:33:34Z</time>
      </trkpt>
      <trkpt lat="46.83153" lon="6.49821">
        <ele>1175.4</ele>
        <time>2022-07-17T07:33:40Z</time>
      </trkpt>
      <trkpt lat="46.83157" lon="6.49825">
        <ele>1175.3</ele>
        <time>2022-07-17T07:33:45Z</time>
      </trkpt>
      <trkpt lat="46.8316" lon="6.4983">
        <ele>1175.7</ele>
        <time>2022-07-17T07:33:49Z</time>
      </trkpt>
      <trkpt lat="46.83164" lon="6.49834">
        <ele>1176.2</ele>
        <time>2022-07-17T07:33:55Z</time>
      </trkpt>
      <trkpt lat="46.83169" lon="6.49835">
        <ele>1176.3</ele>
        <time>2022-07-17T07:34:01Z</time>
      </trkpt>
      <trkpt lat="46.83173" lon="6.4984">
        <ele>1175.7</ele>
        <time>2022-07-17T07:34:08Z</time>
      </trkpt>
      <trkpt lat="46.83177" lon="6.49845">
        <ele>1175.7</ele>
        <time>2022-07-17T07:34:13Z</time>
      </trkpt>
      <trkpt lat="46.83181" lon="6.49847">
        <ele>1176.1</ele>
        <time>2022-07-17T07:34:18Z</time>
      </trkpt>
      <trkpt lat="46.83186" lon="6.49851">
        <ele>1176.5</ele>
        <time>2022-07-17T07:34:24Z</time>
      </trkpt>
      <trkpt lat="46.8319" lon="6.49855">
        <ele>1175.7</ele>
        <time>2022-07-17T07:34:32Z</time>
      </trkpt>
      <trkpt lat="46.83193" lon="6.49861">
        <ele>1174.8</ele>
        <time>2022-07-17T07:34:39Z</time>
      </trkpt>
      <trkpt lat="46.83196" lon="6.49865">
        <ele>1173.6</ele>
        <time>2022-07-17T07:34:45Z</time>
      </trkpt>
      <trkpt lat="46.83197" lon="6.49872">
        <ele>1173.2</ele>
        <time>2022-07-17T07:34:49Z</time>
      </trkpt>
      <trkpt lat="46.83201" lon="6.49877">
        <ele>1172.8</ele>
        <time>2022-07-17T07:34:53Z</time>
      </trkpt>
      <trkpt lat="46.83205" lon="6.49883">
        <ele>1172.7</ele>
        <time>2022-07-17T07:34:57Z</time>
      </trkpt>
      <trkpt lat="46.83208" lon="6.49889">
        <ele>1172.6</ele>
        <time>2022-07-17T07:35:02Z</time>
      </trkpt>
      <trkpt lat="46.83212" lon="6.49894">
        <ele>1172.6</ele>
        <time>2022-07-17T07:35:07Z</time>
      </trkpt>
      <trkpt lat="46.83216" lon="6.49898">
        <ele>1172.5</ele>
        <time>2022-07-17T07:35:12Z</time>
      </trkpt>
      <trkpt lat="46.83219" lon="6.49903">
        <ele>1172.3</ele>
        <time>2022-07-17T07:35:17Z</time>
      </trkpt>
      <trkpt lat="46.83222" lon="6.49909">
        <ele>1172.4</ele>
        <time>2022-07-17T07:35:21Z</time>
      </trkpt>
      <trkpt lat="46.83221" lon="6.49916">
        <ele>1171.6</ele>
        <time>2022-07-17T07:35:30Z</time>
      </trkpt>
      <trkpt lat="46.83219" lon="6.4991">
        <ele>1170.9</ele>
        <time>2022-07-17T07:35:42Z</time>
      </trkpt>
      <trkpt lat="46.83223" lon="6.49914">
        <ele>1171.3</ele>
        <time>2022-07-17T07:36:01Z</time>
      </trkpt>
      <trkpt lat="46.83227" lon="6.49916">
        <ele>1171.1</ele>
        <time>2022-07-17T07:36:04Z</time>
      </trkpt>
      <trkpt lat="46.83231" lon="6.49923">
        <ele>1170.9</ele>
        <time>2022-07-17T07:36:09Z</time>
      </trkpt>
      <trkpt lat="46.83233" lon="6.4993">
        <ele>1171.6</ele>
        <time>2022-07-17T07:36:14Z</time>
      </trkpt>
      <trkpt lat="46.83234" lon="6.49936">
        <ele>1172.8</ele>
        <time>2022-07-17T07:36:20Z</time>
      </trkpt>
      <trkpt lat="46.83239" lon="6.4994">
        <ele>1174.3</ele>
        <time>2022-07-17T07:36:27Z</time>
      </trkpt>
      <trkpt lat="46.83241" lon="6.49948">
        <ele>1175.8</ele>
        <time>2022-07-17T07:36:34Z</time>
      </trkpt>
      <trkpt lat="46.83241" lon="6.49956">
        <ele>1176.3</ele>
        <time>2022-07-17T07:36:39Z</time>
      </trkpt>
      <trkpt lat="46.83244" lon="6.49961">
        <ele>1176.2</ele>
        <time>2022-07-17T07:36:44Z</time>
      </trkpt>
      <trkpt lat="46.83248" lon="6.49967">
        <ele>1176</ele>
        <time>2022-07-17T07:36:50Z</time>
      </trkpt>
      <trkpt lat="46.83248" lon="6.49974">
        <ele>1176</ele>
        <time>2022-07-17T07:36:55Z</time>
      </trkpt>
      <trkpt lat="46.83249" lon="6.49981">
        <ele>1176</ele>
        <time>2022-07-17T07:37:00Z</time>
      </trkpt>
      <trkpt lat="46.8325" lon="6.49988">
        <ele>1176</ele>
        <time>2022-07-17T07:37:06Z</time>
      </trkpt>
      <trkpt lat="46.83252" lon="6.49995">
        <ele>1176.4</ele>
        <time>2022-07-17T07:37:14Z</time>
      </trkpt>
      <trkpt lat="46.83254" lon="6.50002">
        <ele>1176.1</ele>
        <time>2022-07-17T07:37:19Z</time>
      </trkpt>
      <trkpt lat="46.83255" lon="6.5001">
        <ele>1176</ele>
        <time>2022-07-17T07:37:24Z</time>
      </trkpt>
      <trkpt lat="46.83256" lon="6.50017">
        <ele>1176.1</ele>
        <time>2022-07-17T07:37:27Z</time>
      </trkpt>
      <trkpt lat="46.83257" lon="6.50024">
        <ele>1176.5</ele>
        <time>2022-07-17T07:37:31Z</time>
      </trkpt>
      <trkpt lat="46.83258" lon="6.50031">
        <ele>1177</ele>
        <time>2022-07-17T07:37:35Z</time>
      </trkpt>
      <trkpt lat="46.83261" lon="6.50037">
        <ele>1177.8</ele>
        <time>2022-07-17T07:37:40Z</time>
      </trkpt>
      <trkpt lat="46.83264" lon="6.50042">
        <ele>1178.5</ele>
        <time>2022-07-17T07:37:44Z</time>
      </trkpt>
      <trkpt lat="46.83267" lon="6.50048">
        <ele>1179.1</ele>
        <time>2022-07-17T07:37:49Z</time>
      </trkpt>
      <trkpt lat="46.83271" lon="6.50054">
        <ele>1179.5</ele>
        <time>2022-07-17T07:37:56Z</time>
      </trkpt>
      <trkpt lat="46.83273" lon="6.5006">
        <ele>1176.2</ele>
        <time>2022-07-17T07:38:38Z</time>
      </trkpt>
      <trkpt lat="46.83276" lon="6.50066">
        <ele>1175.3</ele>
        <time>2022-07-17T07:38:45Z</time>
      </trkpt>
      <trkpt lat="46.83279" lon="6.50073">
        <ele>1175.6</ele>
        <time>2022-07-17T07:38:52Z</time>
      </trkpt>
      <trkpt lat="46.83281" lon="6.50079">
        <ele>1175.9</ele>
        <time>2022-07-17T07:38:56Z</time>
      </trkpt>
      <trkpt lat="46.83283" lon="6.50087">
        <ele>1176.8</ele>
        <time>2022-07-17T07:39:01Z</time>
      </trkpt>
      <trkpt lat="46.83285" lon="6.50094">
        <ele>1177.4</ele>
        <time>2022-07-17T07:39:05Z</time>
      </trkpt>
      <trkpt lat="46.83287" lon="6.501">
        <ele>1178.2</ele>
        <time>2022-07-17T07:39:09Z</time>
      </trkpt>
      <trkpt lat="46.8329" lon="6.50106">
        <ele>1178.9</ele>
        <time>2022-07-17T07:39:15Z</time>
      </trkpt>
      <trkpt lat="46.83292" lon="6.50112">
        <ele>1178.9</ele>
        <time>2022-07-17T07:39:21Z</time>
      </trkpt>
      <trkpt lat="46.83294" lon="6.50119">
        <ele>1178.4</ele>
        <time>2022-07-17T07:39:28Z</time>
      </trkpt>
      <trkpt lat="46.83298" lon="6.50125">
        <ele>1177.8</ele>
        <time>2022-07-17T07:39:34Z</time>
      </trkpt>
      <trkpt lat="46.833" lon="6.50131">
        <ele>1177.7</ele>
        <time>2022-07-17T07:39:39Z</time>
      </trkpt>
      <trkpt lat="46.83303" lon="6.50138">
        <ele>1177.9</ele>
        <time>2022-07-17T07:39:44Z</time>
      </trkpt>
      <trkpt lat="46.83306" lon="6.50142">
        <ele>1178.4</ele>
        <time>2022-07-17T07:39:49Z</time>
      </trkpt>
      <trkpt lat="46.83311" lon="6.50144">
        <ele>1178.7</ele>
        <time>2022-07-17T07:39:53Z</time>
      </trkpt>
      <trkpt lat="46.83315" lon="6.50148">
        <ele>1179.1</ele>
        <time>2022-07-17T07:39:58Z</time>
      </trkpt>
      <trkpt lat="46.83319" lon="6.50153">
        <ele>1179.8</ele>
        <time>2022-07-17T07:40:03Z</time>
      </trkpt>
      <trkpt lat="46.83323" lon="6.50157">
        <ele>1180.7</ele>
        <time>2022-07-17T07:40:07Z</time>
      </trkpt>
      <trkpt lat="46.83326" lon="6.50163">
        <ele>1182.1</ele>
        <time>2022-07-17T07:40:13Z</time>
      </trkpt>
      <trkpt lat="46.83329" lon="6.50168">
        <ele>1182.9</ele>
        <time>2022-07-17T07:40:19Z</time>
      </trkpt>
      <trkpt lat="46.83331" lon="6.50175">
        <ele>1183.5</ele>
        <time>2022-07-17T07:40:25Z</time>
      </trkpt>
      <trkpt lat="46.83334" lon="6.5018">
        <ele>1183.9</ele>
        <time>2022-07-17T07:40:30Z</time>
      </trkpt>
      <trkpt lat="46.83339" lon="6.50182">
        <ele>1184.4</ele>
        <time>2022-07-17T07:40:35Z</time>
      </trkpt>
      <trkpt lat="46.83345" lon="6.50181">
        <ele>1184.7</ele>
        <time>2022-07-17T07:40:39Z</time>
      </trkpt>
      <trkpt lat="46.83349" lon="6.50185">
        <ele>1185.4</ele>
        <time>2022-07-17T07:40:47Z</time>
      </trkpt>
      <trkpt lat="46.83353" lon="6.50189">
        <ele>1186.1</ele>
        <time>2022-07-17T07:40:53Z</time>
      </trkpt>
      <trkpt lat="46.83358" lon="6.50192">
        <ele>1187.4</ele>
        <time>2022-07-17T07:40:58Z</time>
      </trkpt>
      <trkpt lat="46.83361" lon="6.50198">
        <ele>1189</ele>
        <time>2022-07-17T07:41:03Z</time>
      </trkpt>
      <trkpt lat="46.83365" lon="6.50203">
        <ele>1191.1</ele>
        <time>2022-07-17T07:41:09Z</time>
      </trkpt>
      <trkpt lat="46.83369" lon="6.50206">
        <ele>1192.5</ele>
        <time>2022-07-17T07:41:13Z</time>
      </trkpt>
      <trkpt lat="46.83372" lon="6.50211">
        <ele>1194</ele>
        <time>2022-07-17T07:41:17Z</time>
      </trkpt>
      <trkpt lat="46.83375" lon="6.50216">
        <ele>1195.7</ele>
        <time>2022-07-17T07:41:23Z</time>
      </trkpt>
      <trkpt lat="46.83373" lon="6.50222">
        <ele>1196.4</ele>
        <time>2022-07-17T07:41:29Z</time>
      </trkpt>
      <trkpt lat="46.83369" lon="6.50226">
        <ele>1195.1</ele>
        <time>2022-07-17T07:41:37Z</time>
      </trkpt>
      <trkpt lat="46.83373" lon="6.50231">
        <ele>1194.4</ele>
        <time>2022-07-17T07:41:43Z</time>
      </trkpt>
      <trkpt lat="46.83377" lon="6.50233">
        <ele>1194.4</ele>
        <time>2022-07-17T07:41:47Z</time>
      </trkpt>
      <trkpt lat="46.83381" lon="6.50237">
        <ele>1195.2</ele>
        <time>2022-07-17T07:41:52Z</time>
      </trkpt>
      <trkpt lat="46.83385" lon="6.50241">
        <ele>1196.3</ele>
        <time>2022-07-17T07:41:58Z</time>
      </trkpt>
      <trkpt lat="46.83389" lon="6.50247">
        <ele>1196.4</ele>
        <time>2022-07-17T07:42:05Z</time>
      </trkpt>
      <trkpt lat="46.83392" lon="6.50252">
        <ele>1196.4</ele>
        <time>2022-07-17T07:42:10Z</time>
      </trkpt>
      <trkpt lat="46.83394" lon="6.50259">
        <ele>1196.1</ele>
        <time>2022-07-17T07:42:16Z</time>
      </trkpt>
      <trkpt lat="46.83396" lon="6.50266">
        <ele>1196</ele>
        <time>2022-07-17T07:42:22Z</time>
      </trkpt>
      <trkpt lat="46.83399" lon="6.50271">
        <ele>1196.5</ele>
        <time>2022-07-17T07:42:28Z</time>
      </trkpt>
      <trkpt lat="46.83403" lon="6.50276">
        <ele>1197.1</ele>
        <time>2022-07-17T07:42:34Z</time>
      </trkpt>
      <trkpt lat="46.83406" lon="6.50281">
        <ele>1197.8</ele>
        <time>2022-07-17T07:42:41Z</time>
      </trkpt>
      <trkpt lat="46.83409" lon="6.50288">
        <ele>1198.4</ele>
        <time>2022-07-17T07:42:48Z</time>
      </trkpt>
      <trkpt lat="46.83412" lon="6.50293">
        <ele>1199.3</ele>
        <time>2022-07-17T07:42:55Z</time>
      </trkpt>
      <trkpt lat="46.83415" lon="6.50298">
        <ele>1199.3</ele>
        <time>2022-07-17T07:42:59Z</time>
      </trkpt>
      <trkpt lat="46.83419" lon="6.50304">
        <ele>1199.2</ele>
        <time>2022-07-17T07:43:03Z</time>
      </trkpt>
      <trkpt lat="46.83421" lon="6.5031">
        <ele>1199.4</ele>
        <time>2022-07-17T07:43:06Z</time>
      </trkpt>
      <trkpt lat="46.83423" lon="6.50318">
        <ele>1199.5</ele>
        <time>2022-07-17T07:43:09Z</time>
      </trkpt>
      <trkpt lat="46.83426" lon="6.50325">
        <ele>1199.8</ele>
        <time>2022-07-17T07:43:12Z</time>
      </trkpt>
      <trkpt lat="46.83429" lon="6.5033">
        <ele>1200.6</ele>
        <time>2022-07-17T07:43:16Z</time>
      </trkpt>
      <trkpt lat="46.83431" lon="6.50338">
        <ele>1201.2</ele>
        <time>2022-07-17T07:43:23Z</time>
      </trkpt>
      <trkpt lat="46.83436" lon="6.5034">
        <ele>1201.9</ele>
        <time>2022-07-17T07:43:27Z</time>
      </trkpt>
      <trkpt lat="46.8344" lon="6.50342">
        <ele>1203</ele>
        <time>2022-07-17T07:43:30Z</time>
      </trkpt>
      <trkpt lat="46.83445" lon="6.50345">
        <ele>1205.3</ele>
        <time>2022-07-17T07:43:35Z</time>
      </trkpt>
      <trkpt lat="46.83448" lon="6.5035">
        <ele>1205.9</ele>
        <time>2022-07-17T07:43:46Z</time>
      </trkpt>
      <trkpt lat="46.83452" lon="6.50355">
        <ele>1206</ele>
        <time>2022-07-17T07:43:51Z</time>
      </trkpt>
      <trkpt lat="46.83457" lon="6.50357">
        <ele>1205.4</ele>
        <time>2022-07-17T07:44:00Z</time>
      </trkpt>
      <trkpt lat="46.83461" lon="6.50361">
        <ele>1203.2</ele>
        <time>2022-07-17T07:44:08Z</time>
      </trkpt>
      <trkpt lat="46.83465" lon="6.50366">
        <ele>1202.4</ele>
        <time>2022-07-17T07:44:13Z</time>
      </trkpt>
      <trkpt lat="46.83468" lon="6.5037">
        <ele>1201.8</ele>
        <time>2022-07-17T07:44:19Z</time>
      </trkpt>
      <trkpt lat="46.83472" lon="6.50373">
        <ele>1201.5</ele>
        <time>2022-07-17T07:44:26Z</time>
      </trkpt>
      <trkpt lat="46.83475" lon="6.50379">
        <ele>1202.2</ele>
        <time>2022-07-17T07:44:44Z</time>
      </trkpt>
      <trkpt lat="46.83478" lon="6.50385">
        <ele>1202.1</ele>
        <time>2022-07-17T07:44:52Z</time>
      </trkpt>
      <trkpt lat="46.8348" lon="6.50391">
        <ele>1202</ele>
        <time>2022-07-17T07:44:58Z</time>
      </trkpt>
      <trkpt lat="46.83484" lon="6.50396">
        <ele>1202.2</ele>
        <time>2022-07-17T07:45:04Z</time>
      </trkpt>
      <trkpt lat="46.83489" lon="6.50398">
        <ele>1202.6</ele>
        <time>2022-07-17T07:45:08Z</time>
      </trkpt>
      <trkpt lat="46.83494" lon="6.50403">
        <ele>1203.8</ele>
        <time>2022-07-17T07:45:13Z</time>
      </trkpt>
      <trkpt lat="46.83498" lon="6.50405">
        <ele>1204.5</ele>
        <time>2022-07-17T07:45:17Z</time>
      </trkpt>
      <trkpt lat="46.83504" lon="6.50407">
        <ele>1205.4</ele>
        <time>2022-07-17T07:45:21Z</time>
      </trkpt>
      <trkpt lat="46.8351" lon="6.50407">
        <ele>1206.4</ele>
        <time>2022-07-17T07:45:25Z</time>
      </trkpt>
      <trkpt lat="46.83514" lon="6.5041">
        <ele>1207.7</ele>
        <time>2022-07-17T07:45:30Z</time>
      </trkpt>
      <trkpt lat="46.83517" lon="6.50417">
        <ele>1208.5</ele>
        <time>2022-07-17T07:45:36Z</time>
      </trkpt>
      <trkpt lat="46.83518" lon="6.50423">
        <ele>1208.1</ele>
        <time>2022-07-17T07:45:42Z</time>
      </trkpt>
      <trkpt lat="46.83521" lon="6.5043">
        <ele>1207.8</ele>
        <time>2022-07-17T07:45:49Z</time>
      </trkpt>
      <trkpt lat="46.83522" lon="6.50436">
        <ele>1208.1</ele>
        <time>2022-07-17T07:45:54Z</time>
      </trkpt>
      <trkpt lat="46.83527" lon="6.5044">
        <ele>1208.7</ele>
        <time>2022-07-17T07:45:59Z</time>
      </trkpt>
      <trkpt lat="46.8353" lon="6.50445">
        <ele>1209.1</ele>
        <time>2022-07-17T07:46:04Z</time>
      </trkpt>
      <trkpt lat="46.83534" lon="6.5045">
        <ele>1209.2</ele>
        <time>2022-07-17T07:46:08Z</time>
      </trkpt>
      <trkpt lat="46.83539" lon="6.50451">
        <ele>1209.9</ele>
        <time>2022-07-17T07:46:13Z</time>
      </trkpt>
      <trkpt lat="46.83543" lon="6.50455">
        <ele>1210.6</ele>
        <time>2022-07-17T07:46:19Z</time>
      </trkpt>
      <trkpt lat="46.83546" lon="6.5046">
        <ele>1210.6</ele>
        <time>2022-07-17T07:46:25Z</time>
      </trkpt>
      <trkpt lat="46.83549" lon="6.50467">
        <ele>1211</ele>
        <time>2022-07-17T07:46:32Z</time>
      </trkpt>
      <trkpt lat="46.83553" lon="6.50471">
        <ele>1211</ele>
        <time>2022-07-17T07:46:36Z</time>
      </trkpt>
      <trkpt lat="46.83558" lon="6.50471">
        <ele>1211.1</ele>
        <time>2022-07-17T07:46:39Z</time>
      </trkpt>
      <trkpt lat="46.83563" lon="6.50472">
        <ele>1212</ele>
        <time>2022-07-17T07:46:42Z</time>
      </trkpt>
      <trkpt lat="46.83564" lon="6.50479">
        <ele>1213.8</ele>
        <time>2022-07-17T07:46:48Z</time>
      </trkpt>
      <trkpt lat="46.83566" lon="6.50486">
        <ele>1214.5</ele>
        <time>2022-07-17T07:46:53Z</time>
      </trkpt>
      <trkpt lat="46.8357" lon="6.5049">
        <ele>1215.1</ele>
        <time>2022-07-17T07:46:58Z</time>
      </trkpt>
      <trkpt lat="46.83574" lon="6.50495">
        <ele>1214.8</ele>
        <time>2022-07-17T07:47:06Z</time>
      </trkpt>
      <trkpt lat="46.83573" lon="6.50502">
        <ele>1212.3</ele>
        <time>2022-07-17T07:47:12Z</time>
      </trkpt>
      <trkpt lat="46.83577" lon="6.50506">
        <ele>1210.4</ele>
        <time>2022-07-17T07:47:18Z</time>
      </trkpt>
      <trkpt lat="46.83583" lon="6.50506">
        <ele>1210.3</ele>
        <time>2022-07-17T07:47:22Z</time>
      </trkpt>
      <trkpt lat="46.83587" lon="6.50511">
        <ele>1210.9</ele>
        <time>2022-07-17T07:47:29Z</time>
      </trkpt>
      <trkpt lat="46.83588" lon="6.50517">
        <ele>1210.6</ele>
        <time>2022-07-17T07:47:36Z</time>
      </trkpt>
      <trkpt lat="46.83591" lon="6.50524">
        <ele>1211</ele>
        <time>2022-07-17T07:47:41Z</time>
      </trkpt>
      <trkpt lat="46.83595" lon="6.50529">
        <ele>1212</ele>
        <time>2022-07-17T07:47:47Z</time>
      </trkpt>
      <trkpt lat="46.83598" lon="6.50535">
        <ele>1212.6</ele>
        <time>2022-07-17T07:47:53Z</time>
      </trkpt>
      <trkpt lat="46.83602" lon="6.50538">
        <ele>1213</ele>
        <time>2022-07-17T07:47:58Z</time>
      </trkpt>
      <trkpt lat="46.83606" lon="6.50542">
        <ele>1212.8</ele>
        <time>2022-07-17T07:48:06Z</time>
      </trkpt>
      <trkpt lat="46.8361" lon="6.50545">
        <ele>1212.8</ele>
        <time>2022-07-17T07:48:11Z</time>
      </trkpt>
      <trkpt lat="46.83615" lon="6.50548">
        <ele>1213.1</ele>
        <time>2022-07-17T07:48:15Z</time>
      </trkpt>
      <trkpt lat="46.8362" lon="6.50551">
        <ele>1213.5</ele>
        <time>2022-07-17T07:48:19Z</time>
      </trkpt>
      <trkpt lat="46.83625" lon="6.50554">
        <ele>1214.3</ele>
        <time>2022-07-17T07:48:23Z</time>
      </trkpt>
      <trkpt lat="46.8363" lon="6.50555">
        <ele>1215.1</ele>
        <time>2022-07-17T07:48:28Z</time>
      </trkpt>
      <trkpt lat="46.83635" lon="6.50556">
        <ele>1216.5</ele>
        <time>2022-07-17T07:48:35Z</time>
      </trkpt>
      <trkpt lat="46.8364" lon="6.50559">
        <ele>1217.9</ele>
        <time>2022-07-17T07:48:42Z</time>
      </trkpt>
      <trkpt lat="46.83645" lon="6.50561">
        <ele>1219</ele>
        <time>2022-07-17T07:48:48Z</time>
      </trkpt>
      <trkpt lat="46.8365" lon="6.50561">
        <ele>1219.6</ele>
        <time>2022-07-17T07:48:55Z</time>
      </trkpt>
      <trkpt lat="46.83654" lon="6.50563">
        <ele>1219.9</ele>
        <time>2022-07-17T07:49:00Z</time>
      </trkpt>
      <trkpt lat="46.83658" lon="6.50565">
        <ele>1220.3</ele>
        <time>2022-07-17T07:49:07Z</time>
      </trkpt>
      <trkpt lat="46.83663" lon="6.50566">
        <ele>1220.5</ele>
        <time>2022-07-17T07:49:12Z</time>
      </trkpt>
      <trkpt lat="46.83668" lon="6.50567">
        <ele>1220.8</ele>
        <time>2022-07-17T07:49:16Z</time>
      </trkpt>
      <trkpt lat="46.83673" lon="6.50567">
        <ele>1221.1</ele>
        <time>2022-07-17T07:49:20Z</time>
      </trkpt>
      <trkpt lat="46.83678" lon="6.50567">
        <ele>1221.8</ele>
        <time>2022-07-17T07:49:26Z</time>
      </trkpt>
      <trkpt lat="46.83683" lon="6.50567">
        <ele>1222.5</ele>
        <time>2022-07-17T07:49:32Z</time>
      </trkpt>
      <trkpt lat="46.83687" lon="6.50565">
        <ele>1222.7</ele>
        <time>2022-07-17T07:49:42Z</time>
      </trkpt>
      <trkpt lat="46.83691" lon="6.5056">
        <ele>1223</ele>
        <time>2022-07-17T07:49:49Z</time>
      </trkpt>
      <trkpt lat="46.83694" lon="6.50554">
        <ele>1222.2</ele>
        <time>2022-07-17T07:49:57Z</time>
      </trkpt>
      <trkpt lat="46.83698" lon="6.50551">
        <ele>1222</ele>
        <time>2022-07-17T07:50:04Z</time>
      </trkpt>
      <trkpt lat="46.83697" lon="6.50557">
        <ele>1222.1</ele>
        <time>2022-07-17T07:50:15Z</time>
      </trkpt>
      <trkpt lat="46.83699" lon="6.50563">
        <ele>1220.9</ele>
        <time>2022-07-17T07:50:42Z</time>
      </trkpt>
      <trkpt lat="46.83699" lon="6.5057">
        <ele>1221.8</ele>
        <time>2022-07-17T07:50:49Z</time>
      </trkpt>
      <trkpt lat="46.837" lon="6.50578">
        <ele>1222.2</ele>
        <time>2022-07-17T07:50:54Z</time>
      </trkpt>
      <trkpt lat="46.837" lon="6.50585">
        <ele>1222.2</ele>
        <time>2022-07-17T07:50:58Z</time>
      </trkpt>
      <trkpt lat="46.83698" lon="6.50591">
        <ele>1222.6</ele>
        <time>2022-07-17T07:51:05Z</time>
      </trkpt>
      <trkpt lat="46.83698" lon="6.50598">
        <ele>1223.2</ele>
        <time>2022-07-17T07:51:11Z</time>
      </trkpt>
      <trkpt lat="46.837" lon="6.50605">
        <ele>1224.5</ele>
        <time>2022-07-17T07:51:17Z</time>
      </trkpt>
      <trkpt lat="46.83701" lon="6.50613">
        <ele>1225.7</ele>
        <time>2022-07-17T07:51:21Z</time>
      </trkpt>
      <trkpt lat="46.83702" lon="6.5062">
        <ele>1226.6</ele>
        <time>2022-07-17T07:51:25Z</time>
      </trkpt>
      <trkpt lat="46.83702" lon="6.50627">
        <ele>1227.8</ele>
        <time>2022-07-17T07:51:30Z</time>
      </trkpt>
      <trkpt lat="46.83702" lon="6.50634">
        <ele>1229.3</ele>
        <time>2022-07-17T07:51:35Z</time>
      </trkpt>
      <trkpt lat="46.83703" lon="6.50641">
        <ele>1230.5</ele>
        <time>2022-07-17T07:51:40Z</time>
      </trkpt>
      <trkpt lat="46.83705" lon="6.50648">
        <ele>1231.3</ele>
        <time>2022-07-17T07:51:45Z</time>
      </trkpt>
      <trkpt lat="46.83704" lon="6.50656">
        <ele>1231.6</ele>
        <time>2022-07-17T07:51:50Z</time>
      </trkpt>
      <trkpt lat="46.83703" lon="6.50662">
        <ele>1231.7</ele>
        <time>2022-07-17T07:51:55Z</time>
      </trkpt>
      <trkpt lat="46.83703" lon="6.50669">
        <ele>1232.5</ele>
        <time>2022-07-17T07:52:00Z</time>
      </trkpt>
      <trkpt lat="46.837" lon="6.50675">
        <ele>1232.6</ele>
        <time>2022-07-17T07:52:07Z</time>
      </trkpt>
      <trkpt lat="46.83697" lon="6.50681">
        <ele>1231.9</ele>
        <time>2022-07-17T07:52:11Z</time>
      </trkpt>
      <trkpt lat="46.83692" lon="6.50684">
        <ele>1231.3</ele>
        <time>2022-07-17T07:52:16Z</time>
      </trkpt>
      <trkpt lat="46.83688" lon="6.50686">
        <ele>1231.6</ele>
        <time>2022-07-17T07:52:23Z</time>
      </trkpt>
      <trkpt lat="46.83692" lon="6.50684">
        <ele>1231.3</ele>
        <time>2022-07-17T07:52:37Z</time>
      </trkpt>
      <trkpt lat="46.83687" lon="6.50684">
        <ele>1234.6</ele>
        <time>2022-07-17T07:53:08Z</time>
      </trkpt>
      <trkpt lat="46.83682" lon="6.50686">
        <ele>1235.7</ele>
        <time>2022-07-17T07:53:28Z</time>
      </trkpt>
      <trkpt lat="46.83678" lon="6.50688">
        <ele>1235.9</ele>
        <time>2022-07-17T07:53:35Z</time>
      </trkpt>
      <trkpt lat="46.83673" lon="6.5069">
        <ele>1236</ele>
        <time>2022-07-17T07:53:42Z</time>
      </trkpt>
      <trkpt lat="46.83669" lon="6.50692">
        <ele>1235.7</ele>
        <time>2022-07-17T07:53:47Z</time>
      </trkpt>
      <trkpt lat="46.83665" lon="6.50696">
        <ele>1235.5</ele>
        <time>2022-07-17T07:53:52Z</time>
      </trkpt>
      <trkpt lat="46.83661" lon="6.50699">
        <ele>1235.5</ele>
        <time>2022-07-17T07:53:58Z</time>
      </trkpt>
      <trkpt lat="46.83656" lon="6.50702">
        <ele>1235.5</ele>
        <time>2022-07-17T07:54:04Z</time>
      </trkpt>
      <trkpt lat="46.83652" lon="6.50705">
        <ele>1235.4</ele>
        <time>2022-07-17T07:54:12Z</time>
      </trkpt>
      <trkpt lat="46.83648" lon="6.50709">
        <ele>1234.8</ele>
        <time>2022-07-17T07:54:18Z</time>
      </trkpt>
      <trkpt lat="46.83644" lon="6.50714">
        <ele>1234.8</ele>
        <time>2022-07-17T07:54:22Z</time>
      </trkpt>
      <trkpt lat="46.8364" lon="6.50718">
        <ele>1235</ele>
        <time>2022-07-17T07:54:25Z</time>
      </trkpt>
      <trkpt lat="46.83636" lon="6.50723">
        <ele>1235.5</ele>
        <time>2022-07-17T07:54:29Z</time>
      </trkpt>
      <trkpt lat="46.83632" lon="6.50728">
        <ele>1236.3</ele>
        <time>2022-07-17T07:54:35Z</time>
      </trkpt>
      <trkpt lat="46.83628" lon="6.50732">
        <ele>1237.2</ele>
        <time>2022-07-17T07:54:42Z</time>
      </trkpt>
      <trkpt lat="46.83625" lon="6.50736">
        <ele>1237.9</ele>
        <time>2022-07-17T07:54:47Z</time>
      </trkpt>
      <trkpt lat="46.8362" lon="6.50739">
        <ele>1239.1</ele>
        <time>2022-07-17T07:54:53Z</time>
      </trkpt>
      <trkpt lat="46.83616" lon="6.50743">
        <ele>1239.7</ele>
        <time>2022-07-17T07:55:00Z</time>
      </trkpt>
      <trkpt lat="46.83612" lon="6.50746">
        <ele>1240</ele>
        <time>2022-07-17T07:55:05Z</time>
      </trkpt>
      <trkpt lat="46.83609" lon="6.5075">
        <ele>1240.6</ele>
        <time>2022-07-17T07:55:09Z</time>
      </trkpt>
      <trkpt lat="46.83604" lon="6.50754">
        <ele>1241.4</ele>
        <time>2022-07-17T07:55:14Z</time>
      </trkpt>
      <trkpt lat="46.836" lon="6.50758">
        <ele>1242.4</ele>
        <time>2022-07-17T07:55:19Z</time>
      </trkpt>
      <trkpt lat="46.83596" lon="6.50762">
        <ele>1242.9</ele>
        <time>2022-07-17T07:55:25Z</time>
      </trkpt>
      <trkpt lat="46.83592" lon="6.50766">
        <ele>1243.2</ele>
        <time>2022-07-17T07:55:30Z</time>
      </trkpt>
      <trkpt lat="46.83588" lon="6.50771">
        <ele>1242.9</ele>
        <time>2022-07-17T07:55:36Z</time>
      </trkpt>
      <trkpt lat="46.83584" lon="6.50775">
        <ele>1242.4</ele>
        <time>2022-07-17T07:55:43Z</time>
      </trkpt>
      <trkpt lat="46.8358" lon="6.5078">
        <ele>1242.5</ele>
        <time>2022-07-17T07:55:48Z</time>
      </trkpt>
      <trkpt lat="46.83576" lon="6.50785">
        <ele>1242.6</ele>
        <time>2022-07-17T07:55:53Z</time>
      </trkpt>
      <trkpt lat="46.83571" lon="6.50785">
        <ele>1242.5</ele>
        <time>2022-07-17T07:56:01Z</time>
      </trkpt>
      <trkpt lat="46.83567" lon="6.50788">
        <ele>1242</ele>
        <time>2022-07-17T07:56:08Z</time>
      </trkpt>
      <trkpt lat="46.83562" lon="6.5079">
        <ele>1241.4</ele>
        <time>2022-07-17T07:56:15Z</time>
      </trkpt>
      <trkpt lat="46.83557" lon="6.50793">
        <ele>1240.6</ele>
        <time>2022-07-17T07:56:22Z</time>
      </trkpt>
      <trkpt lat="46.83553" lon="6.50797">
        <ele>1239.5</ele>
        <time>2022-07-17T07:56:28Z</time>
      </trkpt>
      <trkpt lat="46.8355" lon="6.50803">
        <ele>1239.2</ele>
        <time>2022-07-17T07:56:33Z</time>
      </trkpt>
      <trkpt lat="46.83546" lon="6.50806">
        <ele>1239.7</ele>
        <time>2022-07-17T07:56:38Z</time>
      </trkpt>
      <trkpt lat="46.83541" lon="6.50806">
        <ele>1240.6</ele>
        <time>2022-07-17T07:56:44Z</time>
      </trkpt>
      <trkpt lat="46.83535" lon="6.50805">
        <ele>1242.7</ele>
        <time>2022-07-17T07:56:51Z</time>
      </trkpt>
      <trkpt lat="46.8353" lon="6.50804">
        <ele>1244.3</ele>
        <time>2022-07-17T07:56:57Z</time>
      </trkpt>
      <trkpt lat="46.83525" lon="6.50803">
        <ele>1245.2</ele>
        <time>2022-07-17T07:57:02Z</time>
      </trkpt>
      <trkpt lat="46.8352" lon="6.50801">
        <ele>1246</ele>
        <time>2022-07-17T07:57:08Z</time>
      </trkpt>
      <trkpt lat="46.83516" lon="6.508">
        <ele>1246.3</ele>
        <time>2022-07-17T07:57:15Z</time>
      </trkpt>
      <trkpt lat="46.83511" lon="6.50798">
        <ele>1246.2</ele>
        <time>2022-07-17T07:57:19Z</time>
      </trkpt>
      <trkpt lat="46.83506" lon="6.50796">
        <ele>1246.6</ele>
        <time>2022-07-17T07:57:23Z</time>
      </trkpt>
      <trkpt lat="46.83502" lon="6.50794">
        <ele>1247.6</ele>
        <time>2022-07-17T07:57:27Z</time>
      </trkpt>
      <trkpt lat="46.83498" lon="6.50791">
        <ele>1248.6</ele>
        <time>2022-07-17T07:57:32Z</time>
      </trkpt>
      <trkpt lat="46.83493" lon="6.50789">
        <ele>1248.6</ele>
        <time>2022-07-17T07:57:37Z</time>
      </trkpt>
      <trkpt lat="46.83488" lon="6.50787">
        <ele>1248.4</ele>
        <time>2022-07-17T07:57:42Z</time>
      </trkpt>
      <trkpt lat="46.83483" lon="6.50785">
        <ele>1248.3</ele>
        <time>2022-07-17T07:57:47Z</time>
      </trkpt>
      <trkpt lat="46.83478" lon="6.50783">
        <ele>1248.2</ele>
        <time>2022-07-17T07:57:51Z</time>
      </trkpt>
      <trkpt lat="46.83474" lon="6.5078">
        <ele>1248.3</ele>
        <time>2022-07-17T07:57:57Z</time>
      </trkpt>
      <trkpt lat="46.8347" lon="6.50775">
        <ele>1248.8</ele>
        <time>2022-07-17T07:58:03Z</time>
      </trkpt>
      <trkpt lat="46.83465" lon="6.50773">
        <ele>1249.3</ele>
        <time>2022-07-17T07:58:08Z</time>
      </trkpt>
      <trkpt lat="46.8346" lon="6.5077">
        <ele>1249.2</ele>
        <time>2022-07-17T07:58:14Z</time>
      </trkpt>
      <trkpt lat="46.83455" lon="6.5077">
        <ele>1249</ele>
        <time>2022-07-17T07:58:22Z</time>
      </trkpt>
      <trkpt lat="46.83451" lon="6.50767">
        <ele>1248.9</ele>
        <time>2022-07-17T07:58:26Z</time>
      </trkpt>
      <trkpt lat="46.83446" lon="6.50764">
        <ele>1248.7</ele>
        <time>2022-07-17T07:58:30Z</time>
      </trkpt>
      <trkpt lat="46.83441" lon="6.50761">
        <ele>1248.6</ele>
        <time>2022-07-17T07:58:34Z</time>
      </trkpt>
      <trkpt lat="46.83437" lon="6.50762">
        <ele>1249.4</ele>
        <time>2022-07-17T07:58:40Z</time>
      </trkpt>
      <trkpt lat="46.83431" lon="6.50763">
        <ele>1249.9</ele>
        <time>2022-07-17T07:58:46Z</time>
      </trkpt>
      <trkpt lat="46.83425" lon="6.50762">
        <ele>1251.5</ele>
        <time>2022-07-17T07:58:54Z</time>
      </trkpt>
      <trkpt lat="46.8342" lon="6.50761">
        <ele>1251.7</ele>
        <time>2022-07-17T07:58:58Z</time>
      </trkpt>
      <trkpt lat="46.83415" lon="6.50758">
        <ele>1251.5</ele>
        <time>2022-07-17T07:59:02Z</time>
      </trkpt>
      <trkpt lat="46.8341" lon="6.50757">
        <ele>1251</ele>
        <time>2022-07-17T07:59:06Z</time>
      </trkpt>
      <trkpt lat="46.83405" lon="6.50757">
        <ele>1251</ele>
        <time>2022-07-17T07:59:11Z</time>
      </trkpt>
      <trkpt lat="46.834" lon="6.50757">
        <ele>1250.5</ele>
        <time>2022-07-17T07:59:17Z</time>
      </trkpt>
      <trkpt lat="46.83395" lon="6.50758">
        <ele>1250.4</ele>
        <time>2022-07-17T07:59:25Z</time>
      </trkpt>
      <trkpt lat="46.83391" lon="6.50762">
        <ele>1250.8</ele>
        <time>2022-07-17T07:59:32Z</time>
      </trkpt>
      <trkpt lat="46.83386" lon="6.50763">
        <ele>1251.6</ele>
        <time>2022-07-17T07:59:38Z</time>
      </trkpt>
      <trkpt lat="46.8338" lon="6.50764">
        <ele>1252.8</ele>
        <time>2022-07-17T07:59:45Z</time>
      </trkpt>
      <trkpt lat="46.83375" lon="6.50764">
        <ele>1253.8</ele>
        <time>2022-07-17T07:59:49Z</time>
      </trkpt>
      <trkpt lat="46.8337" lon="6.50763">
        <ele>1254.3</ele>
        <time>2022-07-17T07:59:52Z</time>
      </trkpt>
      <trkpt lat="46.83365" lon="6.50762">
        <ele>1254.7</ele>
        <time>2022-07-17T07:59:56Z</time>
      </trkpt>
      <trkpt lat="46.83359" lon="6.50761">
        <ele>1254.7</ele>
        <time>2022-07-17T08:00:00Z</time>
      </trkpt>
      <trkpt lat="46.83354" lon="6.5076">
        <ele>1255.3</ele>
        <time>2022-07-17T08:00:06Z</time>
      </trkpt>
      <trkpt lat="46.83349" lon="6.5076">
        <ele>1255.4</ele>
        <time>2022-07-17T08:00:11Z</time>
      </trkpt>
      <trkpt lat="46.83345" lon="6.5076">
        <ele>1255.6</ele>
        <time>2022-07-17T08:00:17Z</time>
      </trkpt>
      <trkpt lat="46.8334" lon="6.50759">
        <ele>1255.1</ele>
        <time>2022-07-17T08:00:23Z</time>
      </trkpt>
      <trkpt lat="46.83335" lon="6.50757">
        <ele>1255.6</ele>
        <time>2022-07-17T08:00:28Z</time>
      </trkpt>
      <trkpt lat="46.8333" lon="6.50758">
        <ele>1255.6</ele>
        <time>2022-07-17T08:00:45Z</time>
      </trkpt>
      <trkpt lat="46.83326" lon="6.50761">
        <ele>1255.2</ele>
        <time>2022-07-17T08:00:53Z</time>
      </trkpt>
      <trkpt lat="46.83321" lon="6.50761">
        <ele>1255.5</ele>
        <time>2022-07-17T08:01:00Z</time>
      </trkpt>
      <trkpt lat="46.83316" lon="6.50761">
        <ele>1256.2</ele>
        <time>2022-07-17T08:01:06Z</time>
      </trkpt>
      <trkpt lat="46.83311" lon="6.50763">
        <ele>1256.9</ele>
        <time>2022-07-17T08:01:11Z</time>
      </trkpt>
      <trkpt lat="46.83307" lon="6.50766">
        <ele>1258</ele>
        <time>2022-07-17T08:01:16Z</time>
      </trkpt>
      <trkpt lat="46.83303" lon="6.50771">
        <ele>1259.8</ele>
        <time>2022-07-17T08:01:20Z</time>
      </trkpt>
      <trkpt lat="46.83298" lon="6.50772">
        <ele>1262.4</ele>
        <time>2022-07-17T08:01:25Z</time>
      </trkpt>
      <trkpt lat="46.83293" lon="6.50773">
        <ele>1265.3</ele>
        <time>2022-07-17T08:01:31Z</time>
      </trkpt>
      <trkpt lat="46.83288" lon="6.50771">
        <ele>1267.2</ele>
        <time>2022-07-17T08:01:35Z</time>
      </trkpt>
      <trkpt lat="46.83283" lon="6.50771">
        <ele>1269.4</ele>
        <time>2022-07-17T08:01:40Z</time>
      </trkpt>
      <trkpt lat="46.83278" lon="6.50771">
        <ele>1270.4</ele>
        <time>2022-07-17T08:01:44Z</time>
      </trkpt>
      <trkpt lat="46.83273" lon="6.50771">
        <ele>1270.7</ele>
        <time>2022-07-17T08:01:48Z</time>
      </trkpt>
      <trkpt lat="46.83269" lon="6.50773">
        <ele>1271.2</ele>
        <time>2022-07-17T08:02:00Z</time>
      </trkpt>
      <trkpt lat="46.83265" lon="6.50776">
        <ele>1271.9</ele>
        <time>2022-07-17T08:02:10Z</time>
      </trkpt>
      <trkpt lat="46.8326" lon="6.50773">
        <ele>1272.6</ele>
        <time>2022-07-17T08:03:03Z</time>
      </trkpt>
      <trkpt lat="46.83255" lon="6.50775">
        <ele>1272.8</ele>
        <time>2022-07-17T08:03:07Z</time>
      </trkpt>
      <trkpt lat="46.8325" lon="6.50777">
        <ele>1273.6</ele>
        <time>2022-07-17T08:03:11Z</time>
      </trkpt>
      <trkpt lat="46.83245" lon="6.50776">
        <ele>1273.7</ele>
        <time>2022-07-17T08:03:18Z</time>
      </trkpt>
      <trkpt lat="46.83241" lon="6.50778">
        <ele>1274.1</ele>
        <time>2022-07-17T08:03:27Z</time>
      </trkpt>
      <trkpt lat="46.83237" lon="6.50781">
        <ele>1274.4</ele>
        <time>2022-07-17T08:03:32Z</time>
      </trkpt>
      <trkpt lat="46.83232" lon="6.50783">
        <ele>1274.5</ele>
        <time>2022-07-17T08:03:41Z</time>
      </trkpt>
      <trkpt lat="46.83227" lon="6.50786">
        <ele>1275.2</ele>
        <time>2022-07-17T08:03:46Z</time>
      </trkpt>
      <trkpt lat="46.83222" lon="6.50789">
        <ele>1276.9</ele>
        <time>2022-07-17T08:03:50Z</time>
      </trkpt>
      <trkpt lat="46.83218" lon="6.50792">
        <ele>1279</ele>
        <time>2022-07-17T08:03:56Z</time>
      </trkpt>
      <trkpt lat="46.83214" lon="6.50796">
        <ele>1280.1</ele>
        <time>2022-07-17T08:04:01Z</time>
      </trkpt>
      <trkpt lat="46.83209" lon="6.50798">
        <ele>1280.8</ele>
        <time>2022-07-17T08:04:05Z</time>
      </trkpt>
      <trkpt lat="46.83205" lon="6.50801">
        <ele>1281</ele>
        <time>2022-07-17T08:04:10Z</time>
      </trkpt>
      <trkpt lat="46.83201" lon="6.50805">
        <ele>1280.5</ele>
        <time>2022-07-17T08:04:16Z</time>
      </trkpt>
      <trkpt lat="46.83196" lon="6.50808">
        <ele>1280.3</ele>
        <time>2022-07-17T08:04:20Z</time>
      </trkpt>
      <trkpt lat="46.83192" lon="6.50811">
        <ele>1281</ele>
        <time>2022-07-17T08:04:25Z</time>
      </trkpt>
      <trkpt lat="46.83187" lon="6.50814">
        <ele>1282.8</ele>
        <time>2022-07-17T08:04:31Z</time>
      </trkpt>
      <trkpt lat="46.83183" lon="6.50817">
        <ele>1284.8</ele>
        <time>2022-07-17T08:04:37Z</time>
      </trkpt>
      <trkpt lat="46.8318" lon="6.50824">
        <ele>1286.4</ele>
        <time>2022-07-17T08:04:46Z</time>
      </trkpt>
      <trkpt lat="46.83177" lon="6.50828">
        <ele>1286.8</ele>
        <time>2022-07-17T08:04:50Z</time>
      </trkpt>
      <trkpt lat="46.83172" lon="6.50832">
        <ele>1288</ele>
        <time>2022-07-17T08:04:55Z</time>
      </trkpt>
      <trkpt lat="46.8317" lon="6.50838">
        <ele>1288.8</ele>
        <time>2022-07-17T08:05:03Z</time>
      </trkpt>
      <trkpt lat="46.83165" lon="6.50839">
        <ele>1289</ele>
        <time>2022-07-17T08:05:08Z</time>
      </trkpt>
      <trkpt lat="46.8316" lon="6.50841">
        <ele>1289.1</ele>
        <time>2022-07-17T08:05:13Z</time>
      </trkpt>
      <trkpt lat="46.83156" lon="6.50846">
        <ele>1289.4</ele>
        <time>2022-07-17T08:05:21Z</time>
      </trkpt>
      <trkpt lat="46.83152" lon="6.50849">
        <ele>1290.4</ele>
        <time>2022-07-17T08:05:29Z</time>
      </trkpt>
      <trkpt lat="46.83148" lon="6.50854">
        <ele>1291</ele>
        <time>2022-07-17T08:05:36Z</time>
      </trkpt>
      <trkpt lat="46.83143" lon="6.50857">
        <ele>1291.1</ele>
        <time>2022-07-17T08:05:42Z</time>
      </trkpt>
      <trkpt lat="46.8314" lon="6.50861">
        <ele>1290.9</ele>
        <time>2022-07-17T08:05:48Z</time>
      </trkpt>
      <trkpt lat="46.83137" lon="6.50867">
        <ele>1290.8</ele>
        <time>2022-07-17T08:05:54Z</time>
      </trkpt>
      <trkpt lat="46.83134" lon="6.50873">
        <ele>1290.8</ele>
        <time>2022-07-17T08:06:00Z</time>
      </trkpt>
      <trkpt lat="46.83133" lon="6.5088">
        <ele>1291.1</ele>
        <time>2022-07-17T08:06:06Z</time>
      </trkpt>
      <trkpt lat="46.8313" lon="6.50885">
        <ele>1291.3</ele>
        <time>2022-07-17T08:06:12Z</time>
      </trkpt>
      <trkpt lat="46.83126" lon="6.50891">
        <ele>1291.6</ele>
        <time>2022-07-17T08:06:19Z</time>
      </trkpt>
      <trkpt lat="46.83123" lon="6.50896">
        <ele>1292.2</ele>
        <time>2022-07-17T08:06:26Z</time>
      </trkpt>
      <trkpt lat="46.83122" lon="6.50903">
        <ele>1292.8</ele>
        <time>2022-07-17T08:06:33Z</time>
      </trkpt>
      <trkpt lat="46.83121" lon="6.50911">
        <ele>1293.1</ele>
        <time>2022-07-17T08:06:37Z</time>
      </trkpt>
      <trkpt lat="46.83121" lon="6.50919">
        <ele>1292.5</ele>
        <time>2022-07-17T08:06:45Z</time>
      </trkpt>
      <trkpt lat="46.8312" lon="6.50926">
        <ele>1290.6</ele>
        <time>2022-07-17T08:06:51Z</time>
      </trkpt>
      <trkpt lat="46.83119" lon="6.50933">
        <ele>1289.3</ele>
        <time>2022-07-17T08:06:59Z</time>
      </trkpt>
      <trkpt lat="46.83115" lon="6.50938">
        <ele>1288.9</ele>
        <time>2022-07-17T08:07:06Z</time>
      </trkpt>
      <trkpt lat="46.83114" lon="6.50945">
        <ele>1288.2</ele>
        <time>2022-07-17T08:07:15Z</time>
      </trkpt>
      <trkpt lat="46.83114" lon="6.50952">
        <ele>1288.1</ele>
        <time>2022-07-17T08:07:21Z</time>
      </trkpt>
      <trkpt lat="46.83113" lon="6.50959">
        <ele>1288.1</ele>
        <time>2022-07-17T08:07:27Z</time>
      </trkpt>
      <trkpt lat="46.83111" lon="6.50965">
        <ele>1288.4</ele>
        <time>2022-07-17T08:07:32Z</time>
      </trkpt>
      <trkpt lat="46.83109" lon="6.50972">
        <ele>1288.7</ele>
        <time>2022-07-17T08:07:36Z</time>
      </trkpt>
      <trkpt lat="46.83107" lon="6.50979">
        <ele>1289.3</ele>
        <time>2022-07-17T08:07:41Z</time>
      </trkpt>
      <trkpt lat="46.83106" lon="6.50986">
        <ele>1290.2</ele>
        <time>2022-07-17T08:07:47Z</time>
      </trkpt>
      <trkpt lat="46.83106" lon="6.50993">
        <ele>1290.9</ele>
        <time>2022-07-17T08:07:55Z</time>
      </trkpt>
      <trkpt lat="46.83105" lon="6.51">
        <ele>1292</ele>
        <time>2022-07-17T08:08:03Z</time>
      </trkpt>
      <trkpt lat="46.83104" lon="6.51007">
        <ele>1292.4</ele>
        <time>2022-07-17T08:08:09Z</time>
      </trkpt>
      <trkpt lat="46.83103" lon="6.51014">
        <ele>1293.1</ele>
        <time>2022-07-17T08:08:16Z</time>
      </trkpt>
      <trkpt lat="46.831" lon="6.51019">
        <ele>1293.7</ele>
        <time>2022-07-17T08:08:22Z</time>
      </trkpt>
      <trkpt lat="46.83097" lon="6.51025">
        <ele>1295</ele>
        <time>2022-07-17T08:08:30Z</time>
      </trkpt>
      <trkpt lat="46.83095" lon="6.51031">
        <ele>1295.8</ele>
        <time>2022-07-17T08:08:36Z</time>
      </trkpt>
      <trkpt lat="46.83094" lon="6.51038">
        <ele>1295.8</ele>
        <time>2022-07-17T08:08:45Z</time>
      </trkpt>
      <trkpt lat="46.83089" lon="6.51042">
        <ele>1296.7</ele>
        <time>2022-07-17T08:09:00Z</time>
      </trkpt>
      <trkpt lat="46.83084" lon="6.51041">
        <ele>1297.9</ele>
        <time>2022-07-17T08:09:03Z</time>
      </trkpt>
      <trkpt lat="46.83081" lon="6.51035">
        <ele>1301</ele>
        <time>2022-07-17T08:09:09Z</time>
      </trkpt>
      <trkpt lat="46.83076" lon="6.51037">
        <ele>1305.4</ele>
        <time>2022-07-17T08:09:20Z</time>
      </trkpt>
      <trkpt lat="46.83074" lon="6.51044">
        <ele>1307</ele>
        <time>2022-07-17T08:09:25Z</time>
      </trkpt>
      <trkpt lat="46.83073" lon="6.51051">
        <ele>1309.1</ele>
        <time>2022-07-17T08:09:30Z</time>
      </trkpt>
      <trkpt lat="46.8307" lon="6.51057">
        <ele>1311.5</ele>
        <time>2022-07-17T08:09:36Z</time>
      </trkpt>
      <trkpt lat="46.83069" lon="6.51064">
        <ele>1314.4</ele>
        <time>2022-07-17T08:09:44Z</time>
      </trkpt>
      <trkpt lat="46.83066" lon="6.5107">
        <ele>1317.7</ele>
        <time>2022-07-17T08:09:58Z</time>
      </trkpt>
      <trkpt lat="46.83065" lon="6.51077">
        <ele>1318</ele>
        <time>2022-07-17T08:10:03Z</time>
      </trkpt>
      <trkpt lat="46.83064" lon="6.51084">
        <ele>1317.9</ele>
        <time>2022-07-17T08:10:08Z</time>
      </trkpt>
      <trkpt lat="46.83063" lon="6.51091">
        <ele>1318.1</ele>
        <time>2022-07-17T08:10:14Z</time>
      </trkpt>
      <trkpt lat="46.83062" lon="6.51098">
        <ele>1318.7</ele>
        <time>2022-07-17T08:10:20Z</time>
      </trkpt>
      <trkpt lat="46.83059" lon="6.51104">
        <ele>1319.4</ele>
        <time>2022-07-17T08:10:26Z</time>
      </trkpt>
      <trkpt lat="46.83056" lon="6.51109">
        <ele>1320</ele>
        <time>2022-07-17T08:10:32Z</time>
      </trkpt>
      <trkpt lat="46.83055" lon="6.51116">
        <ele>1320.4</ele>
        <time>2022-07-17T08:10:40Z</time>
      </trkpt>
      <trkpt lat="46.83054" lon="6.51123">
        <ele>1319.2</ele>
        <time>2022-07-17T08:10:49Z</time>
      </trkpt>
      <trkpt lat="46.83054" lon="6.51129">
        <ele>1318</ele>
        <time>2022-07-17T08:10:55Z</time>
      </trkpt>
      <trkpt lat="46.83054" lon="6.51137">
        <ele>1317.1</ele>
        <time>2022-07-17T08:11:00Z</time>
      </trkpt>
      <trkpt lat="46.83053" lon="6.51144">
        <ele>1315.8</ele>
        <time>2022-07-17T08:11:09Z</time>
      </trkpt>
      <trkpt lat="46.83051" lon="6.51151">
        <ele>1315.1</ele>
        <time>2022-07-17T08:11:16Z</time>
      </trkpt>
      <trkpt lat="46.8305" lon="6.51158">
        <ele>1314.7</ele>
        <time>2022-07-17T08:11:22Z</time>
      </trkpt>
      <trkpt lat="46.83049" lon="6.51166">
        <ele>1314.8</ele>
        <time>2022-07-17T08:11:28Z</time>
      </trkpt>
      <trkpt lat="46.83048" lon="6.51173">
        <ele>1315.3</ele>
        <time>2022-07-17T08:11:33Z</time>
      </trkpt>
      <trkpt lat="46.83048" lon="6.5118">
        <ele>1316</ele>
        <time>2022-07-17T08:11:38Z</time>
      </trkpt>
      <trkpt lat="46.83049" lon="6.51187">
        <ele>1317.2</ele>
        <time>2022-07-17T08:11:44Z</time>
      </trkpt>
      <trkpt lat="46.83049" lon="6.51194">
        <ele>1318.6</ele>
        <time>2022-07-17T08:11:50Z</time>
      </trkpt>
      <trkpt lat="46.83047" lon="6.512">
        <ele>1318.9</ele>
        <time>2022-07-17T08:11:57Z</time>
      </trkpt>
      <trkpt lat="46.83048" lon="6.51207">
        <ele>1318.8</ele>
        <time>2022-07-17T08:12:07Z</time>
      </trkpt>
      <trkpt lat="46.83048" lon="6.51214">
        <ele>1318.9</ele>
        <time>2022-07-17T08:12:12Z</time>
      </trkpt>
      <trkpt lat="46.83049" lon="6.5122">
        <ele>1319.7</ele>
        <time>2022-07-17T08:12:16Z</time>
      </trkpt>
      <trkpt lat="46.83049" lon="6.51227">
        <ele>1321.4</ele>
        <time>2022-07-17T08:12:21Z</time>
      </trkpt>
      <trkpt lat="46.83048" lon="6.51234">
        <ele>1323.4</ele>
        <time>2022-07-17T08:12:26Z</time>
      </trkpt>
      <trkpt lat="46.8305" lon="6.5124">
        <ele>1325.3</ele>
        <time>2022-07-17T08:12:42Z</time>
      </trkpt>
      <trkpt lat="46.83051" lon="6.51248">
        <ele>1325.9</ele>
        <time>2022-07-17T08:12:46Z</time>
      </trkpt>
      <trkpt lat="46.83051" lon="6.51256">
        <ele>1326.6</ele>
        <time>2022-07-17T08:12:51Z</time>
      </trkpt>
      <trkpt lat="46.83051" lon="6.51264">
        <ele>1327.2</ele>
        <time>2022-07-17T08:12:56Z</time>
      </trkpt>
      <trkpt lat="46.83051" lon="6.51271">
        <ele>1327.3</ele>
        <time>2022-07-17T08:13:00Z</time>
      </trkpt>
      <trkpt lat="46.83055" lon="6.51276">
        <ele>1326.7</ele>
        <time>2022-07-17T08:13:05Z</time>
      </trkpt>
      <trkpt lat="46.83057" lon="6.51281">
        <ele>1325.2</ele>
        <time>2022-07-17T08:13:12Z</time>
      </trkpt>
      <trkpt lat="46.83056" lon="6.51288">
        <ele>1324.9</ele>
        <time>2022-07-17T08:13:21Z</time>
      </trkpt>
      <trkpt lat="46.83058" lon="6.51295">
        <ele>1325.1</ele>
        <time>2022-07-17T08:13:28Z</time>
      </trkpt>
      <trkpt lat="46.83063" lon="6.51296">
        <ele>1325.7</ele>
        <time>2022-07-17T08:13:33Z</time>
      </trkpt>
      <trkpt lat="46.83067" lon="6.51298">
        <ele>1326.9</ele>
        <time>2022-07-17T08:13:40Z</time>
      </trkpt>
      <trkpt lat="46.83067" lon="6.51306">
        <ele>1327.8</ele>
        <time>2022-07-17T08:13:46Z</time>
      </trkpt>
      <trkpt lat="46.83065" lon="6.51312">
        <ele>1328.9</ele>
        <time>2022-07-17T08:13:51Z</time>
      </trkpt>
      <trkpt lat="46.83064" lon="6.51319">
        <ele>1330.4</ele>
        <time>2022-07-17T08:13:57Z</time>
      </trkpt>
      <trkpt lat="46.83061" lon="6.51323">
        <ele>1332.2</ele>
        <time>2022-07-17T08:14:04Z</time>
      </trkpt>
      <trkpt lat="46.8306" lon="6.51331">
        <ele>1333.3</ele>
        <time>2022-07-17T08:14:11Z</time>
      </trkpt>
      <trkpt lat="46.8306" lon="6.51337">
        <ele>1333.1</ele>
        <time>2022-07-17T08:14:16Z</time>
      </trkpt>
      <trkpt lat="46.83058" lon="6.51343">
        <ele>1333.2</ele>
        <time>2022-07-17T08:14:24Z</time>
      </trkpt>
      <trkpt lat="46.83061" lon="6.51347">
        <ele>1334.3</ele>
        <time>2022-07-17T08:14:41Z</time>
      </trkpt>
      <trkpt lat="46.83066" lon="6.51345">
        <ele>1336.3</ele>
        <time>2022-07-17T08:15:03Z</time>
      </trkpt>
      <trkpt lat="46.83062" lon="6.5135">
        <ele>1336.3</ele>
        <time>2022-07-17T08:15:17Z</time>
      </trkpt>
      <trkpt lat="46.83067" lon="6.51352">
        <ele>1335.4</ele>
        <time>2022-07-17T08:15:33Z</time>
      </trkpt>
      <trkpt lat="46.83066" lon="6.51346">
        <ele>1337.1</ele>
        <time>2022-07-17T08:15:45Z</time>
      </trkpt>
      <trkpt lat="46.83061" lon="6.51348">
        <ele>1339.7</ele>
        <time>2022-07-17T08:16:03Z</time>
      </trkpt>
      <trkpt lat="46.83064" lon="6.51354">
        <ele>1343.5</ele>
        <time>2022-07-17T08:16:43Z</time>
      </trkpt>
      <trkpt lat="46.83065" lon="6.51362">
        <ele>1342.7</ele>
        <time>2022-07-17T08:16:47Z</time>
      </trkpt>
      <trkpt lat="46.8306" lon="6.51365">
        <ele>1342.1</ele>
        <time>2022-07-17T08:16:52Z</time>
      </trkpt>
      <trkpt lat="46.83061" lon="6.51372">
        <ele>1342.2</ele>
        <time>2022-07-17T08:16:58Z</time>
      </trkpt>
      <trkpt lat="46.83065" lon="6.51376">
        <ele>1342.3</ele>
        <time>2022-07-17T08:17:07Z</time>
      </trkpt>
      <trkpt lat="46.83069" lon="6.5138">
        <ele>1341.2</ele>
        <time>2022-07-17T08:17:10Z</time>
      </trkpt>
      <trkpt lat="46.83074" lon="6.51382">
        <ele>1340.1</ele>
        <time>2022-07-17T08:17:13Z</time>
      </trkpt>
      <trkpt lat="46.83079" lon="6.51385">
        <ele>1338.1</ele>
        <time>2022-07-17T08:17:17Z</time>
      </trkpt>
      <trkpt lat="46.83078" lon="6.51391">
        <ele>1331.6</ele>
        <time>2022-07-17T08:17:30Z</time>
      </trkpt>
      <trkpt lat="46.83081" lon="6.51397">
        <ele>1331</ele>
        <time>2022-07-17T08:17:39Z</time>
      </trkpt>
      <trkpt lat="46.83081" lon="6.51404">
        <ele>1331.3</ele>
        <time>2022-07-17T08:17:44Z</time>
      </trkpt>
      <trkpt lat="46.83082" lon="6.51411">
        <ele>1331.9</ele>
        <time>2022-07-17T08:17:48Z</time>
      </trkpt>
      <trkpt lat="46.83084" lon="6.51417">
        <ele>1332.8</ele>
        <time>2022-07-17T08:17:53Z</time>
      </trkpt>
      <trkpt lat="46.83088" lon="6.51422">
        <ele>1334.1</ele>
        <time>2022-07-17T08:18:00Z</time>
      </trkpt>
      <trkpt lat="46.83092" lon="6.51427">
        <ele>1335.2</ele>
        <time>2022-07-17T08:18:04Z</time>
      </trkpt>
      <trkpt lat="46.83091" lon="6.51433">
        <ele>1336.7</ele>
        <time>2022-07-17T08:18:07Z</time>
      </trkpt>
      <trkpt lat="46.83089" lon="6.5144">
        <ele>1338.2</ele>
        <time>2022-07-17T08:18:10Z</time>
      </trkpt>
      <trkpt lat="46.83087" lon="6.51446">
        <ele>1339.4</ele>
        <time>2022-07-17T08:18:13Z</time>
      </trkpt>
      <trkpt lat="46.83089" lon="6.51452">
        <ele>1342</ele>
        <time>2022-07-17T08:18:20Z</time>
      </trkpt>
      <trkpt lat="46.8309" lon="6.51459">
        <ele>1345.9</ele>
        <time>2022-07-17T08:18:37Z</time>
      </trkpt>
      <trkpt lat="46.83092" lon="6.51465">
        <ele>1346</ele>
        <time>2022-07-17T08:18:43Z</time>
      </trkpt>
      <trkpt lat="46.83096" lon="6.5147">
        <ele>1346.5</ele>
        <time>2022-07-17T08:18:51Z</time>
      </trkpt>
      <trkpt lat="46.831" lon="6.51475">
        <ele>1346.6</ele>
        <time>2022-07-17T08:18:58Z</time>
      </trkpt>
      <trkpt lat="46.83099" lon="6.51483">
        <ele>1341.5</ele>
        <time>2022-07-17T08:19:12Z</time>
      </trkpt>
      <trkpt lat="46.83099" lon="6.5149">
        <ele>1341.1</ele>
        <time>2022-07-17T08:19:16Z</time>
      </trkpt>
      <trkpt lat="46.831" lon="6.51497">
        <ele>1340.9</ele>
        <time>2022-07-17T08:19:20Z</time>
      </trkpt>
      <trkpt lat="46.83102" lon="6.51504">
        <ele>1340.7</ele>
        <time>2022-07-17T08:19:23Z</time>
      </trkpt>
      <trkpt lat="46.83102" lon="6.51512">
        <ele>1340.9</ele>
        <time>2022-07-17T08:19:26Z</time>
      </trkpt>
      <trkpt lat="46.83103" lon="6.51519">
        <ele>1341.5</ele>
        <time>2022-07-17T08:19:29Z</time>
      </trkpt>
      <trkpt lat="46.83103" lon="6.51528">
        <ele>1342.4</ele>
        <time>2022-07-17T08:19:32Z</time>
      </trkpt>
      <trkpt lat="46.83102" lon="6.51536">
        <ele>1343.7</ele>
        <time>2022-07-17T08:19:35Z</time>
      </trkpt>
      <trkpt lat="46.83101" lon="6.51543">
        <ele>1345.9</ele>
        <time>2022-07-17T08:19:40Z</time>
      </trkpt>
      <trkpt lat="46.83105" lon="6.51549">
        <ele>1348.6</ele>
        <time>2022-07-17T08:19:48Z</time>
      </trkpt>
      <trkpt lat="46.83104" lon="6.51555">
        <ele>1351.3</ele>
        <time>2022-07-17T08:19:55Z</time>
      </trkpt>
      <trkpt lat="46.83104" lon="6.51563">
        <ele>1354.5</ele>
        <time>2022-07-17T08:20:01Z</time>
      </trkpt>
      <trkpt lat="46.83103" lon="6.5157">
        <ele>1357.3</ele>
        <time>2022-07-17T08:20:07Z</time>
      </trkpt>
      <trkpt lat="46.83105" lon="6.51576">
        <ele>1361.4</ele>
        <time>2022-07-17T08:20:20Z</time>
      </trkpt>
      <trkpt lat="46.83106" lon="6.51584">
        <ele>1362.2</ele>
        <time>2022-07-17T08:20:27Z</time>
      </trkpt>
      <trkpt lat="46.83109" lon="6.51589">
        <ele>1362.2</ele>
        <time>2022-07-17T08:20:33Z</time>
      </trkpt>
      <trkpt lat="46.83113" lon="6.51595">
        <ele>1362.4</ele>
        <time>2022-07-17T08:20:37Z</time>
      </trkpt>
      <trkpt lat="46.83113" lon="6.51604">
        <ele>1362.6</ele>
        <time>2022-07-17T08:20:40Z</time>
      </trkpt>
      <trkpt lat="46.83113" lon="6.51611">
        <ele>1363</ele>
        <time>2022-07-17T08:20:43Z</time>
      </trkpt>
      <trkpt lat="46.83113" lon="6.51619">
        <ele>1364.4</ele>
        <time>2022-07-17T08:20:48Z</time>
      </trkpt>
      <trkpt lat="46.83114" lon="6.51626">
        <ele>1366.3</ele>
        <time>2022-07-17T08:20:53Z</time>
      </trkpt>
      <trkpt lat="46.83114" lon="6.51634">
        <ele>1368.1</ele>
        <time>2022-07-17T08:20:57Z</time>
      </trkpt>
      <trkpt lat="46.83115" lon="6.51641">
        <ele>1370</ele>
        <time>2022-07-17T08:21:02Z</time>
      </trkpt>
      <trkpt lat="46.83116" lon="6.51648">
        <ele>1371.7</ele>
        <time>2022-07-17T08:21:08Z</time>
      </trkpt>
      <trkpt lat="46.83118" lon="6.51654">
        <ele>1372.7</ele>
        <time>2022-07-17T08:21:14Z</time>
      </trkpt>
      <trkpt lat="46.83119" lon="6.51661">
        <ele>1373.3</ele>
        <time>2022-07-17T08:21:21Z</time>
      </trkpt>
      <trkpt lat="46.8312" lon="6.51669">
        <ele>1373.6</ele>
        <time>2022-07-17T08:21:28Z</time>
      </trkpt>
      <trkpt lat="46.83119" lon="6.51675">
        <ele>1374.4</ele>
        <time>2022-07-17T08:21:35Z</time>
      </trkpt>
      <trkpt lat="46.83119" lon="6.51682">
        <ele>1374.8</ele>
        <time>2022-07-17T08:21:43Z</time>
      </trkpt>
      <trkpt lat="46.83118" lon="6.5169">
        <ele>1375</ele>
        <time>2022-07-17T08:21:49Z</time>
      </trkpt>
      <trkpt lat="46.8312" lon="6.51696">
        <ele>1375.2</ele>
        <time>2022-07-17T08:21:55Z</time>
      </trkpt>
      <trkpt lat="46.8312" lon="6.51704">
        <ele>1375.8</ele>
        <time>2022-07-17T08:22:01Z</time>
      </trkpt>
      <trkpt lat="46.8312" lon="6.51711">
        <ele>1376.9</ele>
        <time>2022-07-17T08:22:05Z</time>
      </trkpt>
      <trkpt lat="46.8312" lon="6.51719">
        <ele>1378.2</ele>
        <time>2022-07-17T08:22:10Z</time>
      </trkpt>
      <trkpt lat="46.8312" lon="6.51726">
        <ele>1379</ele>
        <time>2022-07-17T08:22:16Z</time>
      </trkpt>
      <trkpt lat="46.83122" lon="6.51732">
        <ele>1379.5</ele>
        <time>2022-07-17T08:22:21Z</time>
      </trkpt>
      <trkpt lat="46.83125" lon="6.51739">
        <ele>1379.5</ele>
        <time>2022-07-17T08:22:27Z</time>
      </trkpt>
      <trkpt lat="46.83126" lon="6.51747">
        <ele>1378.6</ele>
        <time>2022-07-17T08:22:33Z</time>
      </trkpt>
      <trkpt lat="46.83129" lon="6.51752">
        <ele>1377.3</ele>
        <time>2022-07-17T08:22:41Z</time>
      </trkpt>
      <trkpt lat="46.83132" lon="6.51757">
        <ele>1377.1</ele>
        <time>2022-07-17T08:22:48Z</time>
      </trkpt>
      <trkpt lat="46.83136" lon="6.51761">
        <ele>1377.4</ele>
        <time>2022-07-17T08:22:51Z</time>
      </trkpt>
      <trkpt lat="46.83138" lon="6.51767">
        <ele>1378</ele>
        <time>2022-07-17T08:22:55Z</time>
      </trkpt>
      <trkpt lat="46.83138" lon="6.51774">
        <ele>1378.2</ele>
        <time>2022-07-17T08:23:01Z</time>
      </trkpt>
      <trkpt lat="46.8314" lon="6.5178">
        <ele>1378.7</ele>
        <time>2022-07-17T08:23:07Z</time>
      </trkpt>
      <trkpt lat="46.83141" lon="6.51787">
        <ele>1379</ele>
        <time>2022-07-17T08:23:17Z</time>
      </trkpt>
      <trkpt lat="46.83143" lon="6.51794">
        <ele>1379.1</ele>
        <time>2022-07-17T08:23:22Z</time>
      </trkpt>
      <trkpt lat="46.83144" lon="6.51801">
        <ele>1379.7</ele>
        <time>2022-07-17T08:23:26Z</time>
      </trkpt>
      <trkpt lat="46.83146" lon="6.51808">
        <ele>1380.4</ele>
        <time>2022-07-17T08:23:31Z</time>
      </trkpt>
      <trkpt lat="46.83148" lon="6.51814">
        <ele>1380.8</ele>
        <time>2022-07-17T08:23:37Z</time>
      </trkpt>
      <trkpt lat="46.83152" lon="6.51819">
        <ele>1380.8</ele>
        <time>2022-07-17T08:23:43Z</time>
      </trkpt>
      <trkpt lat="46.83156" lon="6.51824">
        <ele>1380.2</ele>
        <time>2022-07-17T08:23:49Z</time>
      </trkpt>
      <trkpt lat="46.83159" lon="6.51829">
        <ele>1379.2</ele>
        <time>2022-07-17T08:23:56Z</time>
      </trkpt>
      <trkpt lat="46.8316" lon="6.51836">
        <ele>1378.6</ele>
        <time>2022-07-17T08:24:03Z</time>
      </trkpt>
      <trkpt lat="46.8316" lon="6.51842">
        <ele>1378.4</ele>
        <time>2022-07-17T08:24:07Z</time>
      </trkpt>
      <trkpt lat="46.83161" lon="6.5185">
        <ele>1378.1</ele>
        <time>2022-07-17T08:24:11Z</time>
      </trkpt>
      <trkpt lat="46.83162" lon="6.51857">
        <ele>1377.7</ele>
        <time>2022-07-17T08:24:16Z</time>
      </trkpt>
      <trkpt lat="46.83163" lon="6.51865">
        <ele>1377.5</ele>
        <time>2022-07-17T08:24:24Z</time>
      </trkpt>
      <trkpt lat="46.83162" lon="6.51872">
        <ele>1377.8</ele>
        <time>2022-07-17T08:24:28Z</time>
      </trkpt>
      <trkpt lat="46.83163" lon="6.51878">
        <ele>1378.2</ele>
        <time>2022-07-17T08:24:32Z</time>
      </trkpt>
      <trkpt lat="46.83163" lon="6.51886">
        <ele>1378.9</ele>
        <time>2022-07-17T08:24:39Z</time>
      </trkpt>
      <trkpt lat="46.83163" lon="6.51892">
        <ele>1379.3</ele>
        <time>2022-07-17T08:24:44Z</time>
      </trkpt>
      <trkpt lat="46.83163" lon="6.519">
        <ele>1379.8</ele>
        <time>2022-07-17T08:24:50Z</time>
      </trkpt>
      <trkpt lat="46.83162" lon="6.51907">
        <ele>1379.9</ele>
        <time>2022-07-17T08:24:54Z</time>
      </trkpt>
      <trkpt lat="46.83162" lon="6.51914">
        <ele>1380.2</ele>
        <time>2022-07-17T08:24:58Z</time>
      </trkpt>
      <trkpt lat="46.83164" lon="6.5192">
        <ele>1380.6</ele>
        <time>2022-07-17T08:25:03Z</time>
      </trkpt>
      <trkpt lat="46.83166" lon="6.51927">
        <ele>1381.6</ele>
        <time>2022-07-17T08:25:10Z</time>
      </trkpt>
      <trkpt lat="46.83169" lon="6.51933">
        <ele>1381.8</ele>
        <time>2022-07-17T08:25:15Z</time>
      </trkpt>
      <trkpt lat="46.83167" lon="6.5194">
        <ele>1381.7</ele>
        <time>2022-07-17T08:25:20Z</time>
      </trkpt>
      <trkpt lat="46.83167" lon="6.51947">
        <ele>1381.6</ele>
        <time>2022-07-17T08:25:26Z</time>
      </trkpt>
      <trkpt lat="46.8317" lon="6.51953">
        <ele>1381.2</ele>
        <time>2022-07-17T08:25:31Z</time>
      </trkpt>
      <trkpt lat="46.83171" lon="6.5196">
        <ele>1381.2</ele>
        <time>2022-07-17T08:25:37Z</time>
      </trkpt>
      <trkpt lat="46.8317" lon="6.51967">
        <ele>1380.4</ele>
        <time>2022-07-17T08:25:47Z</time>
      </trkpt>
      <trkpt lat="46.83169" lon="6.51973">
        <ele>1380.1</ele>
        <time>2022-07-17T08:25:54Z</time>
      </trkpt>
      <trkpt lat="46.83165" lon="6.51978">
        <ele>1376.5</ele>
        <time>2022-07-17T08:26:08Z</time>
      </trkpt>
      <trkpt lat="46.8316" lon="6.51977">
        <ele>1375.9</ele>
        <time>2022-07-17T08:26:11Z</time>
      </trkpt>
      <trkpt lat="46.83165" lon="6.5198">
        <ele>1380</ele>
        <time>2022-07-17T08:26:39Z</time>
      </trkpt>
      <trkpt lat="46.8317" lon="6.51981">
        <ele>1379.7</ele>
        <time>2022-07-17T08:26:45Z</time>
      </trkpt>
      <trkpt lat="46.83169" lon="6.51987">
        <ele>1382.1</ele>
        <time>2022-07-17T08:27:37Z</time>
      </trkpt>
      <trkpt lat="46.83167" lon="6.5198">
        <ele>1380</ele>
        <time>2022-07-17T08:29:14Z</time>
      </trkpt>
      <trkpt lat="46.83162" lon="6.51977">
        <ele>1378.3</ele>
        <time>2022-07-17T08:29:20Z</time>
      </trkpt>
      <trkpt lat="46.83159" lon="6.51972">
        <ele>1377.7</ele>
        <time>2022-07-17T08:29:39Z</time>
      </trkpt>
      <trkpt lat="46.83163" lon="6.51973">
        <ele>1378.4</ele>
        <time>2022-07-17T08:29:49Z</time>
      </trkpt>
      <trkpt lat="46.83165" lon="6.5198">
        <ele>1378.1</ele>
        <time>2022-07-17T08:29:53Z</time>
      </trkpt>
      <trkpt lat="46.83168" lon="6.51987">
        <ele>1378.2</ele>
        <time>2022-07-17T08:29:58Z</time>
      </trkpt>
      <trkpt lat="46.83171" lon="6.51994">
        <ele>1378.3</ele>
        <time>2022-07-17T08:30:02Z</time>
      </trkpt>
      <trkpt lat="46.83172" lon="6.52001">
        <ele>1378.4</ele>
        <time>2022-07-17T08:30:07Z</time>
      </trkpt>
      <trkpt lat="46.83173" lon="6.52008">
        <ele>1378.7</ele>
        <time>2022-07-17T08:30:12Z</time>
      </trkpt>
      <trkpt lat="46.83171" lon="6.52014">
        <ele>1379.5</ele>
        <time>2022-07-17T08:30:17Z</time>
      </trkpt>
      <trkpt lat="46.83169" lon="6.5202">
        <ele>1380.3</ele>
        <time>2022-07-17T08:30:22Z</time>
      </trkpt>
      <trkpt lat="46.83168" lon="6.52026">
        <ele>1380.4</ele>
        <time>2022-07-17T08:30:26Z</time>
      </trkpt>
      <trkpt lat="46.83166" lon="6.52033">
        <ele>1380.5</ele>
        <time>2022-07-17T08:30:31Z</time>
      </trkpt>
      <trkpt lat="46.83167" lon="6.5204">
        <ele>1380.6</ele>
        <time>2022-07-17T08:30:37Z</time>
      </trkpt>
      <trkpt lat="46.83167" lon="6.52047">
        <ele>1380.9</ele>
        <time>2022-07-17T08:30:42Z</time>
      </trkpt>
      <trkpt lat="46.83166" lon="6.52054">
        <ele>1381.1</ele>
        <time>2022-07-17T08:30:46Z</time>
      </trkpt>
      <trkpt lat="46.83166" lon="6.52061">
        <ele>1381.2</ele>
        <time>2022-07-17T08:30:50Z</time>
      </trkpt>
      <trkpt lat="46.83166" lon="6.52069">
        <ele>1381.5</ele>
        <time>2022-07-17T08:30:56Z</time>
      </trkpt>
      <trkpt lat="46.83168" lon="6.52075">
        <ele>1381.8</ele>
        <time>2022-07-17T08:31:02Z</time>
      </trkpt>
      <trkpt lat="46.83169" lon="6.52082">
        <ele>1381.9</ele>
        <time>2022-07-17T08:31:08Z</time>
      </trkpt>
      <trkpt lat="46.83168" lon="6.52089">
        <ele>1381.6</ele>
        <time>2022-07-17T08:31:23Z</time>
      </trkpt>
      <trkpt lat="46.83164" lon="6.52092">
        <ele>1381.6</ele>
        <time>2022-07-17T08:31:29Z</time>
      </trkpt>
      <trkpt lat="46.8316" lon="6.52096">
        <ele>1382.4</ele>
        <time>2022-07-17T08:31:46Z</time>
      </trkpt>
      <trkpt lat="46.83165" lon="6.52093">
        <ele>1383.1</ele>
        <time>2022-07-17T08:32:10Z</time>
      </trkpt>
      <trkpt lat="46.83169" lon="6.52094">
        <ele>1382.6</ele>
        <time>2022-07-17T08:32:15Z</time>
      </trkpt>
      <trkpt lat="46.83173" lon="6.52099">
        <ele>1382.3</ele>
        <time>2022-07-17T08:32:23Z</time>
      </trkpt>
      <trkpt lat="46.83175" lon="6.52105">
        <ele>1382.5</ele>
        <time>2022-07-17T08:32:30Z</time>
      </trkpt>
      <trkpt lat="46.8318" lon="6.5211">
        <ele>1382.8</ele>
        <time>2022-07-17T08:32:35Z</time>
      </trkpt>
      <trkpt lat="46.83184" lon="6.52111">
        <ele>1382.9</ele>
        <time>2022-07-17T08:32:39Z</time>
      </trkpt>
      <trkpt lat="46.83189" lon="6.52113">
        <ele>1383.1</ele>
        <time>2022-07-17T08:32:44Z</time>
      </trkpt>
      <trkpt lat="46.83194" lon="6.52113">
        <ele>1383</ele>
        <time>2022-07-17T08:32:51Z</time>
      </trkpt>
      <trkpt lat="46.83198" lon="6.52111">
        <ele>1383.2</ele>
        <time>2022-07-17T08:32:57Z</time>
      </trkpt>
      <trkpt lat="46.83203" lon="6.52111">
        <ele>1383.8</ele>
        <time>2022-07-17T08:33:05Z</time>
      </trkpt>
      <trkpt lat="46.83207" lon="6.52109">
        <ele>1383.6</ele>
        <time>2022-07-17T08:33:11Z</time>
      </trkpt>
      <trkpt lat="46.83212" lon="6.52111">
        <ele>1384.1</ele>
        <time>2022-07-17T08:33:18Z</time>
      </trkpt>
      <trkpt lat="46.83217" lon="6.52113">
        <ele>1385</ele>
        <time>2022-07-17T08:33:24Z</time>
      </trkpt>
      <trkpt lat="46.83221" lon="6.52114">
        <ele>1386.1</ele>
        <time>2022-07-17T08:33:29Z</time>
      </trkpt>
      <trkpt lat="46.83217" lon="6.52111">
        <ele>1385.9</ele>
        <time>2022-07-17T08:33:48Z</time>
      </trkpt>
      <trkpt lat="46.83211" lon="6.5211">
        <ele>1385.7</ele>
        <time>2022-07-17T08:33:52Z</time>
      </trkpt>
      <trkpt lat="46.83207" lon="6.52109">
        <ele>1385.6</ele>
        <time>2022-07-17T08:33:57Z</time>
      </trkpt>
      <trkpt lat="46.83202" lon="6.52108">
        <ele>1384.8</ele>
        <time>2022-07-17T08:34:02Z</time>
      </trkpt>
      <trkpt lat="46.83197" lon="6.5211">
        <ele>1383.9</ele>
        <time>2022-07-17T08:34:07Z</time>
      </trkpt>
      <trkpt lat="46.83193" lon="6.52114">
        <ele>1383</ele>
        <time>2022-07-17T08:34:13Z</time>
      </trkpt>
      <trkpt lat="46.83193" lon="6.52107">
        <ele>1382.3</ele>
        <time>2022-07-17T08:34:37Z</time>
      </trkpt>
      <trkpt lat="46.83197" lon="6.52107">
        <ele>1382.3</ele>
        <time>2022-07-17T08:34:42Z</time>
      </trkpt>
      <trkpt lat="46.83202" lon="6.52106">
        <ele>1382.7</ele>
        <time>2022-07-17T08:34:48Z</time>
      </trkpt>
      <trkpt lat="46.83207" lon="6.52108">
        <ele>1382.7</ele>
        <time>2022-07-17T08:34:53Z</time>
      </trkpt>
      <trkpt lat="46.83212" lon="6.5211">
        <ele>1382.6</ele>
        <time>2022-07-17T08:34:57Z</time>
      </trkpt>
      <trkpt lat="46.83216" lon="6.52111">
        <ele>1382.8</ele>
        <time>2022-07-17T08:35:01Z</time>
      </trkpt>
      <trkpt lat="46.83221" lon="6.52114">
        <ele>1383.7</ele>
        <time>2022-07-17T08:35:05Z</time>
      </trkpt>
      <trkpt lat="46.83225" lon="6.52116">
        <ele>1386.1</ele>
        <time>2022-07-17T08:35:12Z</time>
      </trkpt>
      <trkpt lat="46.8323" lon="6.52115">
        <ele>1387.2</ele>
        <time>2022-07-17T08:35:18Z</time>
      </trkpt>
      <trkpt lat="46.83234" lon="6.52111">
        <ele>1387.1</ele>
        <time>2022-07-17T08:35:25Z</time>
      </trkpt>
      <trkpt lat="46.8324" lon="6.52111">
        <ele>1387.4</ele>
        <time>2022-07-17T08:35:31Z</time>
      </trkpt>
      <trkpt lat="46.83245" lon="6.52113">
        <ele>1387.7</ele>
        <time>2022-07-17T08:35:35Z</time>
      </trkpt>
      <trkpt lat="46.8325" lon="6.52115">
        <ele>1387.7</ele>
        <time>2022-07-17T08:35:39Z</time>
      </trkpt>
      <trkpt lat="46.83251" lon="6.52108">
        <ele>1389.2</ele>
        <time>2022-07-17T08:36:03Z</time>
      </trkpt>
      <trkpt lat="46.83256" lon="6.5211">
        <ele>1390.3</ele>
        <time>2022-07-17T08:36:21Z</time>
      </trkpt>
      <trkpt lat="46.83261" lon="6.52106">
        <ele>1389.9</ele>
        <time>2022-07-17T08:36:26Z</time>
      </trkpt>
      <trkpt lat="46.83266" lon="6.52104">
        <ele>1389.2</ele>
        <time>2022-07-17T08:36:31Z</time>
      </trkpt>
      <trkpt lat="46.83271" lon="6.52108">
        <ele>1388.8</ele>
        <time>2022-07-17T08:36:35Z</time>
      </trkpt>
      <trkpt lat="46.83275" lon="6.52111">
        <ele>1389.1</ele>
        <time>2022-07-17T08:36:38Z</time>
      </trkpt>
      <trkpt lat="46.8328" lon="6.52112">
        <ele>1389.6</ele>
        <time>2022-07-17T08:36:42Z</time>
      </trkpt>
      <trkpt lat="46.83285" lon="6.52112">
        <ele>1390.3</ele>
        <time>2022-07-17T08:36:47Z</time>
      </trkpt>
      <trkpt lat="46.8329" lon="6.52113">
        <ele>1391</ele>
        <time>2022-07-17T08:36:53Z</time>
      </trkpt>
      <trkpt lat="46.83294" lon="6.52114">
        <ele>1391.3</ele>
        <time>2022-07-17T08:36:58Z</time>
      </trkpt>
      <trkpt lat="46.83299" lon="6.52112">
        <ele>1391.4</ele>
        <time>2022-07-17T08:37:05Z</time>
      </trkpt>
      <trkpt lat="46.83305" lon="6.52111">
        <ele>1391.5</ele>
        <time>2022-07-17T08:37:10Z</time>
      </trkpt>
      <trkpt lat="46.83309" lon="6.52111">
        <ele>1391.4</ele>
        <time>2022-07-17T08:37:16Z</time>
      </trkpt>
      <trkpt lat="46.83315" lon="6.52112">
        <ele>1391.6</ele>
        <time>2022-07-17T08:37:22Z</time>
      </trkpt>
      <trkpt lat="46.83319" lon="6.52114">
        <ele>1392.3</ele>
        <time>2022-07-17T08:37:29Z</time>
      </trkpt>
      <trkpt lat="46.83324" lon="6.52114">
        <ele>1392</ele>
        <time>2022-07-17T08:37:34Z</time>
      </trkpt>
      <trkpt lat="46.83329" lon="6.52114">
        <ele>1391.7</ele>
        <time>2022-07-17T08:37:43Z</time>
      </trkpt>
      <trkpt lat="46.83333" lon="6.52116">
        <ele>1391.5</ele>
        <time>2022-07-17T08:37:47Z</time>
      </trkpt>
      <trkpt lat="46.83338" lon="6.52117">
        <ele>1390.7</ele>
        <time>2022-07-17T08:37:57Z</time>
      </trkpt>
      <trkpt lat="46.83343" lon="6.5212">
        <ele>1391.1</ele>
        <time>2022-07-17T08:38:03Z</time>
      </trkpt>
      <trkpt lat="46.83348" lon="6.52122">
        <ele>1391.5</ele>
        <time>2022-07-17T08:38:07Z</time>
      </trkpt>
      <trkpt lat="46.83352" lon="6.52124">
        <ele>1392.2</ele>
        <time>2022-07-17T08:38:12Z</time>
      </trkpt>
      <trkpt lat="46.83357" lon="6.52124">
        <ele>1393</ele>
        <time>2022-07-17T08:38:16Z</time>
      </trkpt>
      <trkpt lat="46.83362" lon="6.52122">
        <ele>1394.5</ele>
        <time>2022-07-17T08:38:23Z</time>
      </trkpt>
      <trkpt lat="46.83365" lon="6.52116">
        <ele>1394</ele>
        <time>2022-07-17T08:38:29Z</time>
      </trkpt>
      <trkpt lat="46.83369" lon="6.52111">
        <ele>1392.9</ele>
        <time>2022-07-17T08:38:33Z</time>
      </trkpt>
      <trkpt lat="46.83369" lon="6.52104">
        <ele>1390.3</ele>
        <time>2022-07-17T08:38:41Z</time>
      </trkpt>
      <trkpt lat="46.83372" lon="6.52098">
        <ele>1389.8</ele>
        <time>2022-07-17T08:38:49Z</time>
      </trkpt>
      <trkpt lat="46.83373" lon="6.52092">
        <ele>1389.9</ele>
        <time>2022-07-17T08:38:59Z</time>
      </trkpt>
      <trkpt lat="46.83378" lon="6.52093">
        <ele>1390</ele>
        <time>2022-07-17T08:39:04Z</time>
      </trkpt>
      <trkpt lat="46.83383" lon="6.52092">
        <ele>1390.4</ele>
        <time>2022-07-17T08:39:09Z</time>
      </trkpt>
      <trkpt lat="46.83388" lon="6.52092">
        <ele>1391.2</ele>
        <time>2022-07-17T08:39:13Z</time>
      </trkpt>
      <trkpt lat="46.83393" lon="6.52093">
        <ele>1392.7</ele>
        <time>2022-07-17T08:39:17Z</time>
      </trkpt>
      <trkpt lat="46.83398" lon="6.52094">
        <ele>1396.1</ele>
        <time>2022-07-17T08:39:24Z</time>
      </trkpt>
      <trkpt lat="46.83403" lon="6.52095">
        <ele>1397.5</ele>
        <time>2022-07-17T08:39:29Z</time>
      </trkpt>
      <trkpt lat="46.83409" lon="6.52094">
        <ele>1398.9</ele>
        <time>2022-07-17T08:39:32Z</time>
      </trkpt>
      <trkpt lat="46.83414" lon="6.52093">
        <ele>1400</ele>
        <time>2022-07-17T08:39:35Z</time>
      </trkpt>
      <trkpt lat="46.83418" lon="6.52098">
        <ele>1401.9</ele>
        <time>2022-07-17T08:39:46Z</time>
      </trkpt>
      <trkpt lat="46.83422" lon="6.52101">
        <ele>1403.4</ele>
        <time>2022-07-17T08:39:50Z</time>
      </trkpt>
      <trkpt lat="46.83424" lon="6.52107">
        <ele>1407.9</ele>
        <time>2022-07-17T08:39:58Z</time>
      </trkpt>
      <trkpt lat="46.83427" lon="6.52113">
        <ele>1406.1</ele>
        <time>2022-07-17T08:40:07Z</time>
      </trkpt>
      <trkpt lat="46.83429" lon="6.52119">
        <ele>1404.7</ele>
        <time>2022-07-17T08:40:12Z</time>
      </trkpt>
      <trkpt lat="46.83432" lon="6.52125">
        <ele>1405.1</ele>
        <time>2022-07-17T08:40:18Z</time>
      </trkpt>
      <trkpt lat="46.83434" lon="6.52131">
        <ele>1406.6</ele>
        <time>2022-07-17T08:40:24Z</time>
      </trkpt>
      <trkpt lat="46.83438" lon="6.52135">
        <ele>1408.5</ele>
        <time>2022-07-17T08:40:30Z</time>
      </trkpt>
      <trkpt lat="46.83442" lon="6.52138">
        <ele>1408.2</ele>
        <time>2022-07-17T08:40:34Z</time>
      </trkpt>
      <trkpt lat="46.83445" lon="6.52143">
        <ele>1406</ele>
        <time>2022-07-17T08:40:41Z</time>
      </trkpt>
      <trkpt lat="46.83449" lon="6.52149">
        <ele>1403.9</ele>
        <time>2022-07-17T08:40:47Z</time>
      </trkpt>
      <trkpt lat="46.83453" lon="6.52153">
        <ele>1403.6</ele>
        <time>2022-07-17T08:40:53Z</time>
      </trkpt>
      <trkpt lat="46.83456" lon="6.52158">
        <ele>1405</ele>
        <time>2022-07-17T08:40:59Z</time>
      </trkpt>
      <trkpt lat="46.8346" lon="6.52163">
        <ele>1407.3</ele>
        <time>2022-07-17T08:41:07Z</time>
      </trkpt>
      <trkpt lat="46.83465" lon="6.52165">
        <ele>1408.5</ele>
        <time>2022-07-17T08:41:12Z</time>
      </trkpt>
      <trkpt lat="46.83469" lon="6.52166">
        <ele>1409.2</ele>
        <time>2022-07-17T08:41:15Z</time>
      </trkpt>
      <trkpt lat="46.83474" lon="6.52169">
        <ele>1409.9</ele>
        <time>2022-07-17T08:41:21Z</time>
      </trkpt>
      <trkpt lat="46.83476" lon="6.52176">
        <ele>1410.2</ele>
        <time>2022-07-17T08:41:30Z</time>
      </trkpt>
      <trkpt lat="46.83479" lon="6.52182">
        <ele>1410</ele>
        <time>2022-07-17T08:41:37Z</time>
      </trkpt>
      <trkpt lat="46.8348" lon="6.52188">
        <ele>1409.4</ele>
        <time>2022-07-17T08:41:44Z</time>
      </trkpt>
      <trkpt lat="46.83479" lon="6.52195">
        <ele>1409.8</ele>
        <time>2022-07-17T08:41:54Z</time>
      </trkpt>
      <trkpt lat="46.83484" lon="6.52196">
        <ele>1413.2</ele>
        <time>2022-07-17T08:42:10Z</time>
      </trkpt>
      <trkpt lat="46.83489" lon="6.52196">
        <ele>1413.1</ele>
        <time>2022-07-17T08:42:15Z</time>
      </trkpt>
      <trkpt lat="46.83494" lon="6.52194">
        <ele>1412.7</ele>
        <time>2022-07-17T08:42:19Z</time>
      </trkpt>
      <trkpt lat="46.83499" lon="6.52193">
        <ele>1412.2</ele>
        <time>2022-07-17T08:42:24Z</time>
      </trkpt>
      <trkpt lat="46.83504" lon="6.52192">
        <ele>1412</ele>
        <time>2022-07-17T08:42:29Z</time>
      </trkpt>
      <trkpt lat="46.83509" lon="6.52192">
        <ele>1411.9</ele>
        <time>2022-07-17T08:42:34Z</time>
      </trkpt>
      <trkpt lat="46.83513" lon="6.52193">
        <ele>1412.1</ele>
        <time>2022-07-17T08:42:39Z</time>
      </trkpt>
      <trkpt lat="46.83517" lon="6.52197">
        <ele>1412.3</ele>
        <time>2022-07-17T08:42:44Z</time>
      </trkpt>
      <trkpt lat="46.8352" lon="6.52202">
        <ele>1412.9</ele>
        <time>2022-07-17T08:42:50Z</time>
      </trkpt>
      <trkpt lat="46.83522" lon="6.52209">
        <ele>1412.9</ele>
        <time>2022-07-17T08:42:56Z</time>
      </trkpt>
      <trkpt lat="46.83524" lon="6.52216">
        <ele>1412.7</ele>
        <time>2022-07-17T08:43:01Z</time>
      </trkpt>
      <trkpt lat="46.83527" lon="6.52222">
        <ele>1413</ele>
        <time>2022-07-17T08:43:07Z</time>
      </trkpt>
      <trkpt lat="46.83528" lon="6.52229">
        <ele>1413.9</ele>
        <time>2022-07-17T08:43:14Z</time>
      </trkpt>
      <trkpt lat="46.83532" lon="6.52233">
        <ele>1415.9</ele>
        <time>2022-07-17T08:43:23Z</time>
      </trkpt>
      <trkpt lat="46.83536" lon="6.52237">
        <ele>1417.6</ele>
        <time>2022-07-17T08:43:34Z</time>
      </trkpt>
      <trkpt lat="46.8354" lon="6.52238">
        <ele>1418</ele>
        <time>2022-07-17T08:43:38Z</time>
      </trkpt>
      <trkpt lat="46.83544" lon="6.52243">
        <ele>1418.5</ele>
        <time>2022-07-17T08:43:42Z</time>
      </trkpt>
      <trkpt lat="46.83541" lon="6.52249">
        <ele>1421.4</ele>
        <time>2022-07-17T08:43:52Z</time>
      </trkpt>
      <trkpt lat="46.83539" lon="6.52257">
        <ele>1424.7</ele>
        <time>2022-07-17T08:44:18Z</time>
      </trkpt>
      <trkpt lat="46.83539" lon="6.52264">
        <ele>1426.7</ele>
        <time>2022-07-17T08:44:25Z</time>
      </trkpt>
      <trkpt lat="46.83542" lon="6.52269">
        <ele>1428.9</ele>
        <time>2022-07-17T08:44:36Z</time>
      </trkpt>
      <trkpt lat="46.83547" lon="6.5227">
        <ele>1430.1</ele>
        <time>2022-07-17T08:44:42Z</time>
      </trkpt>
      <trkpt lat="46.83552" lon="6.52269">
        <ele>1430.5</ele>
        <time>2022-07-17T08:44:46Z</time>
      </trkpt>
      <trkpt lat="46.83557" lon="6.52269">
        <ele>1430.9</ele>
        <time>2022-07-17T08:44:50Z</time>
      </trkpt>
      <trkpt lat="46.83561" lon="6.52271">
        <ele>1432.7</ele>
        <time>2022-07-17T08:45:01Z</time>
      </trkpt>
      <trkpt lat="46.83564" lon="6.52277">
        <ele>1433.6</ele>
        <time>2022-07-17T08:45:09Z</time>
      </trkpt>
      <trkpt lat="46.83565" lon="6.52284">
        <ele>1433.6</ele>
        <time>2022-07-17T08:45:16Z</time>
      </trkpt>
      <trkpt lat="46.83563" lon="6.5229">
        <ele>1434.1</ele>
        <time>2022-07-17T08:45:30Z</time>
      </trkpt>
      <trkpt lat="46.83563" lon="6.52296">
        <ele>1435.2</ele>
        <time>2022-07-17T08:45:52Z</time>
      </trkpt>
      <trkpt lat="46.83567" lon="6.52293">
        <ele>1434.4</ele>
        <time>2022-07-17T08:46:34Z</time>
      </trkpt>
      <trkpt lat="46.83572" lon="6.52295">
        <ele>1435.1</ele>
        <time>2022-07-17T08:46:41Z</time>
      </trkpt>
      <trkpt lat="46.83576" lon="6.52298">
        <ele>1436.4</ele>
        <time>2022-07-17T08:46:46Z</time>
      </trkpt>
      <trkpt lat="46.8358" lon="6.52302">
        <ele>1440</ele>
        <time>2022-07-17T08:47:18Z</time>
      </trkpt>
      <trkpt lat="46.83584" lon="6.52303">
        <ele>1439</ele>
        <time>2022-07-17T08:47:23Z</time>
      </trkpt>
      <trkpt lat="46.83588" lon="6.52306">
        <ele>1438.6</ele>
        <time>2022-07-17T08:47:29Z</time>
      </trkpt>
      <trkpt lat="46.83592" lon="6.5231">
        <ele>1439.3</ele>
        <time>2022-07-17T08:47:39Z</time>
      </trkpt>
      <trkpt lat="46.83596" lon="6.52313">
        <ele>1439.2</ele>
        <time>2022-07-17T08:47:50Z</time>
      </trkpt>
      <trkpt lat="46.836" lon="6.52317">
        <ele>1439.7</ele>
        <time>2022-07-17T08:47:56Z</time>
      </trkpt>
      <trkpt lat="46.83604" lon="6.52321">
        <ele>1441.2</ele>
        <time>2022-07-17T08:48:02Z</time>
      </trkpt>
      <trkpt lat="46.83608" lon="6.52324">
        <ele>1443.4</ele>
        <time>2022-07-17T08:48:08Z</time>
      </trkpt>
      <trkpt lat="46.83613" lon="6.52326">
        <ele>1445.5</ele>
        <time>2022-07-17T08:48:14Z</time>
      </trkpt>
      <trkpt lat="46.83617" lon="6.52329">
        <ele>1448</ele>
        <time>2022-07-17T08:48:30Z</time>
      </trkpt>
      <trkpt lat="46.83618" lon="6.52336">
        <ele>1448.8</ele>
        <time>2022-07-17T08:48:36Z</time>
      </trkpt>
      <trkpt lat="46.83621" lon="6.52341">
        <ele>1449.3</ele>
        <time>2022-07-17T08:48:40Z</time>
      </trkpt>
      <trkpt lat="46.83623" lon="6.52347">
        <ele>1450.1</ele>
        <time>2022-07-17T08:48:46Z</time>
      </trkpt>
      <trkpt lat="46.83626" lon="6.52352">
        <ele>1451.1</ele>
        <time>2022-07-17T08:48:52Z</time>
      </trkpt>
      <trkpt lat="46.83629" lon="6.52357">
        <ele>1452.5</ele>
        <time>2022-07-17T08:48:59Z</time>
      </trkpt>
      <trkpt lat="46.83629" lon="6.52364">
        <ele>1455.2</ele>
        <time>2022-07-17T08:49:24Z</time>
      </trkpt>
      <trkpt lat="46.83632" lon="6.5237">
        <ele>1453.4</ele>
        <time>2022-07-17T08:49:35Z</time>
      </trkpt>
      <trkpt lat="46.83635" lon="6.52375">
        <ele>1452.6</ele>
        <time>2022-07-17T08:50:07Z</time>
      </trkpt>
      <trkpt lat="46.8364" lon="6.52379">
        <ele>1452.9</ele>
        <time>2022-07-17T08:50:13Z</time>
      </trkpt>
      <trkpt lat="46.83644" lon="6.52383">
        <ele>1453.7</ele>
        <time>2022-07-17T08:50:18Z</time>
      </trkpt>
      <trkpt lat="46.83648" lon="6.52378">
        <ele>1454.2</ele>
        <time>2022-07-17T08:52:21Z</time>
      </trkpt>
      <trkpt lat="46.83651" lon="6.52373">
        <ele>1451.9</ele>
        <time>2022-07-17T08:52:28Z</time>
      </trkpt>
      <trkpt lat="46.83655" lon="6.52371">
        <ele>1451.1</ele>
        <time>2022-07-17T08:52:35Z</time>
      </trkpt>
      <trkpt lat="46.83659" lon="6.52365">
        <ele>1451.4</ele>
        <time>2022-07-17T08:52:43Z</time>
      </trkpt>
      <trkpt lat="46.83663" lon="6.52362">
        <ele>1451.7</ele>
        <time>2022-07-17T08:52:49Z</time>
      </trkpt>
      <trkpt lat="46.83667" lon="6.52364">
        <ele>1452.3</ele>
        <time>2022-07-17T08:52:56Z</time>
      </trkpt>
      <trkpt lat="46.83672" lon="6.52366">
        <ele>1452.8</ele>
        <time>2022-07-17T08:53:02Z</time>
      </trkpt>
      <trkpt lat="46.83677" lon="6.52368">
        <ele>1453.2</ele>
        <time>2022-07-17T08:53:06Z</time>
      </trkpt>
      <trkpt lat="46.83681" lon="6.5237">
        <ele>1453.8</ele>
        <time>2022-07-17T08:53:11Z</time>
      </trkpt>
      <trkpt lat="46.83686" lon="6.52373">
        <ele>1454.5</ele>
        <time>2022-07-17T08:53:16Z</time>
      </trkpt>
      <trkpt lat="46.83691" lon="6.52375">
        <ele>1455.6</ele>
        <time>2022-07-17T08:53:23Z</time>
      </trkpt>
      <trkpt lat="46.83695" lon="6.52377">
        <ele>1456.2</ele>
        <time>2022-07-17T08:53:27Z</time>
      </trkpt>
      <trkpt lat="46.837" lon="6.52381">
        <ele>1456.7</ele>
        <time>2022-07-17T08:53:32Z</time>
      </trkpt>
      <trkpt lat="46.83704" lon="6.52385">
        <ele>1457</ele>
        <time>2022-07-17T08:53:37Z</time>
      </trkpt>
      <trkpt lat="46.83709" lon="6.52388">
        <ele>1457.4</ele>
        <time>2022-07-17T08:53:42Z</time>
      </trkpt>
      <trkpt lat="46.83713" lon="6.52391">
        <ele>1457.7</ele>
        <time>2022-07-17T08:53:46Z</time>
      </trkpt>
      <trkpt lat="46.83719" lon="6.52394">
        <ele>1457.7</ele>
        <time>2022-07-17T08:53:52Z</time>
      </trkpt>
      <trkpt lat="46.83722" lon="6.52398">
        <ele>1457.8</ele>
        <time>2022-07-17T08:53:59Z</time>
      </trkpt>
      <trkpt lat="46.83728" lon="6.52401">
        <ele>1458.2</ele>
        <time>2022-07-17T08:54:03Z</time>
      </trkpt>
      <trkpt lat="46.83733" lon="6.52403">
        <ele>1458.2</ele>
        <time>2022-07-17T08:54:07Z</time>
      </trkpt>
      <trkpt lat="46.83738" lon="6.52405">
        <ele>1458.3</ele>
        <time>2022-07-17T08:54:12Z</time>
      </trkpt>
      <trkpt lat="46.83741" lon="6.5241">
        <ele>1459.4</ele>
        <time>2022-07-17T08:54:16Z</time>
      </trkpt>
      <trkpt lat="46.83745" lon="6.52414">
        <ele>1461</ele>
        <time>2022-07-17T08:54:22Z</time>
      </trkpt>
      <trkpt lat="46.83749" lon="6.52418">
        <ele>1459.9</ele>
        <time>2022-07-17T08:54:29Z</time>
      </trkpt>
      <trkpt lat="46.83753" lon="6.52422">
        <ele>1459</ele>
        <time>2022-07-17T08:54:34Z</time>
      </trkpt>
      <trkpt lat="46.83757" lon="6.52425">
        <ele>1458.6</ele>
        <time>2022-07-17T08:54:39Z</time>
      </trkpt>
      <trkpt lat="46.83762" lon="6.52425">
        <ele>1456.4</ele>
        <time>2022-07-17T08:54:50Z</time>
      </trkpt>
      <trkpt lat="46.83766" lon="6.52428">
        <ele>1458.2</ele>
        <time>2022-07-17T08:54:59Z</time>
      </trkpt>
      <trkpt lat="46.8377" lon="6.52429">
        <ele>1460.6</ele>
        <time>2022-07-17T08:55:09Z</time>
      </trkpt>
      <trkpt lat="46.83775" lon="6.52428">
        <ele>1460.5</ele>
        <time>2022-07-17T08:55:18Z</time>
      </trkpt>
      <trkpt lat="46.8378" lon="6.5243">
        <ele>1460.2</ele>
        <time>2022-07-17T08:55:25Z</time>
      </trkpt>
      <trkpt lat="46.83785" lon="6.52429">
        <ele>1459.9</ele>
        <time>2022-07-17T08:55:32Z</time>
      </trkpt>
      <trkpt lat="46.83789" lon="6.52431">
        <ele>1460.1</ele>
        <time>2022-07-17T08:55:38Z</time>
      </trkpt>
      <trkpt lat="46.83793" lon="6.52436">
        <ele>1460.3</ele>
        <time>2022-07-17T08:55:46Z</time>
      </trkpt>
      <trkpt lat="46.83797" lon="6.52439">
        <ele>1460.5</ele>
        <time>2022-07-17T08:55:55Z</time>
      </trkpt>
      <trkpt lat="46.83802" lon="6.5244">
        <ele>1462.3</ele>
        <time>2022-07-17T08:56:03Z</time>
      </trkpt>
      <trkpt lat="46.83805" lon="6.52436">
        <ele>1466.6</ele>
        <time>2022-07-17T08:56:15Z</time>
      </trkpt>
      <trkpt lat="46.83809" lon="6.52441">
        <ele>1469</ele>
        <time>2022-07-17T08:56:46Z</time>
      </trkpt>
      <trkpt lat="46.83814" lon="6.52441">
        <ele>1470.2</ele>
        <time>2022-07-17T08:57:01Z</time>
      </trkpt>
      <trkpt lat="46.83819" lon="6.52442">
        <ele>1471</ele>
        <time>2022-07-17T08:57:06Z</time>
      </trkpt>
      <trkpt lat="46.83824" lon="6.52443">
        <ele>1474</ele>
        <time>2022-07-17T08:57:21Z</time>
      </trkpt>
      <trkpt lat="46.83827" lon="6.52449">
        <ele>1474.7</ele>
        <time>2022-07-17T08:57:26Z</time>
      </trkpt>
      <trkpt lat="46.83828" lon="6.52456">
        <ele>1474.8</ele>
        <time>2022-07-17T08:57:49Z</time>
      </trkpt>
      <trkpt lat="46.83831" lon="6.52461">
        <ele>1474.6</ele>
        <time>2022-07-17T08:57:54Z</time>
      </trkpt>
      <trkpt lat="46.83835" lon="6.52464">
        <ele>1473.2</ele>
        <time>2022-07-17T08:58:02Z</time>
      </trkpt>
      <trkpt lat="46.8384" lon="6.52463">
        <ele>1472.5</ele>
        <time>2022-07-17T08:58:07Z</time>
      </trkpt>
      <trkpt lat="46.83844" lon="6.52462">
        <ele>1472.4</ele>
        <time>2022-07-17T08:58:12Z</time>
      </trkpt>
      <trkpt lat="46.83849" lon="6.52462">
        <ele>1473.4</ele>
        <time>2022-07-17T08:58:20Z</time>
      </trkpt>
      <trkpt lat="46.83854" lon="6.52461">
        <ele>1474.2</ele>
        <time>2022-07-17T08:58:27Z</time>
      </trkpt>
      <trkpt lat="46.83856" lon="6.52454">
        <ele>1474.3</ele>
        <time>2022-07-17T08:58:41Z</time>
      </trkpt>
      <trkpt lat="46.83859" lon="6.52449">
        <ele>1474.1</ele>
        <time>2022-07-17T08:58:52Z</time>
      </trkpt>
      <trkpt lat="46.83864" lon="6.52447">
        <ele>1476.5</ele>
        <time>2022-07-17T08:59:05Z</time>
      </trkpt>
      <trkpt lat="46.83869" lon="6.52446">
        <ele>1479</ele>
        <time>2022-07-17T08:59:12Z</time>
      </trkpt>
      <trkpt lat="46.83874" lon="6.52447">
        <ele>1481.2</ele>
        <time>2022-07-17T08:59:19Z</time>
      </trkpt>
      <trkpt lat="46.83878" lon="6.52448">
        <ele>1482.7</ele>
        <time>2022-07-17T08:59:31Z</time>
      </trkpt>
      <trkpt lat="46.83883" lon="6.52451">
        <ele>1483.2</ele>
        <time>2022-07-17T08:59:39Z</time>
      </trkpt>
      <trkpt lat="46.83887" lon="6.52449">
        <ele>1490.3</ele>
        <time>2022-07-17T09:01:20Z</time>
      </trkpt>
      <trkpt lat="46.83892" lon="6.5245">
        <ele>1491.8</ele>
        <time>2022-07-17T09:01:25Z</time>
      </trkpt>
      <trkpt lat="46.83895" lon="6.52455">
        <ele>1494.4</ele>
        <time>2022-07-17T09:01:35Z</time>
      </trkpt>
      <trkpt lat="46.839" lon="6.52457">
        <ele>1496</ele>
        <time>2022-07-17T09:01:45Z</time>
      </trkpt>
      <trkpt lat="46.83906" lon="6.52457">
        <ele>1496.9</ele>
        <time>2022-07-17T09:01:53Z</time>
      </trkpt>
      <trkpt lat="46.8391" lon="6.52457">
        <ele>1497</ele>
        <time>2022-07-17T09:03:45Z</time>
      </trkpt>
      <trkpt lat="46.83915" lon="6.52459">
        <ele>1498</ele>
        <time>2022-07-17T09:03:53Z</time>
      </trkpt>
      <trkpt lat="46.8392" lon="6.52462">
        <ele>1500.5</ele>
        <time>2022-07-17T09:04:02Z</time>
      </trkpt>
      <trkpt lat="46.83924" lon="6.52465">
        <ele>1502.8</ele>
        <time>2022-07-17T09:04:10Z</time>
      </trkpt>
      <trkpt lat="46.83924" lon="6.52472">
        <ele>1503.1</ele>
        <time>2022-07-17T09:04:16Z</time>
      </trkpt>
      <trkpt lat="46.83929" lon="6.52474">
        <ele>1503.5</ele>
        <time>2022-07-17T09:04:27Z</time>
      </trkpt>
      <trkpt lat="46.83933" lon="6.52475">
        <ele>1504.8</ele>
        <time>2022-07-17T09:05:10Z</time>
      </trkpt>
      <trkpt lat="46.83937" lon="6.52478">
        <ele>1504.8</ele>
        <time>2022-07-17T09:05:22Z</time>
      </trkpt>
      <trkpt lat="46.83942" lon="6.52479">
        <ele>1505.8</ele>
        <time>2022-07-17T09:05:30Z</time>
      </trkpt>
      <trkpt lat="46.83947" lon="6.52479">
        <ele>1507.2</ele>
        <time>2022-07-17T09:05:35Z</time>
      </trkpt>
      <trkpt lat="46.83951" lon="6.52479">
        <ele>1508.7</ele>
        <time>2022-07-17T09:05:40Z</time>
      </trkpt>
      <trkpt lat="46.83956" lon="6.5248">
        <ele>1510.2</ele>
        <time>2022-07-17T09:05:45Z</time>
      </trkpt>
      <trkpt lat="46.83961" lon="6.5248">
        <ele>1512.4</ele>
        <time>2022-07-17T09:05:56Z</time>
      </trkpt>
      <trkpt lat="46.83965" lon="6.52483">
        <ele>1513.3</ele>
        <time>2022-07-17T09:06:05Z</time>
      </trkpt>
      <trkpt lat="46.8397" lon="6.52486">
        <ele>1513.1</ele>
        <time>2022-07-17T09:06:12Z</time>
      </trkpt>
      <trkpt lat="46.83974" lon="6.52486">
        <ele>1512.8</ele>
        <time>2022-07-17T09:06:19Z</time>
      </trkpt>
      <trkpt lat="46.83978" lon="6.52489">
        <ele>1514</ele>
        <time>2022-07-17T09:06:29Z</time>
      </trkpt>
      <trkpt lat="46.83982" lon="6.52494">
        <ele>1515.6</ele>
        <time>2022-07-17T09:06:36Z</time>
      </trkpt>
      <trkpt lat="46.83987" lon="6.52497">
        <ele>1517.3</ele>
        <time>2022-07-17T09:06:42Z</time>
      </trkpt>
      <trkpt lat="46.83992" lon="6.525">
        <ele>1518.8</ele>
        <time>2022-07-17T09:06:48Z</time>
      </trkpt>
      <trkpt lat="46.83996" lon="6.525">
        <ele>1519.7</ele>
        <time>2022-07-17T09:06:54Z</time>
      </trkpt>
      <trkpt lat="46.84001" lon="6.52502">
        <ele>1521.7</ele>
        <time>2022-07-17T09:07:00Z</time>
      </trkpt>
      <trkpt lat="46.84005" lon="6.52506">
        <ele>1526.6</ele>
        <time>2022-07-17T09:07:13Z</time>
      </trkpt>
      <trkpt lat="46.84009" lon="6.52508">
        <ele>1527.6</ele>
        <time>2022-07-17T09:07:21Z</time>
      </trkpt>
      <trkpt lat="46.84015" lon="6.52509">
        <ele>1529</ele>
        <time>2022-07-17T09:08:19Z</time>
      </trkpt>
      <trkpt lat="46.84019" lon="6.52507">
        <ele>1529.7</ele>
        <time>2022-07-17T09:08:42Z</time>
      </trkpt>
      <trkpt lat="46.84024" lon="6.52508">
        <ele>1531.8</ele>
        <time>2022-07-17T09:08:59Z</time>
      </trkpt>
      <trkpt lat="46.84028" lon="6.52512">
        <ele>1532</ele>
        <time>2022-07-17T09:09:05Z</time>
      </trkpt>
      <trkpt lat="46.84032" lon="6.52514">
        <ele>1532.6</ele>
        <time>2022-07-17T09:09:12Z</time>
      </trkpt>
      <trkpt lat="46.84037" lon="6.52516">
        <ele>1534.2</ele>
        <time>2022-07-17T09:09:21Z</time>
      </trkpt>
      <trkpt lat="46.84042" lon="6.52518">
        <ele>1537.5</ele>
        <time>2022-07-17T09:09:56Z</time>
      </trkpt>
      <trkpt lat="46.84047" lon="6.5252">
        <ele>1537.6</ele>
        <time>2022-07-17T09:10:01Z</time>
      </trkpt>
      <trkpt lat="46.84049" lon="6.52527">
        <ele>1537.5</ele>
        <time>2022-07-17T09:10:41Z</time>
      </trkpt>
      <trkpt lat="46.84053" lon="6.52531">
        <ele>1536.7</ele>
        <time>2022-07-17T09:10:49Z</time>
      </trkpt>
      <trkpt lat="46.84057" lon="6.52536">
        <ele>1537.4</ele>
        <time>2022-07-17T09:10:56Z</time>
      </trkpt>
      <trkpt lat="46.8406" lon="6.52541">
        <ele>1539.1</ele>
        <time>2022-07-17T09:11:08Z</time>
      </trkpt>
      <trkpt lat="46.84064" lon="6.52544">
        <ele>1539.7</ele>
        <time>2022-07-17T09:11:14Z</time>
      </trkpt>
      <trkpt lat="46.84069" lon="6.52546">
        <ele>1540.5</ele>
        <time>2022-07-17T09:11:19Z</time>
      </trkpt>
      <trkpt lat="46.84073" lon="6.52549">
        <ele>1541.1</ele>
        <time>2022-07-17T09:11:26Z</time>
      </trkpt>
      <trkpt lat="46.84077" lon="6.52551">
        <ele>1541.9</ele>
        <time>2022-07-17T09:11:36Z</time>
      </trkpt>
      <trkpt lat="46.84082" lon="6.52554">
        <ele>1542.8</ele>
        <time>2022-07-17T09:11:43Z</time>
      </trkpt>
      <trkpt lat="46.84086" lon="6.52558">
        <ele>1543.4</ele>
        <time>2022-07-17T09:11:49Z</time>
      </trkpt>
      <trkpt lat="46.84091" lon="6.5256">
        <ele>1544.2</ele>
        <time>2022-07-17T09:11:57Z</time>
      </trkpt>
      <trkpt lat="46.84095" lon="6.52563">
        <ele>1545.9</ele>
        <time>2022-07-17T09:12:09Z</time>
      </trkpt>
      <trkpt lat="46.84099" lon="6.52567">
        <ele>1547</ele>
        <time>2022-07-17T09:12:19Z</time>
      </trkpt>
      <trkpt lat="46.84104" lon="6.52568">
        <ele>1547.9</ele>
        <time>2022-07-17T09:12:27Z</time>
      </trkpt>
      <trkpt lat="46.84109" lon="6.5257">
        <ele>1549.4</ele>
        <time>2022-07-17T09:12:37Z</time>
      </trkpt>
      <trkpt lat="46.84113" lon="6.52573">
        <ele>1551.1</ele>
        <time>2022-07-17T09:12:44Z</time>
      </trkpt>
      <trkpt lat="46.84117" lon="6.52577">
        <ele>1551.7</ele>
        <time>2022-07-17T09:12:51Z</time>
      </trkpt>
      <trkpt lat="46.84121" lon="6.52583">
        <ele>1552.1</ele>
        <time>2022-07-17T09:13:54Z</time>
      </trkpt>
      <trkpt lat="46.84125" lon="6.52584">
        <ele>1552.6</ele>
        <time>2022-07-17T09:14:01Z</time>
      </trkpt>
      <trkpt lat="46.8413" lon="6.52589">
        <ele>1553.1</ele>
        <time>2022-07-17T09:14:10Z</time>
      </trkpt>
      <trkpt lat="46.84134" lon="6.52592">
        <ele>1553.9</ele>
        <time>2022-07-17T09:14:16Z</time>
      </trkpt>
      <trkpt lat="46.84138" lon="6.52596">
        <ele>1555.8</ele>
        <time>2022-07-17T09:14:26Z</time>
      </trkpt>
      <trkpt lat="46.84143" lon="6.526">
        <ele>1556.9</ele>
        <time>2022-07-17T09:14:33Z</time>
      </trkpt>
      <trkpt lat="46.84147" lon="6.52603">
        <ele>1558</ele>
        <time>2022-07-17T09:14:39Z</time>
      </trkpt>
      <trkpt lat="46.84151" lon="6.52607">
        <ele>1559.9</ele>
        <time>2022-07-17T09:14:48Z</time>
      </trkpt>
      <trkpt lat="46.84155" lon="6.52611">
        <ele>1560.9</ele>
        <time>2022-07-17T09:14:55Z</time>
      </trkpt>
      <trkpt lat="46.84158" lon="6.52616">
        <ele>1562.3</ele>
        <time>2022-07-17T09:15:05Z</time>
      </trkpt>
      <trkpt lat="46.84162" lon="6.5262">
        <ele>1563.2</ele>
        <time>2022-07-17T09:15:13Z</time>
      </trkpt>
      <trkpt lat="46.84166" lon="6.5262">
        <ele>1563.3</ele>
        <time>2022-07-17T09:15:50Z</time>
      </trkpt>
      <trkpt lat="46.84171" lon="6.52623">
        <ele>1562.9</ele>
        <time>2022-07-17T09:16:00Z</time>
      </trkpt>
      <trkpt lat="46.84175" lon="6.52627">
        <ele>1563.3</ele>
        <time>2022-07-17T09:16:06Z</time>
      </trkpt>
      <trkpt lat="46.84179" lon="6.52628">
        <ele>1566.8</ele>
        <time>2022-07-17T09:16:37Z</time>
      </trkpt>
      <trkpt lat="46.84176" lon="6.52632">
        <ele>1564.6</ele>
        <time>2022-07-17T09:17:03Z</time>
      </trkpt>
      <trkpt lat="46.8418" lon="6.5263">
        <ele>1564.5</ele>
        <time>2022-07-17T09:17:16Z</time>
      </trkpt>
      <trkpt lat="46.84181" lon="6.52624">
        <ele>1564.3</ele>
        <time>2022-07-17T09:18:39Z</time>
      </trkpt>
      <trkpt lat="46.84182" lon="6.5263">
        <ele>1565</ele>
        <time>2022-07-17T09:19:01Z</time>
      </trkpt>
      <trkpt lat="46.84186" lon="6.52634">
        <ele>1564.9</ele>
        <time>2022-07-17T09:19:12Z</time>
      </trkpt>
      <trkpt lat="46.84191" lon="6.52637">
        <ele>1565.5</ele>
        <time>2022-07-17T09:19:19Z</time>
      </trkpt>
      <trkpt lat="46.84195" lon="6.52641">
        <ele>1566</ele>
        <time>2022-07-17T09:19:25Z</time>
      </trkpt>
      <trkpt lat="46.842" lon="6.52644">
        <ele>1567.2</ele>
        <time>2022-07-17T09:19:32Z</time>
      </trkpt>
      <trkpt lat="46.84204" lon="6.52646">
        <ele>1568.5</ele>
        <time>2022-07-17T09:19:38Z</time>
      </trkpt>
      <trkpt lat="46.84208" lon="6.52649">
        <ele>1569.5</ele>
        <time>2022-07-17T09:19:44Z</time>
      </trkpt>
      <trkpt lat="46.84213" lon="6.52652">
        <ele>1571</ele>
        <time>2022-07-17T09:19:53Z</time>
      </trkpt>
      <trkpt lat="46.84218" lon="6.52654">
        <ele>1571.5</ele>
        <time>2022-07-17T09:20:00Z</time>
      </trkpt>
      <trkpt lat="46.84222" lon="6.52657">
        <ele>1571.7</ele>
        <time>2022-07-17T09:20:05Z</time>
      </trkpt>
      <trkpt lat="46.84225" lon="6.52662">
        <ele>1572</ele>
        <time>2022-07-17T09:20:12Z</time>
      </trkpt>
      <trkpt lat="46.84228" lon="6.52669">
        <ele>1572.5</ele>
        <time>2022-07-17T09:20:20Z</time>
      </trkpt>
      <trkpt lat="46.84231" lon="6.52675">
        <ele>1572.6</ele>
        <time>2022-07-17T09:20:26Z</time>
      </trkpt>
      <trkpt lat="46.84233" lon="6.52681">
        <ele>1572.5</ele>
        <time>2022-07-17T09:20:33Z</time>
      </trkpt>
      <trkpt lat="46.84236" lon="6.52686">
        <ele>1572.5</ele>
        <time>2022-07-17T09:20:41Z</time>
      </trkpt>
      <trkpt lat="46.8424" lon="6.52692">
        <ele>1572</ele>
        <time>2022-07-17T09:20:50Z</time>
      </trkpt>
      <trkpt lat="46.84243" lon="6.52697">
        <ele>1571.9</ele>
        <time>2022-07-17T09:20:55Z</time>
      </trkpt>
      <trkpt lat="46.84245" lon="6.52703">
        <ele>1572.2</ele>
        <time>2022-07-17T09:21:00Z</time>
      </trkpt>
      <trkpt lat="46.84248" lon="6.5271">
        <ele>1572.3</ele>
        <time>2022-07-17T09:21:07Z</time>
      </trkpt>
      <trkpt lat="46.8425" lon="6.52715">
        <ele>1572.3</ele>
        <time>2022-07-17T09:21:15Z</time>
      </trkpt>
      <trkpt lat="46.84252" lon="6.52721">
        <ele>1572.7</ele>
        <time>2022-07-17T09:21:21Z</time>
      </trkpt>
      <trkpt lat="46.84255" lon="6.52728">
        <ele>1573.2</ele>
        <time>2022-07-17T09:21:27Z</time>
      </trkpt>
      <trkpt lat="46.84258" lon="6.52734">
        <ele>1573.8</ele>
        <time>2022-07-17T09:21:32Z</time>
      </trkpt>
      <trkpt lat="46.84262" lon="6.52739">
        <ele>1574.3</ele>
        <time>2022-07-17T09:21:38Z</time>
      </trkpt>
      <trkpt lat="46.84264" lon="6.52745">
        <ele>1574.8</ele>
        <time>2022-07-17T09:21:44Z</time>
      </trkpt>
      <trkpt lat="46.84265" lon="6.52752">
        <ele>1575.2</ele>
        <time>2022-07-17T09:21:51Z</time>
      </trkpt>
      <trkpt lat="46.84267" lon="6.52758">
        <ele>1575.4</ele>
        <time>2022-07-17T09:21:57Z</time>
      </trkpt>
      <trkpt lat="46.84271" lon="6.52762">
        <ele>1575.4</ele>
        <time>2022-07-17T09:22:05Z</time>
      </trkpt>
      <trkpt lat="46.84274" lon="6.52767">
        <ele>1575.1</ele>
        <time>2022-07-17T09:22:16Z</time>
      </trkpt>
      <trkpt lat="46.84276" lon="6.52774">
        <ele>1575.1</ele>
        <time>2022-07-17T09:22:22Z</time>
      </trkpt>
      <trkpt lat="46.84279" lon="6.5278">
        <ele>1575.1</ele>
        <time>2022-07-17T09:22:28Z</time>
      </trkpt>
      <trkpt lat="46.84282" lon="6.52785">
        <ele>1574.8</ele>
        <time>2022-07-17T09:22:33Z</time>
      </trkpt>
      <trkpt lat="46.84285" lon="6.5279">
        <ele>1574.6</ele>
        <time>2022-07-17T09:22:38Z</time>
      </trkpt>
      <trkpt lat="46.84288" lon="6.52795">
        <ele>1574.9</ele>
        <time>2022-07-17T09:22:44Z</time>
      </trkpt>
      <trkpt lat="46.84291" lon="6.52801">
        <ele>1575.5</ele>
        <time>2022-07-17T09:22:50Z</time>
      </trkpt>
      <trkpt lat="46.84293" lon="6.52807">
        <ele>1575.7</ele>
        <time>2022-07-17T09:22:55Z</time>
      </trkpt>
      <trkpt lat="46.84297" lon="6.52812">
        <ele>1576.2</ele>
        <time>2022-07-17T09:23:00Z</time>
      </trkpt>
      <trkpt lat="46.843" lon="6.52818">
        <ele>1576.7</ele>
        <time>2022-07-17T09:23:32Z</time>
      </trkpt>
      <trkpt lat="46.84302" lon="6.52824">
        <ele>1576.6</ele>
        <time>2022-07-17T09:23:42Z</time>
      </trkpt>
      <trkpt lat="46.84305" lon="6.5283">
        <ele>1576.2</ele>
        <time>2022-07-17T09:23:50Z</time>
      </trkpt>
      <trkpt lat="46.84308" lon="6.52836">
        <ele>1574.8</ele>
        <time>2022-07-17T09:23:58Z</time>
      </trkpt>
      <trkpt lat="46.84311" lon="6.52841">
        <ele>1573.6</ele>
        <time>2022-07-17T09:24:06Z</time>
      </trkpt>
      <trkpt lat="46.84312" lon="6.52848">
        <ele>1571.6</ele>
        <time>2022-07-17T09:24:19Z</time>
      </trkpt>
      <trkpt lat="46.84314" lon="6.52854">
        <ele>1569.9</ele>
        <time>2022-07-17T09:24:29Z</time>
      </trkpt>
      <trkpt lat="46.84317" lon="6.5286">
        <ele>1568.6</ele>
        <time>2022-07-17T09:24:36Z</time>
      </trkpt>
      <trkpt lat="46.84319" lon="6.52866">
        <ele>1567.5</ele>
        <time>2022-07-17T09:24:44Z</time>
      </trkpt>
      <trkpt lat="46.84321" lon="6.52872">
        <ele>1566.7</ele>
        <time>2022-07-17T09:24:51Z</time>
      </trkpt>
      <trkpt lat="46.84323" lon="6.52878">
        <ele>1565.6</ele>
        <time>2022-07-17T09:25:00Z</time>
      </trkpt>
      <trkpt lat="46.84325" lon="6.52884">
        <ele>1565</ele>
        <time>2022-07-17T09:25:07Z</time>
      </trkpt>
      <trkpt lat="46.84328" lon="6.52891">
        <ele>1564</ele>
        <time>2022-07-17T09:25:15Z</time>
      </trkpt>
      <trkpt lat="46.8433" lon="6.52896">
        <ele>1563.4</ele>
        <time>2022-07-17T09:25:20Z</time>
      </trkpt>
      <trkpt lat="46.84333" lon="6.52901">
        <ele>1563.1</ele>
        <time>2022-07-17T09:25:26Z</time>
      </trkpt>
      <trkpt lat="46.84337" lon="6.52906">
        <ele>1563.3</ele>
        <time>2022-07-17T09:25:33Z</time>
      </trkpt>
      <trkpt lat="46.84339" lon="6.52913">
        <ele>1563.1</ele>
        <time>2022-07-17T09:25:40Z</time>
      </trkpt>
      <trkpt lat="46.84341" lon="6.52919">
        <ele>1562.7</ele>
        <time>2022-07-17T09:25:46Z</time>
      </trkpt>
      <trkpt lat="46.84344" lon="6.52926">
        <ele>1562.2</ele>
        <time>2022-07-17T09:26:10Z</time>
      </trkpt>
      <trkpt lat="46.84347" lon="6.52932">
        <ele>1561.3</ele>
        <time>2022-07-17T09:26:16Z</time>
      </trkpt>
      <trkpt lat="46.84351" lon="6.52936">
        <ele>1561.4</ele>
        <time>2022-07-17T09:26:21Z</time>
      </trkpt>
      <trkpt lat="46.84355" lon="6.52941">
        <ele>1562</ele>
        <time>2022-07-17T09:26:26Z</time>
      </trkpt>
      <trkpt lat="46.84359" lon="6.52947">
        <ele>1562.4</ele>
        <time>2022-07-17T09:26:31Z</time>
      </trkpt>
      <trkpt lat="46.84359" lon="6.52954">
        <ele>1562.5</ele>
        <time>2022-07-17T09:26:38Z</time>
      </trkpt>
      <trkpt lat="46.84361" lon="6.5296">
        <ele>1561.8</ele>
        <time>2022-07-17T09:26:44Z</time>
      </trkpt>
      <trkpt lat="46.84364" lon="6.52964">
        <ele>1561.6</ele>
        <time>2022-07-17T09:26:50Z</time>
      </trkpt>
      <trkpt lat="46.84367" lon="6.5297">
        <ele>1561.3</ele>
        <time>2022-07-17T09:26:56Z</time>
      </trkpt>
      <trkpt lat="46.84369" lon="6.52976">
        <ele>1560.8</ele>
        <time>2022-07-17T09:27:02Z</time>
      </trkpt>
      <trkpt lat="46.8437" lon="6.52982">
        <ele>1560.3</ele>
        <time>2022-07-17T09:27:07Z</time>
      </trkpt>
      <trkpt lat="46.84373" lon="6.52989">
        <ele>1559.8</ele>
        <time>2022-07-17T09:27:13Z</time>
      </trkpt>
      <trkpt lat="46.84376" lon="6.52994">
        <ele>1559.2</ele>
        <time>2022-07-17T09:27:20Z</time>
      </trkpt>
      <trkpt lat="46.84379" lon="6.53">
        <ele>1558.3</ele>
        <time>2022-07-17T09:27:26Z</time>
      </trkpt>
      <trkpt lat="46.84381" lon="6.53007">
        <ele>1557.9</ele>
        <time>2022-07-17T09:27:32Z</time>
      </trkpt>
      <trkpt lat="46.84384" lon="6.53013">
        <ele>1558.2</ele>
        <time>2022-07-17T09:27:38Z</time>
      </trkpt>
      <trkpt lat="46.84387" lon="6.53018">
        <ele>1558.8</ele>
        <time>2022-07-17T09:27:43Z</time>
      </trkpt>
      <trkpt lat="46.8439" lon="6.53023">
        <ele>1559</ele>
        <time>2022-07-17T09:27:48Z</time>
      </trkpt>
      <trkpt lat="46.84392" lon="6.53029">
        <ele>1559.3</ele>
        <time>2022-07-17T09:27:54Z</time>
      </trkpt>
      <trkpt lat="46.84393" lon="6.53037">
        <ele>1559.4</ele>
        <time>2022-07-17T09:28:01Z</time>
      </trkpt>
      <trkpt lat="46.84395" lon="6.53043">
        <ele>1559</ele>
        <time>2022-07-17T09:28:07Z</time>
      </trkpt>
      <trkpt lat="46.84398" lon="6.53049">
        <ele>1558.6</ele>
        <time>2022-07-17T09:28:12Z</time>
      </trkpt>
      <trkpt lat="46.844" lon="6.53056">
        <ele>1558</ele>
        <time>2022-07-17T09:28:17Z</time>
      </trkpt>
      <trkpt lat="46.84404" lon="6.53062">
        <ele>1557.2</ele>
        <time>2022-07-17T09:28:23Z</time>
      </trkpt>
      <trkpt lat="46.84405" lon="6.53068">
        <ele>1556.8</ele>
        <time>2022-07-17T09:28:32Z</time>
      </trkpt>
      <trkpt lat="46.84407" lon="6.53076">
        <ele>1556.2</ele>
        <time>2022-07-17T09:28:37Z</time>
      </trkpt>
      <trkpt lat="46.84409" lon="6.53083">
        <ele>1555.8</ele>
        <time>2022-07-17T09:28:41Z</time>
      </trkpt>
      <trkpt lat="46.84411" lon="6.53089">
        <ele>1555.4</ele>
        <time>2022-07-17T09:28:48Z</time>
      </trkpt>
      <trkpt lat="46.84413" lon="6.53096">
        <ele>1554.7</ele>
        <time>2022-07-17T09:28:56Z</time>
      </trkpt>
      <trkpt lat="46.84415" lon="6.53102">
        <ele>1553.1</ele>
        <time>2022-07-17T09:29:04Z</time>
      </trkpt>
      <trkpt lat="46.84417" lon="6.53108">
        <ele>1551.9</ele>
        <time>2022-07-17T09:29:11Z</time>
      </trkpt>
      <trkpt lat="46.8442" lon="6.53114">
        <ele>1551.3</ele>
        <time>2022-07-17T09:29:16Z</time>
      </trkpt>
      <trkpt lat="46.84422" lon="6.53119">
        <ele>1550.5</ele>
        <time>2022-07-17T09:29:21Z</time>
      </trkpt>
      <trkpt lat="46.84426" lon="6.53125">
        <ele>1549.4</ele>
        <time>2022-07-17T09:29:27Z</time>
      </trkpt>
      <trkpt lat="46.84427" lon="6.53132">
        <ele>1549.4</ele>
        <time>2022-07-17T09:29:35Z</time>
      </trkpt>
      <trkpt lat="46.84429" lon="6.53138">
        <ele>1549.7</ele>
        <time>2022-07-17T09:29:39Z</time>
      </trkpt>
      <trkpt lat="46.84433" lon="6.53143">
        <ele>1550.7</ele>
        <time>2022-07-17T09:29:49Z</time>
      </trkpt>
      <trkpt lat="46.84437" lon="6.53143">
        <ele>1549.8</ele>
        <time>2022-07-17T09:30:30Z</time>
      </trkpt>
      <trkpt lat="46.8444" lon="6.53137">
        <ele>1547.4</ele>
        <time>2022-07-17T09:31:00Z</time>
      </trkpt>
      <trkpt lat="46.84445" lon="6.53139">
        <ele>1545.2</ele>
        <time>2022-07-17T09:31:11Z</time>
      </trkpt>
      <trkpt lat="46.84449" lon="6.53143">
        <ele>1543.4</ele>
        <time>2022-07-17T09:31:52Z</time>
      </trkpt>
      <trkpt lat="46.84453" lon="6.53144">
        <ele>1542.9</ele>
        <time>2022-07-17T09:31:57Z</time>
      </trkpt>
      <trkpt lat="46.84458" lon="6.53148">
        <ele>1542.4</ele>
        <time>2022-07-17T09:32:03Z</time>
      </trkpt>
      <trkpt lat="46.84462" lon="6.53151">
        <ele>1541.9</ele>
        <time>2022-07-17T09:32:08Z</time>
      </trkpt>
      <trkpt lat="46.84467" lon="6.53154">
        <ele>1541.2</ele>
        <time>2022-07-17T09:32:13Z</time>
      </trkpt>
      <trkpt lat="46.84471" lon="6.53158">
        <ele>1540.5</ele>
        <time>2022-07-17T09:32:18Z</time>
      </trkpt>
      <trkpt lat="46.84475" lon="6.53163">
        <ele>1540</ele>
        <time>2022-07-17T09:32:23Z</time>
      </trkpt>
      <trkpt lat="46.84479" lon="6.53167">
        <ele>1539.5</ele>
        <time>2022-07-17T09:32:27Z</time>
      </trkpt>
      <trkpt lat="46.84482" lon="6.53173">
        <ele>1539.5</ele>
        <time>2022-07-17T09:32:32Z</time>
      </trkpt>
      <trkpt lat="46.84486" lon="6.53177">
        <ele>1539.1</ele>
        <time>2022-07-17T09:32:39Z</time>
      </trkpt>
      <trkpt lat="46.84489" lon="6.53182">
        <ele>1538</ele>
        <time>2022-07-17T09:32:45Z</time>
      </trkpt>
      <trkpt lat="46.84491" lon="6.53188">
        <ele>1536.9</ele>
        <time>2022-07-17T09:32:50Z</time>
      </trkpt>
      <trkpt lat="46.84493" lon="6.53195">
        <ele>1535.9</ele>
        <time>2022-07-17T09:32:56Z</time>
      </trkpt>
      <trkpt lat="46.84495" lon="6.53201">
        <ele>1534.9</ele>
        <time>2022-07-17T09:33:02Z</time>
      </trkpt>
      <trkpt lat="46.845" lon="6.53205">
        <ele>1533.9</ele>
        <time>2022-07-17T09:33:09Z</time>
      </trkpt>
      <trkpt lat="46.84503" lon="6.53209">
        <ele>1533.7</ele>
        <time>2022-07-17T09:33:14Z</time>
      </trkpt>
      <trkpt lat="46.84507" lon="6.53213">
        <ele>1533.1</ele>
        <time>2022-07-17T09:33:21Z</time>
      </trkpt>
      <trkpt lat="46.84511" lon="6.53217">
        <ele>1532.3</ele>
        <time>2022-07-17T09:33:27Z</time>
      </trkpt>
      <trkpt lat="46.84515" lon="6.53221">
        <ele>1531.2</ele>
        <time>2022-07-17T09:33:33Z</time>
      </trkpt>
      <trkpt lat="46.8452" lon="6.53225">
        <ele>1529.8</ele>
        <time>2022-07-17T09:33:43Z</time>
      </trkpt>
      <trkpt lat="46.84523" lon="6.53229">
        <ele>1529.2</ele>
        <time>2022-07-17T09:33:48Z</time>
      </trkpt>
      <trkpt lat="46.84527" lon="6.53234">
        <ele>1528.6</ele>
        <time>2022-07-17T09:33:55Z</time>
      </trkpt>
      <trkpt lat="46.84531" lon="6.53239">
        <ele>1526.6</ele>
        <time>2022-07-17T09:34:08Z</time>
      </trkpt>
      <trkpt lat="46.84535" lon="6.53242">
        <ele>1525.4</ele>
        <time>2022-07-17T09:34:15Z</time>
      </trkpt>
      <trkpt lat="46.84539" lon="6.53248">
        <ele>1524.1</ele>
        <time>2022-07-17T09:34:23Z</time>
      </trkpt>
      <trkpt lat="46.84541" lon="6.53253">
        <ele>1522.9</ele>
        <time>2022-07-17T09:34:30Z</time>
      </trkpt>
      <trkpt lat="46.84545" lon="6.53258">
        <ele>1522.2</ele>
        <time>2022-07-17T09:34:35Z</time>
      </trkpt>
      <trkpt lat="46.84549" lon="6.53263">
        <ele>1521.2</ele>
        <time>2022-07-17T09:34:40Z</time>
      </trkpt>
      <trkpt lat="46.84553" lon="6.53268">
        <ele>1521.1</ele>
        <time>2022-07-17T09:34:46Z</time>
      </trkpt>
      <trkpt lat="46.84555" lon="6.53273">
        <ele>1520.9</ele>
        <time>2022-07-17T09:34:53Z</time>
      </trkpt>
      <trkpt lat="46.84559" lon="6.53278">
        <ele>1519.9</ele>
        <time>2022-07-17T09:35:00Z</time>
      </trkpt>
      <trkpt lat="46.84564" lon="6.53281">
        <ele>1519.2</ele>
        <time>2022-07-17T09:35:05Z</time>
      </trkpt>
      <trkpt lat="46.84567" lon="6.53286">
        <ele>1518.7</ele>
        <time>2022-07-17T09:35:09Z</time>
      </trkpt>
      <trkpt lat="46.8457" lon="6.53291">
        <ele>1519.2</ele>
        <time>2022-07-17T09:35:14Z</time>
      </trkpt>
      <trkpt lat="46.84574" lon="6.53296">
        <ele>1519.9</ele>
        <time>2022-07-17T09:35:19Z</time>
      </trkpt>
      <trkpt lat="46.84577" lon="6.53301">
        <ele>1520.3</ele>
        <time>2022-07-17T09:35:25Z</time>
      </trkpt>
      <trkpt lat="46.84581" lon="6.53305">
        <ele>1520.8</ele>
        <time>2022-07-17T09:35:30Z</time>
      </trkpt>
      <trkpt lat="46.84585" lon="6.5331">
        <ele>1521.2</ele>
        <time>2022-07-17T09:35:35Z</time>
      </trkpt>
      <trkpt lat="46.84589" lon="6.53313">
        <ele>1521.3</ele>
        <time>2022-07-17T09:35:39Z</time>
      </trkpt>
      <trkpt lat="46.84594" lon="6.53316">
        <ele>1521.8</ele>
        <time>2022-07-17T09:35:43Z</time>
      </trkpt>
      <trkpt lat="46.84597" lon="6.53321">
        <ele>1522.3</ele>
        <time>2022-07-17T09:35:48Z</time>
      </trkpt>
      <trkpt lat="46.846" lon="6.53327">
        <ele>1522.6</ele>
        <time>2022-07-17T09:35:53Z</time>
      </trkpt>
      <trkpt lat="46.84604" lon="6.53333">
        <ele>1523</ele>
        <time>2022-07-17T09:35:58Z</time>
      </trkpt>
      <trkpt lat="46.84608" lon="6.53338">
        <ele>1523.3</ele>
        <time>2022-07-17T09:36:03Z</time>
      </trkpt>
      <trkpt lat="46.84612" lon="6.53342">
        <ele>1522.9</ele>
        <time>2022-07-17T09:36:09Z</time>
      </trkpt>
      <trkpt lat="46.84615" lon="6.53348">
        <ele>1522.3</ele>
        <time>2022-07-17T09:36:15Z</time>
      </trkpt>
      <trkpt lat="46.84619" lon="6.53353">
        <ele>1521.5</ele>
        <time>2022-07-17T09:36:21Z</time>
      </trkpt>
      <trkpt lat="46.84623" lon="6.53358">
        <ele>1520.8</ele>
        <time>2022-07-17T09:36:26Z</time>
      </trkpt>
      <trkpt lat="46.84627" lon="6.53363">
        <ele>1520.5</ele>
        <time>2022-07-17T09:36:31Z</time>
      </trkpt>
      <trkpt lat="46.8463" lon="6.53368">
        <ele>1521.1</ele>
        <time>2022-07-17T09:36:36Z</time>
      </trkpt>
      <trkpt lat="46.84634" lon="6.53372">
        <ele>1522</ele>
        <time>2022-07-17T09:36:41Z</time>
      </trkpt>
      <trkpt lat="46.84637" lon="6.53377">
        <ele>1522.1</ele>
        <time>2022-07-17T09:36:46Z</time>
      </trkpt>
      <trkpt lat="46.84641" lon="6.53383">
        <ele>1521.4</ele>
        <time>2022-07-17T09:36:52Z</time>
      </trkpt>
      <trkpt lat="46.84644" lon="6.53388">
        <ele>1521.3</ele>
        <time>2022-07-17T09:36:57Z</time>
      </trkpt>
      <trkpt lat="46.84648" lon="6.53392">
        <ele>1521.2</ele>
        <time>2022-07-17T09:37:05Z</time>
      </trkpt>
      <trkpt lat="46.84651" lon="6.53398">
        <ele>1521.1</ele>
        <time>2022-07-17T09:37:10Z</time>
      </trkpt>
      <trkpt lat="46.84654" lon="6.53404">
        <ele>1521.1</ele>
        <time>2022-07-17T09:37:15Z</time>
      </trkpt>
      <trkpt lat="46.84657" lon="6.53409">
        <ele>1521.6</ele>
        <time>2022-07-17T09:37:20Z</time>
      </trkpt>
      <trkpt lat="46.8466" lon="6.53414">
        <ele>1521.7</ele>
        <time>2022-07-17T09:37:25Z</time>
      </trkpt>
      <trkpt lat="46.84664" lon="6.53419">
        <ele>1521.5</ele>
        <time>2022-07-17T09:37:31Z</time>
      </trkpt>
      <trkpt lat="46.84667" lon="6.53424">
        <ele>1521.3</ele>
        <time>2022-07-17T09:37:36Z</time>
      </trkpt>
      <trkpt lat="46.8467" lon="6.5343">
        <ele>1521.1</ele>
        <time>2022-07-17T09:37:42Z</time>
      </trkpt>
      <trkpt lat="46.84673" lon="6.53435">
        <ele>1521.4</ele>
        <time>2022-07-17T09:37:47Z</time>
      </trkpt>
      <trkpt lat="46.84676" lon="6.5344">
        <ele>1522.2</ele>
        <time>2022-07-17T09:37:54Z</time>
      </trkpt>
      <trkpt lat="46.84679" lon="6.53445">
        <ele>1522.9</ele>
        <time>2022-07-17T09:37:59Z</time>
      </trkpt>
      <trkpt lat="46.84682" lon="6.5345">
        <ele>1523.5</ele>
        <time>2022-07-17T09:38:04Z</time>
      </trkpt>
      <trkpt lat="46.84686" lon="6.53455">
        <ele>1524.1</ele>
        <time>2022-07-17T09:38:10Z</time>
      </trkpt>
      <trkpt lat="46.8469" lon="6.53461">
        <ele>1524.9</ele>
        <time>2022-07-17T09:38:17Z</time>
      </trkpt>
      <trkpt lat="46.84693" lon="6.53466">
        <ele>1525.2</ele>
        <time>2022-07-17T09:38:23Z</time>
      </trkpt>
      <trkpt lat="46.84697" lon="6.53471">
        <ele>1525.2</ele>
        <time>2022-07-17T09:38:28Z</time>
      </trkpt>
      <trkpt lat="46.84701" lon="6.53476">
        <ele>1525.4</ele>
        <time>2022-07-17T09:38:33Z</time>
      </trkpt>
      <trkpt lat="46.84705" lon="6.53482">
        <ele>1525.9</ele>
        <time>2022-07-17T09:38:39Z</time>
      </trkpt>
      <trkpt lat="46.84709" lon="6.53487">
        <ele>1525.8</ele>
        <time>2022-07-17T09:38:45Z</time>
      </trkpt>
      <trkpt lat="46.84712" lon="6.53492">
        <ele>1525.2</ele>
        <time>2022-07-17T09:38:51Z</time>
      </trkpt>
      <trkpt lat="46.84715" lon="6.53496">
        <ele>1524.5</ele>
        <time>2022-07-17T09:38:56Z</time>
      </trkpt>
      <trkpt lat="46.84719" lon="6.535">
        <ele>1523.5</ele>
        <time>2022-07-17T09:39:03Z</time>
      </trkpt>
      <trkpt lat="46.84723" lon="6.53506">
        <ele>1522.9</ele>
        <time>2022-07-17T09:39:09Z</time>
      </trkpt>
      <trkpt lat="46.84727" lon="6.53509">
        <ele>1523.1</ele>
        <time>2022-07-17T09:39:13Z</time>
      </trkpt>
      <trkpt lat="46.84731" lon="6.53512">
        <ele>1523.6</ele>
        <time>2022-07-17T09:39:18Z</time>
      </trkpt>
      <trkpt lat="46.84735" lon="6.53517">
        <ele>1523.4</ele>
        <time>2022-07-17T09:39:25Z</time>
      </trkpt>
      <trkpt lat="46.84738" lon="6.53522">
        <ele>1523.8</ele>
        <time>2022-07-17T09:39:31Z</time>
      </trkpt>
      <trkpt lat="46.84742" lon="6.53526">
        <ele>1524.7</ele>
        <time>2022-07-17T09:39:37Z</time>
      </trkpt>
      <trkpt lat="46.84747" lon="6.53529">
        <ele>1525.4</ele>
        <time>2022-07-17T09:39:41Z</time>
      </trkpt>
      <trkpt lat="46.84752" lon="6.53531">
        <ele>1526.2</ele>
        <time>2022-07-17T09:39:46Z</time>
      </trkpt>
      <trkpt lat="46.84756" lon="6.53536">
        <ele>1527.3</ele>
        <time>2022-07-17T09:39:52Z</time>
      </trkpt>
      <trkpt lat="46.84758" lon="6.53541">
        <ele>1529.3</ele>
        <time>2022-07-17T09:40:00Z</time>
      </trkpt>
      <trkpt lat="46.84762" lon="6.53546">
        <ele>1530.9</ele>
        <time>2022-07-17T09:40:08Z</time>
      </trkpt>
      <trkpt lat="46.84766" lon="6.5355">
        <ele>1532.1</ele>
        <time>2022-07-17T09:40:13Z</time>
      </trkpt>
      <trkpt lat="46.8477" lon="6.53554">
        <ele>1532.8</ele>
        <time>2022-07-17T09:40:19Z</time>
      </trkpt>
      <trkpt lat="46.84773" lon="6.53559">
        <ele>1532.8</ele>
        <time>2022-07-17T09:40:25Z</time>
      </trkpt>
      <trkpt lat="46.84777" lon="6.53564">
        <ele>1533.2</ele>
        <time>2022-07-17T09:40:30Z</time>
      </trkpt>
      <trkpt lat="46.84781" lon="6.53568">
        <ele>1534.4</ele>
        <time>2022-07-17T09:40:38Z</time>
      </trkpt>
      <trkpt lat="46.84785" lon="6.53571">
        <ele>1535.5</ele>
        <time>2022-07-17T09:40:46Z</time>
      </trkpt>
      <trkpt lat="46.84789" lon="6.53575">
        <ele>1536.5</ele>
        <time>2022-07-17T09:40:53Z</time>
      </trkpt>
      <trkpt lat="46.84792" lon="6.5358">
        <ele>1537.3</ele>
        <time>2022-07-17T09:40:59Z</time>
      </trkpt>
      <trkpt lat="46.84794" lon="6.53586">
        <ele>1538.2</ele>
        <time>2022-07-17T09:41:05Z</time>
      </trkpt>
      <trkpt lat="46.84799" lon="6.53589">
        <ele>1537.7</ele>
        <time>2022-07-17T09:42:23Z</time>
      </trkpt>
      <trkpt lat="46.84803" lon="6.53592">
        <ele>1538.2</ele>
        <time>2022-07-17T09:42:29Z</time>
      </trkpt>
      <trkpt lat="46.84807" lon="6.53596">
        <ele>1538.7</ele>
        <time>2022-07-17T09:42:35Z</time>
      </trkpt>
      <trkpt lat="46.84811" lon="6.53599">
        <ele>1539.8</ele>
        <time>2022-07-17T09:42:41Z</time>
      </trkpt>
      <trkpt lat="46.84815" lon="6.53604">
        <ele>1541.5</ele>
        <time>2022-07-17T09:42:47Z</time>
      </trkpt>
      <trkpt lat="46.84819" lon="6.53608">
        <ele>1542.9</ele>
        <time>2022-07-17T09:42:54Z</time>
      </trkpt>
      <trkpt lat="46.84822" lon="6.53613">
        <ele>1544.2</ele>
        <time>2022-07-17T09:43:00Z</time>
      </trkpt>
      <trkpt lat="46.84826" lon="6.53618">
        <ele>1545.6</ele>
        <time>2022-07-17T09:43:07Z</time>
      </trkpt>
      <trkpt lat="46.84831" lon="6.5362">
        <ele>1546.1</ele>
        <time>2022-07-17T09:43:11Z</time>
      </trkpt>
      <trkpt lat="46.84835" lon="6.53623">
        <ele>1546.6</ele>
        <time>2022-07-17T09:43:16Z</time>
      </trkpt>
      <trkpt lat="46.84838" lon="6.53629">
        <ele>1547</ele>
        <time>2022-07-17T09:43:23Z</time>
      </trkpt>
      <trkpt lat="46.84842" lon="6.53634">
        <ele>1547.2</ele>
        <time>2022-07-17T09:43:29Z</time>
      </trkpt>
      <trkpt lat="46.84846" lon="6.53637">
        <ele>1547.4</ele>
        <time>2022-07-17T09:43:35Z</time>
      </trkpt>
      <trkpt lat="46.84849" lon="6.53641">
        <ele>1547.8</ele>
        <time>2022-07-17T09:43:41Z</time>
      </trkpt>
      <trkpt lat="46.84854" lon="6.53644">
        <ele>1548</ele>
        <time>2022-07-17T09:44:10Z</time>
      </trkpt>
      <trkpt lat="46.84857" lon="6.5365">
        <ele>1548.4</ele>
        <time>2022-07-17T09:44:19Z</time>
      </trkpt>
      <trkpt lat="46.8486" lon="6.53656">
        <ele>1547.9</ele>
        <time>2022-07-17T09:44:24Z</time>
      </trkpt>
      <trkpt lat="46.84863" lon="6.53661">
        <ele>1547.1</ele>
        <time>2022-07-17T09:44:29Z</time>
      </trkpt>
      <trkpt lat="46.84868" lon="6.53664">
        <ele>1545.9</ele>
        <time>2022-07-17T09:44:35Z</time>
      </trkpt>
      <trkpt lat="46.84872" lon="6.53667">
        <ele>1545.9</ele>
        <time>2022-07-17T09:44:47Z</time>
      </trkpt>
      <trkpt lat="46.84876" lon="6.5367">
        <ele>1546</ele>
        <time>2022-07-17T09:44:54Z</time>
      </trkpt>
      <trkpt lat="46.8488" lon="6.53675">
        <ele>1546.5</ele>
        <time>2022-07-17T09:45:01Z</time>
      </trkpt>
      <trkpt lat="46.84885" lon="6.53677">
        <ele>1547.1</ele>
        <time>2022-07-17T09:45:07Z</time>
      </trkpt>
      <trkpt lat="46.8489" lon="6.53676">
        <ele>1547.8</ele>
        <time>2022-07-17T09:45:13Z</time>
      </trkpt>
      <trkpt lat="46.84895" lon="6.53678">
        <ele>1547.9</ele>
        <time>2022-07-17T09:45:18Z</time>
      </trkpt>
      <trkpt lat="46.84899" lon="6.53682">
        <ele>1547.7</ele>
        <time>2022-07-17T09:45:23Z</time>
      </trkpt>
      <trkpt lat="46.84903" lon="6.53686">
        <ele>1548.2</ele>
        <time>2022-07-17T09:45:29Z</time>
      </trkpt>
      <trkpt lat="46.84908" lon="6.53688">
        <ele>1550.3</ele>
        <time>2022-07-17T09:45:38Z</time>
      </trkpt>
      <trkpt lat="46.84913" lon="6.53687">
        <ele>1552.4</ele>
        <time>2022-07-17T09:45:44Z</time>
      </trkpt>
      <trkpt lat="46.84917" lon="6.53689">
        <ele>1554.4</ele>
        <time>2022-07-17T09:45:50Z</time>
      </trkpt>
      <trkpt lat="46.84922" lon="6.53694">
        <ele>1556.7</ele>
        <time>2022-07-17T09:45:58Z</time>
      </trkpt>
      <trkpt lat="46.84926" lon="6.53695">
        <ele>1557.9</ele>
        <time>2022-07-17T09:46:03Z</time>
      </trkpt>
      <trkpt lat="46.84931" lon="6.53697">
        <ele>1558.7</ele>
        <time>2022-07-17T09:46:08Z</time>
      </trkpt>
      <trkpt lat="46.84936" lon="6.53697">
        <ele>1559.7</ele>
        <time>2022-07-17T09:46:14Z</time>
      </trkpt>
      <trkpt lat="46.8494" lon="6.53697">
        <ele>1560</ele>
        <time>2022-07-17T09:46:20Z</time>
      </trkpt>
      <trkpt lat="46.84946" lon="6.53697">
        <ele>1560.6</ele>
        <time>2022-07-17T09:46:28Z</time>
      </trkpt>
      <trkpt lat="46.84951" lon="6.53697">
        <ele>1562</ele>
        <time>2022-07-17T09:46:36Z</time>
      </trkpt>
      <trkpt lat="46.84954" lon="6.53703">
        <ele>1560</ele>
        <time>2022-07-17T09:46:58Z</time>
      </trkpt>
      <trkpt lat="46.84954" lon="6.5371">
        <ele>1560</ele>
        <time>2022-07-17T09:47:04Z</time>
      </trkpt>
      <trkpt lat="46.84954" lon="6.53717">
        <ele>1560.2</ele>
        <time>2022-07-17T09:47:09Z</time>
      </trkpt>
      <trkpt lat="46.84954" lon="6.53724">
        <ele>1560.8</ele>
        <time>2022-07-17T09:47:14Z</time>
      </trkpt>
      <trkpt lat="46.84954" lon="6.53731">
        <ele>1561</ele>
        <time>2022-07-17T09:47:19Z</time>
      </trkpt>
      <trkpt lat="46.84954" lon="6.53739">
        <ele>1560</ele>
        <time>2022-07-17T09:47:25Z</time>
      </trkpt>
      <trkpt lat="46.84953" lon="6.53746">
        <ele>1559.5</ele>
        <time>2022-07-17T09:47:32Z</time>
      </trkpt>
      <trkpt lat="46.84955" lon="6.53753">
        <ele>1559.3</ele>
        <time>2022-07-17T09:47:38Z</time>
      </trkpt>
      <trkpt lat="46.84958" lon="6.53759">
        <ele>1559.5</ele>
        <time>2022-07-17T09:47:45Z</time>
      </trkpt>
      <trkpt lat="46.84959" lon="6.53767">
        <ele>1560.9</ele>
        <time>2022-07-17T09:47:53Z</time>
      </trkpt>
      <trkpt lat="46.84961" lon="6.53773">
        <ele>1562.3</ele>
        <time>2022-07-17T09:48:00Z</time>
      </trkpt>
      <trkpt lat="46.84962" lon="6.5378">
        <ele>1562.9</ele>
        <time>2022-07-17T09:48:08Z</time>
      </trkpt>
      <trkpt lat="46.84963" lon="6.53787">
        <ele>1562.9</ele>
        <time>2022-07-17T09:48:16Z</time>
      </trkpt>
      <trkpt lat="46.84966" lon="6.53792">
        <ele>1563</ele>
        <time>2022-07-17T09:48:24Z</time>
      </trkpt>
      <trkpt lat="46.84969" lon="6.53798">
        <ele>1563.8</ele>
        <time>2022-07-17T09:48:32Z</time>
      </trkpt>
      <trkpt lat="46.84971" lon="6.53805">
        <ele>1565.7</ele>
        <time>2022-07-17T09:48:40Z</time>
      </trkpt>
      <trkpt lat="46.84974" lon="6.53811">
        <ele>1567</ele>
        <time>2022-07-17T09:48:48Z</time>
      </trkpt>
      <trkpt lat="46.84977" lon="6.53816">
        <ele>1567.4</ele>
        <time>2022-07-17T09:48:57Z</time>
      </trkpt>
      <trkpt lat="46.8498" lon="6.53821">
        <ele>1568.6</ele>
        <time>2022-07-17T09:49:06Z</time>
      </trkpt>
      <trkpt lat="46.84983" lon="6.53827">
        <ele>1570.1</ele>
        <time>2022-07-17T09:49:14Z</time>
      </trkpt>
      <trkpt lat="46.84984" lon="6.53833">
        <ele>1571.4</ele>
        <time>2022-07-17T09:49:21Z</time>
      </trkpt>
      <trkpt lat="46.84986" lon="6.5384">
        <ele>1572.5</ele>
        <time>2022-07-17T09:49:28Z</time>
      </trkpt>
      <trkpt lat="46.84988" lon="6.53847">
        <ele>1573.9</ele>
        <time>2022-07-17T09:49:35Z</time>
      </trkpt>
      <trkpt lat="46.84992" lon="6.53852">
        <ele>1575</ele>
        <time>2022-07-17T09:49:41Z</time>
      </trkpt>
      <trkpt lat="46.84994" lon="6.53858">
        <ele>1575.3</ele>
        <time>2022-07-17T09:49:46Z</time>
      </trkpt>
      <trkpt lat="46.84997" lon="6.53863">
        <ele>1575.7</ele>
        <time>2022-07-17T09:49:53Z</time>
      </trkpt>
      <trkpt lat="46.84996" lon="6.5387">
        <ele>1575.8</ele>
        <time>2022-07-17T09:49:59Z</time>
      </trkpt>
      <trkpt lat="46.84993" lon="6.53875">
        <ele>1575.3</ele>
        <time>2022-07-17T09:50:10Z</time>
      </trkpt>
      <trkpt lat="46.84995" lon="6.53882">
        <ele>1575.8</ele>
        <time>2022-07-17T09:51:03Z</time>
      </trkpt>
      <trkpt lat="46.84998" lon="6.53888">
        <ele>1576.2</ele>
        <time>2022-07-17T09:51:09Z</time>
      </trkpt>
      <trkpt lat="46.84995" lon="6.53882">
        <ele>1578.8</ele>
        <time>2022-07-17T09:52:10Z</time>
      </trkpt>
      <trkpt lat="46.84994" lon="6.53875">
        <ele>1579.9</ele>
        <time>2022-07-17T09:52:27Z</time>
      </trkpt>
      <trkpt lat="46.84999" lon="6.53872">
        <ele>1579.9</ele>
        <time>2022-07-17T09:52:34Z</time>
      </trkpt>
      <trkpt lat="46.85003" lon="6.53869">
        <ele>1579.8</ele>
        <time>2022-07-17T09:52:41Z</time>
      </trkpt>
      <trkpt lat="46.85007" lon="6.53865">
        <ele>1580.2</ele>
        <time>2022-07-17T09:52:48Z</time>
      </trkpt>
      <trkpt lat="46.85009" lon="6.53858">
        <ele>1580.5</ele>
        <time>2022-07-17T09:52:57Z</time>
      </trkpt>
      <trkpt lat="46.85012" lon="6.53853">
        <ele>1581.2</ele>
        <time>2022-07-17T09:53:04Z</time>
      </trkpt>
      <trkpt lat="46.85016" lon="6.53849">
        <ele>1583.2</ele>
        <time>2022-07-17T09:53:15Z</time>
      </trkpt>
      <trkpt lat="46.8502" lon="6.53844">
        <ele>1584.8</ele>
        <time>2022-07-17T09:53:23Z</time>
      </trkpt>
      <trkpt lat="46.85024" lon="6.53839">
        <ele>1585.9</ele>
        <time>2022-07-17T09:53:29Z</time>
      </trkpt>
      <trkpt lat="46.85028" lon="6.53835">
        <ele>1587</ele>
        <time>2022-07-17T09:53:35Z</time>
      </trkpt>
      <trkpt lat="46.85032" lon="6.53831">
        <ele>1589.3</ele>
        <time>2022-07-17T09:54:01Z</time>
      </trkpt>
      <trkpt lat="46.85036" lon="6.53832">
        <ele>1589.4</ele>
        <time>2022-07-17T09:54:09Z</time>
      </trkpt>
      <trkpt lat="46.85041" lon="6.53832">
        <ele>1589.5</ele>
        <time>2022-07-17T09:54:15Z</time>
      </trkpt>
      <trkpt lat="46.85046" lon="6.53831">
        <ele>1589.1</ele>
        <time>2022-07-17T09:54:22Z</time>
      </trkpt>
      <trkpt lat="46.85051" lon="6.53828">
        <ele>1589</ele>
        <time>2022-07-17T09:54:27Z</time>
      </trkpt>
      <trkpt lat="46.85056" lon="6.53829">
        <ele>1589.3</ele>
        <time>2022-07-17T09:54:33Z</time>
      </trkpt>
      <trkpt lat="46.85061" lon="6.53832">
        <ele>1590.4</ele>
        <time>2022-07-17T09:54:39Z</time>
      </trkpt>
      <trkpt lat="46.85065" lon="6.53834">
        <ele>1591.3</ele>
        <time>2022-07-17T09:54:46Z</time>
      </trkpt>
      <trkpt lat="46.8507" lon="6.53835">
        <ele>1591.1</ele>
        <time>2022-07-17T09:54:53Z</time>
      </trkpt>
      <trkpt lat="46.85076" lon="6.53835">
        <ele>1590.3</ele>
        <time>2022-07-17T09:55:00Z</time>
      </trkpt>
      <trkpt lat="46.8508" lon="6.53835">
        <ele>1589.4</ele>
        <time>2022-07-17T09:55:12Z</time>
      </trkpt>
      <trkpt lat="46.85085" lon="6.53835">
        <ele>1589.2</ele>
        <time>2022-07-17T09:55:19Z</time>
      </trkpt>
      <trkpt lat="46.85091" lon="6.53835">
        <ele>1590</ele>
        <time>2022-07-17T09:55:24Z</time>
      </trkpt>
      <trkpt lat="46.85095" lon="6.53837">
        <ele>1590.5</ele>
        <time>2022-07-17T09:55:29Z</time>
      </trkpt>
      <trkpt lat="46.851" lon="6.53838">
        <ele>1591</ele>
        <time>2022-07-17T09:55:33Z</time>
      </trkpt>
      <trkpt lat="46.85105" lon="6.53837">
        <ele>1592</ele>
        <time>2022-07-17T09:55:37Z</time>
      </trkpt>
      <trkpt lat="46.85109" lon="6.53842">
        <ele>1592.4</ele>
        <time>2022-07-17T09:55:55Z</time>
      </trkpt>
      <trkpt lat="46.85113" lon="6.53844">
        <ele>1591.9</ele>
        <time>2022-07-17T09:56:01Z</time>
      </trkpt>
      <trkpt lat="46.85118" lon="6.53844">
        <ele>1592.1</ele>
        <time>2022-07-17T09:56:07Z</time>
      </trkpt>
      <trkpt lat="46.85122" lon="6.53841">
        <ele>1592.5</ele>
        <time>2022-07-17T09:56:14Z</time>
      </trkpt>
      <trkpt lat="46.85127" lon="6.53838">
        <ele>1592.9</ele>
        <time>2022-07-17T09:56:20Z</time>
      </trkpt>
      <trkpt lat="46.8513" lon="6.53833">
        <ele>1594.2</ele>
        <time>2022-07-17T09:56:27Z</time>
      </trkpt>
      <trkpt lat="46.85134" lon="6.53829">
        <ele>1595.1</ele>
        <time>2022-07-17T09:56:35Z</time>
      </trkpt>
      <trkpt lat="46.85138" lon="6.53827">
        <ele>1595.5</ele>
        <time>2022-07-17T09:56:42Z</time>
      </trkpt>
      <trkpt lat="46.85143" lon="6.53831">
        <ele>1595.6</ele>
        <time>2022-07-17T09:57:22Z</time>
      </trkpt>
      <trkpt lat="46.85147" lon="6.53834">
        <ele>1595.4</ele>
        <time>2022-07-17T09:57:29Z</time>
      </trkpt>
      <trkpt lat="46.85152" lon="6.53835">
        <ele>1595.7</ele>
        <time>2022-07-17T09:57:37Z</time>
      </trkpt>
      <trkpt lat="46.85156" lon="6.53837">
        <ele>1596.4</ele>
        <time>2022-07-17T09:57:47Z</time>
      </trkpt>
      <trkpt lat="46.85161" lon="6.53838">
        <ele>1596.7</ele>
        <time>2022-07-17T09:57:52Z</time>
      </trkpt>
      <trkpt lat="46.85166" lon="6.53838">
        <ele>1596.8</ele>
        <time>2022-07-17T09:57:59Z</time>
      </trkpt>
      <trkpt lat="46.85172" lon="6.53836">
        <ele>1598.2</ele>
        <time>2022-07-17T09:58:07Z</time>
      </trkpt>
      <trkpt lat="46.85175" lon="6.53832">
        <ele>1596.5</ele>
        <time>2022-07-17T09:59:55Z</time>
      </trkpt>
      <trkpt lat="46.8518" lon="6.53831">
        <ele>1597.2</ele>
        <time>2022-07-17T10:00:37Z</time>
      </trkpt>
      <trkpt lat="46.85184" lon="6.53827">
        <ele>1598.3</ele>
        <time>2022-07-17T10:01:27Z</time>
      </trkpt>
      <trkpt lat="46.85189" lon="6.5383">
        <ele>1598.9</ele>
        <time>2022-07-17T10:02:14Z</time>
      </trkpt>
      <trkpt lat="46.85188" lon="6.53837">
        <ele>1597.5</ele>
        <time>2022-07-17T10:04:29Z</time>
      </trkpt>
      <trkpt lat="46.85188" lon="6.53844">
        <ele>1597.2</ele>
        <time>2022-07-17T10:04:38Z</time>
      </trkpt>
      <trkpt lat="46.85187" lon="6.5385">
        <ele>1596.4</ele>
        <time>2022-07-17T10:04:50Z</time>
      </trkpt>
      <trkpt lat="46.8519" lon="6.53856">
        <ele>1594.8</ele>
        <time>2022-07-17T10:04:59Z</time>
      </trkpt>
      <trkpt lat="46.85191" lon="6.53863">
        <ele>1593.7</ele>
        <time>2022-07-17T10:05:07Z</time>
      </trkpt>
      <trkpt lat="46.8519" lon="6.53869">
        <ele>1593.1</ele>
        <time>2022-07-17T10:05:14Z</time>
      </trkpt>
      <trkpt lat="46.85189" lon="6.53876">
        <ele>1591.5</ele>
        <time>2022-07-17T10:05:22Z</time>
      </trkpt>
      <trkpt lat="46.85194" lon="6.53878">
        <ele>1588.8</ele>
        <time>2022-07-17T10:05:30Z</time>
      </trkpt>
      <trkpt lat="46.85198" lon="6.53882">
        <ele>1586.7</ele>
        <time>2022-07-17T10:05:38Z</time>
      </trkpt>
      <trkpt lat="46.852" lon="6.53888">
        <ele>1585.2</ele>
        <time>2022-07-17T10:05:46Z</time>
      </trkpt>
      <trkpt lat="46.85204" lon="6.53892">
        <ele>1584.4</ele>
        <time>2022-07-17T10:05:55Z</time>
      </trkpt>
      <trkpt lat="46.85207" lon="6.53897">
        <ele>1583</ele>
        <time>2022-07-17T10:06:03Z</time>
      </trkpt>
      <trkpt lat="46.85209" lon="6.53904">
        <ele>1581.8</ele>
        <time>2022-07-17T10:06:19Z</time>
      </trkpt>
      <trkpt lat="46.85213" lon="6.53909">
        <ele>1581.1</ele>
        <time>2022-07-17T10:06:33Z</time>
      </trkpt>
      <trkpt lat="46.85216" lon="6.53914">
        <ele>1580.8</ele>
        <time>2022-07-17T10:06:39Z</time>
      </trkpt>
      <trkpt lat="46.8522" lon="6.53919">
        <ele>1580.7</ele>
        <time>2022-07-17T10:06:45Z</time>
      </trkpt>
      <trkpt lat="46.85223" lon="6.53925">
        <ele>1580.4</ele>
        <time>2022-07-17T10:06:50Z</time>
      </trkpt>
      <trkpt lat="46.85226" lon="6.53931">
        <ele>1580.4</ele>
        <time>2022-07-17T10:06:57Z</time>
      </trkpt>
      <trkpt lat="46.8523" lon="6.53936">
        <ele>1580.5</ele>
        <time>2022-07-17T10:07:02Z</time>
      </trkpt>
      <trkpt lat="46.85233" lon="6.53942">
        <ele>1580</ele>
        <time>2022-07-17T10:07:08Z</time>
      </trkpt>
      <trkpt lat="46.85236" lon="6.53947">
        <ele>1579.4</ele>
        <time>2022-07-17T10:07:15Z</time>
      </trkpt>
      <trkpt lat="46.85238" lon="6.53953">
        <ele>1579.1</ele>
        <time>2022-07-17T10:07:21Z</time>
      </trkpt>
      <trkpt lat="46.85241" lon="6.53959">
        <ele>1577.7</ele>
        <time>2022-07-17T10:07:30Z</time>
      </trkpt>
      <trkpt lat="46.85245" lon="6.53963">
        <ele>1576.2</ele>
        <time>2022-07-17T10:07:38Z</time>
      </trkpt>
      <trkpt lat="46.85249" lon="6.53967">
        <ele>1574.9</ele>
        <time>2022-07-17T10:07:46Z</time>
      </trkpt>
      <trkpt lat="46.85251" lon="6.53974">
        <ele>1574.4</ele>
        <time>2022-07-17T10:07:54Z</time>
      </trkpt>
      <trkpt lat="46.85254" lon="6.5398">
        <ele>1573.7</ele>
        <time>2022-07-17T10:08:00Z</time>
      </trkpt>
      <trkpt lat="46.85257" lon="6.53985">
        <ele>1573.1</ele>
        <time>2022-07-17T10:08:07Z</time>
      </trkpt>
      <trkpt lat="46.8526" lon="6.53991">
        <ele>1572.6</ele>
        <time>2022-07-17T10:08:14Z</time>
      </trkpt>
      <trkpt lat="46.85264" lon="6.53997">
        <ele>1571.4</ele>
        <time>2022-07-17T10:08:22Z</time>
      </trkpt>
      <trkpt lat="46.85266" lon="6.54003">
        <ele>1571</ele>
        <time>2022-07-17T10:08:29Z</time>
      </trkpt>
      <trkpt lat="46.85266" lon="6.5401">
        <ele>1570.4</ele>
        <time>2022-07-17T10:08:34Z</time>
      </trkpt>
      <trkpt lat="46.85267" lon="6.54017">
        <ele>1570.1</ele>
        <time>2022-07-17T10:08:40Z</time>
      </trkpt>
      <trkpt lat="46.85269" lon="6.54023">
        <ele>1569.6</ele>
        <time>2022-07-17T10:08:47Z</time>
      </trkpt>
      <trkpt lat="46.8527" lon="6.5403">
        <ele>1568.8</ele>
        <time>2022-07-17T10:08:52Z</time>
      </trkpt>
      <trkpt lat="46.85271" lon="6.54037">
        <ele>1568.1</ele>
        <time>2022-07-17T10:08:56Z</time>
      </trkpt>
      <trkpt lat="46.85273" lon="6.54043">
        <ele>1567.5</ele>
        <time>2022-07-17T10:09:01Z</time>
      </trkpt>
      <trkpt lat="46.85275" lon="6.5405">
        <ele>1567</ele>
        <time>2022-07-17T10:09:07Z</time>
      </trkpt>
      <trkpt lat="46.85278" lon="6.54056">
        <ele>1566.9</ele>
        <time>2022-07-17T10:09:12Z</time>
      </trkpt>
      <trkpt lat="46.85281" lon="6.54062">
        <ele>1566.8</ele>
        <time>2022-07-17T10:09:18Z</time>
      </trkpt>
      <trkpt lat="46.85284" lon="6.54068">
        <ele>1566.9</ele>
        <time>2022-07-17T10:09:23Z</time>
      </trkpt>
      <trkpt lat="46.85286" lon="6.54074">
        <ele>1564.4</ele>
        <time>2022-07-17T10:09:57Z</time>
      </trkpt>
      <trkpt lat="46.85288" lon="6.54081">
        <ele>1563</ele>
        <time>2022-07-17T10:10:04Z</time>
      </trkpt>
      <trkpt lat="46.85291" lon="6.54086">
        <ele>1562.6</ele>
        <time>2022-07-17T10:10:10Z</time>
      </trkpt>
      <trkpt lat="46.85294" lon="6.54091">
        <ele>1562</ele>
        <time>2022-07-17T10:10:16Z</time>
      </trkpt>
      <trkpt lat="46.85298" lon="6.54096">
        <ele>1560.9</ele>
        <time>2022-07-17T10:10:24Z</time>
      </trkpt>
      <trkpt lat="46.853" lon="6.54102">
        <ele>1559.4</ele>
        <time>2022-07-17T10:10:32Z</time>
      </trkpt>
      <trkpt lat="46.85304" lon="6.54105">
        <ele>1557.8</ele>
        <time>2022-07-17T10:10:41Z</time>
      </trkpt>
      <trkpt lat="46.85306" lon="6.54112">
        <ele>1556.9</ele>
        <time>2022-07-17T10:10:50Z</time>
      </trkpt>
      <trkpt lat="46.8531" lon="6.54115">
        <ele>1555.8</ele>
        <time>2022-07-17T10:11:00Z</time>
      </trkpt>
      <trkpt lat="46.85315" lon="6.54118">
        <ele>1555.2</ele>
        <time>2022-07-17T10:11:07Z</time>
      </trkpt>
      <trkpt lat="46.85318" lon="6.54123">
        <ele>1554.2</ele>
        <time>2022-07-17T10:11:15Z</time>
      </trkpt>
      <trkpt lat="46.85321" lon="6.54128">
        <ele>1552.3</ele>
        <time>2022-07-17T10:11:26Z</time>
      </trkpt>
      <trkpt lat="46.85326" lon="6.54131">
        <ele>1550.8</ele>
        <time>2022-07-17T10:11:33Z</time>
      </trkpt>
      <trkpt lat="46.85329" lon="6.54136">
        <ele>1549.7</ele>
        <time>2022-07-17T10:11:40Z</time>
      </trkpt>
      <trkpt lat="46.85333" lon="6.5414">
        <ele>1549.1</ele>
        <time>2022-07-17T10:11:47Z</time>
      </trkpt>
      <trkpt lat="46.85337" lon="6.54144">
        <ele>1548.4</ele>
        <time>2022-07-17T10:11:54Z</time>
      </trkpt>
      <trkpt lat="46.85342" lon="6.54149">
        <ele>1547</ele>
        <time>2022-07-17T10:12:02Z</time>
      </trkpt>
      <trkpt lat="46.85345" lon="6.54153">
        <ele>1545.9</ele>
        <time>2022-07-17T10:12:10Z</time>
      </trkpt>
      <trkpt lat="46.85347" lon="6.54161">
        <ele>1544.6</ele>
        <time>2022-07-17T10:13:14Z</time>
      </trkpt>
      <trkpt lat="46.85349" lon="6.54168">
        <ele>1544.8</ele>
        <time>2022-07-17T10:13:19Z</time>
      </trkpt>
      <trkpt lat="46.85353" lon="6.54172">
        <ele>1545.9</ele>
        <time>2022-07-17T10:13:27Z</time>
      </trkpt>
      <trkpt lat="46.85358" lon="6.54174">
        <ele>1545.8</ele>
        <time>2022-07-17T10:13:34Z</time>
      </trkpt>
      <trkpt lat="46.85362" lon="6.54177">
        <ele>1545.5</ele>
        <time>2022-07-17T10:13:39Z</time>
      </trkpt>
      <trkpt lat="46.85366" lon="6.5418">
        <ele>1544.7</ele>
        <time>2022-07-17T10:13:44Z</time>
      </trkpt>
      <trkpt lat="46.8537" lon="6.54183">
        <ele>1543.1</ele>
        <time>2022-07-17T10:13:50Z</time>
      </trkpt>
      <trkpt lat="46.85374" lon="6.54188">
        <ele>1542.2</ele>
        <time>2022-07-17T10:13:57Z</time>
      </trkpt>
      <trkpt lat="46.85378" lon="6.54193">
        <ele>1542.3</ele>
        <time>2022-07-17T10:14:05Z</time>
      </trkpt>
      <trkpt lat="46.85379" lon="6.542">
        <ele>1542.3</ele>
        <time>2022-07-17T10:14:12Z</time>
      </trkpt>
      <trkpt lat="46.85383" lon="6.54202">
        <ele>1542.6</ele>
        <time>2022-07-17T10:14:17Z</time>
      </trkpt>
      <trkpt lat="46.85386" lon="6.54207">
        <ele>1544.3</ele>
        <time>2022-07-17T10:14:29Z</time>
      </trkpt>
      <trkpt lat="46.85391" lon="6.54213">
        <ele>1545</ele>
        <time>2022-07-17T10:14:48Z</time>
      </trkpt>
      <trkpt lat="46.85396" lon="6.54215">
        <ele>1544.7</ele>
        <time>2022-07-17T10:14:52Z</time>
      </trkpt>
      <trkpt lat="46.85398" lon="6.54221">
        <ele>1545.1</ele>
        <time>2022-07-17T10:15:01Z</time>
      </trkpt>
      <trkpt lat="46.85401" lon="6.54227">
        <ele>1545.4</ele>
        <time>2022-07-17T10:15:10Z</time>
      </trkpt>
      <trkpt lat="46.85404" lon="6.54234">
        <ele>1545.4</ele>
        <time>2022-07-17T10:15:16Z</time>
      </trkpt>
      <trkpt lat="46.85407" lon="6.54239">
        <ele>1545.3</ele>
        <time>2022-07-17T10:15:21Z</time>
      </trkpt>
      <trkpt lat="46.85411" lon="6.54239">
        <ele>1545.2</ele>
        <time>2022-07-17T10:15:26Z</time>
      </trkpt>
      <trkpt lat="46.85416" lon="6.5424">
        <ele>1544.6</ele>
        <time>2022-07-17T10:15:33Z</time>
      </trkpt>
      <trkpt lat="46.85421" lon="6.54241">
        <ele>1543.4</ele>
        <time>2022-07-17T10:15:40Z</time>
      </trkpt>
      <trkpt lat="46.85426" lon="6.54242">
        <ele>1541.9</ele>
        <time>2022-07-17T10:15:47Z</time>
      </trkpt>
      <trkpt lat="46.8543" lon="6.54244">
        <ele>1539</ele>
        <time>2022-07-17T10:15:55Z</time>
      </trkpt>
      <trkpt lat="46.85435" lon="6.54243">
        <ele>1536.1</ele>
        <time>2022-07-17T10:16:02Z</time>
      </trkpt>
      <trkpt lat="46.85441" lon="6.54245">
        <ele>1534.6</ele>
        <time>2022-07-17T10:16:07Z</time>
      </trkpt>
      <trkpt lat="46.85445" lon="6.54245">
        <ele>1533.6</ele>
        <time>2022-07-17T10:16:13Z</time>
      </trkpt>
      <trkpt lat="46.85448" lon="6.54256">
        <ele>1532.7</ele>
        <time>2022-07-17T10:16:43Z</time>
      </trkpt>
      <trkpt lat="46.85451" lon="6.54262">
        <ele>1532.4</ele>
        <time>2022-07-17T10:16:46Z</time>
      </trkpt>
      <trkpt lat="46.85455" lon="6.54266">
        <ele>1530.8</ele>
        <time>2022-07-17T10:17:00Z</time>
      </trkpt>
      <trkpt lat="46.8546" lon="6.54263">
        <ele>1530.5</ele>
        <time>2022-07-17T10:17:05Z</time>
      </trkpt>
      <trkpt lat="46.85462" lon="6.5427">
        <ele>1522.1</ele>
        <time>2022-07-17T10:18:01Z</time>
      </trkpt>
      <trkpt lat="46.85467" lon="6.54272">
        <ele>1520.4</ele>
        <time>2022-07-17T10:18:07Z</time>
      </trkpt>
      <trkpt lat="46.85471" lon="6.54272">
        <ele>1519.4</ele>
        <time>2022-07-17T10:18:14Z</time>
      </trkpt>
      <trkpt lat="46.85476" lon="6.54273">
        <ele>1519.6</ele>
        <time>2022-07-17T10:18:21Z</time>
      </trkpt>
      <trkpt lat="46.85479" lon="6.5428">
        <ele>1521.2</ele>
        <time>2022-07-17T10:18:40Z</time>
      </trkpt>
      <trkpt lat="46.85482" lon="6.54286">
        <ele>1520.8</ele>
        <time>2022-07-17T10:18:47Z</time>
      </trkpt>
      <trkpt lat="46.85486" lon="6.5429">
        <ele>1519.7</ele>
        <time>2022-07-17T10:18:54Z</time>
      </trkpt>
      <trkpt lat="46.85491" lon="6.54291">
        <ele>1518.2</ele>
        <time>2022-07-17T10:19:00Z</time>
      </trkpt>
      <trkpt lat="46.85496" lon="6.54292">
        <ele>1515.4</ele>
        <time>2022-07-17T10:19:08Z</time>
      </trkpt>
      <trkpt lat="46.85501" lon="6.54295">
        <ele>1514.8</ele>
        <time>2022-07-17T10:19:12Z</time>
      </trkpt>
      <trkpt lat="46.85505" lon="6.54298">
        <ele>1514.3</ele>
        <time>2022-07-17T10:19:16Z</time>
      </trkpt>
      <trkpt lat="46.8551" lon="6.54301">
        <ele>1514</ele>
        <time>2022-07-17T10:19:22Z</time>
      </trkpt>
      <trkpt lat="46.85515" lon="6.54302">
        <ele>1513.9</ele>
        <time>2022-07-17T10:19:27Z</time>
      </trkpt>
      <trkpt lat="46.85521" lon="6.54301">
        <ele>1513.5</ele>
        <time>2022-07-17T10:19:33Z</time>
      </trkpt>
      <trkpt lat="46.85525" lon="6.54302">
        <ele>1513.4</ele>
        <time>2022-07-17T10:19:41Z</time>
      </trkpt>
      <trkpt lat="46.85529" lon="6.54306">
        <ele>1513</ele>
        <time>2022-07-17T10:19:47Z</time>
      </trkpt>
      <trkpt lat="46.85531" lon="6.54312">
        <ele>1509.6</ele>
        <time>2022-07-17T10:20:04Z</time>
      </trkpt>
      <trkpt lat="46.85535" lon="6.54317">
        <ele>1509.7</ele>
        <time>2022-07-17T10:20:08Z</time>
      </trkpt>
      <trkpt lat="46.8554" lon="6.54319">
        <ele>1510.1</ele>
        <time>2022-07-17T10:20:13Z</time>
      </trkpt>
      <trkpt lat="46.85545" lon="6.54319">
        <ele>1510.6</ele>
        <time>2022-07-17T10:20:19Z</time>
      </trkpt>
      <trkpt lat="46.85548" lon="6.54324">
        <ele>1505.1</ele>
        <time>2022-07-17T10:20:38Z</time>
      </trkpt>
      <trkpt lat="46.85549" lon="6.54331">
        <ele>1502.9</ele>
        <time>2022-07-17T10:20:44Z</time>
      </trkpt>
      <trkpt lat="46.85554" lon="6.54333">
        <ele>1500.9</ele>
        <time>2022-07-17T10:20:52Z</time>
      </trkpt>
      <trkpt lat="46.85555" lon="6.54339">
        <ele>1500.8</ele>
        <time>2022-07-17T10:21:01Z</time>
      </trkpt>
      <trkpt lat="46.85559" lon="6.54344">
        <ele>1500.9</ele>
        <time>2022-07-17T10:21:08Z</time>
      </trkpt>
      <trkpt lat="46.85563" lon="6.54345">
        <ele>1500.3</ele>
        <time>2022-07-17T10:21:16Z</time>
      </trkpt>
      <trkpt lat="46.85568" lon="6.54344">
        <ele>1498.6</ele>
        <time>2022-07-17T10:21:21Z</time>
      </trkpt>
      <trkpt lat="46.85573" lon="6.54346">
        <ele>1496.9</ele>
        <time>2022-07-17T10:21:28Z</time>
      </trkpt>
      <trkpt lat="46.85577" lon="6.54351">
        <ele>1496.5</ele>
        <time>2022-07-17T10:21:35Z</time>
      </trkpt>
      <trkpt lat="46.85583" lon="6.54353">
        <ele>1496.7</ele>
        <time>2022-07-17T10:21:39Z</time>
      </trkpt>
      <trkpt lat="46.85587" lon="6.54356">
        <ele>1497</ele>
        <time>2022-07-17T10:21:44Z</time>
      </trkpt>
      <trkpt lat="46.85592" lon="6.54358">
        <ele>1497</ele>
        <time>2022-07-17T10:21:49Z</time>
      </trkpt>
      <trkpt lat="46.85597" lon="6.54359">
        <ele>1497.3</ele>
        <time>2022-07-17T10:21:53Z</time>
      </trkpt>
      <trkpt lat="46.85601" lon="6.54363">
        <ele>1497.8</ele>
        <time>2022-07-17T10:22:00Z</time>
      </trkpt>
      <trkpt lat="46.85605" lon="6.54367">
        <ele>1495.7</ele>
        <time>2022-07-17T10:22:28Z</time>
      </trkpt>
      <trkpt lat="46.85609" lon="6.54371">
        <ele>1495.4</ele>
        <time>2022-07-17T10:22:34Z</time>
      </trkpt>
      <trkpt lat="46.85613" lon="6.54375">
        <ele>1495.5</ele>
        <time>2022-07-17T10:22:38Z</time>
      </trkpt>
      <trkpt lat="46.85617" lon="6.5438">
        <ele>1495.8</ele>
        <time>2022-07-17T10:22:43Z</time>
      </trkpt>
      <trkpt lat="46.85621" lon="6.54383">
        <ele>1496.2</ele>
        <time>2022-07-17T10:22:47Z</time>
      </trkpt>
      <trkpt lat="46.85625" lon="6.54388">
        <ele>1496</ele>
        <time>2022-07-17T10:22:54Z</time>
      </trkpt>
      <trkpt lat="46.85628" lon="6.54394">
        <ele>1495.8</ele>
        <time>2022-07-17T10:22:59Z</time>
      </trkpt>
      <trkpt lat="46.85632" lon="6.54397">
        <ele>1496.4</ele>
        <time>2022-07-17T10:23:03Z</time>
      </trkpt>
      <trkpt lat="46.85637" lon="6.544">
        <ele>1497.1</ele>
        <time>2022-07-17T10:23:08Z</time>
      </trkpt>
      <trkpt lat="46.85641" lon="6.54405">
        <ele>1497.4</ele>
        <time>2022-07-17T10:23:15Z</time>
      </trkpt>
      <trkpt lat="46.85645" lon="6.54409">
        <ele>1497</ele>
        <time>2022-07-17T10:23:20Z</time>
      </trkpt>
      <trkpt lat="46.85649" lon="6.54413">
        <ele>1496.1</ele>
        <time>2022-07-17T10:23:24Z</time>
      </trkpt>
      <trkpt lat="46.85653" lon="6.54417">
        <ele>1495.2</ele>
        <time>2022-07-17T10:23:28Z</time>
      </trkpt>
      <trkpt lat="46.85656" lon="6.54422">
        <ele>1494.5</ele>
        <time>2022-07-17T10:23:33Z</time>
      </trkpt>
      <trkpt lat="46.8566" lon="6.54426">
        <ele>1494.2</ele>
        <time>2022-07-17T10:23:39Z</time>
      </trkpt>
      <trkpt lat="46.85665" lon="6.54428">
        <ele>1494.3</ele>
        <time>2022-07-17T10:23:44Z</time>
      </trkpt>
      <trkpt lat="46.85669" lon="6.54432">
        <ele>1494.2</ele>
        <time>2022-07-17T10:23:49Z</time>
      </trkpt>
      <trkpt lat="46.85673" lon="6.54437">
        <ele>1494.2</ele>
        <time>2022-07-17T10:23:53Z</time>
      </trkpt>
      <trkpt lat="46.85677" lon="6.5444">
        <ele>1494.4</ele>
        <time>2022-07-17T10:23:57Z</time>
      </trkpt>
      <trkpt lat="46.85682" lon="6.54445">
        <ele>1494.7</ele>
        <time>2022-07-17T10:24:02Z</time>
      </trkpt>
      <trkpt lat="46.85686" lon="6.54447">
        <ele>1494.9</ele>
        <time>2022-07-17T10:24:07Z</time>
      </trkpt>
      <trkpt lat="46.8569" lon="6.54451">
        <ele>1495.6</ele>
        <time>2022-07-17T10:24:13Z</time>
      </trkpt>
      <trkpt lat="46.85694" lon="6.54455">
        <ele>1495.1</ele>
        <time>2022-07-17T10:24:19Z</time>
      </trkpt>
      <trkpt lat="46.85697" lon="6.5446">
        <ele>1494.4</ele>
        <time>2022-07-17T10:24:24Z</time>
      </trkpt>
      <trkpt lat="46.85701" lon="6.54464">
        <ele>1494</ele>
        <time>2022-07-17T10:24:29Z</time>
      </trkpt>
      <trkpt lat="46.85703" lon="6.54471">
        <ele>1493</ele>
        <time>2022-07-17T10:24:34Z</time>
      </trkpt>
      <trkpt lat="46.85706" lon="6.54476">
        <ele>1491.9</ele>
        <time>2022-07-17T10:24:39Z</time>
      </trkpt>
      <trkpt lat="46.85711" lon="6.5448">
        <ele>1487.4</ele>
        <time>2022-07-17T10:25:04Z</time>
      </trkpt>
      <trkpt lat="46.85715" lon="6.54484">
        <ele>1487.3</ele>
        <time>2022-07-17T10:25:09Z</time>
      </trkpt>
      <trkpt lat="46.8572" lon="6.54486">
        <ele>1487.9</ele>
        <time>2022-07-17T10:25:14Z</time>
      </trkpt>
      <trkpt lat="46.85725" lon="6.54488">
        <ele>1488.3</ele>
        <time>2022-07-17T10:25:19Z</time>
      </trkpt>
      <trkpt lat="46.85729" lon="6.54489">
        <ele>1488.5</ele>
        <time>2022-07-17T10:25:26Z</time>
      </trkpt>
      <trkpt lat="46.85733" lon="6.54492">
        <ele>1488.2</ele>
        <time>2022-07-17T10:25:31Z</time>
      </trkpt>
      <trkpt lat="46.85737" lon="6.54497">
        <ele>1488.3</ele>
        <time>2022-07-17T10:25:35Z</time>
      </trkpt>
      <trkpt lat="46.85741" lon="6.54501">
        <ele>1488.7</ele>
        <time>2022-07-17T10:25:39Z</time>
      </trkpt>
      <trkpt lat="46.85746" lon="6.54503">
        <ele>1488.9</ele>
        <time>2022-07-17T10:25:44Z</time>
      </trkpt>
      <trkpt lat="46.85751" lon="6.54506">
        <ele>1488.8</ele>
        <time>2022-07-17T10:25:50Z</time>
      </trkpt>
      <trkpt lat="46.85756" lon="6.5451">
        <ele>1488.3</ele>
        <time>2022-07-17T10:25:56Z</time>
      </trkpt>
      <trkpt lat="46.8576" lon="6.54513">
        <ele>1488.2</ele>
        <time>2022-07-17T10:26:01Z</time>
      </trkpt>
      <trkpt lat="46.85764" lon="6.54517">
        <ele>1488.3</ele>
        <time>2022-07-17T10:26:08Z</time>
      </trkpt>
      <trkpt lat="46.85768" lon="6.54518">
        <ele>1488.3</ele>
        <time>2022-07-17T10:26:12Z</time>
      </trkpt>
      <trkpt lat="46.85773" lon="6.5452">
        <ele>1488.4</ele>
        <time>2022-07-17T10:26:17Z</time>
      </trkpt>
      <trkpt lat="46.85779" lon="6.54522">
        <ele>1488.7</ele>
        <time>2022-07-17T10:26:22Z</time>
      </trkpt>
      <trkpt lat="46.85783" lon="6.54526">
        <ele>1489.1</ele>
        <time>2022-07-17T10:26:26Z</time>
      </trkpt>
      <trkpt lat="46.85787" lon="6.5453">
        <ele>1489.1</ele>
        <time>2022-07-17T10:26:30Z</time>
      </trkpt>
      <trkpt lat="46.85791" lon="6.54534">
        <ele>1489.5</ele>
        <time>2022-07-17T10:26:35Z</time>
      </trkpt>
      <trkpt lat="46.85796" lon="6.54536">
        <ele>1489.8</ele>
        <time>2022-07-17T10:26:41Z</time>
      </trkpt>
      <trkpt lat="46.85801" lon="6.5454">
        <ele>1490.1</ele>
        <time>2022-07-17T10:26:47Z</time>
      </trkpt>
      <trkpt lat="46.85805" lon="6.54544">
        <ele>1489.6</ele>
        <time>2022-07-17T10:26:53Z</time>
      </trkpt>
      <trkpt lat="46.8581" lon="6.54545">
        <ele>1489.7</ele>
        <time>2022-07-17T10:26:59Z</time>
      </trkpt>
      <trkpt lat="46.85815" lon="6.54547">
        <ele>1490.3</ele>
        <time>2022-07-17T10:27:04Z</time>
      </trkpt>
      <trkpt lat="46.8582" lon="6.54549">
        <ele>1490.4</ele>
        <time>2022-07-17T10:27:10Z</time>
      </trkpt>
      <trkpt lat="46.85824" lon="6.54553">
        <ele>1490.6</ele>
        <time>2022-07-17T10:27:16Z</time>
      </trkpt>
      <trkpt lat="46.85828" lon="6.54555">
        <ele>1490.6</ele>
        <time>2022-07-17T10:27:21Z</time>
      </trkpt>
      <trkpt lat="46.85833" lon="6.54558">
        <ele>1490.8</ele>
        <time>2022-07-17T10:27:26Z</time>
      </trkpt>
      <trkpt lat="46.85838" lon="6.54558">
        <ele>1491</ele>
        <time>2022-07-17T10:27:31Z</time>
      </trkpt>
      <trkpt lat="46.85843" lon="6.54561">
        <ele>1490.7</ele>
        <time>2022-07-17T10:27:37Z</time>
      </trkpt>
      <trkpt lat="46.85846" lon="6.54566">
        <ele>1490.3</ele>
        <time>2022-07-17T10:27:43Z</time>
      </trkpt>
      <trkpt lat="46.85848" lon="6.54572">
        <ele>1488.7</ele>
        <time>2022-07-17T10:27:51Z</time>
      </trkpt>
      <trkpt lat="46.85853" lon="6.54576">
        <ele>1486.8</ele>
        <time>2022-07-17T10:27:58Z</time>
      </trkpt>
      <trkpt lat="46.85857" lon="6.54579">
        <ele>1485.3</ele>
        <time>2022-07-17T10:28:04Z</time>
      </trkpt>
      <trkpt lat="46.85862" lon="6.54582">
        <ele>1484.4</ele>
        <time>2022-07-17T10:28:09Z</time>
      </trkpt>
      <trkpt lat="46.85865" lon="6.54586">
        <ele>1483.2</ele>
        <time>2022-07-17T10:28:14Z</time>
      </trkpt>
      <trkpt lat="46.85869" lon="6.54592">
        <ele>1482.2</ele>
        <time>2022-07-17T10:28:19Z</time>
      </trkpt>
      <trkpt lat="46.85874" lon="6.54596">
        <ele>1481.7</ele>
        <time>2022-07-17T10:28:24Z</time>
      </trkpt>
      <trkpt lat="46.85878" lon="6.54599">
        <ele>1481.1</ele>
        <time>2022-07-17T10:28:30Z</time>
      </trkpt>
      <trkpt lat="46.85882" lon="6.54602">
        <ele>1480</ele>
        <time>2022-07-17T10:28:36Z</time>
      </trkpt>
      <trkpt lat="46.85886" lon="6.54607">
        <ele>1479</ele>
        <time>2022-07-17T10:28:43Z</time>
      </trkpt>
      <trkpt lat="46.85891" lon="6.54611">
        <ele>1477.5</ele>
        <time>2022-07-17T10:28:49Z</time>
      </trkpt>
      <trkpt lat="46.85896" lon="6.54613">
        <ele>1476.2</ele>
        <time>2022-07-17T10:28:54Z</time>
      </trkpt>
      <trkpt lat="46.85901" lon="6.54616">
        <ele>1475.5</ele>
        <time>2022-07-17T10:28:59Z</time>
      </trkpt>
      <trkpt lat="46.85906" lon="6.54617">
        <ele>1475.3</ele>
        <time>2022-07-17T10:29:04Z</time>
      </trkpt>
      <trkpt lat="46.85911" lon="6.54619">
        <ele>1475.8</ele>
        <time>2022-07-17T10:29:09Z</time>
      </trkpt>
      <trkpt lat="46.85915" lon="6.54621">
        <ele>1476.3</ele>
        <time>2022-07-17T10:29:14Z</time>
      </trkpt>
      <trkpt lat="46.8592" lon="6.54623">
        <ele>1476.8</ele>
        <time>2022-07-17T10:29:19Z</time>
      </trkpt>
      <trkpt lat="46.85926" lon="6.54624">
        <ele>1476.9</ele>
        <time>2022-07-17T10:29:24Z</time>
      </trkpt>
      <trkpt lat="46.85931" lon="6.54624">
        <ele>1477.3</ele>
        <time>2022-07-17T10:29:29Z</time>
      </trkpt>
      <trkpt lat="46.85936" lon="6.54623">
        <ele>1478.3</ele>
        <time>2022-07-17T10:29:34Z</time>
      </trkpt>
      <trkpt lat="46.85942" lon="6.54626">
        <ele>1479.7</ele>
        <time>2022-07-17T10:29:39Z</time>
      </trkpt>
      <trkpt lat="46.85946" lon="6.54629">
        <ele>1480.8</ele>
        <time>2022-07-17T10:29:45Z</time>
      </trkpt>
      <trkpt lat="46.85949" lon="6.54634">
        <ele>1481.2</ele>
        <time>2022-07-17T10:29:52Z</time>
      </trkpt>
      <trkpt lat="46.85954" lon="6.54634">
        <ele>1481.4</ele>
        <time>2022-07-17T10:29:58Z</time>
      </trkpt>
      <trkpt lat="46.85959" lon="6.54633">
        <ele>1481.6</ele>
        <time>2022-07-17T10:30:02Z</time>
      </trkpt>
      <trkpt lat="46.85965" lon="6.54633">
        <ele>1481.4</ele>
        <time>2022-07-17T10:30:07Z</time>
      </trkpt>
      <trkpt lat="46.85969" lon="6.54626">
        <ele>1478.7</ele>
        <time>2022-07-17T10:30:32Z</time>
      </trkpt>
      <trkpt lat="46.85973" lon="6.54622">
        <ele>1479.3</ele>
        <time>2022-07-17T10:30:59Z</time>
      </trkpt>
      <trkpt lat="46.85977" lon="6.54619">
        <ele>1479.1</ele>
        <time>2022-07-17T10:31:03Z</time>
      </trkpt>
      <trkpt lat="46.85981" lon="6.54624">
        <ele>1477</ele>
        <time>2022-07-17T10:31:10Z</time>
      </trkpt>
      <trkpt lat="46.85986" lon="6.54626">
        <ele>1474</ele>
        <time>2022-07-17T10:31:16Z</time>
      </trkpt>
      <trkpt lat="46.85991" lon="6.54628">
        <ele>1472</ele>
        <time>2022-07-17T10:31:22Z</time>
      </trkpt>
      <trkpt lat="46.85996" lon="6.54629">
        <ele>1471.1</ele>
        <time>2022-07-17T10:31:27Z</time>
      </trkpt>
      <trkpt lat="46.86" lon="6.54627">
        <ele>1470.4</ele>
        <time>2022-07-17T10:31:32Z</time>
      </trkpt>
      <trkpt lat="46.86005" lon="6.54624">
        <ele>1468.6</ele>
        <time>2022-07-17T10:31:39Z</time>
      </trkpt>
      <trkpt lat="46.86009" lon="6.5462">
        <ele>1465.7</ele>
        <time>2022-07-17T10:31:47Z</time>
      </trkpt>
      <trkpt lat="46.86014" lon="6.54621">
        <ele>1463.1</ele>
        <time>2022-07-17T10:31:55Z</time>
      </trkpt>
      <trkpt lat="46.86018" lon="6.54624">
        <ele>1461.1</ele>
        <time>2022-07-17T10:32:03Z</time>
      </trkpt>
      <trkpt lat="46.86023" lon="6.54626">
        <ele>1459</ele>
        <time>2022-07-17T10:32:13Z</time>
      </trkpt>
      <trkpt lat="46.86028" lon="6.54627">
        <ele>1458.4</ele>
        <time>2022-07-17T10:32:18Z</time>
      </trkpt>
      <trkpt lat="46.86033" lon="6.54627">
        <ele>1458.3</ele>
        <time>2022-07-17T10:32:23Z</time>
      </trkpt>
      <trkpt lat="46.86038" lon="6.54626">
        <ele>1458.1</ele>
        <time>2022-07-17T10:32:28Z</time>
      </trkpt>
      <trkpt lat="46.86043" lon="6.54626">
        <ele>1458</ele>
        <time>2022-07-17T10:32:32Z</time>
      </trkpt>
      <trkpt lat="46.86048" lon="6.54625">
        <ele>1458.2</ele>
        <time>2022-07-17T10:32:37Z</time>
      </trkpt>
      <trkpt lat="46.86052" lon="6.54627">
        <ele>1458.1</ele>
        <time>2022-07-17T10:32:44Z</time>
      </trkpt>
      <trkpt lat="46.86057" lon="6.54627">
        <ele>1458.1</ele>
        <time>2022-07-17T10:32:50Z</time>
      </trkpt>
      <trkpt lat="46.86062" lon="6.54629">
        <ele>1457.8</ele>
        <time>2022-07-17T10:32:56Z</time>
      </trkpt>
      <trkpt lat="46.86067" lon="6.54631">
        <ele>1457.2</ele>
        <time>2022-07-17T10:33:03Z</time>
      </trkpt>
      <trkpt lat="46.86072" lon="6.54633">
        <ele>1457</ele>
        <time>2022-07-17T10:33:06Z</time>
      </trkpt>
      <trkpt lat="46.86076" lon="6.54635">
        <ele>1456.8</ele>
        <time>2022-07-17T10:33:09Z</time>
      </trkpt>
      <trkpt lat="46.86081" lon="6.54636">
        <ele>1456.7</ele>
        <time>2022-07-17T10:33:13Z</time>
      </trkpt>
      <trkpt lat="46.86086" lon="6.54636">
        <ele>1456.5</ele>
        <time>2022-07-17T10:33:17Z</time>
      </trkpt>
      <trkpt lat="46.86091" lon="6.54637">
        <ele>1456.6</ele>
        <time>2022-07-17T10:33:22Z</time>
      </trkpt>
      <trkpt lat="46.86096" lon="6.54637">
        <ele>1456.5</ele>
        <time>2022-07-17T10:33:27Z</time>
      </trkpt>
      <trkpt lat="46.861" lon="6.54636">
        <ele>1455.3</ele>
        <time>2022-07-17T10:33:34Z</time>
      </trkpt>
      <trkpt lat="46.86105" lon="6.54635">
        <ele>1453.7</ele>
        <time>2022-07-17T10:33:41Z</time>
      </trkpt>
      <trkpt lat="46.86109" lon="6.54633">
        <ele>1451.9</ele>
        <time>2022-07-17T10:33:47Z</time>
      </trkpt>
      <trkpt lat="46.86114" lon="6.5463">
        <ele>1447.2</ele>
        <time>2022-07-17T10:34:00Z</time>
      </trkpt>
      <trkpt lat="46.86115" lon="6.54637">
        <ele>1445.4</ele>
        <time>2022-07-17T10:34:09Z</time>
      </trkpt>
      <trkpt lat="46.86115" lon="6.54644">
        <ele>1445.6</ele>
        <time>2022-07-17T10:34:14Z</time>
      </trkpt>
      <trkpt lat="46.86118" lon="6.54638">
        <ele>1448.1</ele>
        <time>2022-07-17T10:34:36Z</time>
      </trkpt>
      <trkpt lat="46.86123" lon="6.54634">
        <ele>1448.6</ele>
        <time>2022-07-17T10:34:41Z</time>
      </trkpt>
      <trkpt lat="46.86127" lon="6.54632">
        <ele>1449</ele>
        <time>2022-07-17T10:34:45Z</time>
      </trkpt>
      <trkpt lat="46.86132" lon="6.54629">
        <ele>1449.7</ele>
        <time>2022-07-17T10:34:49Z</time>
      </trkpt>
      <trkpt lat="46.86137" lon="6.54626">
        <ele>1450.5</ele>
        <time>2022-07-17T10:34:54Z</time>
      </trkpt>
      <trkpt lat="46.86138" lon="6.5462">
        <ele>1450.5</ele>
        <time>2022-07-17T10:35:06Z</time>
      </trkpt>
      <trkpt lat="46.86139" lon="6.54626">
        <ele>1450.4</ele>
        <time>2022-07-17T10:35:25Z</time>
      </trkpt>
      <trkpt lat="46.86145" lon="6.54627">
        <ele>1450.9</ele>
        <time>2022-07-17T10:35:46Z</time>
      </trkpt>
      <trkpt lat="46.86149" lon="6.54629">
        <ele>1450.5</ele>
        <time>2022-07-17T10:35:50Z</time>
      </trkpt>
      <trkpt lat="46.86146" lon="6.54623">
        <ele>1445.6</ele>
        <time>2022-07-17T10:36:20Z</time>
      </trkpt>
      <trkpt lat="46.86146" lon="6.54616">
        <ele>1442.6</ele>
        <time>2022-07-17T10:36:27Z</time>
      </trkpt>
      <trkpt lat="46.86151" lon="6.54612">
        <ele>1440.9</ele>
        <time>2022-07-17T10:36:32Z</time>
      </trkpt>
      <trkpt lat="46.86155" lon="6.54611">
        <ele>1438.8</ele>
        <time>2022-07-17T10:36:40Z</time>
      </trkpt>
      <trkpt lat="46.8616" lon="6.5461">
        <ele>1437.2</ele>
        <time>2022-07-17T10:36:44Z</time>
      </trkpt>
      <trkpt lat="46.86164" lon="6.54605">
        <ele>1435.1</ele>
        <time>2022-07-17T10:36:49Z</time>
      </trkpt>
      <trkpt lat="46.86166" lon="6.546">
        <ele>1428.8</ele>
        <time>2022-07-17T10:37:11Z</time>
      </trkpt>
      <trkpt lat="46.86171" lon="6.54599">
        <ele>1425.5</ele>
        <time>2022-07-17T10:37:22Z</time>
      </trkpt>
      <trkpt lat="46.86176" lon="6.54597">
        <ele>1424.2</ele>
        <time>2022-07-17T10:37:28Z</time>
      </trkpt>
      <trkpt lat="46.86181" lon="6.54598">
        <ele>1423</ele>
        <time>2022-07-17T10:37:33Z</time>
      </trkpt>
      <trkpt lat="46.86186" lon="6.54595">
        <ele>1421.2</ele>
        <time>2022-07-17T10:37:38Z</time>
      </trkpt>
      <trkpt lat="46.8619" lon="6.54592">
        <ele>1417.8</ele>
        <time>2022-07-17T10:37:47Z</time>
      </trkpt>
      <trkpt lat="46.86192" lon="6.54587">
        <ele>1416</ele>
        <time>2022-07-17T10:37:58Z</time>
      </trkpt>
      <trkpt lat="46.86193" lon="6.5458">
        <ele>1415.2</ele>
        <time>2022-07-17T10:38:11Z</time>
      </trkpt>
      <trkpt lat="46.86192" lon="6.54573">
        <ele>1414.5</ele>
        <time>2022-07-17T10:38:25Z</time>
      </trkpt>
      <trkpt lat="46.86188" lon="6.54569">
        <ele>1417.3</ele>
        <time>2022-07-17T10:38:36Z</time>
      </trkpt>
      <trkpt lat="46.86193" lon="6.54566">
        <ele>1418.9</ele>
        <time>2022-07-17T10:38:50Z</time>
      </trkpt>
      <trkpt lat="46.86196" lon="6.54561">
        <ele>1417.3</ele>
        <time>2022-07-17T10:39:15Z</time>
      </trkpt>
      <trkpt lat="46.862" lon="6.54557">
        <ele>1415.3</ele>
        <time>2022-07-17T10:39:28Z</time>
      </trkpt>
      <trkpt lat="46.86203" lon="6.54551">
        <ele>1414.4</ele>
        <time>2022-07-17T10:39:35Z</time>
      </trkpt>
      <trkpt lat="46.86204" lon="6.54544">
        <ele>1410</ele>
        <time>2022-07-17T10:40:15Z</time>
      </trkpt>
      <trkpt lat="46.86205" lon="6.54537">
        <ele>1409.4</ele>
        <time>2022-07-17T10:40:26Z</time>
      </trkpt>
      <trkpt lat="46.86205" lon="6.5453">
        <ele>1409.2</ele>
        <time>2022-07-17T10:40:33Z</time>
      </trkpt>
      <trkpt lat="46.86205" lon="6.54523">
        <ele>1408.2</ele>
        <time>2022-07-17T10:40:42Z</time>
      </trkpt>
      <trkpt lat="46.86205" lon="6.54516">
        <ele>1408.5</ele>
        <time>2022-07-17T10:41:10Z</time>
      </trkpt>
      <trkpt lat="46.86207" lon="6.5451">
        <ele>1408.5</ele>
        <time>2022-07-17T10:41:21Z</time>
      </trkpt>
      <trkpt lat="46.86209" lon="6.54503">
        <ele>1408.7</ele>
        <time>2022-07-17T10:41:29Z</time>
      </trkpt>
      <trkpt lat="46.86211" lon="6.54497">
        <ele>1409.4</ele>
        <time>2022-07-17T10:41:37Z</time>
      </trkpt>
      <trkpt lat="46.86212" lon="6.5449">
        <ele>1409.8</ele>
        <time>2022-07-17T10:41:43Z</time>
      </trkpt>
      <trkpt lat="46.86212" lon="6.54483">
        <ele>1409.7</ele>
        <time>2022-07-17T10:41:50Z</time>
      </trkpt>
      <trkpt lat="46.86216" lon="6.5448">
        <ele>1408.6</ele>
        <time>2022-07-17T10:41:59Z</time>
      </trkpt>
      <trkpt lat="46.86218" lon="6.54473">
        <ele>1409.3</ele>
        <time>2022-07-17T10:42:17Z</time>
      </trkpt>
      <trkpt lat="46.86216" lon="6.54466">
        <ele>1410.4</ele>
        <time>2022-07-17T10:42:25Z</time>
      </trkpt>
      <trkpt lat="46.86214" lon="6.5446">
        <ele>1410.5</ele>
        <time>2022-07-17T10:42:31Z</time>
      </trkpt>
      <trkpt lat="46.86212" lon="6.54454">
        <ele>1410.6</ele>
        <time>2022-07-17T10:42:38Z</time>
      </trkpt>
      <trkpt lat="46.86212" lon="6.54447">
        <ele>1408.7</ele>
        <time>2022-07-17T10:42:51Z</time>
      </trkpt>
      <trkpt lat="46.86213" lon="6.54441">
        <ele>1407.5</ele>
        <time>2022-07-17T10:42:57Z</time>
      </trkpt>
      <trkpt lat="46.86214" lon="6.54434">
        <ele>1406.7</ele>
        <time>2022-07-17T10:43:02Z</time>
      </trkpt>
      <trkpt lat="46.86214" lon="6.54427">
        <ele>1405.4</ele>
        <time>2022-07-17T10:43:12Z</time>
      </trkpt>
      <trkpt lat="46.86215" lon="6.5442">
        <ele>1403.8</ele>
        <time>2022-07-17T10:43:20Z</time>
      </trkpt>
      <trkpt lat="46.86214" lon="6.54413">
        <ele>1402.6</ele>
        <time>2022-07-17T10:43:30Z</time>
      </trkpt>
      <trkpt lat="46.86215" lon="6.54406">
        <ele>1401.4</ele>
        <time>2022-07-17T10:43:41Z</time>
      </trkpt>
      <trkpt lat="46.86214" lon="6.54399">
        <ele>1401</ele>
        <time>2022-07-17T10:43:51Z</time>
      </trkpt>
      <trkpt lat="46.86211" lon="6.54395">
        <ele>1399.3</ele>
        <time>2022-07-17T10:44:02Z</time>
      </trkpt>
      <trkpt lat="46.8621" lon="6.54388">
        <ele>1396</ele>
        <time>2022-07-17T10:44:12Z</time>
      </trkpt>
      <trkpt lat="46.86214" lon="6.54384">
        <ele>1392.7</ele>
        <time>2022-07-17T10:44:27Z</time>
      </trkpt>
      <trkpt lat="46.86215" lon="6.54378">
        <ele>1390.6</ele>
        <time>2022-07-17T10:44:39Z</time>
      </trkpt>
      <trkpt lat="46.86216" lon="6.54371">
        <ele>1389.2</ele>
        <time>2022-07-17T10:44:46Z</time>
      </trkpt>
      <trkpt lat="46.86218" lon="6.54364">
        <ele>1387.5</ele>
        <time>2022-07-17T10:45:05Z</time>
      </trkpt>
      <trkpt lat="46.86221" lon="6.54358">
        <ele>1386.3</ele>
        <time>2022-07-17T10:45:25Z</time>
      </trkpt>
      <trkpt lat="46.86221" lon="6.54352">
        <ele>1384</ele>
        <time>2022-07-17T10:45:35Z</time>
      </trkpt>
      <trkpt lat="46.86216" lon="6.54351">
        <ele>1382.2</ele>
        <time>2022-07-17T10:45:45Z</time>
      </trkpt>
      <trkpt lat="46.8622" lon="6.54345">
        <ele>1381.4</ele>
        <time>2022-07-17T10:46:19Z</time>
      </trkpt>
      <trkpt lat="46.86223" lon="6.5434">
        <ele>1380.9</ele>
        <time>2022-07-17T10:46:25Z</time>
      </trkpt>
      <trkpt lat="46.86218" lon="6.5434">
        <ele>1379.4</ele>
        <time>2022-07-17T10:46:37Z</time>
      </trkpt>
      <trkpt lat="46.86215" lon="6.54347">
        <ele>1377.8</ele>
        <time>2022-07-17T10:46:52Z</time>
      </trkpt>
      <trkpt lat="46.86211" lon="6.54346">
        <ele>1376.1</ele>
        <time>2022-07-17T10:47:13Z</time>
      </trkpt>
      <trkpt lat="46.86206" lon="6.54346">
        <ele>1372.8</ele>
        <time>2022-07-17T10:47:55Z</time>
      </trkpt>
      <trkpt lat="46.86203" lon="6.54341">
        <ele>1372.1</ele>
        <time>2022-07-17T10:48:01Z</time>
      </trkpt>
      <trkpt lat="46.86208" lon="6.54344">
        <ele>1372.3</ele>
        <time>2022-07-17T10:48:09Z</time>
      </trkpt>
      <trkpt lat="46.86211" lon="6.54348">
        <ele>1372.9</ele>
        <time>2022-07-17T10:48:17Z</time>
      </trkpt>
      <trkpt lat="46.86211" lon="6.54341">
        <ele>1371</ele>
        <time>2022-07-17T10:48:30Z</time>
      </trkpt>
      <trkpt lat="46.86211" lon="6.54334">
        <ele>1368.1</ele>
        <time>2022-07-17T10:49:32Z</time>
      </trkpt>
      <trkpt lat="46.86212" lon="6.54341">
        <ele>1366.5</ele>
        <time>2022-07-17T10:50:06Z</time>
      </trkpt>
      <trkpt lat="46.86217" lon="6.54338">
        <ele>1367.8</ele>
        <time>2022-07-17T10:52:46Z</time>
      </trkpt>
      <trkpt lat="46.86221" lon="6.54335">
        <ele>1372.6</ele>
        <time>2022-07-17T10:54:13Z</time>
      </trkpt>
      <trkpt lat="46.86225" lon="6.54334">
        <ele>1375.1</ele>
        <time>2022-07-17T11:08:28Z</time>
      </trkpt>
      <trkpt lat="46.86221" lon="6.54336">
        <ele>1374.1</ele>
        <time>2022-07-17T11:10:48Z</time>
      </trkpt>
      <trkpt lat="46.86216" lon="6.54334">
        <ele>1370.4</ele>
        <time>2022-07-17T11:27:53Z</time>
      </trkpt>
      <trkpt lat="46.86212" lon="6.54336">
        <ele>1367.8</ele>
        <time>2022-07-17T11:28:46Z</time>
      </trkpt>
      <trkpt lat="46.86217" lon="6.54336">
        <ele>1369.1</ele>
        <time>2022-07-17T11:32:05Z</time>
      </trkpt>
      <trkpt lat="46.86213" lon="6.54331">
        <ele>1364.5</ele>
        <time>2022-07-17T11:34:43Z</time>
      </trkpt>
      <trkpt lat="46.86217" lon="6.54328">
        <ele>1363.4</ele>
        <time>2022-07-17T11:34:55Z</time>
      </trkpt>
      <trkpt lat="46.86219" lon="6.54322">
        <ele>1362.7</ele>
        <time>2022-07-17T11:35:04Z</time>
      </trkpt>
      <trkpt lat="46.86221" lon="6.54315">
        <ele>1362.1</ele>
        <time>2022-07-17T11:35:12Z</time>
      </trkpt>
      <trkpt lat="46.86222" lon="6.54309">
        <ele>1361.6</ele>
        <time>2022-07-17T11:35:19Z</time>
      </trkpt>
      <trkpt lat="46.8622" lon="6.54303">
        <ele>1360</ele>
        <time>2022-07-17T11:35:28Z</time>
      </trkpt>
      <trkpt lat="46.86218" lon="6.54297">
        <ele>1357.8</ele>
        <time>2022-07-17T11:35:40Z</time>
      </trkpt>
      <trkpt lat="46.86215" lon="6.54291">
        <ele>1357.3</ele>
        <time>2022-07-17T11:35:46Z</time>
      </trkpt>
      <trkpt lat="46.86218" lon="6.54286">
        <ele>1354.8</ele>
        <time>2022-07-17T11:36:30Z</time>
      </trkpt>
      <trkpt lat="46.86221" lon="6.54281">
        <ele>1353.5</ele>
        <time>2022-07-17T11:36:36Z</time>
      </trkpt>
      <trkpt lat="46.86223" lon="6.54274">
        <ele>1352.9</ele>
        <time>2022-07-17T11:36:42Z</time>
      </trkpt>
      <trkpt lat="46.86225" lon="6.54267">
        <ele>1352.5</ele>
        <time>2022-07-17T11:36:52Z</time>
      </trkpt>
      <trkpt lat="46.86227" lon="6.54261">
        <ele>1352.2</ele>
        <time>2022-07-17T11:36:59Z</time>
      </trkpt>
      <trkpt lat="46.86229" lon="6.54255">
        <ele>1352.2</ele>
        <time>2022-07-17T11:37:06Z</time>
      </trkpt>
      <trkpt lat="46.86231" lon="6.54248">
        <ele>1351.8</ele>
        <time>2022-07-17T11:37:12Z</time>
      </trkpt>
      <trkpt lat="46.86232" lon="6.54241">
        <ele>1351.5</ele>
        <time>2022-07-17T11:37:18Z</time>
      </trkpt>
      <trkpt lat="46.86233" lon="6.54235">
        <ele>1351.2</ele>
        <time>2022-07-17T11:37:24Z</time>
      </trkpt>
      <trkpt lat="46.86233" lon="6.54227">
        <ele>1350.9</ele>
        <time>2022-07-17T11:37:30Z</time>
      </trkpt>
      <trkpt lat="46.86234" lon="6.5422">
        <ele>1350.6</ele>
        <time>2022-07-17T11:37:36Z</time>
      </trkpt>
      <trkpt lat="46.86235" lon="6.54213">
        <ele>1350.3</ele>
        <time>2022-07-17T11:37:41Z</time>
      </trkpt>
      <trkpt lat="46.86237" lon="6.54207">
        <ele>1350.1</ele>
        <time>2022-07-17T11:37:46Z</time>
      </trkpt>
      <trkpt lat="46.86239" lon="6.542">
        <ele>1349.7</ele>
        <time>2022-07-17T11:37:52Z</time>
      </trkpt>
      <trkpt lat="46.86235" lon="6.54197">
        <ele>1349.2</ele>
        <time>2022-07-17T11:39:21Z</time>
      </trkpt>
      <trkpt lat="46.8623" lon="6.54195">
        <ele>1349.4</ele>
        <time>2022-07-17T11:39:26Z</time>
      </trkpt>
      <trkpt lat="46.86225" lon="6.54194">
        <ele>1349.1</ele>
        <time>2022-07-17T11:39:31Z</time>
      </trkpt>
      <trkpt lat="46.8622" lon="6.54191">
        <ele>1349.1</ele>
        <time>2022-07-17T11:39:36Z</time>
      </trkpt>
      <trkpt lat="46.86216" lon="6.54187">
        <ele>1348.8</ele>
        <time>2022-07-17T11:39:42Z</time>
      </trkpt>
      <trkpt lat="46.86211" lon="6.54185">
        <ele>1349</ele>
        <time>2022-07-17T11:39:46Z</time>
      </trkpt>
      <trkpt lat="46.86207" lon="6.54183">
        <ele>1348.9</ele>
        <time>2022-07-17T11:39:50Z</time>
      </trkpt>
      <trkpt lat="46.86202" lon="6.54179">
        <ele>1348.6</ele>
        <time>2022-07-17T11:39:56Z</time>
      </trkpt>
      <trkpt lat="46.86198" lon="6.54175">
        <ele>1348.2</ele>
        <time>2022-07-17T11:40:01Z</time>
      </trkpt>
      <trkpt lat="46.86196" lon="6.54169">
        <ele>1347.1</ele>
        <time>2022-07-17T11:40:07Z</time>
      </trkpt>
      <trkpt lat="46.86194" lon="6.54163">
        <ele>1343.9</ele>
        <time>2022-07-17T11:40:15Z</time>
      </trkpt>
      <trkpt lat="46.86192" lon="6.54156">
        <ele>1342.9</ele>
        <time>2022-07-17T11:40:21Z</time>
      </trkpt>
      <trkpt lat="46.8619" lon="6.54149">
        <ele>1342.7</ele>
        <time>2022-07-17T11:40:27Z</time>
      </trkpt>
      <trkpt lat="46.86189" lon="6.54142">
        <ele>1342.3</ele>
        <time>2022-07-17T11:40:35Z</time>
      </trkpt>
      <trkpt lat="46.86193" lon="6.54138">
        <ele>1341.2</ele>
        <time>2022-07-17T11:40:55Z</time>
      </trkpt>
      <trkpt lat="46.86196" lon="6.54133">
        <ele>1341.9</ele>
        <time>2022-07-17T11:41:00Z</time>
      </trkpt>
      <trkpt lat="46.86201" lon="6.54128">
        <ele>1342.2</ele>
        <time>2022-07-17T11:41:06Z</time>
      </trkpt>
      <trkpt lat="46.86204" lon="6.54124">
        <ele>1342.6</ele>
        <time>2022-07-17T11:41:12Z</time>
      </trkpt>
      <trkpt lat="46.862" lon="6.54126">
        <ele>1345.4</ele>
        <time>2022-07-17T11:41:39Z</time>
      </trkpt>
      <trkpt lat="46.86196" lon="6.5413">
        <ele>1346.7</ele>
        <time>2022-07-17T11:41:46Z</time>
      </trkpt>
      <trkpt lat="46.86193" lon="6.54136">
        <ele>1346.8</ele>
        <time>2022-07-17T11:41:53Z</time>
      </trkpt>
      <trkpt lat="46.86193" lon="6.54142">
        <ele>1345.4</ele>
        <time>2022-07-17T11:42:11Z</time>
      </trkpt>
      <trkpt lat="46.86195" lon="6.54148">
        <ele>1346.3</ele>
        <time>2022-07-17T11:42:20Z</time>
      </trkpt>
      <trkpt lat="46.86191" lon="6.54151">
        <ele>1350.9</ele>
        <time>2022-07-17T11:42:58Z</time>
      </trkpt>
      <trkpt lat="46.86189" lon="6.54158">
        <ele>1350.1</ele>
        <time>2022-07-17T11:43:07Z</time>
      </trkpt>
      <trkpt lat="46.86193" lon="6.54162">
        <ele>1350.2</ele>
        <time>2022-07-17T11:43:24Z</time>
      </trkpt>
      <trkpt lat="46.86192" lon="6.54169">
        <ele>1351.1</ele>
        <time>2022-07-17T11:44:07Z</time>
      </trkpt>
      <trkpt lat="46.86191" lon="6.54176">
        <ele>1351.3</ele>
        <time>2022-07-17T11:44:12Z</time>
      </trkpt>
      <trkpt lat="46.86192" lon="6.54183">
        <ele>1350.9</ele>
        <time>2022-07-17T11:44:17Z</time>
      </trkpt>
      <trkpt lat="46.86192" lon="6.54191">
        <ele>1350</ele>
        <time>2022-07-17T11:44:23Z</time>
      </trkpt>
      <trkpt lat="46.86191" lon="6.54198">
        <ele>1347.4</ele>
        <time>2022-07-17T11:44:30Z</time>
      </trkpt>
      <trkpt lat="46.86191" lon="6.54206">
        <ele>1345.2</ele>
        <time>2022-07-17T11:44:36Z</time>
      </trkpt>
      <trkpt lat="46.86191" lon="6.54212">
        <ele>1343.7</ele>
        <time>2022-07-17T11:44:42Z</time>
      </trkpt>
      <trkpt lat="46.86191" lon="6.54219">
        <ele>1341.7</ele>
        <time>2022-07-17T11:44:47Z</time>
      </trkpt>
      <trkpt lat="46.8619" lon="6.54226">
        <ele>1339.7</ele>
        <time>2022-07-17T11:44:52Z</time>
      </trkpt>
      <trkpt lat="46.86189" lon="6.54233">
        <ele>1338</ele>
        <time>2022-07-17T11:45:00Z</time>
      </trkpt>
      <trkpt lat="46.86194" lon="6.54231">
        <ele>1343.4</ele>
        <time>2022-07-17T11:45:40Z</time>
      </trkpt>
      <trkpt lat="46.86199" lon="6.54229">
        <ele>1343.5</ele>
        <time>2022-07-17T11:45:46Z</time>
      </trkpt>
      <trkpt lat="46.86202" lon="6.54234">
        <ele>1343.1</ele>
        <time>2022-07-17T11:45:59Z</time>
      </trkpt>
      <trkpt lat="46.86204" lon="6.5424">
        <ele>1342.9</ele>
        <time>2022-07-17T11:46:03Z</time>
      </trkpt>
      <trkpt lat="46.86205" lon="6.54247">
        <ele>1342.7</ele>
        <time>2022-07-17T11:46:08Z</time>
      </trkpt>
      <trkpt lat="46.86206" lon="6.54254">
        <ele>1343.2</ele>
        <time>2022-07-17T11:46:13Z</time>
      </trkpt>
      <trkpt lat="46.86208" lon="6.54261">
        <ele>1346</ele>
        <time>2022-07-17T11:46:20Z</time>
      </trkpt>
      <trkpt lat="46.86212" lon="6.54267">
        <ele>1350.2</ele>
        <time>2022-07-17T11:46:26Z</time>
      </trkpt>
      <trkpt lat="46.86213" lon="6.54273">
        <ele>1353.5</ele>
        <time>2022-07-17T11:46:33Z</time>
      </trkpt>
      <trkpt lat="46.86214" lon="6.5428">
        <ele>1356.1</ele>
        <time>2022-07-17T11:46:40Z</time>
      </trkpt>
      <trkpt lat="46.86216" lon="6.54286">
        <ele>1358.1</ele>
        <time>2022-07-17T11:46:46Z</time>
      </trkpt>
      <trkpt lat="46.86221" lon="6.54283">
        <ele>1360.4</ele>
        <time>2022-07-17T11:47:31Z</time>
      </trkpt>
      <trkpt lat="46.86223" lon="6.54277">
        <ele>1358.7</ele>
        <time>2022-07-17T11:47:36Z</time>
      </trkpt>
      <trkpt lat="46.86225" lon="6.54271">
        <ele>1357</ele>
        <time>2022-07-17T11:47:41Z</time>
      </trkpt>
      <trkpt lat="46.86227" lon="6.54264">
        <ele>1355.4</ele>
        <time>2022-07-17T11:47:46Z</time>
      </trkpt>
      <trkpt lat="46.86229" lon="6.54258">
        <ele>1351.4</ele>
        <time>2022-07-17T11:47:52Z</time>
      </trkpt>
      <trkpt lat="46.8623" lon="6.5425">
        <ele>1347.9</ele>
        <time>2022-07-17T11:47:59Z</time>
      </trkpt>
      <trkpt lat="46.86232" lon="6.54243">
        <ele>1346.3</ele>
        <time>2022-07-17T11:48:04Z</time>
      </trkpt>
      <trkpt lat="46.86232" lon="6.54236">
        <ele>1345</ele>
        <time>2022-07-17T11:48:09Z</time>
      </trkpt>
      <trkpt lat="46.86234" lon="6.54229">
        <ele>1344.7</ele>
        <time>2022-07-17T11:48:14Z</time>
      </trkpt>
      <trkpt lat="46.86236" lon="6.54223">
        <ele>1344.8</ele>
        <time>2022-07-17T11:48:19Z</time>
      </trkpt>
      <trkpt lat="46.86237" lon="6.54215">
        <ele>1346.5</ele>
        <time>2022-07-17T11:48:23Z</time>
      </trkpt>
      <trkpt lat="46.86239" lon="6.54208">
        <ele>1348</ele>
        <time>2022-07-17T11:48:28Z</time>
      </trkpt>
      <trkpt lat="46.8624" lon="6.54202">
        <ele>1348.1</ele>
        <time>2022-07-17T11:48:37Z</time>
      </trkpt>
      <trkpt lat="46.86245" lon="6.54201">
        <ele>1347.9</ele>
        <time>2022-07-17T11:48:45Z</time>
      </trkpt>
      <trkpt lat="46.8625" lon="6.54203">
        <ele>1347.1</ele>
        <time>2022-07-17T11:48:51Z</time>
      </trkpt>
      <trkpt lat="46.86256" lon="6.54204">
        <ele>1347</ele>
        <time>2022-07-17T11:48:56Z</time>
      </trkpt>
      <trkpt lat="46.8626" lon="6.54206">
        <ele>1346.5</ele>
        <time>2022-07-17T11:49:01Z</time>
      </trkpt>
      <trkpt lat="46.86265" lon="6.54208">
        <ele>1346.5</ele>
        <time>2022-07-17T11:49:06Z</time>
      </trkpt>
      <trkpt lat="46.86269" lon="6.5421">
        <ele>1347.3</ele>
        <time>2022-07-17T11:49:11Z</time>
      </trkpt>
      <trkpt lat="46.86273" lon="6.54213">
        <ele>1347.6</ele>
        <time>2022-07-17T11:49:15Z</time>
      </trkpt>
      <trkpt lat="46.86278" lon="6.54216">
        <ele>1347.4</ele>
        <time>2022-07-17T11:49:19Z</time>
      </trkpt>
      <trkpt lat="46.86283" lon="6.54219">
        <ele>1346.6</ele>
        <time>2022-07-17T11:49:24Z</time>
      </trkpt>
      <trkpt lat="46.86287" lon="6.54223">
        <ele>1345.6</ele>
        <time>2022-07-17T11:49:29Z</time>
      </trkpt>
      <trkpt lat="46.86292" lon="6.54227">
        <ele>1344.9</ele>
        <time>2022-07-17T11:49:34Z</time>
      </trkpt>
      <trkpt lat="46.86296" lon="6.5423">
        <ele>1344.4</ele>
        <time>2022-07-17T11:49:38Z</time>
      </trkpt>
      <trkpt lat="46.863" lon="6.54233">
        <ele>1344</ele>
        <time>2022-07-17T11:49:43Z</time>
      </trkpt>
      <trkpt lat="46.86304" lon="6.54237">
        <ele>1344</ele>
        <time>2022-07-17T11:49:48Z</time>
      </trkpt>
      <trkpt lat="46.86309" lon="6.5424">
        <ele>1343.4</ele>
        <time>2022-07-17T11:49:54Z</time>
      </trkpt>
      <trkpt lat="46.86313" lon="6.54243">
        <ele>1343.1</ele>
        <time>2022-07-17T11:49:59Z</time>
      </trkpt>
      <trkpt lat="46.86318" lon="6.54246">
        <ele>1343.1</ele>
        <time>2022-07-17T11:50:03Z</time>
      </trkpt>
      <trkpt lat="46.86322" lon="6.54249">
        <ele>1343</ele>
        <time>2022-07-17T11:50:07Z</time>
      </trkpt>
      <trkpt lat="46.86327" lon="6.54252">
        <ele>1342.7</ele>
        <time>2022-07-17T11:50:11Z</time>
      </trkpt>
      <trkpt lat="46.86331" lon="6.54255">
        <ele>1342.4</ele>
        <time>2022-07-17T11:50:15Z</time>
      </trkpt>
      <trkpt lat="46.86336" lon="6.54258">
        <ele>1342.3</ele>
        <time>2022-07-17T11:50:19Z</time>
      </trkpt>
      <trkpt lat="46.8634" lon="6.5426">
        <ele>1341.6</ele>
        <time>2022-07-17T11:50:23Z</time>
      </trkpt>
      <trkpt lat="46.86345" lon="6.54263">
        <ele>1340.8</ele>
        <time>2022-07-17T11:50:28Z</time>
      </trkpt>
      <trkpt lat="46.8635" lon="6.54266">
        <ele>1340.5</ele>
        <time>2022-07-17T11:50:33Z</time>
      </trkpt>
      <trkpt lat="46.86354" lon="6.54267">
        <ele>1341</ele>
        <time>2022-07-17T11:50:38Z</time>
      </trkpt>
      <trkpt lat="46.8636" lon="6.54269">
        <ele>1341.4</ele>
        <time>2022-07-17T11:50:44Z</time>
      </trkpt>
      <trkpt lat="46.86365" lon="6.54271">
        <ele>1341.4</ele>
        <time>2022-07-17T11:50:49Z</time>
      </trkpt>
      <trkpt lat="46.8637" lon="6.54274">
        <ele>1341.1</ele>
        <time>2022-07-17T11:50:54Z</time>
      </trkpt>
      <trkpt lat="46.86374" lon="6.54276">
        <ele>1340.3</ele>
        <time>2022-07-17T11:51:01Z</time>
      </trkpt>
      <trkpt lat="46.86379" lon="6.54275">
        <ele>1340</ele>
        <time>2022-07-17T11:51:09Z</time>
      </trkpt>
      <trkpt lat="46.86384" lon="6.54277">
        <ele>1339.5</ele>
        <time>2022-07-17T11:51:15Z</time>
      </trkpt>
      <trkpt lat="46.86389" lon="6.54279">
        <ele>1338.9</ele>
        <time>2022-07-17T11:51:21Z</time>
      </trkpt>
      <trkpt lat="46.86394" lon="6.54281">
        <ele>1337.9</ele>
        <time>2022-07-17T11:51:26Z</time>
      </trkpt>
      <trkpt lat="46.86399" lon="6.54281">
        <ele>1336.5</ele>
        <time>2022-07-17T11:51:31Z</time>
      </trkpt>
      <trkpt lat="46.86404" lon="6.54283">
        <ele>1335.3</ele>
        <time>2022-07-17T11:51:36Z</time>
      </trkpt>
      <trkpt lat="46.86409" lon="6.54284">
        <ele>1334.1</ele>
        <time>2022-07-17T11:51:40Z</time>
      </trkpt>
      <trkpt lat="46.86414" lon="6.54286">
        <ele>1333.2</ele>
        <time>2022-07-17T11:51:45Z</time>
      </trkpt>
      <trkpt lat="46.86419" lon="6.54287">
        <ele>1332.5</ele>
        <time>2022-07-17T11:51:50Z</time>
      </trkpt>
      <trkpt lat="46.86424" lon="6.54287">
        <ele>1332.2</ele>
        <time>2022-07-17T11:51:55Z</time>
      </trkpt>
      <trkpt lat="46.86429" lon="6.54288">
        <ele>1332.2</ele>
        <time>2022-07-17T11:52:03Z</time>
      </trkpt>
      <trkpt lat="46.86434" lon="6.54289">
        <ele>1331.9</ele>
        <time>2022-07-17T11:52:09Z</time>
      </trkpt>
      <trkpt lat="46.8644" lon="6.54289">
        <ele>1331.7</ele>
        <time>2022-07-17T11:52:14Z</time>
      </trkpt>
      <trkpt lat="46.86445" lon="6.5429">
        <ele>1331.5</ele>
        <time>2022-07-17T11:52:19Z</time>
      </trkpt>
      <trkpt lat="46.8645" lon="6.5429">
        <ele>1331.4</ele>
        <time>2022-07-17T11:52:24Z</time>
      </trkpt>
      <trkpt lat="46.86456" lon="6.54289">
        <ele>1331.5</ele>
        <time>2022-07-17T11:52:29Z</time>
      </trkpt>
      <trkpt lat="46.86461" lon="6.54288">
        <ele>1331.4</ele>
        <time>2022-07-17T11:52:33Z</time>
      </trkpt>
      <trkpt lat="46.86465" lon="6.54287">
        <ele>1331.2</ele>
        <time>2022-07-17T11:52:37Z</time>
      </trkpt>
      <trkpt lat="46.8647" lon="6.54286">
        <ele>1330.4</ele>
        <time>2022-07-17T11:52:42Z</time>
      </trkpt>
      <trkpt lat="46.86476" lon="6.54285">
        <ele>1329.9</ele>
        <time>2022-07-17T11:52:47Z</time>
      </trkpt>
      <trkpt lat="46.8648" lon="6.54282">
        <ele>1329.8</ele>
        <time>2022-07-17T11:52:52Z</time>
      </trkpt>
      <trkpt lat="46.86486" lon="6.54279">
        <ele>1329.6</ele>
        <time>2022-07-17T11:52:57Z</time>
      </trkpt>
      <trkpt lat="46.8649" lon="6.54277">
        <ele>1329.5</ele>
        <time>2022-07-17T11:53:01Z</time>
      </trkpt>
      <trkpt lat="46.86495" lon="6.54277">
        <ele>1329.5</ele>
        <time>2022-07-17T11:53:06Z</time>
      </trkpt>
      <trkpt lat="46.86501" lon="6.54277">
        <ele>1329.5</ele>
        <time>2022-07-17T11:53:11Z</time>
      </trkpt>
      <trkpt lat="46.86505" lon="6.54277">
        <ele>1329.1</ele>
        <time>2022-07-17T11:53:16Z</time>
      </trkpt>
      <trkpt lat="46.8651" lon="6.54279">
        <ele>1328.5</ele>
        <time>2022-07-17T11:53:21Z</time>
      </trkpt>
      <trkpt lat="46.86514" lon="6.54282">
        <ele>1328.2</ele>
        <time>2022-07-17T11:53:26Z</time>
      </trkpt>
      <trkpt lat="46.86519" lon="6.54286">
        <ele>1328.3</ele>
        <time>2022-07-17T11:53:31Z</time>
      </trkpt>
      <trkpt lat="46.86523" lon="6.54288">
        <ele>1328.5</ele>
        <time>2022-07-17T11:53:36Z</time>
      </trkpt>
      <trkpt lat="46.86528" lon="6.54291">
        <ele>1328.4</ele>
        <time>2022-07-17T11:53:41Z</time>
      </trkpt>
      <trkpt lat="46.86531" lon="6.54296">
        <ele>1328.2</ele>
        <time>2022-07-17T11:53:45Z</time>
      </trkpt>
      <trkpt lat="46.86535" lon="6.54302">
        <ele>1328.6</ele>
        <time>2022-07-17T11:53:50Z</time>
      </trkpt>
      <trkpt lat="46.86538" lon="6.54309">
        <ele>1329.5</ele>
        <time>2022-07-17T11:53:55Z</time>
      </trkpt>
      <trkpt lat="46.86542" lon="6.54312">
        <ele>1330.1</ele>
        <time>2022-07-17T11:53:59Z</time>
      </trkpt>
      <trkpt lat="46.86546" lon="6.54316">
        <ele>1331.4</ele>
        <time>2022-07-17T11:54:07Z</time>
      </trkpt>
      <trkpt lat="46.86551" lon="6.54316">
        <ele>1331.8</ele>
        <time>2022-07-17T11:54:12Z</time>
      </trkpt>
      <trkpt lat="46.86555" lon="6.5431">
        <ele>1331.9</ele>
        <time>2022-07-17T11:54:17Z</time>
      </trkpt>
      <trkpt lat="46.86557" lon="6.54304">
        <ele>1331.5</ele>
        <time>2022-07-17T11:54:23Z</time>
      </trkpt>
      <trkpt lat="46.86558" lon="6.54297">
        <ele>1330.7</ele>
        <time>2022-07-17T11:54:28Z</time>
      </trkpt>
      <trkpt lat="46.86558" lon="6.5429">
        <ele>1329.7</ele>
        <time>2022-07-17T11:54:33Z</time>
      </trkpt>
      <trkpt lat="46.8656" lon="6.54284">
        <ele>1329.1</ele>
        <time>2022-07-17T11:54:38Z</time>
      </trkpt>
      <trkpt lat="46.86561" lon="6.54277">
        <ele>1328.5</ele>
        <time>2022-07-17T11:54:43Z</time>
      </trkpt>
      <trkpt lat="46.8656" lon="6.5427">
        <ele>1328.6</ele>
        <time>2022-07-17T11:54:47Z</time>
      </trkpt>
      <trkpt lat="46.8656" lon="6.54263">
        <ele>1328.8</ele>
        <time>2022-07-17T11:54:52Z</time>
      </trkpt>
      <trkpt lat="46.8656" lon="6.54255">
        <ele>1328.8</ele>
        <time>2022-07-17T11:54:58Z</time>
      </trkpt>
      <trkpt lat="46.86558" lon="6.54249">
        <ele>1328.1</ele>
        <time>2022-07-17T11:55:03Z</time>
      </trkpt>
      <trkpt lat="46.86558" lon="6.54242">
        <ele>1326.3</ele>
        <time>2022-07-17T11:55:09Z</time>
      </trkpt>
      <trkpt lat="46.86557" lon="6.54235">
        <ele>1325</ele>
        <time>2022-07-17T11:55:14Z</time>
      </trkpt>
      <trkpt lat="46.86556" lon="6.54227">
        <ele>1324.4</ele>
        <time>2022-07-17T11:55:19Z</time>
      </trkpt>
      <trkpt lat="46.86555" lon="6.54221">
        <ele>1323.9</ele>
        <time>2022-07-17T11:55:25Z</time>
      </trkpt>
      <trkpt lat="46.86557" lon="6.54214">
        <ele>1322.7</ele>
        <time>2022-07-17T11:55:32Z</time>
      </trkpt>
      <trkpt lat="46.8656" lon="6.54208">
        <ele>1322</ele>
        <time>2022-07-17T11:55:37Z</time>
      </trkpt>
      <trkpt lat="46.86565" lon="6.54207">
        <ele>1325.5</ele>
        <time>2022-07-17T11:56:00Z</time>
      </trkpt>
      <trkpt lat="46.86569" lon="6.54204">
        <ele>1325.8</ele>
        <time>2022-07-17T11:56:07Z</time>
      </trkpt>
      <trkpt lat="46.86574" lon="6.54204">
        <ele>1326.4</ele>
        <time>2022-07-17T11:56:12Z</time>
      </trkpt>
      <trkpt lat="46.86578" lon="6.54203">
        <ele>1327.2</ele>
        <time>2022-07-17T11:56:21Z</time>
      </trkpt>
      <trkpt lat="46.86584" lon="6.54202">
        <ele>1326.7</ele>
        <time>2022-07-17T11:56:27Z</time>
      </trkpt>
      <trkpt lat="46.86588" lon="6.542">
        <ele>1326.2</ele>
        <time>2022-07-17T11:56:31Z</time>
      </trkpt>
      <trkpt lat="46.86593" lon="6.54196">
        <ele>1325.6</ele>
        <time>2022-07-17T11:56:36Z</time>
      </trkpt>
      <trkpt lat="46.86593" lon="6.54189">
        <ele>1324.9</ele>
        <time>2022-07-17T11:56:40Z</time>
      </trkpt>
      <trkpt lat="46.86593" lon="6.54181">
        <ele>1324</ele>
        <time>2022-07-17T11:56:45Z</time>
      </trkpt>
      <trkpt lat="46.86594" lon="6.54174">
        <ele>1323.5</ele>
        <time>2022-07-17T11:56:50Z</time>
      </trkpt>
      <trkpt lat="46.86594" lon="6.54166">
        <ele>1323</ele>
        <time>2022-07-17T11:56:55Z</time>
      </trkpt>
      <trkpt lat="46.86594" lon="6.54159">
        <ele>1322.8</ele>
        <time>2022-07-17T11:56:59Z</time>
      </trkpt>
      <trkpt lat="46.86592" lon="6.54152">
        <ele>1322.4</ele>
        <time>2022-07-17T11:57:04Z</time>
      </trkpt>
      <trkpt lat="46.86591" lon="6.54145">
        <ele>1322</ele>
        <time>2022-07-17T11:57:09Z</time>
      </trkpt>
      <trkpt lat="46.8659" lon="6.54139">
        <ele>1321.8</ele>
        <time>2022-07-17T11:57:14Z</time>
      </trkpt>
      <trkpt lat="46.86588" lon="6.54131">
        <ele>1321.7</ele>
        <time>2022-07-17T11:57:19Z</time>
      </trkpt>
      <trkpt lat="46.86587" lon="6.54124">
        <ele>1321.4</ele>
        <time>2022-07-17T11:57:24Z</time>
      </trkpt>
      <trkpt lat="46.86585" lon="6.54117">
        <ele>1320.7</ele>
        <time>2022-07-17T11:57:29Z</time>
      </trkpt>
      <trkpt lat="46.86583" lon="6.5411">
        <ele>1320</ele>
        <time>2022-07-17T11:57:34Z</time>
      </trkpt>
      <trkpt lat="46.86582" lon="6.54102">
        <ele>1319.4</ele>
        <time>2022-07-17T11:57:39Z</time>
      </trkpt>
      <trkpt lat="46.8658" lon="6.54095">
        <ele>1319</ele>
        <time>2022-07-17T11:57:44Z</time>
      </trkpt>
      <trkpt lat="46.86578" lon="6.54088">
        <ele>1318.6</ele>
        <time>2022-07-17T11:57:49Z</time>
      </trkpt>
      <trkpt lat="46.86575" lon="6.5408">
        <ele>1318.1</ele>
        <time>2022-07-17T11:57:54Z</time>
      </trkpt>
      <trkpt lat="46.86573" lon="6.54073">
        <ele>1317.7</ele>
        <time>2022-07-17T11:57:59Z</time>
      </trkpt>
      <trkpt lat="46.86571" lon="6.54066">
        <ele>1317.5</ele>
        <time>2022-07-17T11:58:04Z</time>
      </trkpt>
      <trkpt lat="46.86569" lon="6.54059">
        <ele>1317.4</ele>
        <time>2022-07-17T11:58:09Z</time>
      </trkpt>
      <trkpt lat="46.86568" lon="6.54051">
        <ele>1316.9</ele>
        <time>2022-07-17T11:58:14Z</time>
      </trkpt>
      <trkpt lat="46.86566" lon="6.54045">
        <ele>1316.7</ele>
        <time>2022-07-17T11:58:20Z</time>
      </trkpt>
      <trkpt lat="46.86564" lon="6.54038">
        <ele>1316.2</ele>
        <time>2022-07-17T11:58:26Z</time>
      </trkpt>
      <trkpt lat="46.86563" lon="6.54032">
        <ele>1315.7</ele>
        <time>2022-07-17T11:58:31Z</time>
      </trkpt>
      <trkpt lat="46.86562" lon="6.54024">
        <ele>1314.3</ele>
        <time>2022-07-17T11:58:39Z</time>
      </trkpt>
      <trkpt lat="46.86561" lon="6.54017">
        <ele>1313.8</ele>
        <time>2022-07-17T11:58:46Z</time>
      </trkpt>
      <trkpt lat="46.86561" lon="6.5401">
        <ele>1314</ele>
        <time>2022-07-17T11:59:17Z</time>
      </trkpt>
      <trkpt lat="46.8656" lon="6.54003">
        <ele>1314.9</ele>
        <time>2022-07-17T11:59:22Z</time>
      </trkpt>
      <trkpt lat="46.86559" lon="6.53996">
        <ele>1314.6</ele>
        <time>2022-07-17T11:59:27Z</time>
      </trkpt>
      <trkpt lat="46.86558" lon="6.53989">
        <ele>1313.3</ele>
        <time>2022-07-17T11:59:33Z</time>
      </trkpt>
      <trkpt lat="46.86557" lon="6.53982">
        <ele>1312.3</ele>
        <time>2022-07-17T11:59:38Z</time>
      </trkpt>
      <trkpt lat="46.86555" lon="6.53975">
        <ele>1311.4</ele>
        <time>2022-07-17T11:59:43Z</time>
      </trkpt>
      <trkpt lat="46.86552" lon="6.53968">
        <ele>1310.8</ele>
        <time>2022-07-17T11:59:48Z</time>
      </trkpt>
      <trkpt lat="46.86549" lon="6.53963">
        <ele>1310.4</ele>
        <time>2022-07-17T11:59:53Z</time>
      </trkpt>
      <trkpt lat="46.86547" lon="6.53956">
        <ele>1309.9</ele>
        <time>2022-07-17T11:59:59Z</time>
      </trkpt>
      <trkpt lat="46.86545" lon="6.5395">
        <ele>1309</ele>
        <time>2022-07-17T12:00:04Z</time>
      </trkpt>
      <trkpt lat="46.86542" lon="6.53944">
        <ele>1308.3</ele>
        <time>2022-07-17T12:00:08Z</time>
      </trkpt>
      <trkpt lat="46.86539" lon="6.53939">
        <ele>1308</ele>
        <time>2022-07-17T12:00:13Z</time>
      </trkpt>
      <trkpt lat="46.86537" lon="6.53933">
        <ele>1307.6</ele>
        <time>2022-07-17T12:00:18Z</time>
      </trkpt>
      <trkpt lat="46.86534" lon="6.53928">
        <ele>1306.6</ele>
        <time>2022-07-17T12:00:23Z</time>
      </trkpt>
      <trkpt lat="46.86532" lon="6.53921">
        <ele>1304.7</ele>
        <time>2022-07-17T12:00:28Z</time>
      </trkpt>
      <trkpt lat="46.8653" lon="6.53914">
        <ele>1303.1</ele>
        <time>2022-07-17T12:00:33Z</time>
      </trkpt>
      <trkpt lat="46.86527" lon="6.53908">
        <ele>1302</ele>
        <time>2022-07-17T12:00:38Z</time>
      </trkpt>
      <trkpt lat="46.86524" lon="6.53903">
        <ele>1300.9</ele>
        <time>2022-07-17T12:00:43Z</time>
      </trkpt>
      <trkpt lat="46.86521" lon="6.53897">
        <ele>1300.3</ele>
        <time>2022-07-17T12:00:48Z</time>
      </trkpt>
      <trkpt lat="46.86519" lon="6.53891">
        <ele>1300.2</ele>
        <time>2022-07-17T12:00:53Z</time>
      </trkpt>
      <trkpt lat="46.86516" lon="6.53885">
        <ele>1300.3</ele>
        <time>2022-07-17T12:00:58Z</time>
      </trkpt>
      <trkpt lat="46.86512" lon="6.53879">
        <ele>1300.3</ele>
        <time>2022-07-17T12:01:04Z</time>
      </trkpt>
      <trkpt lat="46.86509" lon="6.53875">
        <ele>1300.1</ele>
        <time>2022-07-17T12:01:10Z</time>
      </trkpt>
      <trkpt lat="46.86505" lon="6.53872">
        <ele>1299.2</ele>
        <time>2022-07-17T12:01:24Z</time>
      </trkpt>
      <trkpt lat="46.865" lon="6.53869">
        <ele>1298.9</ele>
        <time>2022-07-17T12:01:29Z</time>
      </trkpt>
      <trkpt lat="46.86496" lon="6.53864">
        <ele>1298.6</ele>
        <time>2022-07-17T12:01:35Z</time>
      </trkpt>
      <trkpt lat="46.86493" lon="6.53858">
        <ele>1297.6</ele>
        <time>2022-07-17T12:01:42Z</time>
      </trkpt>
      <trkpt lat="46.86489" lon="6.53855">
        <ele>1297.1</ele>
        <time>2022-07-17T12:01:47Z</time>
      </trkpt>
      <trkpt lat="46.86485" lon="6.53849">
        <ele>1297</ele>
        <time>2022-07-17T12:01:52Z</time>
      </trkpt>
      <trkpt lat="46.86482" lon="6.53845">
        <ele>1297.2</ele>
        <time>2022-07-17T12:01:58Z</time>
      </trkpt>
      <trkpt lat="46.86479" lon="6.5384">
        <ele>1299.5</ele>
        <time>2022-07-17T12:02:24Z</time>
      </trkpt>
      <trkpt lat="46.86474" lon="6.53838">
        <ele>1299.8</ele>
        <time>2022-07-17T12:02:28Z</time>
      </trkpt>
      <trkpt lat="46.8647" lon="6.53837">
        <ele>1300</ele>
        <time>2022-07-17T12:02:32Z</time>
      </trkpt>
      <trkpt lat="46.86465" lon="6.53836">
        <ele>1300.2</ele>
        <time>2022-07-17T12:02:38Z</time>
      </trkpt>
      <trkpt lat="46.8646" lon="6.53835">
        <ele>1300.6</ele>
        <time>2022-07-17T12:02:45Z</time>
      </trkpt>
      <trkpt lat="46.86456" lon="6.53833">
        <ele>1300.6</ele>
        <time>2022-07-17T12:02:50Z</time>
      </trkpt>
      <trkpt lat="46.86451" lon="6.53833">
        <ele>1301</ele>
        <time>2022-07-17T12:02:54Z</time>
      </trkpt>
      <trkpt lat="46.86446" lon="6.53831">
        <ele>1301.8</ele>
        <time>2022-07-17T12:02:59Z</time>
      </trkpt>
      <trkpt lat="46.86442" lon="6.53828">
        <ele>1302.5</ele>
        <time>2022-07-17T12:03:03Z</time>
      </trkpt>
      <trkpt lat="46.86437" lon="6.53826">
        <ele>1302.9</ele>
        <time>2022-07-17T12:03:08Z</time>
      </trkpt>
      <trkpt lat="46.86432" lon="6.53826">
        <ele>1303</ele>
        <time>2022-07-17T12:03:13Z</time>
      </trkpt>
      <trkpt lat="46.86427" lon="6.53825">
        <ele>1303.1</ele>
        <time>2022-07-17T12:03:19Z</time>
      </trkpt>
      <trkpt lat="46.86422" lon="6.53824">
        <ele>1302.6</ele>
        <time>2022-07-17T12:03:25Z</time>
      </trkpt>
      <trkpt lat="46.86417" lon="6.53823">
        <ele>1302.6</ele>
        <time>2022-07-17T12:03:30Z</time>
      </trkpt>
      <trkpt lat="46.86412" lon="6.53822">
        <ele>1301.9</ele>
        <time>2022-07-17T12:03:36Z</time>
      </trkpt>
      <trkpt lat="46.86406" lon="6.53821">
        <ele>1300.5</ele>
        <time>2022-07-17T12:03:42Z</time>
      </trkpt>
      <trkpt lat="46.86402" lon="6.5382">
        <ele>1299.7</ele>
        <time>2022-07-17T12:03:47Z</time>
      </trkpt>
      <trkpt lat="46.86397" lon="6.53818">
        <ele>1298.9</ele>
        <time>2022-07-17T12:03:52Z</time>
      </trkpt>
      <trkpt lat="46.86393" lon="6.53815">
        <ele>1297.5</ele>
        <time>2022-07-17T12:03:58Z</time>
      </trkpt>
      <trkpt lat="46.86388" lon="6.53811">
        <ele>1296.1</ele>
        <time>2022-07-17T12:04:04Z</time>
      </trkpt>
      <trkpt lat="46.86383" lon="6.53808">
        <ele>1295.9</ele>
        <time>2022-07-17T12:04:09Z</time>
      </trkpt>
      <trkpt lat="46.86379" lon="6.53804">
        <ele>1295.9</ele>
        <time>2022-07-17T12:04:14Z</time>
      </trkpt>
      <trkpt lat="46.86375" lon="6.538">
        <ele>1296</ele>
        <time>2022-07-17T12:04:19Z</time>
      </trkpt>
      <trkpt lat="46.86371" lon="6.53796">
        <ele>1295.5</ele>
        <time>2022-07-17T12:04:25Z</time>
      </trkpt>
      <trkpt lat="46.86366" lon="6.53792">
        <ele>1294.8</ele>
        <time>2022-07-17T12:04:30Z</time>
      </trkpt>
      <trkpt lat="46.86361" lon="6.53789">
        <ele>1293.2</ele>
        <time>2022-07-17T12:04:35Z</time>
      </trkpt>
      <trkpt lat="46.86357" lon="6.53787">
        <ele>1291.5</ele>
        <time>2022-07-17T12:04:40Z</time>
      </trkpt>
      <trkpt lat="46.86353" lon="6.53783">
        <ele>1289.4</ele>
        <time>2022-07-17T12:04:46Z</time>
      </trkpt>
      <trkpt lat="46.86348" lon="6.5378">
        <ele>1288.7</ele>
        <time>2022-07-17T12:04:51Z</time>
      </trkpt>
      <trkpt lat="46.86343" lon="6.53777">
        <ele>1289.1</ele>
        <time>2022-07-17T12:04:56Z</time>
      </trkpt>
      <trkpt lat="46.86339" lon="6.53774">
        <ele>1289</ele>
        <time>2022-07-17T12:05:01Z</time>
      </trkpt>
      <trkpt lat="46.86337" lon="6.5378">
        <ele>1281.7</ele>
        <time>2022-07-17T12:05:41Z</time>
      </trkpt>
      <trkpt lat="46.86333" lon="6.53777">
        <ele>1280.4</ele>
        <time>2022-07-17T12:05:51Z</time>
      </trkpt>
      <trkpt lat="46.86329" lon="6.53771">
        <ele>1280.4</ele>
        <time>2022-07-17T12:05:55Z</time>
      </trkpt>
      <trkpt lat="46.86325" lon="6.53766">
        <ele>1280.6</ele>
        <time>2022-07-17T12:05:59Z</time>
      </trkpt>
      <trkpt lat="46.8632" lon="6.53762">
        <ele>1280.7</ele>
        <time>2022-07-17T12:06:03Z</time>
      </trkpt>
      <trkpt lat="46.86316" lon="6.53758">
        <ele>1281.1</ele>
        <time>2022-07-17T12:06:07Z</time>
      </trkpt>
      <trkpt lat="46.86312" lon="6.53754">
        <ele>1281.9</ele>
        <time>2022-07-17T12:06:11Z</time>
      </trkpt>
      <trkpt lat="46.86308" lon="6.5375">
        <ele>1282.5</ele>
        <time>2022-07-17T12:06:15Z</time>
      </trkpt>
      <trkpt lat="46.86305" lon="6.53744">
        <ele>1283.2</ele>
        <time>2022-07-17T12:06:20Z</time>
      </trkpt>
      <trkpt lat="46.86301" lon="6.53739">
        <ele>1283.3</ele>
        <time>2022-07-17T12:06:25Z</time>
      </trkpt>
      <trkpt lat="46.86296" lon="6.53736">
        <ele>1282.2</ele>
        <time>2022-07-17T12:06:30Z</time>
      </trkpt>
      <trkpt lat="46.86293" lon="6.53732">
        <ele>1280.9</ele>
        <time>2022-07-17T12:06:35Z</time>
      </trkpt>
      <trkpt lat="46.86289" lon="6.53727">
        <ele>1279.4</ele>
        <time>2022-07-17T12:06:41Z</time>
      </trkpt>
      <trkpt lat="46.86285" lon="6.53723">
        <ele>1277.8</ele>
        <time>2022-07-17T12:06:46Z</time>
      </trkpt>
      <trkpt lat="46.86281" lon="6.53719">
        <ele>1276.9</ele>
        <time>2022-07-17T12:06:50Z</time>
      </trkpt>
      <trkpt lat="46.86277" lon="6.53714">
        <ele>1277</ele>
        <time>2022-07-17T12:06:56Z</time>
      </trkpt>
      <trkpt lat="46.86273" lon="6.5371">
        <ele>1277.5</ele>
        <time>2022-07-17T12:07:02Z</time>
      </trkpt>
      <trkpt lat="46.86268" lon="6.53706">
        <ele>1277.8</ele>
        <time>2022-07-17T12:07:06Z</time>
      </trkpt>
      <trkpt lat="46.86264" lon="6.53702">
        <ele>1278.8</ele>
        <time>2022-07-17T12:07:10Z</time>
      </trkpt>
      <trkpt lat="46.86261" lon="6.53697">
        <ele>1279.1</ele>
        <time>2022-07-17T12:07:15Z</time>
      </trkpt>
      <trkpt lat="46.86256" lon="6.53693">
        <ele>1278.7</ele>
        <time>2022-07-17T12:07:20Z</time>
      </trkpt>
      <trkpt lat="46.86252" lon="6.5369">
        <ele>1277.5</ele>
        <time>2022-07-17T12:07:25Z</time>
      </trkpt>
      <trkpt lat="46.86248" lon="6.53686">
        <ele>1276.8</ele>
        <time>2022-07-17T12:07:31Z</time>
      </trkpt>
      <trkpt lat="46.86245" lon="6.53681">
        <ele>1276.1</ele>
        <time>2022-07-17T12:07:36Z</time>
      </trkpt>
      <trkpt lat="46.8624" lon="6.53676">
        <ele>1275.7</ele>
        <time>2022-07-17T12:07:41Z</time>
      </trkpt>
      <trkpt lat="46.86235" lon="6.53673">
        <ele>1276.1</ele>
        <time>2022-07-17T12:07:46Z</time>
      </trkpt>
      <trkpt lat="46.86231" lon="6.5367">
        <ele>1276.3</ele>
        <time>2022-07-17T12:07:49Z</time>
      </trkpt>
      <trkpt lat="46.86227" lon="6.53668">
        <ele>1276.3</ele>
        <time>2022-07-17T12:07:53Z</time>
      </trkpt>
      <trkpt lat="46.86222" lon="6.53665">
        <ele>1275.9</ele>
        <time>2022-07-17T12:07:59Z</time>
      </trkpt>
      <trkpt lat="46.86217" lon="6.53665">
        <ele>1275</ele>
        <time>2022-07-17T12:08:03Z</time>
      </trkpt>
      <trkpt lat="46.86211" lon="6.53665">
        <ele>1274.9</ele>
        <time>2022-07-17T12:08:08Z</time>
      </trkpt>
      <trkpt lat="46.86207" lon="6.53665">
        <ele>1275.2</ele>
        <time>2022-07-17T12:08:12Z</time>
      </trkpt>
      <trkpt lat="46.86202" lon="6.53664">
        <ele>1275.6</ele>
        <time>2022-07-17T12:08:16Z</time>
      </trkpt>
      <trkpt lat="46.86197" lon="6.53662">
        <ele>1275.8</ele>
        <time>2022-07-17T12:08:21Z</time>
      </trkpt>
      <trkpt lat="46.86192" lon="6.53661">
        <ele>1275.6</ele>
        <time>2022-07-17T12:08:25Z</time>
      </trkpt>
      <trkpt lat="46.86188" lon="6.53658">
        <ele>1275.8</ele>
        <time>2022-07-17T12:08:30Z</time>
      </trkpt>
      <trkpt lat="46.86183" lon="6.53656">
        <ele>1276.2</ele>
        <time>2022-07-17T12:08:36Z</time>
      </trkpt>
      <trkpt lat="46.86178" lon="6.53654">
        <ele>1276.2</ele>
        <time>2022-07-17T12:08:41Z</time>
      </trkpt>
      <trkpt lat="46.86173" lon="6.53653">
        <ele>1276.1</ele>
        <time>2022-07-17T12:08:46Z</time>
      </trkpt>
      <trkpt lat="46.86168" lon="6.53651">
        <ele>1276.1</ele>
        <time>2022-07-17T12:08:51Z</time>
      </trkpt>
      <trkpt lat="46.86163" lon="6.53649">
        <ele>1276.7</ele>
        <time>2022-07-17T12:08:55Z</time>
      </trkpt>
      <trkpt lat="46.86159" lon="6.53647">
        <ele>1277.4</ele>
        <time>2022-07-17T12:08:59Z</time>
      </trkpt>
      <trkpt lat="46.86154" lon="6.53643">
        <ele>1278.4</ele>
        <time>2022-07-17T12:09:04Z</time>
      </trkpt>
      <trkpt lat="46.8615" lon="6.5364">
        <ele>1279.3</ele>
        <time>2022-07-17T12:09:12Z</time>
      </trkpt>
      <trkpt lat="46.86145" lon="6.5364">
        <ele>1280.3</ele>
        <time>2022-07-17T12:09:18Z</time>
      </trkpt>
      <trkpt lat="46.8614" lon="6.53639">
        <ele>1281.8</ele>
        <time>2022-07-17T12:09:24Z</time>
      </trkpt>
      <trkpt lat="46.86135" lon="6.53636">
        <ele>1282.3</ele>
        <time>2022-07-17T12:09:30Z</time>
      </trkpt>
      <trkpt lat="46.8613" lon="6.53634">
        <ele>1282.5</ele>
        <time>2022-07-17T12:09:36Z</time>
      </trkpt>
      <trkpt lat="46.86126" lon="6.5363">
        <ele>1282.1</ele>
        <time>2022-07-17T12:09:40Z</time>
      </trkpt>
      <trkpt lat="46.86121" lon="6.53626">
        <ele>1281.9</ele>
        <time>2022-07-17T12:09:46Z</time>
      </trkpt>
      <trkpt lat="46.86117" lon="6.53623">
        <ele>1282</ele>
        <time>2022-07-17T12:09:51Z</time>
      </trkpt>
      <trkpt lat="46.86113" lon="6.53619">
        <ele>1282.5</ele>
        <time>2022-07-17T12:09:56Z</time>
      </trkpt>
      <trkpt lat="46.8611" lon="6.53615">
        <ele>1283</ele>
        <time>2022-07-17T12:10:00Z</time>
      </trkpt>
      <trkpt lat="46.86105" lon="6.53611">
        <ele>1283.6</ele>
        <time>2022-07-17T12:10:04Z</time>
      </trkpt>
      <trkpt lat="46.86101" lon="6.53605">
        <ele>1284</ele>
        <time>2022-07-17T12:10:09Z</time>
      </trkpt>
      <trkpt lat="46.86098" lon="6.536">
        <ele>1284.6</ele>
        <time>2022-07-17T12:10:14Z</time>
      </trkpt>
      <trkpt lat="46.86096" lon="6.53594">
        <ele>1284.9</ele>
        <time>2022-07-17T12:10:19Z</time>
      </trkpt>
      <trkpt lat="46.86097" lon="6.53587">
        <ele>1283.1</ele>
        <time>2022-07-17T12:10:45Z</time>
      </trkpt>
      <trkpt lat="46.86092" lon="6.53584">
        <ele>1282.2</ele>
        <time>2022-07-17T12:10:58Z</time>
      </trkpt>
      <trkpt lat="46.86087" lon="6.53581">
        <ele>1282</ele>
        <time>2022-07-17T12:11:02Z</time>
      </trkpt>
      <trkpt lat="46.86083" lon="6.53577">
        <ele>1282.1</ele>
        <time>2022-07-17T12:11:06Z</time>
      </trkpt>
      <trkpt lat="46.8608" lon="6.53571">
        <ele>1282</ele>
        <time>2022-07-17T12:11:11Z</time>
      </trkpt>
      <trkpt lat="46.86077" lon="6.53566">
        <ele>1281.9</ele>
        <time>2022-07-17T12:11:16Z</time>
      </trkpt>
      <trkpt lat="46.86072" lon="6.53563">
        <ele>1282.1</ele>
        <time>2022-07-17T12:11:21Z</time>
      </trkpt>
      <trkpt lat="46.86068" lon="6.53558">
        <ele>1282.2</ele>
        <time>2022-07-17T12:11:26Z</time>
      </trkpt>
      <trkpt lat="46.86064" lon="6.53555">
        <ele>1282</ele>
        <time>2022-07-17T12:11:30Z</time>
      </trkpt>
      <trkpt lat="46.86059" lon="6.5355">
        <ele>1281.6</ele>
        <time>2022-07-17T12:11:35Z</time>
      </trkpt>
      <trkpt lat="46.86054" lon="6.53547">
        <ele>1280.9</ele>
        <time>2022-07-17T12:11:40Z</time>
      </trkpt>
      <trkpt lat="46.86051" lon="6.53541">
        <ele>1280.1</ele>
        <time>2022-07-17T12:11:45Z</time>
      </trkpt>
      <trkpt lat="46.86047" lon="6.53537">
        <ele>1279.2</ele>
        <time>2022-07-17T12:11:50Z</time>
      </trkpt>
      <trkpt lat="46.86042" lon="6.53533">
        <ele>1278.4</ele>
        <time>2022-07-17T12:11:55Z</time>
      </trkpt>
      <trkpt lat="46.86038" lon="6.53529">
        <ele>1278.1</ele>
        <time>2022-07-17T12:12:00Z</time>
      </trkpt>
      <trkpt lat="46.86034" lon="6.53524">
        <ele>1277.4</ele>
        <time>2022-07-17T12:12:05Z</time>
      </trkpt>
      <trkpt lat="46.86031" lon="6.53519">
        <ele>1276.6</ele>
        <time>2022-07-17T12:12:10Z</time>
      </trkpt>
      <trkpt lat="46.86026" lon="6.53514">
        <ele>1275.5</ele>
        <time>2022-07-17T12:12:15Z</time>
      </trkpt>
      <trkpt lat="46.86022" lon="6.5351">
        <ele>1274.6</ele>
        <time>2022-07-17T12:12:20Z</time>
      </trkpt>
      <trkpt lat="46.86018" lon="6.53506">
        <ele>1273.8</ele>
        <time>2022-07-17T12:12:25Z</time>
      </trkpt>
      <trkpt lat="46.86013" lon="6.53502">
        <ele>1273.2</ele>
        <time>2022-07-17T12:12:30Z</time>
      </trkpt>
      <trkpt lat="46.8601" lon="6.53497">
        <ele>1272.7</ele>
        <time>2022-07-17T12:12:35Z</time>
      </trkpt>
      <trkpt lat="46.86007" lon="6.53492">
        <ele>1272.4</ele>
        <time>2022-07-17T12:12:39Z</time>
      </trkpt>
      <trkpt lat="46.86004" lon="6.53487">
        <ele>1272</ele>
        <time>2022-07-17T12:12:43Z</time>
      </trkpt>
      <trkpt lat="46.86" lon="6.53483">
        <ele>1271.8</ele>
        <time>2022-07-17T12:12:47Z</time>
      </trkpt>
      <trkpt lat="46.85997" lon="6.53478">
        <ele>1272</ele>
        <time>2022-07-17T12:12:52Z</time>
      </trkpt>
      <trkpt lat="46.85993" lon="6.53472">
        <ele>1272.3</ele>
        <time>2022-07-17T12:12:57Z</time>
      </trkpt>
      <trkpt lat="46.8599" lon="6.53466">
        <ele>1272.5</ele>
        <time>2022-07-17T12:13:02Z</time>
      </trkpt>
      <trkpt lat="46.85987" lon="6.53462">
        <ele>1272.3</ele>
        <time>2022-07-17T12:13:07Z</time>
      </trkpt>
      <trkpt lat="46.85984" lon="6.53456">
        <ele>1272.2</ele>
        <time>2022-07-17T12:13:11Z</time>
      </trkpt>
      <trkpt lat="46.8598" lon="6.5345">
        <ele>1272.1</ele>
        <time>2022-07-17T12:13:17Z</time>
      </trkpt>
      <trkpt lat="46.85975" lon="6.53448">
        <ele>1272.1</ele>
        <time>2022-07-17T12:13:22Z</time>
      </trkpt>
      <trkpt lat="46.85975" lon="6.53456">
        <ele>1270.6</ele>
        <time>2022-07-17T12:13:34Z</time>
      </trkpt>
      <trkpt lat="46.85978" lon="6.53463">
        <ele>1270.1</ele>
        <time>2022-07-17T12:13:37Z</time>
      </trkpt>
      <trkpt lat="46.85979" lon="6.53469">
        <ele>1269.7</ele>
        <time>2022-07-17T12:13:42Z</time>
      </trkpt>
      <trkpt lat="46.85984" lon="6.53475">
        <ele>1269.2</ele>
        <time>2022-07-17T12:13:46Z</time>
      </trkpt>
      <trkpt lat="46.85987" lon="6.53481">
        <ele>1269.3</ele>
        <time>2022-07-17T12:13:49Z</time>
      </trkpt>
      <trkpt lat="46.85987" lon="6.53488">
        <ele>1269.4</ele>
        <time>2022-07-17T12:13:55Z</time>
      </trkpt>
      <trkpt lat="46.85985" lon="6.53494">
        <ele>1265.9</ele>
        <time>2022-07-17T12:14:05Z</time>
      </trkpt>
      <trkpt lat="46.85989" lon="6.535">
        <ele>1263</ele>
        <time>2022-07-17T12:14:14Z</time>
      </trkpt>
      <trkpt lat="46.85991" lon="6.53505">
        <ele>1261.4</ele>
        <time>2022-07-17T12:14:19Z</time>
      </trkpt>
      <trkpt lat="46.85992" lon="6.53512">
        <ele>1260.2</ele>
        <time>2022-07-17T12:14:23Z</time>
      </trkpt>
      <trkpt lat="46.85994" lon="6.5352">
        <ele>1259.2</ele>
        <time>2022-07-17T12:14:27Z</time>
      </trkpt>
      <trkpt lat="46.85996" lon="6.53527">
        <ele>1258.1</ele>
        <time>2022-07-17T12:14:31Z</time>
      </trkpt>
      <trkpt lat="46.86" lon="6.53531">
        <ele>1257.9</ele>
        <time>2022-07-17T12:14:38Z</time>
      </trkpt>
      <trkpt lat="46.86002" lon="6.53537">
        <ele>1257.3</ele>
        <time>2022-07-17T12:14:46Z</time>
      </trkpt>
      <trkpt lat="46.86005" lon="6.53542">
        <ele>1256.9</ele>
        <time>2022-07-17T12:14:51Z</time>
      </trkpt>
      <trkpt lat="46.86008" lon="6.53549">
        <ele>1256.4</ele>
        <time>2022-07-17T12:14:58Z</time>
      </trkpt>
      <trkpt lat="46.86011" lon="6.53554">
        <ele>1256.5</ele>
        <time>2022-07-17T12:15:02Z</time>
      </trkpt>
      <trkpt lat="46.86012" lon="6.53561">
        <ele>1256.1</ele>
        <time>2022-07-17T12:15:07Z</time>
      </trkpt>
      <trkpt lat="46.86015" lon="6.53567">
        <ele>1255.1</ele>
        <time>2022-07-17T12:15:12Z</time>
      </trkpt>
      <trkpt lat="46.86016" lon="6.53574">
        <ele>1254.8</ele>
        <time>2022-07-17T12:15:17Z</time>
      </trkpt>
      <trkpt lat="46.86019" lon="6.53579">
        <ele>1255.4</ele>
        <time>2022-07-17T12:15:22Z</time>
      </trkpt>
      <trkpt lat="46.86022" lon="6.53586">
        <ele>1255.9</ele>
        <time>2022-07-17T12:15:27Z</time>
      </trkpt>
      <trkpt lat="46.86025" lon="6.53591">
        <ele>1255.1</ele>
        <time>2022-07-17T12:15:33Z</time>
      </trkpt>
      <trkpt lat="46.86029" lon="6.53597">
        <ele>1254.1</ele>
        <time>2022-07-17T12:15:38Z</time>
      </trkpt>
      <trkpt lat="46.8603" lon="6.53604">
        <ele>1252.1</ele>
        <time>2022-07-17T12:15:44Z</time>
      </trkpt>
      <trkpt lat="46.86032" lon="6.53611">
        <ele>1250.4</ele>
        <time>2022-07-17T12:15:49Z</time>
      </trkpt>
      <trkpt lat="46.86035" lon="6.53617">
        <ele>1249.8</ele>
        <time>2022-07-17T12:15:54Z</time>
      </trkpt>
      <trkpt lat="46.86038" lon="6.53623">
        <ele>1249.9</ele>
        <time>2022-07-17T12:15:59Z</time>
      </trkpt>
      <trkpt lat="46.86042" lon="6.53627">
        <ele>1249.3</ele>
        <time>2022-07-17T12:16:04Z</time>
      </trkpt>
      <trkpt lat="46.86044" lon="6.53635">
        <ele>1248.1</ele>
        <time>2022-07-17T12:16:09Z</time>
      </trkpt>
      <trkpt lat="46.86043" lon="6.53642">
        <ele>1247.4</ele>
        <time>2022-07-17T12:16:14Z</time>
      </trkpt>
      <trkpt lat="46.86045" lon="6.53649">
        <ele>1247.1</ele>
        <time>2022-07-17T12:16:19Z</time>
      </trkpt>
      <trkpt lat="46.86047" lon="6.53655">
        <ele>1246.9</ele>
        <time>2022-07-17T12:16:23Z</time>
      </trkpt>
      <trkpt lat="46.86048" lon="6.53664">
        <ele>1246.8</ele>
        <time>2022-07-17T12:16:27Z</time>
      </trkpt>
      <trkpt lat="46.8605" lon="6.5367">
        <ele>1247.3</ele>
        <time>2022-07-17T12:16:33Z</time>
      </trkpt>
      <trkpt lat="46.86055" lon="6.53675">
        <ele>1247.7</ele>
        <time>2022-07-17T12:16:37Z</time>
      </trkpt>
      <trkpt lat="46.86057" lon="6.53683">
        <ele>1248.2</ele>
        <time>2022-07-17T12:16:41Z</time>
      </trkpt>
      <trkpt lat="46.8606" lon="6.53689">
        <ele>1248.1</ele>
        <time>2022-07-17T12:16:48Z</time>
      </trkpt>
      <trkpt lat="46.86062" lon="6.53697">
        <ele>1247.5</ele>
        <time>2022-07-17T12:16:53Z</time>
      </trkpt>
      <trkpt lat="46.86061" lon="6.53704">
        <ele>1246.8</ele>
        <time>2022-07-17T12:16:57Z</time>
      </trkpt>
      <trkpt lat="46.86064" lon="6.53709">
        <ele>1246.5</ele>
        <time>2022-07-17T12:17:02Z</time>
      </trkpt>
      <trkpt lat="46.86068" lon="6.53714">
        <ele>1245.5</ele>
        <time>2022-07-17T12:17:10Z</time>
      </trkpt>
      <trkpt lat="46.8607" lon="6.53721">
        <ele>1244.6</ele>
        <time>2022-07-17T12:17:15Z</time>
      </trkpt>
      <trkpt lat="46.86073" lon="6.53727">
        <ele>1243.6</ele>
        <time>2022-07-17T12:17:20Z</time>
      </trkpt>
      <trkpt lat="46.86076" lon="6.53734">
        <ele>1242.9</ele>
        <time>2022-07-17T12:17:26Z</time>
      </trkpt>
      <trkpt lat="46.86075" lon="6.53741">
        <ele>1242.8</ele>
        <time>2022-07-17T12:17:30Z</time>
      </trkpt>
      <trkpt lat="46.86073" lon="6.53748">
        <ele>1242.5</ele>
        <time>2022-07-17T12:17:34Z</time>
      </trkpt>
      <trkpt lat="46.86069" lon="6.53748">
        <ele>1241.6</ele>
        <time>2022-07-17T12:17:40Z</time>
      </trkpt>
      <trkpt lat="46.86065" lon="6.53744">
        <ele>1241.1</ele>
        <time>2022-07-17T12:17:48Z</time>
      </trkpt>
      <trkpt lat="46.8606" lon="6.53741">
        <ele>1240.6</ele>
        <time>2022-07-17T12:17:54Z</time>
      </trkpt>
      <trkpt lat="46.86055" lon="6.5374">
        <ele>1240.4</ele>
        <time>2022-07-17T12:17:58Z</time>
      </trkpt>
      <trkpt lat="46.86051" lon="6.53737">
        <ele>1240.7</ele>
        <time>2022-07-17T12:18:03Z</time>
      </trkpt>
      <trkpt lat="46.86047" lon="6.53733">
        <ele>1240.7</ele>
        <time>2022-07-17T12:18:09Z</time>
      </trkpt>
      <trkpt lat="46.86044" lon="6.53729">
        <ele>1239.8</ele>
        <time>2022-07-17T12:18:15Z</time>
      </trkpt>
      <trkpt lat="46.8604" lon="6.53724">
        <ele>1238.5</ele>
        <time>2022-07-17T12:18:21Z</time>
      </trkpt>
      <trkpt lat="46.86036" lon="6.53719">
        <ele>1237.2</ele>
        <time>2022-07-17T12:18:26Z</time>
      </trkpt>
      <trkpt lat="46.86032" lon="6.53713">
        <ele>1236.5</ele>
        <time>2022-07-17T12:18:31Z</time>
      </trkpt>
      <trkpt lat="46.8603" lon="6.53706">
        <ele>1236</ele>
        <time>2022-07-17T12:18:37Z</time>
      </trkpt>
      <trkpt lat="46.86026" lon="6.53702">
        <ele>1235.2</ele>
        <time>2022-07-17T12:18:44Z</time>
      </trkpt>
      <trkpt lat="46.86021" lon="6.53702">
        <ele>1234.2</ele>
        <time>2022-07-17T12:18:49Z</time>
      </trkpt>
      <trkpt lat="46.86016" lon="6.53701">
        <ele>1234.3</ele>
        <time>2022-07-17T12:18:56Z</time>
      </trkpt>
      <trkpt lat="46.86011" lon="6.53702">
        <ele>1233.7</ele>
        <time>2022-07-17T12:19:10Z</time>
      </trkpt>
      <trkpt lat="46.86016" lon="6.53699">
        <ele>1231.8</ele>
        <time>2022-07-17T12:19:21Z</time>
      </trkpt>
      <trkpt lat="46.86012" lon="6.53695">
        <ele>1229.1</ele>
        <time>2022-07-17T12:19:38Z</time>
      </trkpt>
      <trkpt lat="46.86008" lon="6.5369">
        <ele>1229.3</ele>
        <time>2022-07-17T12:19:44Z</time>
      </trkpt>
      <trkpt lat="46.86005" lon="6.53683">
        <ele>1229.7</ele>
        <time>2022-07-17T12:19:49Z</time>
      </trkpt>
      <trkpt lat="46.86003" lon="6.53676">
        <ele>1230</ele>
        <time>2022-07-17T12:19:54Z</time>
      </trkpt>
      <trkpt lat="46.86" lon="6.53671">
        <ele>1230.2</ele>
        <time>2022-07-17T12:19:58Z</time>
      </trkpt>
      <trkpt lat="46.85997" lon="6.53666">
        <ele>1230.5</ele>
        <time>2022-07-17T12:20:03Z</time>
      </trkpt>
      <trkpt lat="46.85994" lon="6.53662">
        <ele>1230.6</ele>
        <time>2022-07-17T12:20:08Z</time>
      </trkpt>
      <trkpt lat="46.8599" lon="6.53656">
        <ele>1230.3</ele>
        <time>2022-07-17T12:20:13Z</time>
      </trkpt>
      <trkpt lat="46.85987" lon="6.5365">
        <ele>1229.6</ele>
        <time>2022-07-17T12:20:18Z</time>
      </trkpt>
      <trkpt lat="46.85983" lon="6.53647">
        <ele>1229</ele>
        <time>2022-07-17T12:20:23Z</time>
      </trkpt>
      <trkpt lat="46.85979" lon="6.53642">
        <ele>1228.4</ele>
        <time>2022-07-17T12:20:29Z</time>
      </trkpt>
      <trkpt lat="46.85976" lon="6.53636">
        <ele>1227.5</ele>
        <time>2022-07-17T12:20:35Z</time>
      </trkpt>
      <trkpt lat="46.85973" lon="6.53631">
        <ele>1226.4</ele>
        <time>2022-07-17T12:20:40Z</time>
      </trkpt>
      <trkpt lat="46.85969" lon="6.53628">
        <ele>1225</ele>
        <time>2022-07-17T12:20:45Z</time>
      </trkpt>
      <trkpt lat="46.85965" lon="6.53623">
        <ele>1221.9</ele>
        <time>2022-07-17T12:20:53Z</time>
      </trkpt>
      <trkpt lat="46.85962" lon="6.53619">
        <ele>1220</ele>
        <time>2022-07-17T12:20:59Z</time>
      </trkpt>
      <trkpt lat="46.85957" lon="6.53615">
        <ele>1218.5</ele>
        <time>2022-07-17T12:21:04Z</time>
      </trkpt>
      <trkpt lat="46.85952" lon="6.53612">
        <ele>1216.6</ele>
        <time>2022-07-17T12:21:09Z</time>
      </trkpt>
      <trkpt lat="46.85948" lon="6.53609">
        <ele>1214.3</ele>
        <time>2022-07-17T12:21:15Z</time>
      </trkpt>
      <trkpt lat="46.85945" lon="6.53603">
        <ele>1212.3</ele>
        <time>2022-07-17T12:21:21Z</time>
      </trkpt>
      <trkpt lat="46.85942" lon="6.53598">
        <ele>1210.2</ele>
        <time>2022-07-17T12:21:28Z</time>
      </trkpt>
      <trkpt lat="46.85938" lon="6.53592">
        <ele>1209.4</ele>
        <time>2022-07-17T12:21:33Z</time>
      </trkpt>
      <trkpt lat="46.85934" lon="6.53587">
        <ele>1209.2</ele>
        <time>2022-07-17T12:21:37Z</time>
      </trkpt>
      <trkpt lat="46.85929" lon="6.53583">
        <ele>1209.2</ele>
        <time>2022-07-17T12:21:40Z</time>
      </trkpt>
      <trkpt lat="46.85925" lon="6.53579">
        <ele>1209.7</ele>
        <time>2022-07-17T12:21:43Z</time>
      </trkpt>
      <trkpt lat="46.8592" lon="6.53576">
        <ele>1210</ele>
        <time>2022-07-17T12:21:49Z</time>
      </trkpt>
      <trkpt lat="46.85916" lon="6.53581">
        <ele>1210.1</ele>
        <time>2022-07-17T12:21:56Z</time>
      </trkpt>
      <trkpt lat="46.85912" lon="6.53578">
        <ele>1211</ele>
        <time>2022-07-17T12:22:02Z</time>
      </trkpt>
      <trkpt lat="46.85911" lon="6.53571">
        <ele>1212.1</ele>
        <time>2022-07-17T12:22:14Z</time>
      </trkpt>
      <trkpt lat="46.85907" lon="6.5357">
        <ele>1210.1</ele>
        <time>2022-07-17T12:22:19Z</time>
      </trkpt>
      <trkpt lat="46.85901" lon="6.5357">
        <ele>1207</ele>
        <time>2022-07-17T12:22:24Z</time>
      </trkpt>
      <trkpt lat="46.85898" lon="6.53564">
        <ele>1203.4</ele>
        <time>2022-07-17T12:22:31Z</time>
      </trkpt>
      <trkpt lat="46.85896" lon="6.53557">
        <ele>1201.1</ele>
        <time>2022-07-17T12:22:36Z</time>
      </trkpt>
      <trkpt lat="46.85893" lon="6.53552">
        <ele>1199.5</ele>
        <time>2022-07-17T12:22:40Z</time>
      </trkpt>
      <trkpt lat="46.85889" lon="6.53546">
        <ele>1198</ele>
        <time>2022-07-17T12:22:45Z</time>
      </trkpt>
      <trkpt lat="46.8589" lon="6.5354">
        <ele>1197.6</ele>
        <time>2022-07-17T12:22:50Z</time>
      </trkpt>
      <trkpt lat="46.85887" lon="6.53533">
        <ele>1197.8</ele>
        <time>2022-07-17T12:22:58Z</time>
      </trkpt>
      <trkpt lat="46.85883" lon="6.5353">
        <ele>1197.5</ele>
        <time>2022-07-17T12:23:04Z</time>
      </trkpt>
      <trkpt lat="46.85882" lon="6.53523">
        <ele>1196.9</ele>
        <time>2022-07-17T12:23:09Z</time>
      </trkpt>
      <trkpt lat="46.85878" lon="6.53518">
        <ele>1196.2</ele>
        <time>2022-07-17T12:23:14Z</time>
      </trkpt>
      <trkpt lat="46.85873" lon="6.53515">
        <ele>1195.7</ele>
        <time>2022-07-17T12:23:18Z</time>
      </trkpt>
      <trkpt lat="46.85867" lon="6.53516">
        <ele>1195.1</ele>
        <time>2022-07-17T12:23:21Z</time>
      </trkpt>
      <trkpt lat="46.85861" lon="6.53517">
        <ele>1194.9</ele>
        <time>2022-07-17T12:23:25Z</time>
      </trkpt>
      <trkpt lat="46.85858" lon="6.53522">
        <ele>1194.7</ele>
        <time>2022-07-17T12:23:28Z</time>
      </trkpt>
      <trkpt lat="46.85854" lon="6.53524">
        <ele>1194.5</ele>
        <time>2022-07-17T12:23:34Z</time>
      </trkpt>
      <trkpt lat="46.85853" lon="6.53516">
        <ele>1194.3</ele>
        <time>2022-07-17T12:23:41Z</time>
      </trkpt>
      <trkpt lat="46.85855" lon="6.53509">
        <ele>1194.3</ele>
        <time>2022-07-17T12:23:46Z</time>
      </trkpt>
      <trkpt lat="46.85854" lon="6.53501">
        <ele>1194.4</ele>
        <time>2022-07-17T12:23:51Z</time>
      </trkpt>
      <trkpt lat="46.85851" lon="6.53495">
        <ele>1194.9</ele>
        <time>2022-07-17T12:23:55Z</time>
      </trkpt>
      <trkpt lat="46.85847" lon="6.53489">
        <ele>1195.1</ele>
        <time>2022-07-17T12:23:59Z</time>
      </trkpt>
      <trkpt lat="46.85841" lon="6.53486">
        <ele>1195.1</ele>
        <time>2022-07-17T12:24:02Z</time>
      </trkpt>
      <trkpt lat="46.85837" lon="6.53483">
        <ele>1195.2</ele>
        <time>2022-07-17T12:24:06Z</time>
      </trkpt>
      <trkpt lat="46.85834" lon="6.53477">
        <ele>1196.1</ele>
        <time>2022-07-17T12:24:12Z</time>
      </trkpt>
      <trkpt lat="46.85834" lon="6.5347">
        <ele>1197.7</ele>
        <time>2022-07-17T12:24:17Z</time>
      </trkpt>
      <trkpt lat="46.85832" lon="6.53463">
        <ele>1199.2</ele>
        <time>2022-07-17T12:24:21Z</time>
      </trkpt>
      <trkpt lat="46.8583" lon="6.53457">
        <ele>1200.5</ele>
        <time>2022-07-17T12:24:25Z</time>
      </trkpt>
      <trkpt lat="46.85828" lon="6.53451">
        <ele>1202</ele>
        <time>2022-07-17T12:24:31Z</time>
      </trkpt>
      <trkpt lat="46.85826" lon="6.53444">
        <ele>1202.7</ele>
        <time>2022-07-17T12:24:42Z</time>
      </trkpt>
      <trkpt lat="46.85822" lon="6.5344">
        <ele>1202.7</ele>
        <time>2022-07-17T12:24:48Z</time>
      </trkpt>
      <trkpt lat="46.85821" lon="6.53434">
        <ele>1201.9</ele>
        <time>2022-07-17T12:24:55Z</time>
      </trkpt>
      <trkpt lat="46.85817" lon="6.53438">
        <ele>1200.4</ele>
        <time>2022-07-17T12:25:03Z</time>
      </trkpt>
      <trkpt lat="46.85815" lon="6.53445">
        <ele>1200</ele>
        <time>2022-07-17T12:25:10Z</time>
      </trkpt>
      <trkpt lat="46.85817" lon="6.53451">
        <ele>1200.1</ele>
        <time>2022-07-17T12:25:15Z</time>
      </trkpt>
      <trkpt lat="46.85821" lon="6.53454">
        <ele>1201.5</ele>
        <time>2022-07-17T12:25:35Z</time>
      </trkpt>
      <trkpt lat="46.85819" lon="6.53448">
        <ele>1201</ele>
        <time>2022-07-17T12:25:48Z</time>
      </trkpt>
      <trkpt lat="46.85817" lon="6.53442">
        <ele>1199.7</ele>
        <time>2022-07-17T12:25:52Z</time>
      </trkpt>
      <trkpt lat="46.85819" lon="6.53448">
        <ele>1205.4</ele>
        <time>2022-07-17T12:26:19Z</time>
      </trkpt>
      <trkpt lat="46.85816" lon="6.53442">
        <ele>1208.5</ele>
        <time>2022-07-17T12:26:34Z</time>
      </trkpt>
      <trkpt lat="46.85816" lon="6.53434">
        <ele>1208.2</ele>
        <time>2022-07-17T12:26:39Z</time>
      </trkpt>
      <trkpt lat="46.85815" lon="6.53428">
        <ele>1208.4</ele>
        <time>2022-07-17T12:26:45Z</time>
      </trkpt>
      <trkpt lat="46.85811" lon="6.53423">
        <ele>1207.4</ele>
        <time>2022-07-17T12:26:53Z</time>
      </trkpt>
      <trkpt lat="46.85806" lon="6.53417">
        <ele>1206.6</ele>
        <time>2022-07-17T12:26:57Z</time>
      </trkpt>
      <trkpt lat="46.85802" lon="6.53415">
        <ele>1205.3</ele>
        <time>2022-07-17T12:27:01Z</time>
      </trkpt>
      <trkpt lat="46.85797" lon="6.53413">
        <ele>1203.5</ele>
        <time>2022-07-17T12:27:06Z</time>
      </trkpt>
      <trkpt lat="46.85794" lon="6.53408">
        <ele>1201.8</ele>
        <time>2022-07-17T12:27:11Z</time>
      </trkpt>
      <trkpt lat="46.85791" lon="6.53402">
        <ele>1200.3</ele>
        <time>2022-07-17T12:27:17Z</time>
      </trkpt>
      <trkpt lat="46.85788" lon="6.53397">
        <ele>1200.2</ele>
        <time>2022-07-17T12:27:20Z</time>
      </trkpt>
      <trkpt lat="46.85785" lon="6.53391">
        <ele>1200.2</ele>
        <time>2022-07-17T12:27:23Z</time>
      </trkpt>
      <trkpt lat="46.85781" lon="6.53387">
        <ele>1200.4</ele>
        <time>2022-07-17T12:27:27Z</time>
      </trkpt>
      <trkpt lat="46.85777" lon="6.53381">
        <ele>1200.5</ele>
        <time>2022-07-17T12:27:31Z</time>
      </trkpt>
      <trkpt lat="46.85774" lon="6.53375">
        <ele>1200.3</ele>
        <time>2022-07-17T12:27:35Z</time>
      </trkpt>
      <trkpt lat="46.8577" lon="6.53371">
        <ele>1199.4</ele>
        <time>2022-07-17T12:27:40Z</time>
      </trkpt>
      <trkpt lat="46.85766" lon="6.53367">
        <ele>1197.8</ele>
        <time>2022-07-17T12:27:47Z</time>
      </trkpt>
      <trkpt lat="46.85763" lon="6.53362">
        <ele>1195.8</ele>
        <time>2022-07-17T12:27:55Z</time>
      </trkpt>
      <trkpt lat="46.85758" lon="6.5336">
        <ele>1193.9</ele>
        <time>2022-07-17T12:28:06Z</time>
      </trkpt>
      <trkpt lat="46.85754" lon="6.53356">
        <ele>1193.6</ele>
        <time>2022-07-17T12:28:09Z</time>
      </trkpt>
      <trkpt lat="46.85749" lon="6.53348">
        <ele>1193.3</ele>
        <time>2022-07-17T12:28:20Z</time>
      </trkpt>
      <trkpt lat="46.85744" lon="6.53342">
        <ele>1192.9</ele>
        <time>2022-07-17T12:28:23Z</time>
      </trkpt>
      <trkpt lat="46.8574" lon="6.53337">
        <ele>1192.3</ele>
        <time>2022-07-17T12:28:26Z</time>
      </trkpt>
      <trkpt lat="46.85738" lon="6.53331">
        <ele>1191.5</ele>
        <time>2022-07-17T12:28:29Z</time>
      </trkpt>
      <trkpt lat="46.85737" lon="6.53324">
        <ele>1190.7</ele>
        <time>2022-07-17T12:28:35Z</time>
      </trkpt>
      <trkpt lat="46.85733" lon="6.5332">
        <ele>1189.9</ele>
        <time>2022-07-17T12:28:41Z</time>
      </trkpt>
      <trkpt lat="46.8573" lon="6.53314">
        <ele>1189.2</ele>
        <time>2022-07-17T12:28:46Z</time>
      </trkpt>
      <trkpt lat="46.85727" lon="6.53308">
        <ele>1188.4</ele>
        <time>2022-07-17T12:28:51Z</time>
      </trkpt>
      <trkpt lat="46.85722" lon="6.53304">
        <ele>1187.5</ele>
        <time>2022-07-17T12:28:55Z</time>
      </trkpt>
      <trkpt lat="46.8572" lon="6.53299">
        <ele>1186.6</ele>
        <time>2022-07-17T12:28:58Z</time>
      </trkpt>
      <trkpt lat="46.85715" lon="6.53293">
        <ele>1185.6</ele>
        <time>2022-07-17T12:29:01Z</time>
      </trkpt>
      <trkpt lat="46.85711" lon="6.5329">
        <ele>1184.5</ele>
        <time>2022-07-17T12:29:04Z</time>
      </trkpt>
      <trkpt lat="46.85707" lon="6.53285">
        <ele>1183.4</ele>
        <time>2022-07-17T12:29:08Z</time>
      </trkpt>
      <trkpt lat="46.85706" lon="6.53277">
        <ele>1182.6</ele>
        <time>2022-07-17T12:29:12Z</time>
      </trkpt>
      <trkpt lat="46.85704" lon="6.53269">
        <ele>1181.2</ele>
        <time>2022-07-17T12:29:17Z</time>
      </trkpt>
      <trkpt lat="46.85702" lon="6.53263">
        <ele>1180.5</ele>
        <time>2022-07-17T12:29:20Z</time>
      </trkpt>
      <trkpt lat="46.85701" lon="6.53256">
        <ele>1180</ele>
        <time>2022-07-17T12:29:24Z</time>
      </trkpt>
      <trkpt lat="46.85699" lon="6.53249">
        <ele>1179.3</ele>
        <time>2022-07-17T12:29:30Z</time>
      </trkpt>
      <trkpt lat="46.85696" lon="6.53243">
        <ele>1178.9</ele>
        <time>2022-07-17T12:29:34Z</time>
      </trkpt>
      <trkpt lat="46.85692" lon="6.53237">
        <ele>1178.5</ele>
        <time>2022-07-17T12:29:38Z</time>
      </trkpt>
      <trkpt lat="46.85688" lon="6.53232">
        <ele>1178.3</ele>
        <time>2022-07-17T12:29:42Z</time>
      </trkpt>
      <trkpt lat="46.85683" lon="6.53228">
        <ele>1177.6</ele>
        <time>2022-07-17T12:29:49Z</time>
      </trkpt>
      <trkpt lat="46.85678" lon="6.53226">
        <ele>1177.2</ele>
        <time>2022-07-17T12:29:53Z</time>
      </trkpt>
      <trkpt lat="46.85675" lon="6.53222">
        <ele>1176.7</ele>
        <time>2022-07-17T12:29:58Z</time>
      </trkpt>
      <trkpt lat="46.85672" lon="6.53216">
        <ele>1176.5</ele>
        <time>2022-07-17T12:30:02Z</time>
      </trkpt>
      <trkpt lat="46.85669" lon="6.53211">
        <ele>1175.9</ele>
        <time>2022-07-17T12:30:06Z</time>
      </trkpt>
      <trkpt lat="46.85665" lon="6.53206">
        <ele>1175.1</ele>
        <time>2022-07-17T12:30:12Z</time>
      </trkpt>
      <trkpt lat="46.8566" lon="6.53202">
        <ele>1173.9</ele>
        <time>2022-07-17T12:30:18Z</time>
      </trkpt>
      <trkpt lat="46.85658" lon="6.53196">
        <ele>1172.9</ele>
        <time>2022-07-17T12:30:23Z</time>
      </trkpt>
      <trkpt lat="46.85655" lon="6.53191">
        <ele>1172</ele>
        <time>2022-07-17T12:30:27Z</time>
      </trkpt>
      <trkpt lat="46.85652" lon="6.53186">
        <ele>1170.8</ele>
        <time>2022-07-17T12:30:31Z</time>
      </trkpt>
      <trkpt lat="46.85648" lon="6.5318">
        <ele>1169.5</ele>
        <time>2022-07-17T12:30:36Z</time>
      </trkpt>
      <trkpt lat="46.85645" lon="6.53173">
        <ele>1169.1</ele>
        <time>2022-07-17T12:30:41Z</time>
      </trkpt>
      <trkpt lat="46.85643" lon="6.53167">
        <ele>1169.8</ele>
        <time>2022-07-17T12:30:48Z</time>
      </trkpt>
      <trkpt lat="46.85641" lon="6.53161">
        <ele>1170.5</ele>
        <time>2022-07-17T12:30:54Z</time>
      </trkpt>
      <trkpt lat="46.85637" lon="6.53157">
        <ele>1170.6</ele>
        <time>2022-07-17T12:31:00Z</time>
      </trkpt>
      <trkpt lat="46.85634" lon="6.53151">
        <ele>1171</ele>
        <time>2022-07-17T12:31:04Z</time>
      </trkpt>
      <trkpt lat="46.8563" lon="6.53145">
        <ele>1172</ele>
        <time>2022-07-17T12:31:09Z</time>
      </trkpt>
      <trkpt lat="46.85627" lon="6.53141">
        <ele>1172.5</ele>
        <time>2022-07-17T12:31:13Z</time>
      </trkpt>
      <trkpt lat="46.85622" lon="6.53138">
        <ele>1172.7</ele>
        <time>2022-07-17T12:31:17Z</time>
      </trkpt>
      <trkpt lat="46.85618" lon="6.53136">
        <ele>1172.9</ele>
        <time>2022-07-17T12:31:21Z</time>
      </trkpt>
      <trkpt lat="46.85614" lon="6.53132">
        <ele>1172.9</ele>
        <time>2022-07-17T12:31:28Z</time>
      </trkpt>
      <trkpt lat="46.85611" lon="6.53127">
        <ele>1172.5</ele>
        <time>2022-07-17T12:31:33Z</time>
      </trkpt>
      <trkpt lat="46.85607" lon="6.53122">
        <ele>1172.1</ele>
        <time>2022-07-17T12:31:37Z</time>
      </trkpt>
      <trkpt lat="46.85604" lon="6.53117">
        <ele>1171.2</ele>
        <time>2022-07-17T12:31:43Z</time>
      </trkpt>
      <trkpt lat="46.85602" lon="6.5311">
        <ele>1170.4</ele>
        <time>2022-07-17T12:31:50Z</time>
      </trkpt>
      <trkpt lat="46.85597" lon="6.53107">
        <ele>1170.4</ele>
        <time>2022-07-17T12:31:55Z</time>
      </trkpt>
      <trkpt lat="46.85592" lon="6.53103">
        <ele>1170.7</ele>
        <time>2022-07-17T12:31:59Z</time>
      </trkpt>
      <trkpt lat="46.85589" lon="6.53098">
        <ele>1171.1</ele>
        <time>2022-07-17T12:32:03Z</time>
      </trkpt>
      <trkpt lat="46.85585" lon="6.53093">
        <ele>1171.7</ele>
        <time>2022-07-17T12:32:08Z</time>
      </trkpt>
      <trkpt lat="46.85581" lon="6.53088">
        <ele>1172.1</ele>
        <time>2022-07-17T12:32:13Z</time>
      </trkpt>
      <trkpt lat="46.85577" lon="6.53082">
        <ele>1172.3</ele>
        <time>2022-07-17T12:32:18Z</time>
      </trkpt>
      <trkpt lat="46.85573" lon="6.53077">
        <ele>1172</ele>
        <time>2022-07-17T12:32:24Z</time>
      </trkpt>
      <trkpt lat="46.8557" lon="6.53071">
        <ele>1171.5</ele>
        <time>2022-07-17T12:32:30Z</time>
      </trkpt>
      <trkpt lat="46.85566" lon="6.53068">
        <ele>1170.9</ele>
        <time>2022-07-17T12:32:36Z</time>
      </trkpt>
      <trkpt lat="46.85562" lon="6.53063">
        <ele>1169.5</ele>
        <time>2022-07-17T12:32:42Z</time>
      </trkpt>
      <trkpt lat="46.85559" lon="6.53058">
        <ele>1167.3</ele>
        <time>2022-07-17T12:32:47Z</time>
      </trkpt>
      <trkpt lat="46.85557" lon="6.53051">
        <ele>1166</ele>
        <time>2022-07-17T12:32:52Z</time>
      </trkpt>
      <trkpt lat="46.85554" lon="6.53045">
        <ele>1165.4</ele>
        <time>2022-07-17T12:32:56Z</time>
      </trkpt>
      <trkpt lat="46.8555" lon="6.53039">
        <ele>1165.1</ele>
        <time>2022-07-17T12:33:01Z</time>
      </trkpt>
      <trkpt lat="46.85546" lon="6.53033">
        <ele>1165.5</ele>
        <time>2022-07-17T12:33:06Z</time>
      </trkpt>
      <trkpt lat="46.85544" lon="6.53027">
        <ele>1165.7</ele>
        <time>2022-07-17T12:33:10Z</time>
      </trkpt>
      <trkpt lat="46.85541" lon="6.5302">
        <ele>1165.9</ele>
        <time>2022-07-17T12:33:16Z</time>
      </trkpt>
      <trkpt lat="46.85536" lon="6.53017">
        <ele>1165.8</ele>
        <time>2022-07-17T12:33:20Z</time>
      </trkpt>
      <trkpt lat="46.85532" lon="6.53014">
        <ele>1166.1</ele>
        <time>2022-07-17T12:33:24Z</time>
      </trkpt>
      <trkpt lat="46.85528" lon="6.53009">
        <ele>1166.7</ele>
        <time>2022-07-17T12:33:28Z</time>
      </trkpt>
      <trkpt lat="46.85523" lon="6.53007">
        <ele>1167.3</ele>
        <time>2022-07-17T12:33:32Z</time>
      </trkpt>
      <trkpt lat="46.8552" lon="6.53002">
        <ele>1167.8</ele>
        <time>2022-07-17T12:33:37Z</time>
      </trkpt>
      <trkpt lat="46.85517" lon="6.52996">
        <ele>1168</ele>
        <time>2022-07-17T12:33:43Z</time>
      </trkpt>
      <trkpt lat="46.85513" lon="6.52991">
        <ele>1167.5</ele>
        <time>2022-07-17T12:33:49Z</time>
      </trkpt>
      <trkpt lat="46.8551" lon="6.52985">
        <ele>1167</ele>
        <time>2022-07-17T12:33:54Z</time>
      </trkpt>
      <trkpt lat="46.85506" lon="6.5298">
        <ele>1166.2</ele>
        <time>2022-07-17T12:34:04Z</time>
      </trkpt>
      <trkpt lat="46.85502" lon="6.52975">
        <ele>1166.4</ele>
        <time>2022-07-17T12:34:08Z</time>
      </trkpt>
      <trkpt lat="46.85498" lon="6.52972">
        <ele>1166.6</ele>
        <time>2022-07-17T12:34:11Z</time>
      </trkpt>
      <trkpt lat="46.85493" lon="6.5297">
        <ele>1166.9</ele>
        <time>2022-07-17T12:34:14Z</time>
      </trkpt>
      <trkpt lat="46.85489" lon="6.52966">
        <ele>1166.9</ele>
        <time>2022-07-17T12:34:19Z</time>
      </trkpt>
      <trkpt lat="46.85488" lon="6.52959">
        <ele>1165.8</ele>
        <time>2022-07-17T12:34:25Z</time>
      </trkpt>
      <trkpt lat="46.85486" lon="6.52953">
        <ele>1164.3</ele>
        <time>2022-07-17T12:34:30Z</time>
      </trkpt>
      <trkpt lat="46.85482" lon="6.52948">
        <ele>1162.6</ele>
        <time>2022-07-17T12:34:34Z</time>
      </trkpt>
      <trkpt lat="46.85478" lon="6.52945">
        <ele>1160.8</ele>
        <time>2022-07-17T12:34:39Z</time>
      </trkpt>
      <trkpt lat="46.85473" lon="6.52942">
        <ele>1159.3</ele>
        <time>2022-07-17T12:34:44Z</time>
      </trkpt>
      <trkpt lat="46.85468" lon="6.52939">
        <ele>1158</ele>
        <time>2022-07-17T12:34:48Z</time>
      </trkpt>
      <trkpt lat="46.85465" lon="6.52934">
        <ele>1156.8</ele>
        <time>2022-07-17T12:34:52Z</time>
      </trkpt>
      <trkpt lat="46.85461" lon="6.52928">
        <ele>1155.6</ele>
        <time>2022-07-17T12:34:56Z</time>
      </trkpt>
      <trkpt lat="46.85457" lon="6.52922">
        <ele>1154.2</ele>
        <time>2022-07-17T12:35:01Z</time>
      </trkpt>
      <trkpt lat="46.85456" lon="6.52915">
        <ele>1152.6</ele>
        <time>2022-07-17T12:35:06Z</time>
      </trkpt>
      <trkpt lat="46.85453" lon="6.52909">
        <ele>1150.4</ele>
        <time>2022-07-17T12:35:13Z</time>
      </trkpt>
      <trkpt lat="46.8545" lon="6.52904">
        <ele>1148.7</ele>
        <time>2022-07-17T12:35:18Z</time>
      </trkpt>
      <trkpt lat="46.85447" lon="6.529">
        <ele>1146.9</ele>
        <time>2022-07-17T12:35:23Z</time>
      </trkpt>
      <trkpt lat="46.85442" lon="6.52896">
        <ele>1145.3</ele>
        <time>2022-07-17T12:35:28Z</time>
      </trkpt>
      <trkpt lat="46.85439" lon="6.5289">
        <ele>1143.7</ele>
        <time>2022-07-17T12:35:34Z</time>
      </trkpt>
      <trkpt lat="46.85439" lon="6.52883">
        <ele>1142.7</ele>
        <time>2022-07-17T12:35:38Z</time>
      </trkpt>
      <trkpt lat="46.85436" lon="6.52877">
        <ele>1142</ele>
        <time>2022-07-17T12:35:43Z</time>
      </trkpt>
      <trkpt lat="46.85433" lon="6.52872">
        <ele>1141.4</ele>
        <time>2022-07-17T12:35:48Z</time>
      </trkpt>
      <trkpt lat="46.85429" lon="6.52869">
        <ele>1140.8</ele>
        <time>2022-07-17T12:35:55Z</time>
      </trkpt>
      <trkpt lat="46.85424" lon="6.52866">
        <ele>1139.3</ele>
        <time>2022-07-17T12:36:01Z</time>
      </trkpt>
      <trkpt lat="46.85421" lon="6.52859">
        <ele>1137.4</ele>
        <time>2022-07-17T12:36:06Z</time>
      </trkpt>
      <trkpt lat="46.85418" lon="6.52853">
        <ele>1134.8</ele>
        <time>2022-07-17T12:36:12Z</time>
      </trkpt>
      <trkpt lat="46.85419" lon="6.52845">
        <ele>1133.8</ele>
        <time>2022-07-17T12:36:18Z</time>
      </trkpt>
      <trkpt lat="46.85415" lon="6.5284">
        <ele>1134.1</ele>
        <time>2022-07-17T12:36:22Z</time>
      </trkpt>
      <trkpt lat="46.85411" lon="6.52835">
        <ele>1134.5</ele>
        <time>2022-07-17T12:36:25Z</time>
      </trkpt>
      <trkpt lat="46.85407" lon="6.5283">
        <ele>1134.7</ele>
        <time>2022-07-17T12:36:28Z</time>
      </trkpt>
      <trkpt lat="46.85403" lon="6.52825">
        <ele>1135</ele>
        <time>2022-07-17T12:36:31Z</time>
      </trkpt>
      <trkpt lat="46.854" lon="6.5282">
        <ele>1135.5</ele>
        <time>2022-07-17T12:36:36Z</time>
      </trkpt>
      <trkpt lat="46.85395" lon="6.52816">
        <ele>1136.1</ele>
        <time>2022-07-17T12:36:45Z</time>
      </trkpt>
      <trkpt lat="46.85393" lon="6.5281">
        <ele>1135.2</ele>
        <time>2022-07-17T12:36:52Z</time>
      </trkpt>
      <trkpt lat="46.85389" lon="6.52806">
        <ele>1134.9</ele>
        <time>2022-07-17T12:36:55Z</time>
      </trkpt>
      <trkpt lat="46.85385" lon="6.52802">
        <ele>1134.8</ele>
        <time>2022-07-17T12:36:58Z</time>
      </trkpt>
      <trkpt lat="46.8538" lon="6.52797">
        <ele>1134.6</ele>
        <time>2022-07-17T12:37:02Z</time>
      </trkpt>
      <trkpt lat="46.85375" lon="6.52794">
        <ele>1134</ele>
        <time>2022-07-17T12:37:06Z</time>
      </trkpt>
      <trkpt lat="46.85371" lon="6.52789">
        <ele>1133.4</ele>
        <time>2022-07-17T12:37:11Z</time>
      </trkpt>
      <trkpt lat="46.85367" lon="6.52786">
        <ele>1132.9</ele>
        <time>2022-07-17T12:37:15Z</time>
      </trkpt>
      <trkpt lat="46.85363" lon="6.52782">
        <ele>1132.5</ele>
        <time>2022-07-17T12:37:20Z</time>
      </trkpt>
      <trkpt lat="46.8536" lon="6.52775">
        <ele>1132.9</ele>
        <time>2022-07-17T12:37:26Z</time>
      </trkpt>
      <trkpt lat="46.85357" lon="6.5277">
        <ele>1133.6</ele>
        <time>2022-07-17T12:37:33Z</time>
      </trkpt>
      <trkpt lat="46.85352" lon="6.5277">
        <ele>1133.9</ele>
        <time>2022-07-17T12:37:37Z</time>
      </trkpt>
      <trkpt lat="46.85348" lon="6.52776">
        <ele>1133.7</ele>
        <time>2022-07-17T12:37:43Z</time>
      </trkpt>
      <trkpt lat="46.85344" lon="6.52781">
        <ele>1132.5</ele>
        <time>2022-07-17T12:39:09Z</time>
      </trkpt>
      <trkpt lat="46.85342" lon="6.52787">
        <ele>1131.7</ele>
        <time>2022-07-17T12:39:15Z</time>
      </trkpt>
      <trkpt lat="46.85338" lon="6.52792">
        <ele>1130.6</ele>
        <time>2022-07-17T12:39:34Z</time>
      </trkpt>
      <trkpt lat="46.85333" lon="6.52795">
        <ele>1130.2</ele>
        <time>2022-07-17T12:39:41Z</time>
      </trkpt>
      <trkpt lat="46.85329" lon="6.52798">
        <ele>1130.5</ele>
        <time>2022-07-17T12:39:49Z</time>
      </trkpt>
      <trkpt lat="46.85324" lon="6.52801">
        <ele>1129.4</ele>
        <time>2022-07-17T12:40:12Z</time>
      </trkpt>
      <trkpt lat="46.85319" lon="6.52801">
        <ele>1130.4</ele>
        <time>2022-07-17T12:40:28Z</time>
      </trkpt>
      <trkpt lat="46.85315" lon="6.52805">
        <ele>1130.2</ele>
        <time>2022-07-17T12:40:34Z</time>
      </trkpt>
      <trkpt lat="46.85311" lon="6.52808">
        <ele>1130.1</ele>
        <time>2022-07-17T12:40:38Z</time>
      </trkpt>
      <trkpt lat="46.85305" lon="6.52809">
        <ele>1129.7</ele>
        <time>2022-07-17T12:40:41Z</time>
      </trkpt>
      <trkpt lat="46.853" lon="6.52808">
        <ele>1128.9</ele>
        <time>2022-07-17T12:40:45Z</time>
      </trkpt>
      <trkpt lat="46.85294" lon="6.52807">
        <ele>1128.4</ele>
        <time>2022-07-17T12:40:49Z</time>
      </trkpt>
      <trkpt lat="46.8529" lon="6.52806">
        <ele>1128.1</ele>
        <time>2022-07-17T12:40:53Z</time>
      </trkpt>
      <trkpt lat="46.85284" lon="6.52806">
        <ele>1128.2</ele>
        <time>2022-07-17T12:40:58Z</time>
      </trkpt>
      <trkpt lat="46.85281" lon="6.528">
        <ele>1128</ele>
        <time>2022-07-17T12:41:05Z</time>
      </trkpt>
      <trkpt lat="46.85279" lon="6.52793">
        <ele>1127.5</ele>
        <time>2022-07-17T12:41:09Z</time>
      </trkpt>
      <trkpt lat="46.85277" lon="6.52785">
        <ele>1126.8</ele>
        <time>2022-07-17T12:41:13Z</time>
      </trkpt>
      <trkpt lat="46.85275" lon="6.5278">
        <ele>1126.1</ele>
        <time>2022-07-17T12:41:16Z</time>
      </trkpt>
      <trkpt lat="46.85272" lon="6.52774">
        <ele>1125.5</ele>
        <time>2022-07-17T12:41:20Z</time>
      </trkpt>
      <trkpt lat="46.8527" lon="6.52767">
        <ele>1125</ele>
        <time>2022-07-17T12:41:24Z</time>
      </trkpt>
      <trkpt lat="46.85268" lon="6.52761">
        <ele>1124.8</ele>
        <time>2022-07-17T12:41:29Z</time>
      </trkpt>
      <trkpt lat="46.85265" lon="6.52755">
        <ele>1124.9</ele>
        <time>2022-07-17T12:41:35Z</time>
      </trkpt>
      <trkpt lat="46.85263" lon="6.52748">
        <ele>1125.3</ele>
        <time>2022-07-17T12:41:40Z</time>
      </trkpt>
      <trkpt lat="46.8526" lon="6.52743">
        <ele>1125</ele>
        <time>2022-07-17T12:41:46Z</time>
      </trkpt>
      <trkpt lat="46.85255" lon="6.52741">
        <ele>1125</ele>
        <time>2022-07-17T12:41:50Z</time>
      </trkpt>
      <trkpt lat="46.85252" lon="6.52734">
        <ele>1125.3</ele>
        <time>2022-07-17T12:41:56Z</time>
      </trkpt>
      <trkpt lat="46.8525" lon="6.52727">
        <ele>1125.3</ele>
        <time>2022-07-17T12:42:01Z</time>
      </trkpt>
      <trkpt lat="46.85248" lon="6.5272">
        <ele>1124.9</ele>
        <time>2022-07-17T12:42:06Z</time>
      </trkpt>
      <trkpt lat="46.85244" lon="6.52714">
        <ele>1124.1</ele>
        <time>2022-07-17T12:42:11Z</time>
      </trkpt>
      <trkpt lat="46.85241" lon="6.52711">
        <ele>1123.8</ele>
        <time>2022-07-17T12:42:15Z</time>
      </trkpt>
      <trkpt lat="46.85237" lon="6.52705">
        <ele>1124.4</ele>
        <time>2022-07-17T12:42:20Z</time>
      </trkpt>
      <trkpt lat="46.85235" lon="6.52698">
        <ele>1125.1</ele>
        <time>2022-07-17T12:42:25Z</time>
      </trkpt>
      <trkpt lat="46.85234" lon="6.52691">
        <ele>1125.7</ele>
        <time>2022-07-17T12:42:29Z</time>
      </trkpt>
      <trkpt lat="46.8523" lon="6.52686">
        <ele>1126.4</ele>
        <time>2022-07-17T12:42:33Z</time>
      </trkpt>
      <trkpt lat="46.85229" lon="6.5268">
        <ele>1127.3</ele>
        <time>2022-07-17T12:42:38Z</time>
      </trkpt>
      <trkpt lat="46.85229" lon="6.52673">
        <ele>1128.4</ele>
        <time>2022-07-17T12:42:43Z</time>
      </trkpt>
      <trkpt lat="46.85228" lon="6.52666">
        <ele>1129.2</ele>
        <time>2022-07-17T12:42:47Z</time>
      </trkpt>
      <trkpt lat="46.85226" lon="6.52659">
        <ele>1129.9</ele>
        <time>2022-07-17T12:42:52Z</time>
      </trkpt>
      <trkpt lat="46.85223" lon="6.52653">
        <ele>1130.3</ele>
        <time>2022-07-17T12:42:57Z</time>
      </trkpt>
      <trkpt lat="46.8522" lon="6.52648">
        <ele>1130.7</ele>
        <time>2022-07-17T12:43:02Z</time>
      </trkpt>
      <trkpt lat="46.85215" lon="6.52643">
        <ele>1131.4</ele>
        <time>2022-07-17T12:43:08Z</time>
      </trkpt>
      <trkpt lat="46.85211" lon="6.5264">
        <ele>1132.1</ele>
        <time>2022-07-17T12:43:13Z</time>
      </trkpt>
      <trkpt lat="46.85208" lon="6.52633">
        <ele>1132.5</ele>
        <time>2022-07-17T12:43:19Z</time>
      </trkpt>
      <trkpt lat="46.85207" lon="6.52626">
        <ele>1132.5</ele>
        <time>2022-07-17T12:43:24Z</time>
      </trkpt>
      <trkpt lat="46.85205" lon="6.52619">
        <ele>1132.7</ele>
        <time>2022-07-17T12:43:28Z</time>
      </trkpt>
      <trkpt lat="46.85202" lon="6.52614">
        <ele>1133.4</ele>
        <time>2022-07-17T12:43:35Z</time>
      </trkpt>
      <trkpt lat="46.85204" lon="6.52607">
        <ele>1132.5</ele>
        <time>2022-07-17T12:43:45Z</time>
      </trkpt>
      <trkpt lat="46.85207" lon="6.52602">
        <ele>1131.9</ele>
        <time>2022-07-17T12:43:50Z</time>
      </trkpt>
      <trkpt lat="46.85211" lon="6.52599">
        <ele>1130.9</ele>
        <time>2022-07-17T12:43:55Z</time>
      </trkpt>
      <trkpt lat="46.85212" lon="6.52592">
        <ele>1129.3</ele>
        <time>2022-07-17T12:44:03Z</time>
      </trkpt>
      <trkpt lat="46.85208" lon="6.52596">
        <ele>1128.6</ele>
        <time>2022-07-17T12:44:09Z</time>
      </trkpt>
      <trkpt lat="46.85204" lon="6.52601">
        <ele>1128.3</ele>
        <time>2022-07-17T12:44:13Z</time>
      </trkpt>
      <trkpt lat="46.85202" lon="6.52593">
        <ele>1129.4</ele>
        <time>2022-07-17T12:44:27Z</time>
      </trkpt>
      <trkpt lat="46.85201" lon="6.52585">
        <ele>1129.3</ele>
        <time>2022-07-17T12:44:31Z</time>
      </trkpt>
      <trkpt lat="46.852" lon="6.52578">
        <ele>1128.9</ele>
        <time>2022-07-17T12:44:35Z</time>
      </trkpt>
      <trkpt lat="46.852" lon="6.52572">
        <ele>1129</ele>
        <time>2022-07-17T12:44:40Z</time>
      </trkpt>
      <trkpt lat="46.85198" lon="6.52564">
        <ele>1129.1</ele>
        <time>2022-07-17T12:44:45Z</time>
      </trkpt>
      <trkpt lat="46.85197" lon="6.52557">
        <ele>1129.5</ele>
        <time>2022-07-17T12:44:49Z</time>
      </trkpt>
      <trkpt lat="46.85196" lon="6.52551">
        <ele>1129.7</ele>
        <time>2022-07-17T12:44:54Z</time>
      </trkpt>
      <trkpt lat="46.85193" lon="6.52546">
        <ele>1129.5</ele>
        <time>2022-07-17T12:44:58Z</time>
      </trkpt>
      <trkpt lat="46.85192" lon="6.52539">
        <ele>1129.4</ele>
        <time>2022-07-17T12:45:02Z</time>
      </trkpt>
      <trkpt lat="46.85191" lon="6.52533">
        <ele>1128.9</ele>
        <time>2022-07-17T12:45:07Z</time>
      </trkpt>
      <trkpt lat="46.85193" lon="6.52525">
        <ele>1127.5</ele>
        <time>2022-07-17T12:45:13Z</time>
      </trkpt>
      <trkpt lat="46.85195" lon="6.52519">
        <ele>1126</ele>
        <time>2022-07-17T12:45:18Z</time>
      </trkpt>
      <trkpt lat="46.85195" lon="6.52512">
        <ele>1124.6</ele>
        <time>2022-07-17T12:45:23Z</time>
      </trkpt>
      <trkpt lat="46.85196" lon="6.52505">
        <ele>1123.6</ele>
        <time>2022-07-17T12:45:27Z</time>
      </trkpt>
      <trkpt lat="46.85197" lon="6.52499">
        <ele>1123</ele>
        <time>2022-07-17T12:45:32Z</time>
      </trkpt>
      <trkpt lat="46.85192" lon="6.525">
        <ele>1123</ele>
        <time>2022-07-17T12:45:55Z</time>
      </trkpt>
      <trkpt lat="46.85187" lon="6.52498">
        <ele>1122.8</ele>
        <time>2022-07-17T12:45:59Z</time>
      </trkpt>
      <trkpt lat="46.85183" lon="6.52494">
        <ele>1123.4</ele>
        <time>2022-07-17T12:46:03Z</time>
      </trkpt>
      <trkpt lat="46.85181" lon="6.52487">
        <ele>1125.1</ele>
        <time>2022-07-17T12:46:09Z</time>
      </trkpt>
      <trkpt lat="46.85181" lon="6.5248">
        <ele>1127.2</ele>
        <time>2022-07-17T12:46:15Z</time>
      </trkpt>
      <trkpt lat="46.85181" lon="6.52473">
        <ele>1128.8</ele>
        <time>2022-07-17T12:46:20Z</time>
      </trkpt>
      <trkpt lat="46.85181" lon="6.52466">
        <ele>1130.6</ele>
        <time>2022-07-17T12:46:26Z</time>
      </trkpt>
      <trkpt lat="46.85184" lon="6.5246">
        <ele>1132.2</ele>
        <time>2022-07-17T12:46:31Z</time>
      </trkpt>
      <trkpt lat="46.85184" lon="6.52453">
        <ele>1136.6</ele>
        <time>2022-07-17T12:46:44Z</time>
      </trkpt>
      <trkpt lat="46.85186" lon="6.52447">
        <ele>1137.6</ele>
        <time>2022-07-17T12:46:48Z</time>
      </trkpt>
      <trkpt lat="46.85189" lon="6.52441">
        <ele>1138.7</ele>
        <time>2022-07-17T12:46:52Z</time>
      </trkpt>
      <trkpt lat="46.85192" lon="6.52436">
        <ele>1139.7</ele>
        <time>2022-07-17T12:46:56Z</time>
      </trkpt>
      <trkpt lat="46.85193" lon="6.52429">
        <ele>1140.6</ele>
        <time>2022-07-17T12:47:01Z</time>
      </trkpt>
      <trkpt lat="46.8519" lon="6.52423">
        <ele>1142</ele>
        <time>2022-07-17T12:47:06Z</time>
      </trkpt>
      <trkpt lat="46.85187" lon="6.52416">
        <ele>1142.9</ele>
        <time>2022-07-17T12:47:10Z</time>
      </trkpt>
      <trkpt lat="46.85183" lon="6.52411">
        <ele>1143.6</ele>
        <time>2022-07-17T12:47:14Z</time>
      </trkpt>
      <trkpt lat="46.85182" lon="6.52404">
        <ele>1144.7</ele>
        <time>2022-07-17T12:47:20Z</time>
      </trkpt>
      <trkpt lat="46.85181" lon="6.52397">
        <ele>1145.1</ele>
        <time>2022-07-17T12:47:25Z</time>
      </trkpt>
      <trkpt lat="46.85179" lon="6.52391">
        <ele>1145.2</ele>
        <time>2022-07-17T12:47:30Z</time>
      </trkpt>
      <trkpt lat="46.85174" lon="6.52388">
        <ele>1145</ele>
        <time>2022-07-17T12:47:37Z</time>
      </trkpt>
      <trkpt lat="46.85171" lon="6.52384">
        <ele>1144.7</ele>
        <time>2022-07-17T12:47:41Z</time>
      </trkpt>
      <trkpt lat="46.8517" lon="6.52377">
        <ele>1143.4</ele>
        <time>2022-07-17T12:47:47Z</time>
      </trkpt>
      <trkpt lat="46.85172" lon="6.52371">
        <ele>1142.1</ele>
        <time>2022-07-17T12:47:53Z</time>
      </trkpt>
      <trkpt lat="46.85171" lon="6.52364">
        <ele>1141.4</ele>
        <time>2022-07-17T12:47:59Z</time>
      </trkpt>
      <trkpt lat="46.8517" lon="6.52357">
        <ele>1141</ele>
        <time>2022-07-17T12:48:04Z</time>
      </trkpt>
      <trkpt lat="46.8517" lon="6.5235">
        <ele>1141.1</ele>
        <time>2022-07-17T12:48:09Z</time>
      </trkpt>
      <trkpt lat="46.85172" lon="6.52344">
        <ele>1141.7</ele>
        <time>2022-07-17T12:48:13Z</time>
      </trkpt>
      <trkpt lat="46.85176" lon="6.52338">
        <ele>1142</ele>
        <time>2022-07-17T12:48:17Z</time>
      </trkpt>
      <trkpt lat="46.85179" lon="6.52334">
        <ele>1142.3</ele>
        <time>2022-07-17T12:48:21Z</time>
      </trkpt>
      <trkpt lat="46.85181" lon="6.52327">
        <ele>1143.1</ele>
        <time>2022-07-17T12:48:27Z</time>
      </trkpt>
      <trkpt lat="46.85184" lon="6.52321">
        <ele>1144</ele>
        <time>2022-07-17T12:48:37Z</time>
      </trkpt>
      <trkpt lat="46.85185" lon="6.52314">
        <ele>1144.5</ele>
        <time>2022-07-17T12:48:44Z</time>
      </trkpt>
      <trkpt lat="46.85187" lon="6.52308">
        <ele>1145.8</ele>
        <time>2022-07-17T12:48:51Z</time>
      </trkpt>
      <trkpt lat="46.8519" lon="6.52302">
        <ele>1146.4</ele>
        <time>2022-07-17T12:48:58Z</time>
      </trkpt>
      <trkpt lat="46.8519" lon="6.52294">
        <ele>1146.6</ele>
        <time>2022-07-17T12:49:04Z</time>
      </trkpt>
      <trkpt lat="46.85192" lon="6.52288">
        <ele>1147</ele>
        <time>2022-07-17T12:49:09Z</time>
      </trkpt>
      <trkpt lat="46.85195" lon="6.52283">
        <ele>1147.8</ele>
        <time>2022-07-17T12:49:16Z</time>
      </trkpt>
      <trkpt lat="46.85198" lon="6.52276">
        <ele>1148</ele>
        <time>2022-07-17T12:49:22Z</time>
      </trkpt>
      <trkpt lat="46.85201" lon="6.52271">
        <ele>1148.1</ele>
        <time>2022-07-17T12:49:28Z</time>
      </trkpt>
      <trkpt lat="46.85203" lon="6.52264">
        <ele>1147.5</ele>
        <time>2022-07-17T12:49:34Z</time>
      </trkpt>
      <trkpt lat="46.85202" lon="6.52257">
        <ele>1146.7</ele>
        <time>2022-07-17T12:49:40Z</time>
      </trkpt>
      <trkpt lat="46.85203" lon="6.5225">
        <ele>1147.9</ele>
        <time>2022-07-17T12:50:16Z</time>
      </trkpt>
      <trkpt lat="46.852" lon="6.52244">
        <ele>1147.2</ele>
        <time>2022-07-17T12:51:02Z</time>
      </trkpt>
      <trkpt lat="46.85197" lon="6.52237">
        <ele>1147.1</ele>
        <time>2022-07-17T12:51:08Z</time>
      </trkpt>
      <trkpt lat="46.85194" lon="6.52232">
        <ele>1146</ele>
        <time>2022-07-17T12:51:16Z</time>
      </trkpt>
      <trkpt lat="46.85191" lon="6.52227">
        <ele>1144.9</ele>
        <time>2022-07-17T12:51:23Z</time>
      </trkpt>
      <trkpt lat="46.85188" lon="6.52221">
        <ele>1144.9</ele>
        <time>2022-07-17T12:51:31Z</time>
      </trkpt>
      <trkpt lat="46.85186" lon="6.52214">
        <ele>1145.4</ele>
        <time>2022-07-17T12:51:37Z</time>
      </trkpt>
      <trkpt lat="46.85183" lon="6.52209">
        <ele>1145.8</ele>
        <time>2022-07-17T12:51:41Z</time>
      </trkpt>
      <trkpt lat="46.8518" lon="6.52203">
        <ele>1146</ele>
        <time>2022-07-17T12:51:45Z</time>
      </trkpt>
      <trkpt lat="46.8518" lon="6.52196">
        <ele>1146.1</ele>
        <time>2022-07-17T12:51:49Z</time>
      </trkpt>
      <trkpt lat="46.85177" lon="6.5219">
        <ele>1146</ele>
        <time>2022-07-17T12:51:54Z</time>
      </trkpt>
      <trkpt lat="46.85174" lon="6.52185">
        <ele>1146.4</ele>
        <time>2022-07-17T12:52:00Z</time>
      </trkpt>
      <trkpt lat="46.85171" lon="6.52179">
        <ele>1145.8</ele>
        <time>2022-07-17T12:52:07Z</time>
      </trkpt>
      <trkpt lat="46.85168" lon="6.52173">
        <ele>1145.1</ele>
        <time>2022-07-17T12:52:13Z</time>
      </trkpt>
      <trkpt lat="46.85164" lon="6.52169">
        <ele>1144.9</ele>
        <time>2022-07-17T12:52:17Z</time>
      </trkpt>
      <trkpt lat="46.85161" lon="6.52164">
        <ele>1145.8</ele>
        <time>2022-07-17T12:52:23Z</time>
      </trkpt>
      <trkpt lat="46.85157" lon="6.5216">
        <ele>1146.9</ele>
        <time>2022-07-17T12:52:28Z</time>
      </trkpt>
      <trkpt lat="46.85153" lon="6.52157">
        <ele>1147.2</ele>
        <time>2022-07-17T12:52:33Z</time>
      </trkpt>
      <trkpt lat="46.85152" lon="6.5215">
        <ele>1147.1</ele>
        <time>2022-07-17T12:52:40Z</time>
      </trkpt>
      <trkpt lat="46.85153" lon="6.52143">
        <ele>1147.1</ele>
        <time>2022-07-17T12:52:45Z</time>
      </trkpt>
      <trkpt lat="46.85151" lon="6.52135">
        <ele>1147.2</ele>
        <time>2022-07-17T12:52:49Z</time>
      </trkpt>
      <trkpt lat="46.85148" lon="6.52129">
        <ele>1147.2</ele>
        <time>2022-07-17T12:52:53Z</time>
      </trkpt>
      <trkpt lat="46.85146" lon="6.52123">
        <ele>1146.8</ele>
        <time>2022-07-17T12:52:59Z</time>
      </trkpt>
      <trkpt lat="46.85142" lon="6.52125">
        <ele>1146.2</ele>
        <time>2022-07-17T12:53:08Z</time>
      </trkpt>
      <trkpt lat="46.85131" lon="6.52121">
        <ele>1164</ele>
        <time>2022-07-17T12:53:42Z</time>
      </trkpt>
      <trkpt lat="46.85134" lon="6.52114">
        <ele>1163.8</ele>
        <time>2022-07-17T12:53:47Z</time>
      </trkpt>
      <trkpt lat="46.85136" lon="6.52106">
        <ele>1163.6</ele>
        <time>2022-07-17T12:53:51Z</time>
      </trkpt>
      <trkpt lat="46.85138" lon="6.521">
        <ele>1165</ele>
        <time>2022-07-17T12:53:59Z</time>
      </trkpt>
      <trkpt lat="46.85135" lon="6.52094">
        <ele>1163.8</ele>
        <time>2022-07-17T12:54:07Z</time>
      </trkpt>
      <trkpt lat="46.85134" lon="6.52088">
        <ele>1162.3</ele>
        <time>2022-07-17T12:54:13Z</time>
      </trkpt>
      <trkpt lat="46.85129" lon="6.52085">
        <ele>1160.4</ele>
        <time>2022-07-17T12:54:22Z</time>
      </trkpt>
      <trkpt lat="46.85126" lon="6.52079">
        <ele>1158.7</ele>
        <time>2022-07-17T12:54:28Z</time>
      </trkpt>
      <trkpt lat="46.85126" lon="6.52072">
        <ele>1157.2</ele>
        <time>2022-07-17T12:54:37Z</time>
      </trkpt>
      <trkpt lat="46.85131" lon="6.52073">
        <ele>1157.7</ele>
        <time>2022-07-17T12:54:45Z</time>
      </trkpt>
      <trkpt lat="46.85131" lon="6.52079">
        <ele>1158.3</ele>
        <time>2022-07-17T12:54:50Z</time>
      </trkpt>
      <trkpt lat="46.85135" lon="6.52076">
        <ele>1159.8</ele>
        <time>2022-07-17T12:55:17Z</time>
      </trkpt>
      <trkpt lat="46.8514" lon="6.52076">
        <ele>1157</ele>
        <time>2022-07-17T12:55:22Z</time>
      </trkpt>
      <trkpt lat="46.85144" lon="6.52073">
        <ele>1154.7</ele>
        <time>2022-07-17T12:55:30Z</time>
      </trkpt>
      <trkpt lat="46.85146" lon="6.52067">
        <ele>1155</ele>
        <time>2022-07-17T12:55:37Z</time>
      </trkpt>
      <trkpt lat="46.85148" lon="6.5206">
        <ele>1156</ele>
        <time>2022-07-17T12:55:46Z</time>
      </trkpt>
      <trkpt lat="46.85149" lon="6.52053">
        <ele>1156.8</ele>
        <time>2022-07-17T12:55:53Z</time>
      </trkpt>
      <trkpt lat="46.85152" lon="6.52047">
        <ele>1160.1</ele>
        <time>2022-07-17T12:56:07Z</time>
      </trkpt>
      <trkpt lat="46.85152" lon="6.5204">
        <ele>1161.6</ele>
        <time>2022-07-17T12:56:12Z</time>
      </trkpt>
      <trkpt lat="46.85151" lon="6.52032">
        <ele>1162.5</ele>
        <time>2022-07-17T12:56:17Z</time>
      </trkpt>
      <trkpt lat="46.85149" lon="6.52027">
        <ele>1163.3</ele>
        <time>2022-07-17T12:56:23Z</time>
      </trkpt>
      <trkpt lat="46.85152" lon="6.5202">
        <ele>1164.2</ele>
        <time>2022-07-17T12:56:29Z</time>
      </trkpt>
      <trkpt lat="46.85152" lon="6.52013">
        <ele>1164.5</ele>
        <time>2022-07-17T12:56:34Z</time>
      </trkpt>
      <trkpt lat="46.85153" lon="6.52006">
        <ele>1164.8</ele>
        <time>2022-07-17T12:56:38Z</time>
      </trkpt>
      <trkpt lat="46.85152" lon="6.51999">
        <ele>1165.3</ele>
        <time>2022-07-17T12:56:44Z</time>
      </trkpt>
      <trkpt lat="46.85151" lon="6.51992">
        <ele>1168.6</ele>
        <time>2022-07-17T12:56:58Z</time>
      </trkpt>
      <trkpt lat="46.85154" lon="6.51987">
        <ele>1170.7</ele>
        <time>2022-07-17T12:57:06Z</time>
      </trkpt>
      <trkpt lat="46.85156" lon="6.5198">
        <ele>1172.2</ele>
        <time>2022-07-17T12:57:13Z</time>
      </trkpt>
      <trkpt lat="46.85156" lon="6.51974">
        <ele>1174.7</ele>
        <time>2022-07-17T12:57:21Z</time>
      </trkpt>
      <trkpt lat="46.85157" lon="6.51967">
        <ele>1176.9</ele>
        <time>2022-07-17T12:57:32Z</time>
      </trkpt>
      <trkpt lat="46.85158" lon="6.5196">
        <ele>1177.3</ele>
        <time>2022-07-17T12:57:42Z</time>
      </trkpt>
      <trkpt lat="46.85155" lon="6.51954">
        <ele>1176.4</ele>
        <time>2022-07-17T12:57:52Z</time>
      </trkpt>
      <trkpt lat="46.85158" lon="6.51949">
        <ele>1177.8</ele>
        <time>2022-07-17T12:58:01Z</time>
      </trkpt>
      <trkpt lat="46.85164" lon="6.51949">
        <ele>1178.8</ele>
        <time>2022-07-17T12:58:05Z</time>
      </trkpt>
      <trkpt lat="46.8517" lon="6.51951">
        <ele>1180.4</ele>
        <time>2022-07-17T12:58:09Z</time>
      </trkpt>
      <trkpt lat="46.85178" lon="6.51951">
        <ele>1184.5</ele>
        <time>2022-07-17T12:58:40Z</time>
      </trkpt>
      <trkpt lat="46.85183" lon="6.5195">
        <ele>1185.4</ele>
        <time>2022-07-17T12:58:45Z</time>
      </trkpt>
      <trkpt lat="46.85178" lon="6.51948">
        <ele>1184.2</ele>
        <time>2022-07-17T12:59:03Z</time>
      </trkpt>
      <trkpt lat="46.85174" lon="6.51952">
        <ele>1183.6</ele>
        <time>2022-07-17T12:59:09Z</time>
      </trkpt>
      <trkpt lat="46.85175" lon="6.51946">
        <ele>1186.3</ele>
        <time>2022-07-17T12:59:50Z</time>
      </trkpt>
      <trkpt lat="46.85171" lon="6.51949">
        <ele>1188.9</ele>
        <time>2022-07-17T13:01:06Z</time>
      </trkpt>
      <trkpt lat="46.85176" lon="6.51949">
        <ele>1186.9</ele>
        <time>2022-07-17T13:01:31Z</time>
      </trkpt>
      <trkpt lat="46.8518" lon="6.51945">
        <ele>1186.4</ele>
        <time>2022-07-17T13:01:36Z</time>
      </trkpt>
      <trkpt lat="46.85181" lon="6.51938">
        <ele>1185.2</ele>
        <time>2022-07-17T13:01:44Z</time>
      </trkpt>
      <trkpt lat="46.8518" lon="6.51931">
        <ele>1184.4</ele>
        <time>2022-07-17T13:01:50Z</time>
      </trkpt>
      <trkpt lat="46.85182" lon="6.51925">
        <ele>1183.8</ele>
        <time>2022-07-17T13:01:58Z</time>
      </trkpt>
      <trkpt lat="46.85179" lon="6.51919">
        <ele>1183</ele>
        <time>2022-07-17T13:02:07Z</time>
      </trkpt>
      <trkpt lat="46.85178" lon="6.51912">
        <ele>1183.8</ele>
        <time>2022-07-17T13:02:17Z</time>
      </trkpt>
      <trkpt lat="46.85176" lon="6.51906">
        <ele>1184.5</ele>
        <time>2022-07-17T13:02:25Z</time>
      </trkpt>
      <trkpt lat="46.85175" lon="6.51899">
        <ele>1185.2</ele>
        <time>2022-07-17T13:02:40Z</time>
      </trkpt>
      <trkpt lat="46.85171" lon="6.51896">
        <ele>1188.5</ele>
        <time>2022-07-17T13:02:56Z</time>
      </trkpt>
      <trkpt lat="46.85168" lon="6.5189">
        <ele>1184.1</ele>
        <time>2022-07-17T13:03:11Z</time>
      </trkpt>
      <trkpt lat="46.85164" lon="6.51888">
        <ele>1184</ele>
        <time>2022-07-17T13:03:17Z</time>
      </trkpt>
      <trkpt lat="46.85161" lon="6.51882">
        <ele>1186.3</ele>
        <time>2022-07-17T13:03:24Z</time>
      </trkpt>
      <trkpt lat="46.8516" lon="6.51875">
        <ele>1188.1</ele>
        <time>2022-07-17T13:03:29Z</time>
      </trkpt>
      <trkpt lat="46.85158" lon="6.51869">
        <ele>1192.3</ele>
        <time>2022-07-17T13:03:40Z</time>
      </trkpt>
      <trkpt lat="46.85154" lon="6.51864">
        <ele>1194.4</ele>
        <time>2022-07-17T13:03:46Z</time>
      </trkpt>
      <trkpt lat="46.8515" lon="6.5186">
        <ele>1195.7</ele>
        <time>2022-07-17T13:03:52Z</time>
      </trkpt>
      <trkpt lat="46.85147" lon="6.51854">
        <ele>1198.2</ele>
        <time>2022-07-17T13:04:03Z</time>
      </trkpt>
      <trkpt lat="46.85144" lon="6.51848">
        <ele>1200.1</ele>
        <time>2022-07-17T13:04:10Z</time>
      </trkpt>
      <trkpt lat="46.8514" lon="6.51846">
        <ele>1202.4</ele>
        <time>2022-07-17T13:04:17Z</time>
      </trkpt>
      <trkpt lat="46.85139" lon="6.51838">
        <ele>1204</ele>
        <time>2022-07-17T13:04:28Z</time>
      </trkpt>
      <trkpt lat="46.85138" lon="6.51831">
        <ele>1205.3</ele>
        <time>2022-07-17T13:04:35Z</time>
      </trkpt>
      <trkpt lat="46.85136" lon="6.51825">
        <ele>1207.2</ele>
        <time>2022-07-17T13:04:41Z</time>
      </trkpt>
      <trkpt lat="46.85133" lon="6.51819">
        <ele>1209.3</ele>
        <time>2022-07-17T13:04:49Z</time>
      </trkpt>
      <trkpt lat="46.8513" lon="6.51814">
        <ele>1210.6</ele>
        <time>2022-07-17T13:04:56Z</time>
      </trkpt>
      <trkpt lat="46.85134" lon="6.51811">
        <ele>1210.3</ele>
        <time>2022-07-17T13:05:11Z</time>
      </trkpt>
      <trkpt lat="46.85129" lon="6.51807">
        <ele>1208.3</ele>
        <time>2022-07-17T13:06:42Z</time>
      </trkpt>
      <trkpt lat="46.85127" lon="6.51801">
        <ele>1208</ele>
        <time>2022-07-17T13:06:46Z</time>
      </trkpt>
      <trkpt lat="46.85125" lon="6.51795">
        <ele>1208.8</ele>
        <time>2022-07-17T13:06:52Z</time>
      </trkpt>
      <trkpt lat="46.85122" lon="6.51789">
        <ele>1211</ele>
        <time>2022-07-17T13:07:02Z</time>
      </trkpt>
      <trkpt lat="46.85121" lon="6.51782">
        <ele>1212.5</ele>
        <time>2022-07-17T13:07:08Z</time>
      </trkpt>
      <trkpt lat="46.8512" lon="6.51775">
        <ele>1213.9</ele>
        <time>2022-07-17T13:07:13Z</time>
      </trkpt>
      <trkpt lat="46.85118" lon="6.51768">
        <ele>1215.7</ele>
        <time>2022-07-17T13:07:20Z</time>
      </trkpt>
      <trkpt lat="46.85117" lon="6.51762">
        <ele>1216.4</ele>
        <time>2022-07-17T13:07:32Z</time>
      </trkpt>
      <trkpt lat="46.85117" lon="6.51755">
        <ele>1215.9</ele>
        <time>2022-07-17T13:07:44Z</time>
      </trkpt>
      <trkpt lat="46.85114" lon="6.51749">
        <ele>1218</ele>
        <time>2022-07-17T13:07:52Z</time>
      </trkpt>
      <trkpt lat="46.8511" lon="6.51744">
        <ele>1219.3</ele>
        <time>2022-07-17T13:07:58Z</time>
      </trkpt>
      <trkpt lat="46.85108" lon="6.51739">
        <ele>1219.6</ele>
        <time>2022-07-17T13:08:03Z</time>
      </trkpt>
      <trkpt lat="46.85107" lon="6.51731">
        <ele>1219.8</ele>
        <time>2022-07-17T13:08:08Z</time>
      </trkpt>
      <trkpt lat="46.85106" lon="6.51724">
        <ele>1220.2</ele>
        <time>2022-07-17T13:08:12Z</time>
      </trkpt>
      <trkpt lat="46.85104" lon="6.51718">
        <ele>1222.2</ele>
        <time>2022-07-17T13:08:25Z</time>
      </trkpt>
      <trkpt lat="46.85106" lon="6.51712">
        <ele>1223</ele>
        <time>2022-07-17T13:08:35Z</time>
      </trkpt>
      <trkpt lat="46.85102" lon="6.51709">
        <ele>1221.8</ele>
        <time>2022-07-17T13:08:45Z</time>
      </trkpt>
      <trkpt lat="46.85107" lon="6.51705">
        <ele>1222.6</ele>
        <time>2022-07-17T13:09:09Z</time>
      </trkpt>
      <trkpt lat="46.85103" lon="6.51701">
        <ele>1221.4</ele>
        <time>2022-07-17T13:10:12Z</time>
      </trkpt>
      <trkpt lat="46.85104" lon="6.51694">
        <ele>1222.2</ele>
        <time>2022-07-17T13:10:18Z</time>
      </trkpt>
      <trkpt lat="46.85105" lon="6.51687">
        <ele>1222.6</ele>
        <time>2022-07-17T13:10:24Z</time>
      </trkpt>
      <trkpt lat="46.85103" lon="6.51681">
        <ele>1223.1</ele>
        <time>2022-07-17T13:10:29Z</time>
      </trkpt>
      <trkpt lat="46.851" lon="6.51674">
        <ele>1223.5</ele>
        <time>2022-07-17T13:10:34Z</time>
      </trkpt>
      <trkpt lat="46.85096" lon="6.51669">
        <ele>1223.3</ele>
        <time>2022-07-17T13:10:39Z</time>
      </trkpt>
      <trkpt lat="46.85092" lon="6.51664">
        <ele>1222.4</ele>
        <time>2022-07-17T13:10:45Z</time>
      </trkpt>
      <trkpt lat="46.85088" lon="6.51661">
        <ele>1221.1</ele>
        <time>2022-07-17T13:10:51Z</time>
      </trkpt>
      <trkpt lat="46.85084" lon="6.51657">
        <ele>1219.8</ele>
        <time>2022-07-17T13:10:57Z</time>
      </trkpt>
      <trkpt lat="46.8508" lon="6.51653">
        <ele>1219.7</ele>
        <time>2022-07-17T13:11:02Z</time>
      </trkpt>
      <trkpt lat="46.85078" lon="6.51646">
        <ele>1219.9</ele>
        <time>2022-07-17T13:11:08Z</time>
      </trkpt>
      <trkpt lat="46.85075" lon="6.51642">
        <ele>1220.1</ele>
        <time>2022-07-17T13:11:13Z</time>
      </trkpt>
      <trkpt lat="46.8507" lon="6.51639">
        <ele>1220.3</ele>
        <time>2022-07-17T13:11:18Z</time>
      </trkpt>
      <trkpt lat="46.85067" lon="6.51635">
        <ele>1220.5</ele>
        <time>2022-07-17T13:11:23Z</time>
      </trkpt>
      <trkpt lat="46.85062" lon="6.51631">
        <ele>1219.8</ele>
        <time>2022-07-17T13:11:30Z</time>
      </trkpt>
      <trkpt lat="46.85057" lon="6.51629">
        <ele>1218.7</ele>
        <time>2022-07-17T13:11:37Z</time>
      </trkpt>
      <trkpt lat="46.85054" lon="6.51623">
        <ele>1218.4</ele>
        <time>2022-07-17T13:11:43Z</time>
      </trkpt>
      <trkpt lat="46.85052" lon="6.51616">
        <ele>1218.4</ele>
        <time>2022-07-17T13:11:47Z</time>
      </trkpt>
      <trkpt lat="46.85049" lon="6.51611">
        <ele>1218.4</ele>
        <time>2022-07-17T13:11:51Z</time>
      </trkpt>
      <trkpt lat="46.85045" lon="6.51607">
        <ele>1218.1</ele>
        <time>2022-07-17T13:11:56Z</time>
      </trkpt>
      <trkpt lat="46.85041" lon="6.51603">
        <ele>1217.3</ele>
        <time>2022-07-17T13:12:03Z</time>
      </trkpt>
      <trkpt lat="46.85037" lon="6.51597">
        <ele>1217.3</ele>
        <time>2022-07-17T13:12:08Z</time>
      </trkpt>
      <trkpt lat="46.85034" lon="6.51593">
        <ele>1217.2</ele>
        <time>2022-07-17T13:12:13Z</time>
      </trkpt>
      <trkpt lat="46.85029" lon="6.51591">
        <ele>1216.4</ele>
        <time>2022-07-17T13:12:20Z</time>
      </trkpt>
      <trkpt lat="46.85025" lon="6.51586">
        <ele>1216.1</ele>
        <time>2022-07-17T13:12:24Z</time>
      </trkpt>
      <trkpt lat="46.85024" lon="6.51579">
        <ele>1216</ele>
        <time>2022-07-17T13:12:28Z</time>
      </trkpt>
      <trkpt lat="46.85021" lon="6.51573">
        <ele>1216.6</ele>
        <time>2022-07-17T13:12:33Z</time>
      </trkpt>
      <trkpt lat="46.85019" lon="6.51567">
        <ele>1217.6</ele>
        <time>2022-07-17T13:12:38Z</time>
      </trkpt>
      <trkpt lat="46.85016" lon="6.51559">
        <ele>1218.4</ele>
        <time>2022-07-17T13:12:42Z</time>
      </trkpt>
      <trkpt lat="46.85014" lon="6.51554">
        <ele>1219</ele>
        <time>2022-07-17T13:12:45Z</time>
      </trkpt>
      <trkpt lat="46.8501" lon="6.51548">
        <ele>1220.1</ele>
        <time>2022-07-17T13:12:49Z</time>
      </trkpt>
      <trkpt lat="46.85006" lon="6.51544">
        <ele>1221.4</ele>
        <time>2022-07-17T13:12:55Z</time>
      </trkpt>
      <trkpt lat="46.85004" lon="6.51538">
        <ele>1221.8</ele>
        <time>2022-07-17T13:13:00Z</time>
      </trkpt>
      <trkpt lat="46.85" lon="6.51532">
        <ele>1221.9</ele>
        <time>2022-07-17T13:13:05Z</time>
      </trkpt>
      <trkpt lat="46.84997" lon="6.51528">
        <ele>1221.9</ele>
        <time>2022-07-17T13:13:10Z</time>
      </trkpt>
      <trkpt lat="46.84992" lon="6.51527">
        <ele>1220.2</ele>
        <time>2022-07-17T13:13:17Z</time>
      </trkpt>
      <trkpt lat="46.84987" lon="6.51526">
        <ele>1217.9</ele>
        <time>2022-07-17T13:13:24Z</time>
      </trkpt>
      <trkpt lat="46.84984" lon="6.51521">
        <ele>1215.6</ele>
        <time>2022-07-17T13:13:31Z</time>
      </trkpt>
      <trkpt lat="46.8498" lon="6.51516">
        <ele>1213.6</ele>
        <time>2022-07-17T13:13:37Z</time>
      </trkpt>
      <trkpt lat="46.84976" lon="6.51512">
        <ele>1212.3</ele>
        <time>2022-07-17T13:13:42Z</time>
      </trkpt>
      <trkpt lat="46.84972" lon="6.51508">
        <ele>1211.4</ele>
        <time>2022-07-17T13:13:48Z</time>
      </trkpt>
      <trkpt lat="46.84968" lon="6.51503">
        <ele>1211.1</ele>
        <time>2022-07-17T13:13:53Z</time>
      </trkpt>
      <trkpt lat="46.84965" lon="6.51497">
        <ele>1211</ele>
        <time>2022-07-17T13:13:59Z</time>
      </trkpt>
      <trkpt lat="46.84961" lon="6.51493">
        <ele>1210.6</ele>
        <time>2022-07-17T13:14:05Z</time>
      </trkpt>
      <trkpt lat="46.84957" lon="6.51488">
        <ele>1209.6</ele>
        <time>2022-07-17T13:14:10Z</time>
      </trkpt>
      <trkpt lat="46.84953" lon="6.51484">
        <ele>1208.7</ele>
        <time>2022-07-17T13:14:15Z</time>
      </trkpt>
      <trkpt lat="46.84948" lon="6.51481">
        <ele>1208.1</ele>
        <time>2022-07-17T13:14:20Z</time>
      </trkpt>
      <trkpt lat="46.84944" lon="6.51478">
        <ele>1207.5</ele>
        <time>2022-07-17T13:14:25Z</time>
      </trkpt>
      <trkpt lat="46.8494" lon="6.51475">
        <ele>1206.9</ele>
        <time>2022-07-17T13:14:30Z</time>
      </trkpt>
      <trkpt lat="46.84936" lon="6.5147">
        <ele>1206.7</ele>
        <time>2022-07-17T13:14:35Z</time>
      </trkpt>
      <trkpt lat="46.84932" lon="6.51466">
        <ele>1206.8</ele>
        <time>2022-07-17T13:14:41Z</time>
      </trkpt>
      <trkpt lat="46.84928" lon="6.51462">
        <ele>1207.2</ele>
        <time>2022-07-17T13:14:45Z</time>
      </trkpt>
      <trkpt lat="46.84923" lon="6.51457">
        <ele>1207.6</ele>
        <time>2022-07-17T13:14:51Z</time>
      </trkpt>
      <trkpt lat="46.8492" lon="6.51453">
        <ele>1207.4</ele>
        <time>2022-07-17T13:14:55Z</time>
      </trkpt>
      <trkpt lat="46.84915" lon="6.51448">
        <ele>1206.5</ele>
        <time>2022-07-17T13:15:01Z</time>
      </trkpt>
      <trkpt lat="46.84911" lon="6.51444">
        <ele>1205.7</ele>
        <time>2022-07-17T13:15:07Z</time>
      </trkpt>
      <trkpt lat="46.84907" lon="6.5144">
        <ele>1205.2</ele>
        <time>2022-07-17T13:15:11Z</time>
      </trkpt>
      <trkpt lat="46.84903" lon="6.51436">
        <ele>1204.5</ele>
        <time>2022-07-17T13:15:15Z</time>
      </trkpt>
      <trkpt lat="46.84898" lon="6.51435">
        <ele>1203.7</ele>
        <time>2022-07-17T13:15:20Z</time>
      </trkpt>
      <trkpt lat="46.84893" lon="6.51437">
        <ele>1202.7</ele>
        <time>2022-07-17T13:15:25Z</time>
      </trkpt>
      <trkpt lat="46.84889" lon="6.51436">
        <ele>1201.4</ele>
        <time>2022-07-17T13:15:30Z</time>
      </trkpt>
      <trkpt lat="46.84884" lon="6.51432">
        <ele>1199.9</ele>
        <time>2022-07-17T13:15:36Z</time>
      </trkpt>
      <trkpt lat="46.84881" lon="6.51427">
        <ele>1198.8</ele>
        <time>2022-07-17T13:15:41Z</time>
      </trkpt>
      <trkpt lat="46.84878" lon="6.51421">
        <ele>1197.6</ele>
        <time>2022-07-17T13:15:46Z</time>
      </trkpt>
      <trkpt lat="46.84874" lon="6.51415">
        <ele>1196.8</ele>
        <time>2022-07-17T13:15:51Z</time>
      </trkpt>
      <trkpt lat="46.8487" lon="6.51412">
        <ele>1196.4</ele>
        <time>2022-07-17T13:15:56Z</time>
      </trkpt>
      <trkpt lat="46.84866" lon="6.51407">
        <ele>1196.6</ele>
        <time>2022-07-17T13:16:01Z</time>
      </trkpt>
      <trkpt lat="46.84862" lon="6.51404">
        <ele>1196.8</ele>
        <time>2022-07-17T13:16:06Z</time>
      </trkpt>
      <trkpt lat="46.84858" lon="6.514">
        <ele>1197.3</ele>
        <time>2022-07-17T13:16:10Z</time>
      </trkpt>
      <trkpt lat="46.84853" lon="6.51396">
        <ele>1198.3</ele>
        <time>2022-07-17T13:16:14Z</time>
      </trkpt>
      <trkpt lat="46.84848" lon="6.51393">
        <ele>1199.1</ele>
        <time>2022-07-17T13:16:18Z</time>
      </trkpt>
      <trkpt lat="46.84843" lon="6.51393">
        <ele>1199.9</ele>
        <time>2022-07-17T13:16:22Z</time>
      </trkpt>
      <trkpt lat="46.84839" lon="6.51388">
        <ele>1200.4</ele>
        <time>2022-07-17T13:16:26Z</time>
      </trkpt>
      <trkpt lat="46.84835" lon="6.51383">
        <ele>1200.7</ele>
        <time>2022-07-17T13:16:31Z</time>
      </trkpt>
      <trkpt lat="46.84832" lon="6.51378">
        <ele>1200.6</ele>
        <time>2022-07-17T13:16:37Z</time>
      </trkpt>
      <trkpt lat="46.84828" lon="6.51375">
        <ele>1199.5</ele>
        <time>2022-07-17T13:16:47Z</time>
      </trkpt>
      <trkpt lat="46.84825" lon="6.51369">
        <ele>1197.3</ele>
        <time>2022-07-17T13:16:53Z</time>
      </trkpt>
      <trkpt lat="46.84822" lon="6.51364">
        <ele>1195</ele>
        <time>2022-07-17T13:16:59Z</time>
      </trkpt>
      <trkpt lat="46.84819" lon="6.51358">
        <ele>1192</ele>
        <time>2022-07-17T13:17:06Z</time>
      </trkpt>
      <trkpt lat="46.84817" lon="6.51351">
        <ele>1190.8</ele>
        <time>2022-07-17T13:17:09Z</time>
      </trkpt>
      <trkpt lat="46.84816" lon="6.51345">
        <ele>1190</ele>
        <time>2022-07-17T13:17:13Z</time>
      </trkpt>
      <trkpt lat="46.84811" lon="6.51341">
        <ele>1189</ele>
        <time>2022-07-17T13:17:20Z</time>
      </trkpt>
      <trkpt lat="46.84807" lon="6.51338">
        <ele>1187.2</ele>
        <time>2022-07-17T13:17:28Z</time>
      </trkpt>
      <trkpt lat="46.84803" lon="6.51335">
        <ele>1186.2</ele>
        <time>2022-07-17T13:17:33Z</time>
      </trkpt>
      <trkpt lat="46.84799" lon="6.5133">
        <ele>1185</ele>
        <time>2022-07-17T13:17:39Z</time>
      </trkpt>
      <trkpt lat="46.84796" lon="6.51325">
        <ele>1184.4</ele>
        <time>2022-07-17T13:17:44Z</time>
      </trkpt>
      <trkpt lat="46.84792" lon="6.5132">
        <ele>1183.9</ele>
        <time>2022-07-17T13:17:48Z</time>
      </trkpt>
      <trkpt lat="46.84788" lon="6.51315">
        <ele>1183.1</ele>
        <time>2022-07-17T13:17:54Z</time>
      </trkpt>
      <trkpt lat="46.84783" lon="6.51311">
        <ele>1182.1</ele>
        <time>2022-07-17T13:18:01Z</time>
      </trkpt>
      <trkpt lat="46.8478" lon="6.51306">
        <ele>1182</ele>
        <time>2022-07-17T13:18:12Z</time>
      </trkpt>
      <trkpt lat="46.84775" lon="6.51306">
        <ele>1183.1</ele>
        <time>2022-07-17T13:18:17Z</time>
      </trkpt>
      <trkpt lat="46.84773" lon="6.513">
        <ele>1183.8</ele>
        <time>2022-07-17T13:18:21Z</time>
      </trkpt>
      <trkpt lat="46.8477" lon="6.51295">
        <ele>1183.1</ele>
        <time>2022-07-17T13:18:26Z</time>
      </trkpt>
      <trkpt lat="46.84766" lon="6.5129">
        <ele>1182.3</ele>
        <time>2022-07-17T13:18:30Z</time>
      </trkpt>
      <trkpt lat="46.84762" lon="6.51285">
        <ele>1182</ele>
        <time>2022-07-17T13:18:33Z</time>
      </trkpt>
      <trkpt lat="46.8476" lon="6.51278">
        <ele>1182.2</ele>
        <time>2022-07-17T13:18:36Z</time>
      </trkpt>
      <trkpt lat="46.84758" lon="6.51272">
        <ele>1182.4</ele>
        <time>2022-07-17T13:18:40Z</time>
      </trkpt>
      <trkpt lat="46.84755" lon="6.51266">
        <ele>1182.7</ele>
        <time>2022-07-17T13:18:45Z</time>
      </trkpt>
      <trkpt lat="46.84751" lon="6.51262">
        <ele>1182.8</ele>
        <time>2022-07-17T13:18:51Z</time>
      </trkpt>
      <trkpt lat="46.84747" lon="6.51257">
        <ele>1182.1</ele>
        <time>2022-07-17T13:19:00Z</time>
      </trkpt>
      <trkpt lat="46.84744" lon="6.5125">
        <ele>1181</ele>
        <time>2022-07-17T13:19:05Z</time>
      </trkpt>
      <trkpt lat="46.8474" lon="6.51246">
        <ele>1179.9</ele>
        <time>2022-07-17T13:19:10Z</time>
      </trkpt>
      <trkpt lat="46.84735" lon="6.51243">
        <ele>1179.4</ele>
        <time>2022-07-17T13:19:14Z</time>
      </trkpt>
      <trkpt lat="46.84731" lon="6.51238">
        <ele>1179</ele>
        <time>2022-07-17T13:19:18Z</time>
      </trkpt>
      <trkpt lat="46.84727" lon="6.51234">
        <ele>1178.7</ele>
        <time>2022-07-17T13:19:23Z</time>
      </trkpt>
      <trkpt lat="46.84723" lon="6.5123">
        <ele>1178.3</ele>
        <time>2022-07-17T13:19:29Z</time>
      </trkpt>
      <trkpt lat="46.84718" lon="6.5123">
        <ele>1177.3</ele>
        <time>2022-07-17T13:19:35Z</time>
      </trkpt>
      <trkpt lat="46.84713" lon="6.51228">
        <ele>1175.4</ele>
        <time>2022-07-17T13:19:41Z</time>
      </trkpt>
      <trkpt lat="46.84709" lon="6.51224">
        <ele>1173.5</ele>
        <time>2022-07-17T13:19:47Z</time>
      </trkpt>
      <trkpt lat="46.84706" lon="6.51218">
        <ele>1171.6</ele>
        <time>2022-07-17T13:19:52Z</time>
      </trkpt>
      <trkpt lat="46.84703" lon="6.51212">
        <ele>1170.5</ele>
        <time>2022-07-17T13:19:56Z</time>
      </trkpt>
      <trkpt lat="46.84698" lon="6.51207">
        <ele>1169.4</ele>
        <time>2022-07-17T13:20:02Z</time>
      </trkpt>
      <trkpt lat="46.84694" lon="6.51203">
        <ele>1169.4</ele>
        <time>2022-07-17T13:20:06Z</time>
      </trkpt>
      <trkpt lat="46.84691" lon="6.51198">
        <ele>1169.2</ele>
        <time>2022-07-17T13:20:10Z</time>
      </trkpt>
      <trkpt lat="46.84688" lon="6.5119">
        <ele>1169</ele>
        <time>2022-07-17T13:20:14Z</time>
      </trkpt>
      <trkpt lat="46.84685" lon="6.51185">
        <ele>1168.9</ele>
        <time>2022-07-17T13:20:18Z</time>
      </trkpt>
      <trkpt lat="46.8468" lon="6.51184">
        <ele>1168.6</ele>
        <time>2022-07-17T13:20:23Z</time>
      </trkpt>
      <trkpt lat="46.84675" lon="6.51181">
        <ele>1168</ele>
        <time>2022-07-17T13:20:29Z</time>
      </trkpt>
      <trkpt lat="46.84671" lon="6.51178">
        <ele>1167.2</ele>
        <time>2022-07-17T13:20:36Z</time>
      </trkpt>
      <trkpt lat="46.84666" lon="6.51174">
        <ele>1166.5</ele>
        <time>2022-07-17T13:20:43Z</time>
      </trkpt>
      <trkpt lat="46.84662" lon="6.51171">
        <ele>1166.9</ele>
        <time>2022-07-17T13:20:47Z</time>
      </trkpt>
      <trkpt lat="46.84658" lon="6.51167">
        <ele>1167.6</ele>
        <time>2022-07-17T13:20:52Z</time>
      </trkpt>
      <trkpt lat="46.84653" lon="6.51164">
        <ele>1167</ele>
        <time>2022-07-17T13:20:58Z</time>
      </trkpt>
      <trkpt lat="46.84648" lon="6.51161">
        <ele>1166</ele>
        <time>2022-07-17T13:21:05Z</time>
      </trkpt>
      <trkpt lat="46.84643" lon="6.5116">
        <ele>1165.4</ele>
        <time>2022-07-17T13:21:10Z</time>
      </trkpt>
      <trkpt lat="46.8464" lon="6.51154">
        <ele>1163.5</ele>
        <time>2022-07-17T13:21:16Z</time>
      </trkpt>
      <trkpt lat="46.84639" lon="6.51147">
        <ele>1162.9</ele>
        <time>2022-07-17T13:21:20Z</time>
      </trkpt>
      <trkpt lat="46.84637" lon="6.5114">
        <ele>1162.4</ele>
        <time>2022-07-17T13:21:25Z</time>
      </trkpt>
      <trkpt lat="46.84633" lon="6.51143">
        <ele>1157.4</ele>
        <time>2022-07-17T13:22:03Z</time>
      </trkpt>
      <trkpt lat="46.84628" lon="6.51142">
        <ele>1155.6</ele>
        <time>2022-07-17T13:22:30Z</time>
      </trkpt>
      <trkpt lat="46.84623" lon="6.51141">
        <ele>1155.6</ele>
        <time>2022-07-17T13:22:33Z</time>
      </trkpt>
      <trkpt lat="46.8462" lon="6.51145">
        <ele>1153.7</ele>
        <time>2022-07-17T13:23:08Z</time>
      </trkpt>
      <trkpt lat="46.84617" lon="6.51139">
        <ele>1150.4</ele>
        <time>2022-07-17T13:23:25Z</time>
      </trkpt>
      <trkpt lat="46.84617" lon="6.51132">
        <ele>1150.1</ele>
        <time>2022-07-17T13:23:31Z</time>
      </trkpt>
      <trkpt lat="46.84614" lon="6.51126">
        <ele>1151</ele>
        <time>2022-07-17T13:23:37Z</time>
      </trkpt>
      <trkpt lat="46.84611" lon="6.51121">
        <ele>1153.7</ele>
        <time>2022-07-17T13:23:48Z</time>
      </trkpt>
      <trkpt lat="46.84609" lon="6.51115">
        <ele>1155.6</ele>
        <time>2022-07-17T13:23:55Z</time>
      </trkpt>
      <trkpt lat="46.84604" lon="6.51115">
        <ele>1159.8</ele>
        <time>2022-07-17T13:24:09Z</time>
      </trkpt>
      <trkpt lat="46.84599" lon="6.51109">
        <ele>1161.3</ele>
        <time>2022-07-17T13:24:21Z</time>
      </trkpt>
      <trkpt lat="46.84596" lon="6.51105">
        <ele>1159.5</ele>
        <time>2022-07-17T13:24:29Z</time>
      </trkpt>
      <trkpt lat="46.84595" lon="6.51098">
        <ele>1157.6</ele>
        <time>2022-07-17T13:24:35Z</time>
      </trkpt>
      <trkpt lat="46.84591" lon="6.51094">
        <ele>1154.7</ele>
        <time>2022-07-17T13:24:45Z</time>
      </trkpt>
      <trkpt lat="46.84586" lon="6.51094">
        <ele>1153.9</ele>
        <time>2022-07-17T13:24:50Z</time>
      </trkpt>
      <trkpt lat="46.84583" lon="6.51098">
        <ele>1153.6</ele>
        <time>2022-07-17T13:24:56Z</time>
      </trkpt>
      <trkpt lat="46.84579" lon="6.51102">
        <ele>1154.3</ele>
        <time>2022-07-17T13:25:01Z</time>
      </trkpt>
      <trkpt lat="46.84575" lon="6.51104">
        <ele>1156.1</ele>
        <time>2022-07-17T13:25:12Z</time>
      </trkpt>
      <trkpt lat="46.84573" lon="6.51097">
        <ele>1154.7</ele>
        <time>2022-07-17T13:25:16Z</time>
      </trkpt>
      <trkpt lat="46.84568" lon="6.51098">
        <ele>1154</ele>
        <time>2022-07-17T13:25:32Z</time>
      </trkpt>
      <trkpt lat="46.84563" lon="6.51093">
        <ele>1153.8</ele>
        <time>2022-07-17T13:25:41Z</time>
      </trkpt>
      <trkpt lat="46.84559" lon="6.51089">
        <ele>1153.9</ele>
        <time>2022-07-17T13:25:45Z</time>
      </trkpt>
      <trkpt lat="46.84556" lon="6.51084">
        <ele>1154.1</ele>
        <time>2022-07-17T13:25:50Z</time>
      </trkpt>
      <trkpt lat="46.84554" lon="6.51078">
        <ele>1153.7</ele>
        <time>2022-07-17T13:26:02Z</time>
      </trkpt>
      <trkpt lat="46.84558" lon="6.51082">
        <ele>1152.6</ele>
        <time>2022-07-17T13:26:15Z</time>
      </trkpt>
      <trkpt lat="46.84559" lon="6.51089">
        <ele>1150.3</ele>
        <time>2022-07-17T13:26:21Z</time>
      </trkpt>
      <trkpt lat="46.84555" lon="6.51085">
        <ele>1142</ele>
        <time>2022-07-17T13:26:33Z</time>
      </trkpt>
      <trkpt lat="46.84551" lon="6.51082">
        <ele>1139.6</ele>
        <time>2022-07-17T13:26:41Z</time>
      </trkpt>
      <trkpt lat="46.84548" lon="6.51076">
        <ele>1138.6</ele>
        <time>2022-07-17T13:26:57Z</time>
      </trkpt>
      <trkpt lat="46.84543" lon="6.51079">
        <ele>1135.2</ele>
        <time>2022-07-17T13:27:11Z</time>
      </trkpt>
      <trkpt lat="46.84539" lon="6.51079">
        <ele>1132.4</ele>
        <time>2022-07-17T13:27:25Z</time>
      </trkpt>
      <trkpt lat="46.84539" lon="6.5107">
        <ele>1132.2</ele>
        <time>2022-07-17T13:27:29Z</time>
      </trkpt>
      <trkpt lat="46.84537" lon="6.51064">
        <ele>1132.4</ele>
        <time>2022-07-17T13:27:38Z</time>
      </trkpt>
      <trkpt lat="46.84534" lon="6.51069">
        <ele>1132.5</ele>
        <time>2022-07-17T13:27:46Z</time>
      </trkpt>
      <trkpt lat="46.84532" lon="6.51062">
        <ele>1132.6</ele>
        <time>2022-07-17T13:27:50Z</time>
      </trkpt>
      <trkpt lat="46.84528" lon="6.51058">
        <ele>1133</ele>
        <time>2022-07-17T13:27:59Z</time>
      </trkpt>
      <trkpt lat="46.84528" lon="6.51067">
        <ele>1130.7</ele>
        <time>2022-07-17T13:28:18Z</time>
      </trkpt>
      <trkpt lat="46.84529" lon="6.51073">
        <ele>1129</ele>
        <time>2022-07-17T13:28:22Z</time>
      </trkpt>
      <trkpt lat="46.84529" lon="6.51066">
        <ele>1127.4</ele>
        <time>2022-07-17T13:28:29Z</time>
      </trkpt>
      <trkpt lat="46.84525" lon="6.51064">
        <ele>1126.5</ele>
        <time>2022-07-17T13:28:41Z</time>
      </trkpt>
      <trkpt lat="46.84522" lon="6.5107">
        <ele>1125</ele>
        <time>2022-07-17T13:28:54Z</time>
      </trkpt>
      <trkpt lat="46.84518" lon="6.51064">
        <ele>1124</ele>
        <time>2022-07-17T13:29:02Z</time>
      </trkpt>
      <trkpt lat="46.84522" lon="6.51073">
        <ele>1123.4</ele>
        <time>2022-07-17T13:29:07Z</time>
      </trkpt>
      <trkpt lat="46.84523" lon="6.51081">
        <ele>1123</ele>
        <time>2022-07-17T13:29:11Z</time>
      </trkpt>
      <trkpt lat="46.84518" lon="6.51084">
        <ele>1122.7</ele>
        <time>2022-07-17T13:29:15Z</time>
      </trkpt>
      <trkpt lat="46.84514" lon="6.51077">
        <ele>1121.9</ele>
        <time>2022-07-17T13:29:21Z</time>
      </trkpt>
      <trkpt lat="46.84515" lon="6.51067">
        <ele>1121.3</ele>
        <time>2022-07-17T13:29:24Z</time>
      </trkpt>
      <trkpt lat="46.84519" lon="6.51062">
        <ele>1120.3</ele>
        <time>2022-07-17T13:29:29Z</time>
      </trkpt>
      <trkpt lat="46.84516" lon="6.51056">
        <ele>1117.8</ele>
        <time>2022-07-17T13:30:18Z</time>
      </trkpt>
      <trkpt lat="46.84516" lon="6.51049">
        <ele>1116.4</ele>
        <time>2022-07-17T13:30:27Z</time>
      </trkpt>
      <trkpt lat="46.84514" lon="6.51043">
        <ele>1116.2</ele>
        <time>2022-07-17T13:30:33Z</time>
      </trkpt>
      <trkpt lat="46.84509" lon="6.51039">
        <ele>1116.5</ele>
        <time>2022-07-17T13:30:41Z</time>
      </trkpt>
      <trkpt lat="46.84505" lon="6.51042">
        <ele>1115.8</ele>
        <time>2022-07-17T13:30:53Z</time>
      </trkpt>
      <trkpt lat="46.84503" lon="6.51035">
        <ele>1115.6</ele>
        <time>2022-07-17T13:30:58Z</time>
      </trkpt>
      <trkpt lat="46.84502" lon="6.51028">
        <ele>1115.1</ele>
        <time>2022-07-17T13:31:02Z</time>
      </trkpt>
      <trkpt lat="46.84498" lon="6.51024">
        <ele>1114.8</ele>
        <time>2022-07-17T13:31:14Z</time>
      </trkpt>
      <trkpt lat="46.84494" lon="6.51024">
        <ele>1113.8</ele>
        <time>2022-07-17T13:31:22Z</time>
      </trkpt>
      <trkpt lat="46.84489" lon="6.51023">
        <ele>1112.5</ele>
        <time>2022-07-17T13:31:26Z</time>
      </trkpt>
      <trkpt lat="46.8449" lon="6.5103">
        <ele>1110.3</ele>
        <time>2022-07-17T13:31:37Z</time>
      </trkpt>
      <trkpt lat="46.84485" lon="6.51029">
        <ele>1109.9</ele>
        <time>2022-07-17T13:31:44Z</time>
      </trkpt>
      <trkpt lat="46.8448" lon="6.51026">
        <ele>1109.7</ele>
        <time>2022-07-17T13:31:48Z</time>
      </trkpt>
      <trkpt lat="46.84476" lon="6.51021">
        <ele>1106</ele>
        <time>2022-07-17T13:32:20Z</time>
      </trkpt>
      <trkpt lat="46.84476" lon="6.51013">
        <ele>1102.6</ele>
        <time>2022-07-17T13:32:42Z</time>
      </trkpt>
      <trkpt lat="46.84473" lon="6.51006">
        <ele>1102.3</ele>
        <time>2022-07-17T13:32:45Z</time>
      </trkpt>
      <trkpt lat="46.84469" lon="6.51002">
        <ele>1102.2</ele>
        <time>2022-07-17T13:32:56Z</time>
      </trkpt>
      <trkpt lat="46.84464" lon="6.51003">
        <ele>1102.2</ele>
        <time>2022-07-17T13:33:15Z</time>
      </trkpt>
      <trkpt lat="46.84469" lon="6.51009">
        <ele>1102.4</ele>
        <time>2022-07-17T13:33:20Z</time>
      </trkpt>
      <trkpt lat="46.84474" lon="6.51017">
        <ele>1102.7</ele>
        <time>2022-07-17T13:33:23Z</time>
      </trkpt>
      <trkpt lat="46.84479" lon="6.51023">
        <ele>1102.6</ele>
        <time>2022-07-17T13:33:26Z</time>
      </trkpt>
      <trkpt lat="46.84485" lon="6.5103">
        <ele>1102.6</ele>
        <time>2022-07-17T13:33:29Z</time>
      </trkpt>
      <trkpt lat="46.84488" lon="6.51026">
        <ele>1103.9</ele>
        <time>2022-07-17T13:34:00Z</time>
      </trkpt>
      <trkpt lat="46.84486" lon="6.51019">
        <ele>1105.8</ele>
        <time>2022-07-17T13:34:15Z</time>
      </trkpt>
      <trkpt lat="46.84484" lon="6.51013">
        <ele>1106.7</ele>
        <time>2022-07-17T13:34:21Z</time>
      </trkpt>
      <trkpt lat="46.84486" lon="6.51008">
        <ele>1107.8</ele>
        <time>2022-07-17T13:34:25Z</time>
      </trkpt>
      <trkpt lat="46.84487" lon="6.51001">
        <ele>1108.6</ele>
        <time>2022-07-17T13:34:29Z</time>
      </trkpt>
      <trkpt lat="46.84485" lon="6.50994">
        <ele>1110.2</ele>
        <time>2022-07-17T13:34:35Z</time>
      </trkpt>
      <trkpt lat="46.84481" lon="6.50993">
        <ele>1111.8</ele>
        <time>2022-07-17T13:34:41Z</time>
      </trkpt>
      <trkpt lat="46.84482" lon="6.50986">
        <ele>1112.3</ele>
        <time>2022-07-17T13:34:48Z</time>
      </trkpt>
      <trkpt lat="46.84482" lon="6.50979">
        <ele>1112.5</ele>
        <time>2022-07-17T13:34:57Z</time>
      </trkpt>
      <trkpt lat="46.84478" lon="6.50976">
        <ele>1110.8</ele>
        <time>2022-07-17T13:35:21Z</time>
      </trkpt>
      <trkpt lat="46.84474" lon="6.50971">
        <ele>1109.7</ele>
        <time>2022-07-17T13:35:27Z</time>
      </trkpt>
      <trkpt lat="46.84469" lon="6.50966">
        <ele>1109</ele>
        <time>2022-07-17T13:35:37Z</time>
      </trkpt>
      <trkpt lat="46.84464" lon="6.50963">
        <ele>1109.2</ele>
        <time>2022-07-17T13:35:45Z</time>
      </trkpt>
      <trkpt lat="46.84459" lon="6.5096">
        <ele>1109.8</ele>
        <time>2022-07-17T13:35:50Z</time>
      </trkpt>
      <trkpt lat="46.84456" lon="6.50956">
        <ele>1110.8</ele>
        <time>2022-07-17T13:36:01Z</time>
      </trkpt>
      <trkpt lat="46.84453" lon="6.50946">
        <ele>1113.5</ele>
        <time>2022-07-17T13:36:36Z</time>
      </trkpt>
      <trkpt lat="46.84453" lon="6.50939">
        <ele>1117.8</ele>
        <time>2022-07-17T13:36:43Z</time>
      </trkpt>
      <trkpt lat="46.84458" lon="6.50939">
        <ele>1125.1</ele>
        <time>2022-07-17T13:37:09Z</time>
      </trkpt>
      <trkpt lat="46.84454" lon="6.50929">
        <ele>1131.9</ele>
        <time>2022-07-17T13:37:55Z</time>
      </trkpt>
      <trkpt lat="46.84453" lon="6.50922">
        <ele>1132</ele>
        <time>2022-07-17T13:37:59Z</time>
      </trkpt>
      <trkpt lat="46.84448" lon="6.50922">
        <ele>1132.3</ele>
        <time>2022-07-17T13:38:16Z</time>
      </trkpt>
      <trkpt lat="46.84444" lon="6.50925">
        <ele>1132.7</ele>
        <time>2022-07-17T13:38:20Z</time>
      </trkpt>
      <trkpt lat="46.8444" lon="6.50928">
        <ele>1135.6</ele>
        <time>2022-07-17T13:38:36Z</time>
      </trkpt>
      <trkpt lat="46.8444" lon="6.50921">
        <ele>1136.9</ele>
        <time>2022-07-17T13:38:41Z</time>
      </trkpt>
      <trkpt lat="46.84443" lon="6.50915">
        <ele>1137.7</ele>
        <time>2022-07-17T13:39:01Z</time>
      </trkpt>
      <trkpt lat="46.84441" lon="6.50907">
        <ele>1137.7</ele>
        <time>2022-07-17T13:39:06Z</time>
      </trkpt>
      <trkpt lat="46.84439" lon="6.509">
        <ele>1137.5</ele>
        <time>2022-07-17T13:39:11Z</time>
      </trkpt>
      <trkpt lat="46.84437" lon="6.50895">
        <ele>1137</ele>
        <time>2022-07-17T13:39:15Z</time>
      </trkpt>
      <trkpt lat="46.84435" lon="6.50888">
        <ele>1135.5</ele>
        <time>2022-07-17T13:39:20Z</time>
      </trkpt>
      <trkpt lat="46.84433" lon="6.50881">
        <ele>1133.4</ele>
        <time>2022-07-17T13:39:27Z</time>
      </trkpt>
      <trkpt lat="46.84428" lon="6.50878">
        <ele>1132.6</ele>
        <time>2022-07-17T13:39:36Z</time>
      </trkpt>
      <trkpt lat="46.84423" lon="6.50877">
        <ele>1132.5</ele>
        <time>2022-07-17T13:39:42Z</time>
      </trkpt>
      <trkpt lat="46.84418" lon="6.50876">
        <ele>1132.4</ele>
        <time>2022-07-17T13:39:47Z</time>
      </trkpt>
      <trkpt lat="46.84413" lon="6.50875">
        <ele>1132.1</ele>
        <time>2022-07-17T13:39:52Z</time>
      </trkpt>
      <trkpt lat="46.84408" lon="6.50873">
        <ele>1131.3</ele>
        <time>2022-07-17T13:39:58Z</time>
      </trkpt>
      <trkpt lat="46.84404" lon="6.50869">
        <ele>1130.1</ele>
        <time>2022-07-17T13:40:04Z</time>
      </trkpt>
      <trkpt lat="46.844" lon="6.50869">
        <ele>1129.9</ele>
        <time>2022-07-17T13:40:13Z</time>
      </trkpt>
      <trkpt lat="46.84394" lon="6.50872">
        <ele>1130.4</ele>
        <time>2022-07-17T13:40:18Z</time>
      </trkpt>
      <trkpt lat="46.84389" lon="6.50873">
        <ele>1130.8</ele>
        <time>2022-07-17T13:40:23Z</time>
      </trkpt>
      <trkpt lat="46.84384" lon="6.50871">
        <ele>1131.4</ele>
        <time>2022-07-17T13:40:28Z</time>
      </trkpt>
      <trkpt lat="46.84381" lon="6.50866">
        <ele>1132.9</ele>
        <time>2022-07-17T13:40:35Z</time>
      </trkpt>
      <trkpt lat="46.84376" lon="6.50863">
        <ele>1134.1</ele>
        <time>2022-07-17T13:40:41Z</time>
      </trkpt>
      <trkpt lat="46.84373" lon="6.50858">
        <ele>1134.7</ele>
        <time>2022-07-17T13:40:45Z</time>
      </trkpt>
      <trkpt lat="46.8437" lon="6.50851">
        <ele>1135.4</ele>
        <time>2022-07-17T13:40:49Z</time>
      </trkpt>
      <trkpt lat="46.84367" lon="6.50847">
        <ele>1135.6</ele>
        <time>2022-07-17T13:40:53Z</time>
      </trkpt>
      <trkpt lat="46.84363" lon="6.50842">
        <ele>1135.6</ele>
        <time>2022-07-17T13:41:00Z</time>
      </trkpt>
      <trkpt lat="46.84363" lon="6.50835">
        <ele>1136</ele>
        <time>2022-07-17T13:41:05Z</time>
      </trkpt>
      <trkpt lat="46.84363" lon="6.50828">
        <ele>1136.5</ele>
        <time>2022-07-17T13:41:11Z</time>
      </trkpt>
      <trkpt lat="46.8436" lon="6.50822">
        <ele>1137.3</ele>
        <time>2022-07-17T13:41:26Z</time>
      </trkpt>
      <trkpt lat="46.84358" lon="6.50815">
        <ele>1137.8</ele>
        <time>2022-07-17T13:41:31Z</time>
      </trkpt>
      <trkpt lat="46.84355" lon="6.5081">
        <ele>1137.9</ele>
        <time>2022-07-17T13:41:36Z</time>
      </trkpt>
      <trkpt lat="46.84351" lon="6.50807">
        <ele>1138.5</ele>
        <time>2022-07-17T13:41:41Z</time>
      </trkpt>
      <trkpt lat="46.84347" lon="6.50802">
        <ele>1139.5</ele>
        <time>2022-07-17T13:41:47Z</time>
      </trkpt>
      <trkpt lat="46.84343" lon="6.50798">
        <ele>1140.1</ele>
        <time>2022-07-17T13:41:52Z</time>
      </trkpt>
      <trkpt lat="46.84338" lon="6.50796">
        <ele>1141.1</ele>
        <time>2022-07-17T13:41:59Z</time>
      </trkpt>
      <trkpt lat="46.84335" lon="6.50791">
        <ele>1142.2</ele>
        <time>2022-07-17T13:42:06Z</time>
      </trkpt>
      <trkpt lat="46.84336" lon="6.50784">
        <ele>1144.6</ele>
        <time>2022-07-17T13:42:58Z</time>
      </trkpt>
      <trkpt lat="46.84335" lon="6.50777">
        <ele>1149.7</ele>
        <time>2022-07-17T13:43:25Z</time>
      </trkpt>
      <trkpt lat="46.84331" lon="6.50776">
        <ele>1151.1</ele>
        <time>2022-07-17T13:43:35Z</time>
      </trkpt>
      <trkpt lat="46.84326" lon="6.50774">
        <ele>1151</ele>
        <time>2022-07-17T13:43:44Z</time>
      </trkpt>
      <trkpt lat="46.84321" lon="6.5077">
        <ele>1150.9</ele>
        <time>2022-07-17T13:43:51Z</time>
      </trkpt>
      <trkpt lat="46.84317" lon="6.50766">
        <ele>1151.4</ele>
        <time>2022-07-17T13:43:56Z</time>
      </trkpt>
      <trkpt lat="46.84312" lon="6.50764">
        <ele>1152</ele>
        <time>2022-07-17T13:44:01Z</time>
      </trkpt>
      <trkpt lat="46.84308" lon="6.50761">
        <ele>1152.2</ele>
        <time>2022-07-17T13:44:09Z</time>
      </trkpt>
      <trkpt lat="46.84302" lon="6.50759">
        <ele>1152.5</ele>
        <time>2022-07-17T13:44:15Z</time>
      </trkpt>
      <trkpt lat="46.84297" lon="6.5076">
        <ele>1153.1</ele>
        <time>2022-07-17T13:44:21Z</time>
      </trkpt>
      <trkpt lat="46.84292" lon="6.50762">
        <ele>1153.3</ele>
        <time>2022-07-17T13:44:27Z</time>
      </trkpt>
      <trkpt lat="46.84287" lon="6.50762">
        <ele>1153</ele>
        <time>2022-07-17T13:44:32Z</time>
      </trkpt>
      <trkpt lat="46.84282" lon="6.50761">
        <ele>1152.7</ele>
        <time>2022-07-17T13:44:37Z</time>
      </trkpt>
      <trkpt lat="46.84276" lon="6.50763">
        <ele>1152.5</ele>
        <time>2022-07-17T13:44:44Z</time>
      </trkpt>
      <trkpt lat="46.84272" lon="6.50763">
        <ele>1152.6</ele>
        <time>2022-07-17T13:44:50Z</time>
      </trkpt>
      <trkpt lat="46.84268" lon="6.50758">
        <ele>1152.3</ele>
        <time>2022-07-17T13:44:58Z</time>
      </trkpt>
      <trkpt lat="46.84264" lon="6.50753">
        <ele>1152.3</ele>
        <time>2022-07-17T13:45:08Z</time>
      </trkpt>
      <trkpt lat="46.8426" lon="6.5075">
        <ele>1152.3</ele>
        <time>2022-07-17T13:45:13Z</time>
      </trkpt>
      <trkpt lat="46.84256" lon="6.50745">
        <ele>1153.3</ele>
        <time>2022-07-17T13:45:20Z</time>
      </trkpt>
      <trkpt lat="46.84251" lon="6.50742">
        <ele>1154.5</ele>
        <time>2022-07-17T13:45:29Z</time>
      </trkpt>
      <trkpt lat="46.84247" lon="6.5074">
        <ele>1155.1</ele>
        <time>2022-07-17T13:45:37Z</time>
      </trkpt>
      <trkpt lat="46.84242" lon="6.50737">
        <ele>1155.4</ele>
        <time>2022-07-17T13:45:42Z</time>
      </trkpt>
      <trkpt lat="46.84237" lon="6.50735">
        <ele>1154.8</ele>
        <time>2022-07-17T13:45:46Z</time>
      </trkpt>
      <trkpt lat="46.84233" lon="6.50733">
        <ele>1154.3</ele>
        <time>2022-07-17T13:45:54Z</time>
      </trkpt>
      <trkpt lat="46.84228" lon="6.50729">
        <ele>1155.6</ele>
        <time>2022-07-17T13:46:03Z</time>
      </trkpt>
      <trkpt lat="46.84225" lon="6.50724">
        <ele>1156.5</ele>
        <time>2022-07-17T13:46:07Z</time>
      </trkpt>
      <trkpt lat="46.8422" lon="6.50722">
        <ele>1158.7</ele>
        <time>2022-07-17T13:46:17Z</time>
      </trkpt>
      <trkpt lat="46.84217" lon="6.50717">
        <ele>1160.9</ele>
        <time>2022-07-17T13:46:26Z</time>
      </trkpt>
      <trkpt lat="46.84214" lon="6.50711">
        <ele>1162.5</ele>
        <time>2022-07-17T13:46:32Z</time>
      </trkpt>
      <trkpt lat="46.84209" lon="6.50708">
        <ele>1163.3</ele>
        <time>2022-07-17T13:46:37Z</time>
      </trkpt>
      <trkpt lat="46.84204" lon="6.50706">
        <ele>1163.3</ele>
        <time>2022-07-17T13:46:41Z</time>
      </trkpt>
      <trkpt lat="46.84199" lon="6.50707">
        <ele>1162.8</ele>
        <time>2022-07-17T13:46:52Z</time>
      </trkpt>
      <trkpt lat="46.84194" lon="6.50708">
        <ele>1163.3</ele>
        <time>2022-07-17T13:46:58Z</time>
      </trkpt>
      <trkpt lat="46.84189" lon="6.50706">
        <ele>1164</ele>
        <time>2022-07-17T13:47:03Z</time>
      </trkpt>
      <trkpt lat="46.84185" lon="6.50702">
        <ele>1166</ele>
        <time>2022-07-17T13:47:12Z</time>
      </trkpt>
      <trkpt lat="46.84181" lon="6.50699">
        <ele>1167.6</ele>
        <time>2022-07-17T13:47:19Z</time>
      </trkpt>
      <trkpt lat="46.84176" lon="6.50696">
        <ele>1168.6</ele>
        <time>2022-07-17T13:47:25Z</time>
      </trkpt>
      <trkpt lat="46.84171" lon="6.50694">
        <ele>1168.9</ele>
        <time>2022-07-17T13:47:32Z</time>
      </trkpt>
      <trkpt lat="46.84167" lon="6.50693">
        <ele>1168.6</ele>
        <time>2022-07-17T13:47:38Z</time>
      </trkpt>
      <trkpt lat="46.84164" lon="6.50688">
        <ele>1168.7</ele>
        <time>2022-07-17T13:47:47Z</time>
      </trkpt>
      <trkpt lat="46.84161" lon="6.50682">
        <ele>1169.5</ele>
        <time>2022-07-17T13:47:52Z</time>
      </trkpt>
      <trkpt lat="46.84157" lon="6.50677">
        <ele>1170.1</ele>
        <time>2022-07-17T13:47:56Z</time>
      </trkpt>
      <trkpt lat="46.84152" lon="6.50675">
        <ele>1170.4</ele>
        <time>2022-07-17T13:48:01Z</time>
      </trkpt>
      <trkpt lat="46.84147" lon="6.50675">
        <ele>1169.9</ele>
        <time>2022-07-17T13:48:06Z</time>
      </trkpt>
      <trkpt lat="46.84142" lon="6.50672">
        <ele>1167.5</ele>
        <time>2022-07-17T13:48:15Z</time>
      </trkpt>
      <trkpt lat="46.84137" lon="6.50669">
        <ele>1167.7</ele>
        <time>2022-07-17T13:48:24Z</time>
      </trkpt>
      <trkpt lat="46.84132" lon="6.50668">
        <ele>1167.8</ele>
        <time>2022-07-17T13:48:29Z</time>
      </trkpt>
      <trkpt lat="46.84128" lon="6.50665">
        <ele>1169.1</ele>
        <time>2022-07-17T13:48:35Z</time>
      </trkpt>
      <trkpt lat="46.84126" lon="6.50659">
        <ele>1173.9</ele>
        <time>2022-07-17T13:48:43Z</time>
      </trkpt>
      <trkpt lat="46.84121" lon="6.50659">
        <ele>1176.7</ele>
        <time>2022-07-17T13:48:48Z</time>
      </trkpt>
      <trkpt lat="46.84115" lon="6.50657">
        <ele>1184.3</ele>
        <time>2022-07-17T13:49:01Z</time>
      </trkpt>
      <trkpt lat="46.84109" lon="6.50652">
        <ele>1186.5</ele>
        <time>2022-07-17T13:49:04Z</time>
      </trkpt>
      <trkpt lat="46.84106" lon="6.50647">
        <ele>1188</ele>
        <time>2022-07-17T13:49:07Z</time>
      </trkpt>
      <trkpt lat="46.84103" lon="6.50641">
        <ele>1189.8</ele>
        <time>2022-07-17T13:49:12Z</time>
      </trkpt>
      <trkpt lat="46.841" lon="6.50636">
        <ele>1190.9</ele>
        <time>2022-07-17T13:49:17Z</time>
      </trkpt>
      <trkpt lat="46.84096" lon="6.50632">
        <ele>1191.3</ele>
        <time>2022-07-17T13:49:26Z</time>
      </trkpt>
      <trkpt lat="46.84091" lon="6.50631">
        <ele>1191.4</ele>
        <time>2022-07-17T13:49:30Z</time>
      </trkpt>
      <trkpt lat="46.84087" lon="6.50631">
        <ele>1190.5</ele>
        <time>2022-07-17T13:49:39Z</time>
      </trkpt>
      <trkpt lat="46.84081" lon="6.50632">
        <ele>1189.7</ele>
        <time>2022-07-17T13:49:52Z</time>
      </trkpt>
      <trkpt lat="46.84077" lon="6.50628">
        <ele>1190.6</ele>
        <time>2022-07-17T13:49:58Z</time>
      </trkpt>
      <trkpt lat="46.84074" lon="6.50624">
        <ele>1192.1</ele>
        <time>2022-07-17T13:50:04Z</time>
      </trkpt>
      <trkpt lat="46.84071" lon="6.50618">
        <ele>1193.4</ele>
        <time>2022-07-17T13:50:09Z</time>
      </trkpt>
      <trkpt lat="46.84068" lon="6.50612">
        <ele>1194</ele>
        <time>2022-07-17T13:50:14Z</time>
      </trkpt>
      <trkpt lat="46.84064" lon="6.5061">
        <ele>1194.7</ele>
        <time>2022-07-17T13:50:24Z</time>
      </trkpt>
      <trkpt lat="46.84064" lon="6.50603">
        <ele>1195</ele>
        <time>2022-07-17T13:50:30Z</time>
      </trkpt>
      <trkpt lat="46.8406" lon="6.50599">
        <ele>1194.7</ele>
        <time>2022-07-17T13:50:37Z</time>
      </trkpt>
      <trkpt lat="46.84057" lon="6.50594">
        <ele>1195.5</ele>
        <time>2022-07-17T13:50:42Z</time>
      </trkpt>
      <trkpt lat="46.84053" lon="6.50591">
        <ele>1198</ele>
        <time>2022-07-17T13:50:52Z</time>
      </trkpt>
      <trkpt lat="46.84049" lon="6.50588">
        <ele>1199.8</ele>
        <time>2022-07-17T13:50:58Z</time>
      </trkpt>
      <trkpt lat="46.84045" lon="6.50584">
        <ele>1200.9</ele>
        <time>2022-07-17T13:51:02Z</time>
      </trkpt>
      <trkpt lat="46.84041" lon="6.50578">
        <ele>1201.8</ele>
        <time>2022-07-17T13:51:06Z</time>
      </trkpt>
      <trkpt lat="46.84037" lon="6.50573">
        <ele>1203.2</ele>
        <time>2022-07-17T13:51:10Z</time>
      </trkpt>
      <trkpt lat="46.84032" lon="6.5057">
        <ele>1204.7</ele>
        <time>2022-07-17T13:51:14Z</time>
      </trkpt>
      <trkpt lat="46.84028" lon="6.50565">
        <ele>1206.2</ele>
        <time>2022-07-17T13:51:19Z</time>
      </trkpt>
      <trkpt lat="46.84025" lon="6.50561">
        <ele>1208.4</ele>
        <time>2022-07-17T13:51:26Z</time>
      </trkpt>
      <trkpt lat="46.8402" lon="6.50558">
        <ele>1210</ele>
        <time>2022-07-17T13:51:35Z</time>
      </trkpt>
      <trkpt lat="46.84016" lon="6.50554">
        <ele>1209.5</ele>
        <time>2022-07-17T13:51:42Z</time>
      </trkpt>
      <trkpt lat="46.84014" lon="6.50548">
        <ele>1208.7</ele>
        <time>2022-07-17T13:51:50Z</time>
      </trkpt>
      <trkpt lat="46.84011" lon="6.50542">
        <ele>1208.3</ele>
        <time>2022-07-17T13:51:56Z</time>
      </trkpt>
      <trkpt lat="46.84008" lon="6.50537">
        <ele>1207.5</ele>
        <time>2022-07-17T13:52:01Z</time>
      </trkpt>
      <trkpt lat="46.84004" lon="6.50533">
        <ele>1206.6</ele>
        <time>2022-07-17T13:52:06Z</time>
      </trkpt>
      <trkpt lat="46.84" lon="6.5053">
        <ele>1205.5</ele>
        <time>2022-07-17T13:52:13Z</time>
      </trkpt>
      <trkpt lat="46.83996" lon="6.50525">
        <ele>1203.7</ele>
        <time>2022-07-17T13:52:22Z</time>
      </trkpt>
      <trkpt lat="46.83992" lon="6.50521">
        <ele>1202.5</ele>
        <time>2022-07-17T13:52:29Z</time>
      </trkpt>
      <trkpt lat="46.83987" lon="6.50518">
        <ele>1202</ele>
        <time>2022-07-17T13:52:42Z</time>
      </trkpt>
      <trkpt lat="46.83984" lon="6.50514">
        <ele>1202.5</ele>
        <time>2022-07-17T13:52:47Z</time>
      </trkpt>
      <trkpt lat="46.8398" lon="6.5051">
        <ele>1202.9</ele>
        <time>2022-07-17T13:52:55Z</time>
      </trkpt>
      <trkpt lat="46.83975" lon="6.50507">
        <ele>1203.2</ele>
        <time>2022-07-17T13:53:01Z</time>
      </trkpt>
      <trkpt lat="46.83971" lon="6.50503">
        <ele>1203.6</ele>
        <time>2022-07-17T13:53:07Z</time>
      </trkpt>
      <trkpt lat="46.83966" lon="6.505">
        <ele>1204</ele>
        <time>2022-07-17T13:53:12Z</time>
      </trkpt>
      <trkpt lat="46.83964" lon="6.50493">
        <ele>1204.6</ele>
        <time>2022-07-17T13:53:20Z</time>
      </trkpt>
      <trkpt lat="46.83969" lon="6.50495">
        <ele>1203.5</ele>
        <time>2022-07-17T13:53:47Z</time>
      </trkpt>
      <trkpt lat="46.83966" lon="6.50491">
        <ele>1202.6</ele>
        <time>2022-07-17T13:54:01Z</time>
      </trkpt>
      <trkpt lat="46.83961" lon="6.50488">
        <ele>1201.3</ele>
        <time>2022-07-17T13:54:09Z</time>
      </trkpt>
      <trkpt lat="46.83956" lon="6.50485">
        <ele>1201.1</ele>
        <time>2022-07-17T13:54:21Z</time>
      </trkpt>
      <trkpt lat="46.83952" lon="6.50482">
        <ele>1201.9</ele>
        <time>2022-07-17T13:54:27Z</time>
      </trkpt>
      <trkpt lat="46.83948" lon="6.50477">
        <ele>1202.5</ele>
        <time>2022-07-17T13:54:33Z</time>
      </trkpt>
      <trkpt lat="46.83943" lon="6.50473">
        <ele>1203.6</ele>
        <time>2022-07-17T13:54:42Z</time>
      </trkpt>
      <trkpt lat="46.8394" lon="6.50469">
        <ele>1203.8</ele>
        <time>2022-07-17T13:54:48Z</time>
      </trkpt>
      <trkpt lat="46.83937" lon="6.50463">
        <ele>1204.1</ele>
        <time>2022-07-17T13:54:54Z</time>
      </trkpt>
      <trkpt lat="46.83935" lon="6.50456">
        <ele>1204</ele>
        <time>2022-07-17T13:54:59Z</time>
      </trkpt>
      <trkpt lat="46.83931" lon="6.50451">
        <ele>1203.7</ele>
        <time>2022-07-17T13:55:05Z</time>
      </trkpt>
      <trkpt lat="46.83927" lon="6.50448">
        <ele>1203.4</ele>
        <time>2022-07-17T13:55:11Z</time>
      </trkpt>
      <trkpt lat="46.83923" lon="6.50445">
        <ele>1202.9</ele>
        <time>2022-07-17T13:55:16Z</time>
      </trkpt>
      <trkpt lat="46.83918" lon="6.5044">
        <ele>1202.3</ele>
        <time>2022-07-17T13:55:22Z</time>
      </trkpt>
      <trkpt lat="46.83914" lon="6.50439">
        <ele>1200.9</ele>
        <time>2022-07-17T13:55:28Z</time>
      </trkpt>
      <trkpt lat="46.83909" lon="6.50441">
        <ele>1199.7</ele>
        <time>2022-07-17T13:56:06Z</time>
      </trkpt>
      <trkpt lat="46.83903" lon="6.50438">
        <ele>1201.3</ele>
        <time>2022-07-17T13:56:11Z</time>
      </trkpt>
      <trkpt lat="46.83899" lon="6.50434">
        <ele>1203.2</ele>
        <time>2022-07-17T13:56:16Z</time>
      </trkpt>
      <trkpt lat="46.83896" lon="6.50428">
        <ele>1203.4</ele>
        <time>2022-07-17T13:56:21Z</time>
      </trkpt>
      <trkpt lat="46.83893" lon="6.50422">
        <ele>1204.3</ele>
        <time>2022-07-17T13:56:26Z</time>
      </trkpt>
      <trkpt lat="46.8389" lon="6.50416">
        <ele>1206.2</ele>
        <time>2022-07-17T13:56:33Z</time>
      </trkpt>
      <trkpt lat="46.83888" lon="6.50409">
        <ele>1207.3</ele>
        <time>2022-07-17T13:56:39Z</time>
      </trkpt>
      <trkpt lat="46.83886" lon="6.50403">
        <ele>1207.8</ele>
        <time>2022-07-17T13:56:46Z</time>
      </trkpt>
      <trkpt lat="46.83884" lon="6.50397">
        <ele>1207.2</ele>
        <time>2022-07-17T13:56:52Z</time>
      </trkpt>
      <trkpt lat="46.8388" lon="6.50392">
        <ele>1206.3</ele>
        <time>2022-07-17T13:57:01Z</time>
      </trkpt>
      <trkpt lat="46.83876" lon="6.50386">
        <ele>1206.1</ele>
        <time>2022-07-17T13:57:06Z</time>
      </trkpt>
      <trkpt lat="46.83871" lon="6.50382">
        <ele>1206.4</ele>
        <time>2022-07-17T13:57:11Z</time>
      </trkpt>
      <trkpt lat="46.83867" lon="6.5038">
        <ele>1206</ele>
        <time>2022-07-17T13:57:18Z</time>
      </trkpt>
      <trkpt lat="46.83861" lon="6.50379">
        <ele>1205</ele>
        <time>2022-07-17T13:57:25Z</time>
      </trkpt>
      <trkpt lat="46.83857" lon="6.50379">
        <ele>1204.2</ele>
        <time>2022-07-17T13:57:30Z</time>
      </trkpt>
      <trkpt lat="46.83852" lon="6.50379">
        <ele>1204.2</ele>
        <time>2022-07-17T13:57:34Z</time>
      </trkpt>
      <trkpt lat="46.83847" lon="6.50378">
        <ele>1204.5</ele>
        <time>2022-07-17T13:57:39Z</time>
      </trkpt>
      <trkpt lat="46.83842" lon="6.50377">
        <ele>1205.1</ele>
        <time>2022-07-17T13:57:45Z</time>
      </trkpt>
      <trkpt lat="46.83838" lon="6.50379">
        <ele>1204.8</ele>
        <time>2022-07-17T13:57:55Z</time>
      </trkpt>
      <trkpt lat="46.83836" lon="6.50386">
        <ele>1204</ele>
        <time>2022-07-17T13:58:02Z</time>
      </trkpt>
      <trkpt lat="46.83835" lon="6.50393">
        <ele>1203.7</ele>
        <time>2022-07-17T13:58:08Z</time>
      </trkpt>
      <trkpt lat="46.83832" lon="6.50399">
        <ele>1203.8</ele>
        <time>2022-07-17T13:58:13Z</time>
      </trkpt>
      <trkpt lat="46.83828" lon="6.50405">
        <ele>1204.3</ele>
        <time>2022-07-17T13:58:17Z</time>
      </trkpt>
      <trkpt lat="46.83825" lon="6.5041">
        <ele>1204.3</ele>
        <time>2022-07-17T13:58:23Z</time>
      </trkpt>
      <trkpt lat="46.83821" lon="6.50414">
        <ele>1204.1</ele>
        <time>2022-07-17T13:58:28Z</time>
      </trkpt>
      <trkpt lat="46.83817" lon="6.50417">
        <ele>1203.4</ele>
        <time>2022-07-17T13:58:34Z</time>
      </trkpt>
      <trkpt lat="46.83812" lon="6.50418">
        <ele>1202.9</ele>
        <time>2022-07-17T13:58:40Z</time>
      </trkpt>
      <trkpt lat="46.83807" lon="6.50418">
        <ele>1202.4</ele>
        <time>2022-07-17T13:58:46Z</time>
      </trkpt>
      <trkpt lat="46.83803" lon="6.5042">
        <ele>1202.6</ele>
        <time>2022-07-17T13:58:52Z</time>
      </trkpt>
      <trkpt lat="46.83798" lon="6.50424">
        <ele>1203.2</ele>
        <time>2022-07-17T13:58:56Z</time>
      </trkpt>
      <trkpt lat="46.83794" lon="6.50427">
        <ele>1204</ele>
        <time>2022-07-17T13:59:01Z</time>
      </trkpt>
      <trkpt lat="46.83789" lon="6.5043">
        <ele>1204.9</ele>
        <time>2022-07-17T13:59:07Z</time>
      </trkpt>
      <trkpt lat="46.83787" lon="6.50437">
        <ele>1205.4</ele>
        <time>2022-07-17T13:59:13Z</time>
      </trkpt>
      <trkpt lat="46.83784" lon="6.50445">
        <ele>1205.5</ele>
        <time>2022-07-17T13:59:17Z</time>
      </trkpt>
      <trkpt lat="46.83784" lon="6.50452">
        <ele>1205.4</ele>
        <time>2022-07-17T13:59:21Z</time>
      </trkpt>
      <trkpt lat="46.83785" lon="6.5046">
        <ele>1205.4</ele>
        <time>2022-07-17T13:59:26Z</time>
      </trkpt>
      <trkpt lat="46.83785" lon="6.50467">
        <ele>1205.2</ele>
        <time>2022-07-17T13:59:30Z</time>
      </trkpt>
      <trkpt lat="46.83784" lon="6.50474">
        <ele>1205.1</ele>
        <time>2022-07-17T13:59:34Z</time>
      </trkpt>
      <trkpt lat="46.83783" lon="6.5048">
        <ele>1205.1</ele>
        <time>2022-07-17T13:59:38Z</time>
      </trkpt>
      <trkpt lat="46.83783" lon="6.50487">
        <ele>1204.9</ele>
        <time>2022-07-17T13:59:46Z</time>
      </trkpt>
      <trkpt lat="46.83783" lon="6.50494">
        <ele>1205.5</ele>
        <time>2022-07-17T13:59:52Z</time>
      </trkpt>
      <trkpt lat="46.8378" lon="6.50501">
        <ele>1206.2</ele>
        <time>2022-07-17T13:59:56Z</time>
      </trkpt>
      <trkpt lat="46.83777" lon="6.50508">
        <ele>1207.2</ele>
        <time>2022-07-17T14:00:00Z</time>
      </trkpt>
      <trkpt lat="46.83775" lon="6.50514">
        <ele>1208</ele>
        <time>2022-07-17T14:00:04Z</time>
      </trkpt>
      <trkpt lat="46.83774" lon="6.50521">
        <ele>1209.4</ele>
        <time>2022-07-17T14:00:09Z</time>
      </trkpt>
      <trkpt lat="46.83771" lon="6.50525">
        <ele>1210.9</ele>
        <time>2022-07-17T14:00:17Z</time>
      </trkpt>
      <trkpt lat="46.83767" lon="6.5053">
        <ele>1212.3</ele>
        <time>2022-07-17T14:00:23Z</time>
      </trkpt>
      <trkpt lat="46.83763" lon="6.50534">
        <ele>1213.6</ele>
        <time>2022-07-17T14:00:29Z</time>
      </trkpt>
      <trkpt lat="46.83758" lon="6.50533">
        <ele>1214.7</ele>
        <time>2022-07-17T14:00:36Z</time>
      </trkpt>
      <trkpt lat="46.83753" lon="6.50536">
        <ele>1215.1</ele>
        <time>2022-07-17T14:00:43Z</time>
      </trkpt>
      <trkpt lat="46.83748" lon="6.50538">
        <ele>1214.7</ele>
        <time>2022-07-17T14:00:49Z</time>
      </trkpt>
      <trkpt lat="46.83744" lon="6.50537">
        <ele>1215</ele>
        <time>2022-07-17T14:00:55Z</time>
      </trkpt>
      <trkpt lat="46.83739" lon="6.50535">
        <ele>1214.8</ele>
        <time>2022-07-17T14:01:00Z</time>
      </trkpt>
      <trkpt lat="46.83734" lon="6.50535">
        <ele>1214.4</ele>
        <time>2022-07-17T14:01:05Z</time>
      </trkpt>
      <trkpt lat="46.83729" lon="6.50535">
        <ele>1213.4</ele>
        <time>2022-07-17T14:01:10Z</time>
      </trkpt>
      <trkpt lat="46.83723" lon="6.50534">
        <ele>1212.3</ele>
        <time>2022-07-17T14:01:15Z</time>
      </trkpt>
      <trkpt lat="46.83719" lon="6.50533">
        <ele>1212.2</ele>
        <time>2022-07-17T14:01:20Z</time>
      </trkpt>
      <trkpt lat="46.83713" lon="6.50533">
        <ele>1212</ele>
        <time>2022-07-17T14:01:26Z</time>
      </trkpt>
      <trkpt lat="46.83709" lon="6.50535">
        <ele>1211.7</ele>
        <time>2022-07-17T14:01:32Z</time>
      </trkpt>
      <trkpt lat="46.83704" lon="6.5054">
        <ele>1211.9</ele>
        <time>2022-07-17T14:01:37Z</time>
      </trkpt>
      <trkpt lat="46.837" lon="6.50546">
        <ele>1212</ele>
        <time>2022-07-17T14:01:42Z</time>
      </trkpt>
      <trkpt lat="46.83697" lon="6.50551">
        <ele>1212.3</ele>
        <time>2022-07-17T14:01:46Z</time>
      </trkpt>
      <trkpt lat="46.83693" lon="6.50556">
        <ele>1212.8</ele>
        <time>2022-07-17T14:01:53Z</time>
      </trkpt>
      <trkpt lat="46.83688" lon="6.50556">
        <ele>1214.4</ele>
        <time>2022-07-17T14:02:07Z</time>
      </trkpt>
      <trkpt lat="46.83684" lon="6.5056">
        <ele>1214.6</ele>
        <time>2022-07-17T14:02:14Z</time>
      </trkpt>
      <trkpt lat="46.83681" lon="6.50565">
        <ele>1214.9</ele>
        <time>2022-07-17T14:02:21Z</time>
      </trkpt>
      <trkpt lat="46.83676" lon="6.50565">
        <ele>1215</ele>
        <time>2022-07-17T14:02:29Z</time>
      </trkpt>
      <trkpt lat="46.83671" lon="6.50564">
        <ele>1215</ele>
        <time>2022-07-17T14:02:36Z</time>
      </trkpt>
      <trkpt lat="46.83666" lon="6.50563">
        <ele>1215.2</ele>
        <time>2022-07-17T14:02:42Z</time>
      </trkpt>
      <trkpt lat="46.83661" lon="6.50563">
        <ele>1215.5</ele>
        <time>2022-07-17T14:02:47Z</time>
      </trkpt>
      <trkpt lat="46.83656" lon="6.50563">
        <ele>1216.1</ele>
        <time>2022-07-17T14:02:52Z</time>
      </trkpt>
      <trkpt lat="46.83652" lon="6.50563">
        <ele>1215.8</ele>
        <time>2022-07-17T14:02:57Z</time>
      </trkpt>
      <trkpt lat="46.83647" lon="6.50562">
        <ele>1213.9</ele>
        <time>2022-07-17T14:03:04Z</time>
      </trkpt>
      <trkpt lat="46.83643" lon="6.50559">
        <ele>1212.6</ele>
        <time>2022-07-17T14:03:10Z</time>
      </trkpt>
      <trkpt lat="46.83638" lon="6.50558">
        <ele>1211.5</ele>
        <time>2022-07-17T14:03:15Z</time>
      </trkpt>
      <trkpt lat="46.83633" lon="6.50555">
        <ele>1210.3</ele>
        <time>2022-07-17T14:03:21Z</time>
      </trkpt>
      <trkpt lat="46.83629" lon="6.50554">
        <ele>1210</ele>
        <time>2022-07-17T14:03:27Z</time>
      </trkpt>
      <trkpt lat="46.83624" lon="6.50554">
        <ele>1210.1</ele>
        <time>2022-07-17T14:03:33Z</time>
      </trkpt>
      <trkpt lat="46.83618" lon="6.50552">
        <ele>1210</ele>
        <time>2022-07-17T14:03:38Z</time>
      </trkpt>
      <trkpt lat="46.83614" lon="6.50551">
        <ele>1209.8</ele>
        <time>2022-07-17T14:03:43Z</time>
      </trkpt>
      <trkpt lat="46.83609" lon="6.50548">
        <ele>1209.3</ele>
        <time>2022-07-17T14:03:48Z</time>
      </trkpt>
      <trkpt lat="46.83605" lon="6.50544">
        <ele>1208.8</ele>
        <time>2022-07-17T14:03:53Z</time>
      </trkpt>
      <trkpt lat="46.836" lon="6.50539">
        <ele>1208.4</ele>
        <time>2022-07-17T14:03:58Z</time>
      </trkpt>
      <trkpt lat="46.83596" lon="6.50536">
        <ele>1208</ele>
        <time>2022-07-17T14:04:03Z</time>
      </trkpt>
      <trkpt lat="46.83593" lon="6.5053">
        <ele>1207.4</ele>
        <time>2022-07-17T14:04:09Z</time>
      </trkpt>
      <trkpt lat="46.8359" lon="6.50524">
        <ele>1207</ele>
        <time>2022-07-17T14:04:15Z</time>
      </trkpt>
      <trkpt lat="46.83588" lon="6.50518">
        <ele>1206.6</ele>
        <time>2022-07-17T14:04:20Z</time>
      </trkpt>
      <trkpt lat="46.83584" lon="6.50513">
        <ele>1206.3</ele>
        <time>2022-07-17T14:04:25Z</time>
      </trkpt>
      <trkpt lat="46.83581" lon="6.50507">
        <ele>1206</ele>
        <time>2022-07-17T14:04:30Z</time>
      </trkpt>
      <trkpt lat="46.83577" lon="6.50502">
        <ele>1206.2</ele>
        <time>2022-07-17T14:04:36Z</time>
      </trkpt>
      <trkpt lat="46.83573" lon="6.50498">
        <ele>1206.5</ele>
        <time>2022-07-17T14:04:44Z</time>
      </trkpt>
      <trkpt lat="46.83569" lon="6.50494">
        <ele>1206</ele>
        <time>2022-07-17T14:04:50Z</time>
      </trkpt>
      <trkpt lat="46.83565" lon="6.50489">
        <ele>1205.7</ele>
        <time>2022-07-17T14:04:56Z</time>
      </trkpt>
      <trkpt lat="46.83561" lon="6.50485">
        <ele>1205.8</ele>
        <time>2022-07-17T14:05:01Z</time>
      </trkpt>
      <trkpt lat="46.83559" lon="6.50478">
        <ele>1206.2</ele>
        <time>2022-07-17T14:05:06Z</time>
      </trkpt>
      <trkpt lat="46.83555" lon="6.50473">
        <ele>1205.8</ele>
        <time>2022-07-17T14:05:11Z</time>
      </trkpt>
      <trkpt lat="46.83551" lon="6.50471">
        <ele>1204.6</ele>
        <time>2022-07-17T14:05:18Z</time>
      </trkpt>
      <trkpt lat="46.83547" lon="6.50466">
        <ele>1203.2</ele>
        <time>2022-07-17T14:05:24Z</time>
      </trkpt>
      <trkpt lat="46.83544" lon="6.50461">
        <ele>1202.4</ele>
        <time>2022-07-17T14:05:28Z</time>
      </trkpt>
      <trkpt lat="46.8354" lon="6.50456">
        <ele>1201.5</ele>
        <time>2022-07-17T14:05:34Z</time>
      </trkpt>
      <trkpt lat="46.83537" lon="6.50451">
        <ele>1201</ele>
        <time>2022-07-17T14:05:39Z</time>
      </trkpt>
      <trkpt lat="46.83533" lon="6.50446">
        <ele>1200.7</ele>
        <time>2022-07-17T14:05:43Z</time>
      </trkpt>
      <trkpt lat="46.83529" lon="6.50442">
        <ele>1200.7</ele>
        <time>2022-07-17T14:05:46Z</time>
      </trkpt>
      <trkpt lat="46.83525" lon="6.50438">
        <ele>1200.9</ele>
        <time>2022-07-17T14:05:49Z</time>
      </trkpt>
      <trkpt lat="46.83521" lon="6.50434">
        <ele>1201.3</ele>
        <time>2022-07-17T14:05:53Z</time>
      </trkpt>
      <trkpt lat="46.83518" lon="6.50428">
        <ele>1201.2</ele>
        <time>2022-07-17T14:06:00Z</time>
      </trkpt>
      <trkpt lat="46.83513" lon="6.50425">
        <ele>1200.2</ele>
        <time>2022-07-17T14:06:07Z</time>
      </trkpt>
      <trkpt lat="46.83509" lon="6.5042">
        <ele>1200.1</ele>
        <time>2022-07-17T14:06:12Z</time>
      </trkpt>
      <trkpt lat="46.83504" lon="6.50417">
        <ele>1199.9</ele>
        <time>2022-07-17T14:06:17Z</time>
      </trkpt>
      <trkpt lat="46.835" lon="6.50414">
        <ele>1199.7</ele>
        <time>2022-07-17T14:06:22Z</time>
      </trkpt>
      <trkpt lat="46.83496" lon="6.50411">
        <ele>1199.7</ele>
        <time>2022-07-17T14:06:27Z</time>
      </trkpt>
      <trkpt lat="46.83493" lon="6.50405">
        <ele>1200.1</ele>
        <time>2022-07-17T14:06:32Z</time>
      </trkpt>
      <trkpt lat="46.8349" lon="6.504">
        <ele>1200.7</ele>
        <time>2022-07-17T14:06:37Z</time>
      </trkpt>
      <trkpt lat="46.83487" lon="6.50395">
        <ele>1201.2</ele>
        <time>2022-07-17T14:06:41Z</time>
      </trkpt>
      <trkpt lat="46.83484" lon="6.50389">
        <ele>1201.1</ele>
        <time>2022-07-17T14:06:46Z</time>
      </trkpt>
      <trkpt lat="46.8348" lon="6.50384">
        <ele>1200.4</ele>
        <time>2022-07-17T14:06:53Z</time>
      </trkpt>
      <trkpt lat="46.83476" lon="6.5038">
        <ele>1199.4</ele>
        <time>2022-07-17T14:06:59Z</time>
      </trkpt>
      <trkpt lat="46.83471" lon="6.50378">
        <ele>1198.8</ele>
        <time>2022-07-17T14:07:04Z</time>
      </trkpt>
      <trkpt lat="46.83468" lon="6.50372">
        <ele>1197.9</ele>
        <time>2022-07-17T14:07:12Z</time>
      </trkpt>
      <trkpt lat="46.83465" lon="6.50366">
        <ele>1197.8</ele>
        <time>2022-07-17T14:07:16Z</time>
      </trkpt>
      <trkpt lat="46.83461" lon="6.5036">
        <ele>1197.4</ele>
        <time>2022-07-17T14:07:21Z</time>
      </trkpt>
      <trkpt lat="46.83458" lon="6.50355">
        <ele>1196.6</ele>
        <time>2022-07-17T14:07:28Z</time>
      </trkpt>
      <trkpt lat="46.83454" lon="6.5035">
        <ele>1196.3</ele>
        <time>2022-07-17T14:07:34Z</time>
      </trkpt>
      <trkpt lat="46.8345" lon="6.50349">
        <ele>1196.3</ele>
        <time>2022-07-17T14:07:38Z</time>
      </trkpt>
      <trkpt lat="46.83444" lon="6.50348">
        <ele>1195.9</ele>
        <time>2022-07-17T14:07:44Z</time>
      </trkpt>
      <trkpt lat="46.8344" lon="6.50344">
        <ele>1196</ele>
        <time>2022-07-17T14:07:49Z</time>
      </trkpt>
      <trkpt lat="46.83437" lon="6.50339">
        <ele>1196.1</ele>
        <time>2022-07-17T14:07:53Z</time>
      </trkpt>
      <trkpt lat="46.83433" lon="6.50333">
        <ele>1196.4</ele>
        <time>2022-07-17T14:07:59Z</time>
      </trkpt>
      <trkpt lat="46.8343" lon="6.50327">
        <ele>1196.3</ele>
        <time>2022-07-17T14:08:04Z</time>
      </trkpt>
      <trkpt lat="46.83427" lon="6.50321">
        <ele>1196.2</ele>
        <time>2022-07-17T14:08:08Z</time>
      </trkpt>
      <trkpt lat="46.83425" lon="6.50315">
        <ele>1196.1</ele>
        <time>2022-07-17T14:08:12Z</time>
      </trkpt>
      <trkpt lat="46.83421" lon="6.5031">
        <ele>1196.2</ele>
        <time>2022-07-17T14:08:16Z</time>
      </trkpt>
      <trkpt lat="46.83417" lon="6.50306">
        <ele>1196.6</ele>
        <time>2022-07-17T14:08:21Z</time>
      </trkpt>
      <trkpt lat="46.83415" lon="6.503">
        <ele>1197.8</ele>
        <time>2022-07-17T14:08:31Z</time>
      </trkpt>
      <trkpt lat="46.8341" lon="6.50294">
        <ele>1197.9</ele>
        <time>2022-07-17T14:08:37Z</time>
      </trkpt>
      <trkpt lat="46.83407" lon="6.50289">
        <ele>1198.3</ele>
        <time>2022-07-17T14:08:42Z</time>
      </trkpt>
      <trkpt lat="46.83404" lon="6.50283">
        <ele>1198.3</ele>
        <time>2022-07-17T14:08:47Z</time>
      </trkpt>
      <trkpt lat="46.834" lon="6.50278">
        <ele>1197.9</ele>
        <time>2022-07-17T14:08:52Z</time>
      </trkpt>
      <trkpt lat="46.83397" lon="6.50273">
        <ele>1197</ele>
        <time>2022-07-17T14:08:59Z</time>
      </trkpt>
      <trkpt lat="46.83394" lon="6.50268">
        <ele>1194.4</ele>
        <time>2022-07-17T14:09:08Z</time>
      </trkpt>
      <trkpt lat="46.83391" lon="6.50263">
        <ele>1192.8</ele>
        <time>2022-07-17T14:09:15Z</time>
      </trkpt>
      <trkpt lat="46.83389" lon="6.50257">
        <ele>1191.9</ele>
        <time>2022-07-17T14:09:21Z</time>
      </trkpt>
      <trkpt lat="46.83386" lon="6.50251">
        <ele>1191.8</ele>
        <time>2022-07-17T14:09:26Z</time>
      </trkpt>
      <trkpt lat="46.83383" lon="6.50244">
        <ele>1192.4</ele>
        <time>2022-07-17T14:09:32Z</time>
      </trkpt>
      <trkpt lat="46.83381" lon="6.50238">
        <ele>1192.9</ele>
        <time>2022-07-17T14:09:38Z</time>
      </trkpt>
      <trkpt lat="46.83377" lon="6.50233">
        <ele>1192.6</ele>
        <time>2022-07-17T14:09:44Z</time>
      </trkpt>
      <trkpt lat="46.83373" lon="6.5023">
        <ele>1192.3</ele>
        <time>2022-07-17T14:09:49Z</time>
      </trkpt>
      <trkpt lat="46.83371" lon="6.50223">
        <ele>1192.6</ele>
        <time>2022-07-17T14:09:54Z</time>
      </trkpt>
      <trkpt lat="46.83369" lon="6.50217">
        <ele>1192.9</ele>
        <time>2022-07-17T14:09:59Z</time>
      </trkpt>
      <trkpt lat="46.83364" lon="6.50215">
        <ele>1191.5</ele>
        <time>2022-07-17T14:10:10Z</time>
      </trkpt>
      <trkpt lat="46.83361" lon="6.5021">
        <ele>1189.7</ele>
        <time>2022-07-17T14:10:21Z</time>
      </trkpt>
      <trkpt lat="46.83356" lon="6.50207">
        <ele>1189.5</ele>
        <time>2022-07-17T14:10:27Z</time>
      </trkpt>
      <trkpt lat="46.83352" lon="6.50203">
        <ele>1189.3</ele>
        <time>2022-07-17T14:10:33Z</time>
      </trkpt>
      <trkpt lat="46.83348" lon="6.50199">
        <ele>1189</ele>
        <time>2022-07-17T14:10:38Z</time>
      </trkpt>
      <trkpt lat="46.83344" lon="6.50194">
        <ele>1188.3</ele>
        <time>2022-07-17T14:10:43Z</time>
      </trkpt>
      <trkpt lat="46.83342" lon="6.50188">
        <ele>1187.1</ele>
        <time>2022-07-17T14:10:49Z</time>
      </trkpt>
      <trkpt lat="46.83338" lon="6.50184">
        <ele>1184.5</ele>
        <time>2022-07-17T14:10:56Z</time>
      </trkpt>
      <trkpt lat="46.83334" lon="6.50178">
        <ele>1182.1</ele>
        <time>2022-07-17T14:11:02Z</time>
      </trkpt>
      <trkpt lat="46.83329" lon="6.50177">
        <ele>1180.6</ele>
        <time>2022-07-17T14:11:07Z</time>
      </trkpt>
      <trkpt lat="46.83327" lon="6.50171">
        <ele>1179.5</ele>
        <time>2022-07-17T14:11:11Z</time>
      </trkpt>
      <trkpt lat="46.83322" lon="6.50166">
        <ele>1178.1</ele>
        <time>2022-07-17T14:11:16Z</time>
      </trkpt>
      <trkpt lat="46.83319" lon="6.50161">
        <ele>1176.8</ele>
        <time>2022-07-17T14:11:20Z</time>
      </trkpt>
      <trkpt lat="46.83315" lon="6.50157">
        <ele>1174.6</ele>
        <time>2022-07-17T14:11:25Z</time>
      </trkpt>
      <trkpt lat="46.83312" lon="6.50152">
        <ele>1171.2</ele>
        <time>2022-07-17T14:11:35Z</time>
      </trkpt>
      <trkpt lat="46.83309" lon="6.50146">
        <ele>1170.7</ele>
        <time>2022-07-17T14:11:40Z</time>
      </trkpt>
      <trkpt lat="46.83305" lon="6.50142">
        <ele>1169.9</ele>
        <time>2022-07-17T14:11:48Z</time>
      </trkpt>
      <trkpt lat="46.83301" lon="6.50136">
        <ele>1169.6</ele>
        <time>2022-07-17T14:11:54Z</time>
      </trkpt>
      <trkpt lat="46.83299" lon="6.5013">
        <ele>1169.6</ele>
        <time>2022-07-17T14:11:58Z</time>
      </trkpt>
      <trkpt lat="46.83297" lon="6.50124">
        <ele>1169.7</ele>
        <time>2022-07-17T14:12:02Z</time>
      </trkpt>
      <trkpt lat="46.83294" lon="6.50118">
        <ele>1170</ele>
        <time>2022-07-17T14:12:08Z</time>
      </trkpt>
      <trkpt lat="46.83291" lon="6.50113">
        <ele>1169.6</ele>
        <time>2022-07-17T14:12:13Z</time>
      </trkpt>
      <trkpt lat="46.83289" lon="6.50106">
        <ele>1169.1</ele>
        <time>2022-07-17T14:12:17Z</time>
      </trkpt>
      <trkpt lat="46.83287" lon="6.50099">
        <ele>1168.7</ele>
        <time>2022-07-17T14:12:22Z</time>
      </trkpt>
      <trkpt lat="46.83286" lon="6.50092">
        <ele>1168.7</ele>
        <time>2022-07-17T14:12:26Z</time>
      </trkpt>
      <trkpt lat="46.83284" lon="6.50086">
        <ele>1168.5</ele>
        <time>2022-07-17T14:12:30Z</time>
      </trkpt>
      <trkpt lat="46.83283" lon="6.50079">
        <ele>1168.8</ele>
        <time>2022-07-17T14:12:35Z</time>
      </trkpt>
      <trkpt lat="46.83281" lon="6.50072">
        <ele>1168.8</ele>
        <time>2022-07-17T14:12:41Z</time>
      </trkpt>
      <trkpt lat="46.8328" lon="6.50065">
        <ele>1169</ele>
        <time>2022-07-17T14:12:46Z</time>
      </trkpt>
      <trkpt lat="46.83277" lon="6.50059">
        <ele>1170</ele>
        <time>2022-07-17T14:12:52Z</time>
      </trkpt>
      <trkpt lat="46.83274" lon="6.50053">
        <ele>1170.6</ele>
        <time>2022-07-17T14:12:57Z</time>
      </trkpt>
      <trkpt lat="46.83271" lon="6.50047">
        <ele>1170.7</ele>
        <time>2022-07-17T14:13:02Z</time>
      </trkpt>
      <trkpt lat="46.83268" lon="6.50042">
        <ele>1170.2</ele>
        <time>2022-07-17T14:13:07Z</time>
      </trkpt>
      <trkpt lat="46.83266" lon="6.50036">
        <ele>1169.9</ele>
        <time>2022-07-17T14:13:12Z</time>
      </trkpt>
      <trkpt lat="46.83262" lon="6.50031">
        <ele>1169.6</ele>
        <time>2022-07-17T14:13:18Z</time>
      </trkpt>
      <trkpt lat="46.83258" lon="6.50026">
        <ele>1169</ele>
        <time>2022-07-17T14:13:25Z</time>
      </trkpt>
      <trkpt lat="46.83256" lon="6.50019">
        <ele>1168.9</ele>
        <time>2022-07-17T14:13:31Z</time>
      </trkpt>
      <trkpt lat="46.83254" lon="6.50013">
        <ele>1169</ele>
        <time>2022-07-17T14:13:35Z</time>
      </trkpt>
      <trkpt lat="46.83251" lon="6.50007">
        <ele>1169.2</ele>
        <time>2022-07-17T14:13:39Z</time>
      </trkpt>
      <trkpt lat="46.83249" lon="6.50001">
        <ele>1169.7</ele>
        <time>2022-07-17T14:13:43Z</time>
      </trkpt>
      <trkpt lat="46.83247" lon="6.49995">
        <ele>1170.7</ele>
        <time>2022-07-17T14:13:49Z</time>
      </trkpt>
      <trkpt lat="46.83245" lon="6.49988">
        <ele>1170.6</ele>
        <time>2022-07-17T14:13:54Z</time>
      </trkpt>
      <trkpt lat="46.83242" lon="6.49982">
        <ele>1170.7</ele>
        <time>2022-07-17T14:13:59Z</time>
      </trkpt>
      <trkpt lat="46.8324" lon="6.49974">
        <ele>1171.8</ele>
        <time>2022-07-17T14:14:05Z</time>
      </trkpt>
      <trkpt lat="46.83239" lon="6.49967">
        <ele>1172.7</ele>
        <time>2022-07-17T14:14:09Z</time>
      </trkpt>
      <trkpt lat="46.83241" lon="6.49961">
        <ele>1172</ele>
        <time>2022-07-17T14:14:16Z</time>
      </trkpt>
      <trkpt lat="46.8324" lon="6.49955">
        <ele>1171.3</ele>
        <time>2022-07-17T14:14:21Z</time>
      </trkpt>
      <trkpt lat="46.8324" lon="6.49947">
        <ele>1171.3</ele>
        <time>2022-07-17T14:14:27Z</time>
      </trkpt>
      <trkpt lat="46.83238" lon="6.49941">
        <ele>1170.6</ele>
        <time>2022-07-17T14:14:40Z</time>
      </trkpt>
      <trkpt lat="46.83235" lon="6.49937">
        <ele>1170.2</ele>
        <time>2022-07-17T14:14:44Z</time>
      </trkpt>
      <trkpt lat="46.83231" lon="6.49932">
        <ele>1169.8</ele>
        <time>2022-07-17T14:14:48Z</time>
      </trkpt>
      <trkpt lat="46.83228" lon="6.49925">
        <ele>1169.3</ele>
        <time>2022-07-17T14:14:53Z</time>
      </trkpt>
      <trkpt lat="46.83225" lon="6.49919">
        <ele>1169</ele>
        <time>2022-07-17T14:14:57Z</time>
      </trkpt>
      <trkpt lat="46.83222" lon="6.49915">
        <ele>1168.8</ele>
        <time>2022-07-17T14:15:01Z</time>
      </trkpt>
      <trkpt lat="46.83219" lon="6.49909">
        <ele>1169.2</ele>
        <time>2022-07-17T14:15:05Z</time>
      </trkpt>
      <trkpt lat="46.83217" lon="6.49903">
        <ele>1169.5</ele>
        <time>2022-07-17T14:15:09Z</time>
      </trkpt>
      <trkpt lat="46.83213" lon="6.49898">
        <ele>1170.8</ele>
        <time>2022-07-17T14:15:14Z</time>
      </trkpt>
      <trkpt lat="46.83209" lon="6.49894">
        <ele>1172.6</ele>
        <time>2022-07-17T14:15:22Z</time>
      </trkpt>
      <trkpt lat="46.83207" lon="6.49887">
        <ele>1172.9</ele>
        <time>2022-07-17T14:15:27Z</time>
      </trkpt>
      <trkpt lat="46.83204" lon="6.49882">
        <ele>1173.4</ele>
        <time>2022-07-17T14:15:34Z</time>
      </trkpt>
      <trkpt lat="46.83201" lon="6.49876">
        <ele>1173.4</ele>
        <time>2022-07-17T14:15:39Z</time>
      </trkpt>
      <trkpt lat="46.83198" lon="6.49871">
        <ele>1172.9</ele>
        <time>2022-07-17T14:15:45Z</time>
      </trkpt>
      <trkpt lat="46.83195" lon="6.49865">
        <ele>1172.9</ele>
        <time>2022-07-17T14:15:50Z</time>
      </trkpt>
      <trkpt lat="46.83191" lon="6.49861">
        <ele>1173.3</ele>
        <time>2022-07-17T14:15:54Z</time>
      </trkpt>
      <trkpt lat="46.83186" lon="6.49857">
        <ele>1173.3</ele>
        <time>2022-07-17T14:15:59Z</time>
      </trkpt>
      <trkpt lat="46.83182" lon="6.49854">
        <ele>1172.4</ele>
        <time>2022-07-17T14:16:07Z</time>
      </trkpt>
      <trkpt lat="46.83178" lon="6.49848">
        <ele>1172.1</ele>
        <time>2022-07-17T14:16:13Z</time>
      </trkpt>
      <trkpt lat="46.83174" lon="6.49844">
        <ele>1171.9</ele>
        <time>2022-07-17T14:16:18Z</time>
      </trkpt>
      <trkpt lat="46.8317" lon="6.4984">
        <ele>1171.7</ele>
        <time>2022-07-17T14:16:23Z</time>
      </trkpt>
      <trkpt lat="46.83167" lon="6.49835">
        <ele>1171.5</ele>
        <time>2022-07-17T14:16:28Z</time>
      </trkpt>
      <trkpt lat="46.83163" lon="6.4983">
        <ele>1170.8</ele>
        <time>2022-07-17T14:16:33Z</time>
      </trkpt>
      <trkpt lat="46.83158" lon="6.49826">
        <ele>1170.7</ele>
        <time>2022-07-17T14:16:38Z</time>
      </trkpt>
      <trkpt lat="46.83155" lon="6.49822">
        <ele>1170.9</ele>
        <time>2022-07-17T14:16:42Z</time>
      </trkpt>
      <trkpt lat="46.83151" lon="6.49817">
        <ele>1171.2</ele>
        <time>2022-07-17T14:16:47Z</time>
      </trkpt>
      <trkpt lat="46.83147" lon="6.49811">
        <ele>1171.2</ele>
        <time>2022-07-17T14:16:52Z</time>
      </trkpt>
      <trkpt lat="46.83143" lon="6.49808">
        <ele>1171.4</ele>
        <time>2022-07-17T14:16:57Z</time>
      </trkpt>
      <trkpt lat="46.83139" lon="6.49804">
        <ele>1171</ele>
        <time>2022-07-17T14:17:02Z</time>
      </trkpt>
      <trkpt lat="46.83134" lon="6.49801">
        <ele>1170.9</ele>
        <time>2022-07-17T14:17:07Z</time>
      </trkpt>
      <trkpt lat="46.83133" lon="6.49795">
        <ele>1167.4</ele>
        <time>2022-07-17T14:17:42Z</time>
      </trkpt>
      <trkpt lat="46.83129" lon="6.49791">
        <ele>1167.3</ele>
        <time>2022-07-17T14:17:47Z</time>
      </trkpt>
      <trkpt lat="46.83126" lon="6.49787">
        <ele>1167.3</ele>
        <time>2022-07-17T14:17:52Z</time>
      </trkpt>
      <trkpt lat="46.83121" lon="6.49783">
        <ele>1167.2</ele>
        <time>2022-07-17T14:17:57Z</time>
      </trkpt>
      <trkpt lat="46.83117" lon="6.49782">
        <ele>1166.9</ele>
        <time>2022-07-17T14:18:05Z</time>
      </trkpt>
      <trkpt lat="46.83113" lon="6.49776">
        <ele>1166.9</ele>
        <time>2022-07-17T14:18:13Z</time>
      </trkpt>
      <trkpt lat="46.83112" lon="6.4977">
        <ele>1166.5</ele>
        <time>2022-07-17T14:18:19Z</time>
      </trkpt>
      <trkpt lat="46.8311" lon="6.49764">
        <ele>1167.1</ele>
        <time>2022-07-17T14:18:24Z</time>
      </trkpt>
      <trkpt lat="46.83108" lon="6.49758">
        <ele>1167.6</ele>
        <time>2022-07-17T14:18:29Z</time>
      </trkpt>
      <trkpt lat="46.83103" lon="6.49754">
        <ele>1168.4</ele>
        <time>2022-07-17T14:18:37Z</time>
      </trkpt>
      <trkpt lat="46.83107" lon="6.4975">
        <ele>1171.4</ele>
        <time>2022-07-17T14:18:53Z</time>
      </trkpt>
      <trkpt lat="46.83112" lon="6.49751">
        <ele>1172.2</ele>
        <time>2022-07-17T14:19:00Z</time>
      </trkpt>
      <trkpt lat="46.83113" lon="6.49758">
        <ele>1178.9</ele>
        <time>2022-07-17T14:19:45Z</time>
      </trkpt>
      <trkpt lat="46.83108" lon="6.4976">
        <ele>1178.1</ele>
        <time>2022-07-17T14:19:54Z</time>
      </trkpt>
      <trkpt lat="46.83104" lon="6.49763">
        <ele>1177.3</ele>
        <time>2022-07-17T14:20:03Z</time>
      </trkpt>
      <trkpt lat="46.83099" lon="6.49761">
        <ele>1176.4</ele>
        <time>2022-07-17T14:20:12Z</time>
      </trkpt>
      <trkpt lat="46.83096" lon="6.49765">
        <ele>1173.4</ele>
        <time>2022-07-17T14:21:21Z</time>
      </trkpt>
      <trkpt lat="46.83091" lon="6.49766">
        <ele>1171.9</ele>
        <time>2022-07-17T14:21:26Z</time>
      </trkpt>
      <trkpt lat="46.83087" lon="6.49763">
        <ele>1169</ele>
        <time>2022-07-17T14:21:34Z</time>
      </trkpt>
      <trkpt lat="46.83084" lon="6.49756">
        <ele>1166.4</ele>
        <time>2022-07-17T14:21:50Z</time>
      </trkpt>
      <trkpt lat="46.8308" lon="6.49751">
        <ele>1165.4</ele>
        <time>2022-07-17T14:21:56Z</time>
      </trkpt>
      <trkpt lat="46.83076" lon="6.49747">
        <ele>1164.3</ele>
        <time>2022-07-17T14:22:03Z</time>
      </trkpt>
      <trkpt lat="46.83072" lon="6.49743">
        <ele>1163.6</ele>
        <time>2022-07-17T14:22:09Z</time>
      </trkpt>
      <trkpt lat="46.83068" lon="6.49737">
        <ele>1163.1</ele>
        <time>2022-07-17T14:22:14Z</time>
      </trkpt>
      <trkpt lat="46.83064" lon="6.49734">
        <ele>1162.3</ele>
        <time>2022-07-17T14:22:20Z</time>
      </trkpt>
      <trkpt lat="46.83059" lon="6.49734">
        <ele>1162.5</ele>
        <time>2022-07-17T14:22:26Z</time>
      </trkpt>
      <trkpt lat="46.83054" lon="6.49731">
        <ele>1163.7</ele>
        <time>2022-07-17T14:22:31Z</time>
      </trkpt>
      <trkpt lat="46.8305" lon="6.49728">
        <ele>1164.6</ele>
        <time>2022-07-17T14:22:36Z</time>
      </trkpt>
      <trkpt lat="46.83046" lon="6.49724">
        <ele>1164.7</ele>
        <time>2022-07-17T14:22:41Z</time>
      </trkpt>
      <trkpt lat="46.83041" lon="6.49722">
        <ele>1163.9</ele>
        <time>2022-07-17T14:22:47Z</time>
      </trkpt>
      <trkpt lat="46.83035" lon="6.49721">
        <ele>1163.2</ele>
        <time>2022-07-17T14:22:52Z</time>
      </trkpt>
      <trkpt lat="46.83031" lon="6.49719">
        <ele>1162.6</ele>
        <time>2022-07-17T14:22:56Z</time>
      </trkpt>
      <trkpt lat="46.83027" lon="6.49715">
        <ele>1162.3</ele>
        <time>2022-07-17T14:23:01Z</time>
      </trkpt>
      <trkpt lat="46.83023" lon="6.49711">
        <ele>1162</ele>
        <time>2022-07-17T14:23:08Z</time>
      </trkpt>
      <trkpt lat="46.83019" lon="6.49706">
        <ele>1161.3</ele>
        <time>2022-07-17T14:23:13Z</time>
      </trkpt>
      <trkpt lat="46.83016" lon="6.49701">
        <ele>1160.6</ele>
        <time>2022-07-17T14:23:18Z</time>
      </trkpt>
      <trkpt lat="46.83012" lon="6.49697">
        <ele>1159.8</ele>
        <time>2022-07-17T14:23:23Z</time>
      </trkpt>
      <trkpt lat="46.83009" lon="6.49691">
        <ele>1159.3</ele>
        <time>2022-07-17T14:23:28Z</time>
      </trkpt>
      <trkpt lat="46.83005" lon="6.49686">
        <ele>1158.9</ele>
        <time>2022-07-17T14:23:34Z</time>
      </trkpt>
      <trkpt lat="46.83002" lon="6.4968">
        <ele>1158.7</ele>
        <time>2022-07-17T14:23:39Z</time>
      </trkpt>
      <trkpt lat="46.82999" lon="6.49674">
        <ele>1158.6</ele>
        <time>2022-07-17T14:23:44Z</time>
      </trkpt>
      <trkpt lat="46.82996" lon="6.49669">
        <ele>1158.2</ele>
        <time>2022-07-17T14:23:49Z</time>
      </trkpt>
      <trkpt lat="46.82992" lon="6.49666">
        <ele>1158.1</ele>
        <time>2022-07-17T14:23:54Z</time>
      </trkpt>
      <trkpt lat="46.82989" lon="6.4966">
        <ele>1157.7</ele>
        <time>2022-07-17T14:24:00Z</time>
      </trkpt>
      <trkpt lat="46.82987" lon="6.49654">
        <ele>1157.3</ele>
        <time>2022-07-17T14:24:06Z</time>
      </trkpt>
      <trkpt lat="46.82985" lon="6.49648">
        <ele>1156.7</ele>
        <time>2022-07-17T14:24:11Z</time>
      </trkpt>
      <trkpt lat="46.82982" lon="6.49642">
        <ele>1156.3</ele>
        <time>2022-07-17T14:24:16Z</time>
      </trkpt>
      <trkpt lat="46.82981" lon="6.49635">
        <ele>1155.5</ele>
        <time>2022-07-17T14:24:21Z</time>
      </trkpt>
      <trkpt lat="46.82981" lon="6.49627">
        <ele>1154.2</ele>
        <time>2022-07-17T14:24:26Z</time>
      </trkpt>
      <trkpt lat="46.8298" lon="6.4962">
        <ele>1152.7</ele>
        <time>2022-07-17T14:24:31Z</time>
      </trkpt>
      <trkpt lat="46.82979" lon="6.49613">
        <ele>1151.3</ele>
        <time>2022-07-17T14:24:37Z</time>
      </trkpt>
      <trkpt lat="46.82979" lon="6.49605">
        <ele>1149.8</ele>
        <time>2022-07-17T14:24:44Z</time>
      </trkpt>
      <trkpt lat="46.82978" lon="6.49598">
        <ele>1149.2</ele>
        <time>2022-07-17T14:24:50Z</time>
      </trkpt>
      <trkpt lat="46.82976" lon="6.49591">
        <ele>1148.7</ele>
        <time>2022-07-17T14:24:55Z</time>
      </trkpt>
      <trkpt lat="46.82976" lon="6.49583">
        <ele>1148.6</ele>
        <time>2022-07-17T14:25:00Z</time>
      </trkpt>
      <trkpt lat="46.82975" lon="6.49577">
        <ele>1148.4</ele>
        <time>2022-07-17T14:25:04Z</time>
      </trkpt>
      <trkpt lat="46.82973" lon="6.4957">
        <ele>1148</ele>
        <time>2022-07-17T14:25:09Z</time>
      </trkpt>
      <trkpt lat="46.82971" lon="6.49563">
        <ele>1147.6</ele>
        <time>2022-07-17T14:25:14Z</time>
      </trkpt>
      <trkpt lat="46.82969" lon="6.49556">
        <ele>1147.3</ele>
        <time>2022-07-17T14:25:20Z</time>
      </trkpt>
      <trkpt lat="46.82969" lon="6.49549">
        <ele>1146.6</ele>
        <time>2022-07-17T14:25:25Z</time>
      </trkpt>
      <trkpt lat="46.82967" lon="6.49543">
        <ele>1145.9</ele>
        <time>2022-07-17T14:25:31Z</time>
      </trkpt>
      <trkpt lat="46.82962" lon="6.49541">
        <ele>1148</ele>
        <time>2022-07-17T14:25:52Z</time>
      </trkpt>
      <trkpt lat="46.82957" lon="6.49537">
        <ele>1149.2</ele>
        <time>2022-07-17T14:25:56Z</time>
      </trkpt>
      <trkpt lat="46.82953" lon="6.49535">
        <ele>1150.6</ele>
        <time>2022-07-17T14:26:01Z</time>
      </trkpt>
      <trkpt lat="46.82951" lon="6.49528">
        <ele>1152.3</ele>
        <time>2022-07-17T14:26:21Z</time>
      </trkpt>
      <trkpt lat="46.82953" lon="6.49521">
        <ele>1152.2</ele>
        <time>2022-07-17T14:26:26Z</time>
      </trkpt>
      <trkpt lat="46.82958" lon="6.4952">
        <ele>1152.2</ele>
        <time>2022-07-17T14:26:33Z</time>
      </trkpt>
      <trkpt lat="46.82961" lon="6.49527">
        <ele>1153.3</ele>
        <time>2022-07-17T14:26:42Z</time>
      </trkpt>
      <trkpt lat="46.82965" lon="6.49523">
        <ele>1153.8</ele>
        <time>2022-07-17T14:28:00Z</time>
      </trkpt>
      <trkpt lat="46.82965" lon="6.49515">
        <ele>1152.2</ele>
        <time>2022-07-17T14:28:05Z</time>
      </trkpt>
      <trkpt lat="46.82967" lon="6.49509">
        <ele>1151.1</ele>
        <time>2022-07-17T14:28:11Z</time>
      </trkpt>
      <trkpt lat="46.82971" lon="6.49505">
        <ele>1150.5</ele>
        <time>2022-07-17T14:28:16Z</time>
      </trkpt>
      <trkpt lat="46.82975" lon="6.49501">
        <ele>1150</ele>
        <time>2022-07-17T14:28:23Z</time>
      </trkpt>
      <trkpt lat="46.82979" lon="6.49496">
        <ele>1149.9</ele>
        <time>2022-07-17T14:28:27Z</time>
      </trkpt>
      <trkpt lat="46.82982" lon="6.49491">
        <ele>1150</ele>
        <time>2022-07-17T14:28:33Z</time>
      </trkpt>
      <trkpt lat="46.82983" lon="6.49484">
        <ele>1150.9</ele>
        <time>2022-07-17T14:28:51Z</time>
      </trkpt>
      <trkpt lat="46.82984" lon="6.49477">
        <ele>1151.4</ele>
        <time>2022-07-17T14:28:57Z</time>
      </trkpt>
      <trkpt lat="46.82981" lon="6.49483">
        <ele>1153.1</ele>
        <time>2022-07-17T14:29:21Z</time>
      </trkpt>
      <trkpt lat="46.82979" lon="6.49489">
        <ele>1153.7</ele>
        <time>2022-07-17T14:29:25Z</time>
      </trkpt>
      <trkpt lat="46.82976" lon="6.49494">
        <ele>1154.1</ele>
        <time>2022-07-17T14:29:30Z</time>
      </trkpt>
      <trkpt lat="46.82974" lon="6.495">
        <ele>1154.2</ele>
        <time>2022-07-17T14:29:40Z</time>
      </trkpt>
      <trkpt lat="46.82969" lon="6.49505">
        <ele>1154.6</ele>
        <time>2022-07-17T14:30:02Z</time>
      </trkpt>
      <trkpt lat="46.82969" lon="6.49513">
        <ele>1154.2</ele>
        <time>2022-07-17T14:30:07Z</time>
      </trkpt>
      <trkpt lat="46.82968" lon="6.4952">
        <ele>1153.5</ele>
        <time>2022-07-17T14:30:14Z</time>
      </trkpt>
      <trkpt lat="46.82966" lon="6.49526">
        <ele>1154.8</ele>
        <time>2022-07-17T14:30:21Z</time>
      </trkpt>
    </trkseg>
  </trk>
</gpx>